# Wetter Temperatur Luftdruck Luftfeuchtigkeit Sichtweite Windgeschwindigkeit Windrichtung Zeit
1 Clouds 22 1017 83 10000 8.7 190 09:58 29.01.2020
2 Clouds 22 1017 83 10000 8.7 190 09:39 29.01.2020
3 Clouds 22 1017 83 10000 8.7 190 09:18 29.01.2020
4 Clouds 21 1017 83 10000 7.7 180 08:44 29.01.2020
5 Clouds 21 1017 83 10000 7.2 180 08:24 29.01.2020
6 Clouds 21 1017 93 10000 5.7 180 07:45 29.01.2020
7 Clouds 20 1017 93 10000 5.7 180 07:26 29.01.2020
8 Clouds 19 1016 100 10000 6.2 180 06:56 29.01.2020
9 Clouds 19 1016 100 10000 6.2 180 06:56 29.01.2020
10 Clouds 19 1016 100 10000 6.2 180 06:37 29.01.2020
11 Clouds 19 1016 100 10000 6.2 180 06:19 29.01.2020
12 Clouds 19 1016 100 10000 5.1 180 05:50 29.01.2020
13 Drizzle 19 1016 100 4000 4.6 190 05:31 29.01.2020
14 Clouds 19 1015 100 10000 3.6 180 04:38 29.01.2020
15 Clouds 19 1015 100 10000 3.6 180 03:59 29.01.2020
16 Drizzle 19 1016 100 6000 3.1 150 02:34 29.01.2020
17 Clouds 19 1016 93 10000 3.6 160 01:18 29.01.2020
18 Clouds 19 1016 100 10000 3.6 150 00:38 29.01.2020
19 Clouds 19 1016 100 10000 3.6 150 00:20 29.01.2020
20 Clouds 20 1017 93 10000 4.1 160 23:39 28.01.2020
21 Clouds 20 1017 93 10000 4.1 160 23:19 28.01.2020
22 Clouds 20 1017 88 10000 4.1 150 22:49 28.01.2020
23 Clouds 20 1017 88 10000 4.1 150 22:27 28.01.2020
24 Clouds 20 1017 88 10000 3.1 150 21:57 28.01.2020
25 Clouds 20 1017 88 10000 3.1 150 21:38 28.01.2020
26 Clouds 19 1017 88 10000 3.1 150 21:19 28.01.2020
27 Clouds 20 1016 82 10000 5.7 190 20:46 28.01.2020
28 Clouds 20 1016 82 10000 5.7 190 20:26 28.01.2020
29 Clouds 20 1016 77 10000 6.7 170 19:56 28.01.2020
30 Clouds 20 1016 77 10000 6.7 170 19:37 28.01.2020
31 Clouds 21 1016 77 10000 6.7 170 19:19 28.01.2020
32 Clear 21 1016 64 10000 7.7 180 18:54 28.01.2020
33 Clear 21 1016 64 10000 7.7 180 18:36 28.01.2020
34 Clear 21 1016 64 10000 7.7 180 18:18 28.01.2020
35 Clear 23 1015 57 10000 7.2 180 17:54 28.01.2020
36 Clear 23 1015 57 10000 7.2 180 17:36 28.01.2020
37 Clear 24 1015 57 10000 7.2 180 17:18 28.01.2020
38 Clear 23 1015 53 10000 6.7 160 16:44 28.01.2020
39 Clear 23 1015 53 10000 6.7 160 16:25 28.01.2020
40 Clear 24 1015 50 10000 4.6 150 15:57 28.01.2020
41 Clear 24 1015 50 10000 4.6 150 15:38 28.01.2020
42 Clear 24 1015 50 10000 4.6 150 15:18 28.01.2020
43 Clear 24 1016 50 10000 4.1 170 14:44 28.01.2020
44 Clear 25 1016 50 10000 4.1 170 14:20 28.01.2020
45 Clear 25 1016 47 10000 4.1 190 13:43 28.01.2020
46 Clear 25 1016 47 10000 4.1 190 13:24 28.01.2020
47 Clear 24 1016 47 10000 4.1 0 12:46 28.01.2020
48 Clear 24 1016 47 10000 4.1 0 12:25 28.01.2020
49 Clear 23 1017 53 10000 2.1 0 11:59 28.01.2020
50 Clear 23 1017 53 10000 2.1 0 11:41 28.01.2020
51 Clear 23 1017 53 10000 2.1 0 11:22 28.01.2020
52 Clear 22 1017 56 10000 3.6 190 10:55 28.01.2020
53 Clear 22 1017 56 10000 3.6 190 10:36 28.01.2020
54 Clear 22 1017 56 10000 3.6 190 10:18 28.01.2020
55 Clear 22 1017 60 10000 3.1 160 09:41 28.01.2020
56 Clear 22 1017 60 10000 3.1 160 09:20 28.01.2020
57 Clear 21 1018 68 10000 2.6 170 08:46 28.01.2020
58 Clear 21 1018 68 10000 2.6 170 08:26 28.01.2020
59 Clouds 20 1018 77 10000 3.1 190 07:56 28.01.2020
60 Clouds 20 1018 77 10000 3.1 190 07:34 28.01.2020
61 Clouds 17 1018 93 10000 2.1 170 06:48 28.01.2020
62 Clouds 17 1018 93 10000 2.1 170 06:25 28.01.2020
63 Clouds 16 1017 87 10000 1.5 180 05:40 28.01.2020
64 Clouds 15 1017 87 10000 1.5 180 05:21 28.01.2020
65 Clouds 15 1018 93 10000 3.1 180 03:50 28.01.2020
66 Clouds 15 1018 87 10000 4.1 180 02:49 28.01.2020
67 Clouds 15 1018 87 10000 4.1 180 02:25 28.01.2020
68 Clouds 16 1018 82 10000 3.1 190 01:56 28.01.2020
69 Clouds 16 1018 82 10000 3.1 190 01:22 28.01.2020
70 Clouds 16 1019 77 10000 4.1 190 00:45 28.01.2020
71 Clouds 16 1019 77 10000 4.1 190 00:23 28.01.2020
72 Clouds 16 1019 72 10000 5.7 190 23:44 27.01.2020
73 Clouds 16 1019 72 10000 5.7 190 23:20 27.01.2020
74 Clouds 16 1020 67 10000 5.1 190 22:45 27.01.2020
75 Clouds 17 1020 67 10000 5.1 190 22:20 27.01.2020
76 Clouds 17 1020 67 10000 5.1 190 22:20 27.01.2020
77 Clouds 17 1020 72 10000 6.7 190 21:58 27.01.2020
78 Clouds 17 1020 72 10000 6.7 190 21:39 27.01.2020
79 Clouds 17 1020 72 10000 6.7 190 21:19 27.01.2020
80 Clouds 17 1020 72 10000 6.7 190 21:19 27.01.2020
81 Clouds 17 1020 72 10000 6.7 190 21:19 27.01.2020
82 Clouds 17 1019 67 10000 5.7 190 20:57 27.01.2020
83 Clouds 17 1019 67 10000 5.7 190 20:38 27.01.2020
84 Clouds 17 1019 67 10000 5.7 190 20:20 27.01.2020
85 Clouds 17 1019 67 10000 5.7 190 20:20 27.01.2020
86 Clouds 18 1019 59 10000 7.2 190 19:57 27.01.2020
87 Clouds 18 1019 59 10000 7.2 190 19:39 27.01.2020
88 Clouds 18 1019 59 10000 7.2 190 19:21 27.01.2020
89 Clouds 19 1019 55 10000 8.7 190 18:40 27.01.2020
90 Clouds 19 1019 55 10000 8.7 190 18:40 27.01.2020
91 -273 0 0 0 0 0 18:22 27.01.2020
92 Clouds 20 1019 52 10000 9.3 190 17:58 27.01.2020
93 Clouds 20 1019 52 10000 9.3 190 17:39 27.01.2020
94 Clouds 20 1019 52 10000 9.3 190 17:39 27.01.2020
95 Clouds 20 1019 52 10000 9.3 190 17:19 27.01.2020
96 Clouds 21 1020 52 10000 8.7 170 16:56 27.01.2020
97 Clouds 21 1020 52 10000 8.7 170 16:37 27.01.2020
98 Clouds 21 1020 52 10000 8.7 170 16:19 27.01.2020
99 Clouds 22 1020 46 10000 8.7 180 15:42 27.01.2020
100 Clouds 22 1020 46 10000 8.7 180 15:20 27.01.2020
101 Clouds 22 1021 46 10000 8.2 170 14:59 27.01.2020
102 Clouds 22 1021 46 10000 8.2 170 14:40 27.01.2020
103 Clouds 22 1021 46 10000 8.2 170 14:21 27.01.2020
104 Clouds 21 1021 43 10000 7.7 190 13:46 27.01.2020
105 Clouds 21 1021 43 10000 7.7 190 13:24 27.01.2020
106 Clouds 22 1022 40 10000 8.2 190 12:58 27.01.2020
107 Clouds 23 1022 40 10000 8.2 190 12:39 27.01.2020
108 Clouds 22 1022 40 10000 8.2 190 12:21 27.01.2020
109 Clouds 22 1023 43 10000 7.7 190 11:43 27.01.2020
110 Clouds 23 1023 43 10000 7.7 190 11:22 27.01.2020
111 Clouds 21 1023 52 10000 7.7 190 10:57 27.01.2020
112 Clouds 21 1023 52 10000 7.7 190 10:39 27.01.2020
113 Clouds 21 1023 52 10000 7.7 190 10:20 27.01.2020
114 Clouds 21 1023 49 10000 6.2 190 09:40 27.01.2020
115 Clouds 20 1023 49 10000 6.2 190 09:19 27.01.2020
116 Clouds 20 1024 59 10000 6.2 180 08:57 27.01.2020
117 Clouds 20 1024 59 10000 6.2 180 08:39 27.01.2020
118 Clouds 19 1024 59 10000 6.2 180 08:19 27.01.2020
119 Clouds 18 1024 72 10000 5.1 160 07:47 27.01.2020
120 Clouds 18 1024 72 10000 5.1 160 07:29 27.01.2020
121 Clouds 17 1024 77 10000 3.1 180 06:38 27.01.2020
122 Clouds 15 1024 82 10000 2.6 200 05:46 27.01.2020
123 Clouds 14 1024 87 10000 3.1 190 04:37 27.01.2020
124 Clouds 14 1023 87 10000 2.6 150 03:35 27.01.2020
125 Clouds 15 1024 87 10000 3.1 170 01:56 27.01.2020
126 Clouds 15 1024 87 10000 3.1 170 01:27 27.01.2020
127 Clouds 16 1025 77 10000 1.5 0 00:42 27.01.2020
128 Clouds 16 1025 77 10000 1.5 0 00:22 27.01.2020
129 Clouds 17 1024 67 10000 4.6 190 23:44 26.01.2020
130 Clouds 16 1024 67 10000 4.6 190 23:26 26.01.2020
131 Clouds 16 1024 72 10000 3.1 180 22:59 26.01.2020
132 Clouds 16 1024 72 10000 3.1 180 22:39 26.01.2020
133 Clouds 16 1024 72 10000 3.1 180 22:20 26.01.2020
134 Clouds 16 1024 72 10000 3.1 170 21:58 26.01.2020
135 Clouds 16 1024 72 10000 3.1 170 21:39 26.01.2020
136 Clouds 16 1024 72 10000 3.1 170 21:21 26.01.2020
137 Clouds 17 1023 63 10000 3.6 160 20:58 26.01.2020
138 Clouds 17 1023 63 10000 3.6 160 20:38 26.01.2020
139 Clouds 17 1023 63 10000 3.6 160 20:19 26.01.2020
140 Clouds 17 1022 63 10000 5.1 170 19:59 26.01.2020
141 Clouds 17 1022 63 10000 5.1 170 19:38 26.01.2020
142 Clouds 18 1022 63 10000 5.1 170 19:20 26.01.2020
143 Clouds 19 1022 52 10000 7.7 180 18:56 26.01.2020
144 Clouds 19 1022 52 10000 7.7 180 18:38 26.01.2020
145 Clouds 19 1022 52 10000 7.7 180 18:20 26.01.2020
146 Clouds 20 1021 42 10000 7.2 180 17:55 26.01.2020
147 Clouds 20 1021 42 10000 7.2 180 17:37 26.01.2020
148 Clouds 20 1021 42 10000 7.2 180 17:18 26.01.2020
149 Clouds 20 1021 49 10000 8.7 180 16:56 26.01.2020
150 Clouds 21 1021 49 10000 8.7 180 16:38 26.01.2020
151 Clouds 21 1021 49 10000 8.7 180 16:18 26.01.2020
152 Clouds 22 1020 37 10000 7.7 180 15:43 26.01.2020
153 Clouds 22 1019 43 10000 6.7 180 15:21 26.01.2020
154 Clouds 21 1019 43 10000 6.7 180 14:58 26.01.2020
155 Clouds 21 1019 43 10000 6.7 180 14:38 26.01.2020
156 Clouds 22 1019 40 10000 8.2 200 14:19 26.01.2020
157 Clouds 22 1019 40 10000 8.2 200 14:19 26.01.2020
158 Clouds 22 1019 40 10000 8.2 200 13:40 26.01.2020
159 Clouds 22 1019 40 10000 8.2 200 13:19 26.01.2020
160 Clouds 21 1019 49 10000 7.2 200 12:56 26.01.2020
161 Clouds 21 1019 49 10000 7.2 200 12:37 26.01.2020
162 Clouds 21 1019 49 10000 7.2 200 12:19 26.01.2020
163 Clouds 21 1019 49 10000 8.2 200 11:57 26.01.2020
164 Clouds 20 1019 49 10000 8.2 200 11:36 26.01.2020
165 Clouds 20 1019 49 10000 8.2 200 11:18 26.01.2020
166 Clouds 20 1019 49 10000 8.2 200 11:18 26.01.2020
167 Clouds 20 1018 52 10000 8.7 220 10:55 26.01.2020
168 Clouds 20 1018 52 10000 8.7 220 10:37 26.01.2020
169 Clouds 20 1018 52 10000 8.7 220 10:19 26.01.2020
170 Clouds 20 1018 52 10000 8.7 220 10:19 26.01.2020
171 Clouds 20 1017 49 10000 7.2 220 09:42 26.01.2020
172 Clouds 20 1017 49 10000 7.2 220 09:23 26.01.2020
173 Clouds 20 1017 59 10000 4.1 230 08:59 26.01.2020
174 Clouds 19 1017 59 10000 4.1 230 08:41 26.01.2020
175 Clouds 18 1017 59 10000 4.1 230 08:21 26.01.2020
176 Clouds 18 1016 67 10000 4.1 260 07:50 26.01.2020
177 Clouds 17 1016 67 10000 4.1 260 07:27 26.01.2020
178 Clouds 17 1015 67 10000 4.1 260 06:51 26.01.2020
179 Clouds 16 1015 67 10000 4.1 260 06:23 26.01.2020
180 Clouds 15 1013 87 10000 2.6 320 05:28 26.01.2020
181 Rain 15 1012 87 8000 1 0 03:57 26.01.2020
182 Rain 15 1012 93 8000 4.1 240 02:38 26.01.2020
183 Rain 16 1012 88 10000 5.1 250 01:45 26.01.2020
184 Rain 16 1012 88 10000 5.1 250 01:23 26.01.2020
185 Clouds 17 1011 82 10000 5.7 320 00:43 26.01.2020
186 Clouds 18 1011 82 10000 5.7 320 00:25 26.01.2020
187 Clouds 18 1011 88 10000 7.2 320 23:40 25.01.2020
188 Clouds 17 1011 88 10000 4.1 310 23:21 25.01.2020
189 Clouds 17 1011 88 10000 4.1 310 22:56 25.01.2020
190 Clouds 17 1011 88 10000 4.1 310 22:56 25.01.2020
191 Clouds 17 1011 88 10000 4.1 310 22:37 25.01.2020
192 Clouds 17 1011 88 10000 4.1 310 22:37 25.01.2020
193 Clouds 18 1010 88 0 1.34 293 22:18 25.01.2020
194 Clouds 18 1019 91 0 1.34 168 21:55 25.01.2020
195 Clouds 19 1011 77 0 3.85 309 21:37 25.01.2020
196 Clouds 19 1011 93 10000 4.6 320 21:19 25.01.2020
197 Clouds 19 1011 93 10000 4.6 320 20:43 25.01.2020
198 Clouds 20 1010 76 0 4.41 279 20:24 25.01.2020
199 Clouds 20 1010 76 0 4.41 279 19:48 25.01.2020
200 Clouds 20 1010 77 0 4.47 330 19:20 25.01.2020
201 Clouds 20 1007 74 0 0.45 295 19:20 25.01.2020
202 Clouds 20 1010 77 0 4.47 330 18:59 25.01.2020
203 Clouds 20 1010 77 0 4.47 330 18:41 25.01.2020
204 Clouds 20 1010 82 10000 3.6 310 18:21 25.01.2020
205 Clouds 20 1010 82 10000 3.6 310 17:56 25.01.2020
206 Clouds 20 1006 70 0 0.45 8 17:37 25.01.2020
207 Clouds 20 1017 81 0 1.34 353 17:18 25.01.2020
208 Clouds 20 1010 82 10000 6.7 310 16:42 25.01.2020
209 Clouds 20 1010 82 10000 6.7 310 16:42 25.01.2020
210 Clouds 20 1010 82 10000 6.7 310 16:23 25.01.2020
211 Clouds 20 1010 77 10000 9.3 310 15:56 25.01.2020
212 Clouds 21 1010 77 10000 9.3 310 15:38 25.01.2020
213 Clouds 22 1010 64 10000 10.3 310 15:19 25.01.2020
214 Clouds 23 1010 64 10000 10.3 310 14:42 25.01.2020
215 Clouds 24 1010 64 10000 10.3 310 14:19 25.01.2020
216 Clouds 24 1010 64 10000 9.8 320 13:45 25.01.2020
217 Clouds 24 1010 64 10000 9.8 320 13:26 25.01.2020
218 Clouds 25 1011 60 0 9.39 320 12:57 25.01.2020
219 Clouds 24 1011 60 0 9.39 320 12:37 25.01.2020
220 Clouds 23 1011 60 10000 9.8 310 12:19 25.01.2020
221 Clouds 23 1011 60 10000 9.8 310 11:40 25.01.2020
222 Clouds 23 1011 60 10000 9.8 310 11:19 25.01.2020
223 Clouds 22 1011 68 10000 5.7 320 10:55 25.01.2020
224 Clouds 22 1011 68 10000 5.7 320 10:37 25.01.2020
225 Clouds 22 1011 68 10000 5.7 320 10:18 25.01.2020
226 Clouds 21 1011 77 10000 4.1 320 09:40 25.01.2020
227 Clouds 21 1011 77 10000 4.1 320 09:19 25.01.2020
228 Clouds 20 1011 82 10000 4.6 320 08:42 25.01.2020
229 Clouds 19 1011 88 10000 4.1 320 07:57 25.01.2020
230 Clouds 19 1011 88 10000 4.6 320 07:28 25.01.2020
231 Clouds 18 1011 93 10000 2.6 330 06:33 25.01.2020
232 Clouds 18 1011 93 10000 2.6 330 06:33 25.01.2020
233 Clouds 17 1011 100 10000 2.1 10 05:57 25.01.2020
234 Clouds 17 1011 100 10000 2.1 10 05:38 25.01.2020
235 Clouds 17 1011 100 10000 2.1 10 05:38 25.01.2020
236 Clouds 16 1010 93 10000 3.1 330 04:19 25.01.2020
237 Clouds 16 1011 100 10000 2.1 320 03:49 25.01.2020
238 Clouds 17 1011 93 10000 2.6 310 02:37 25.01.2020
239 Clouds 18 1011 88 10000 1 270 01:57 25.01.2020
240 Clouds 18 1011 88 10000 1 270 01:23 25.01.2020
241 Clouds 17 1012 93 10000 2.1 340 00:39 25.01.2020
242 Clouds 17 1012 93 10000 2.1 340 00:18 25.01.2020
243 Clouds 18 1012 93 10000 2.6 230 23:42 24.01.2020
244 Clouds 18 1012 93 10000 2.6 230 23:42 24.01.2020
245 Clouds 18 1012 93 10000 2.6 230 23:24 24.01.2020
246 Clouds 18 1012 100 10000 4.1 240 22:46 24.01.2020
247 Clouds 18 1012 100 10000 4.1 240 22:46 24.01.2020
248 Clouds 18 1012 100 10000 4.1 240 22:28 24.01.2020
249 Clouds 19 1011 93 10000 5.1 240 21:58 24.01.2020
250 Clouds 19 1011 93 10000 5.1 240 21:40 24.01.2020
251 Clouds 19 1011 93 10000 5.1 240 21:19 24.01.2020
252 Clouds 20 1011 88 10000 6.2 240 20:43 24.01.2020
253 Clouds 20 1011 88 10000 6.2 240 20:22 24.01.2020
254 Clouds 20 1010 88 10000 5.7 230 19:58 24.01.2020
255 Clouds 20 1010 88 10000 5.7 230 19:58 24.01.2020
256 Clouds 20 1010 88 10000 5.7 230 19:40 24.01.2020
257 Clouds 20 1010 88 10000 5.7 230 19:22 24.01.2020
258 Clouds 20 1010 88 10000 5.7 230 19:22 24.01.2020
259 Clear 20 1010 77 10000 6.7 230 18:56 24.01.2020
260 Clear 21 1010 77 10000 6.7 230 18:37 24.01.2020
261 Clear 21 1010 77 10000 6.7 230 18:19 24.01.2020
262 Clear 22 1010 69 10000 6.7 220 17:42 24.01.2020
263 Clear 23 1010 69 10000 6.7 220 17:21 24.01.2020
264 Clear 25 1010 61 10000 7.2 210 16:45 24.01.2020
265 Clear 26 1010 61 10000 7.2 210 16:22 24.01.2020
266 Clear 26 1010 57 10000 6.7 220 15:57 24.01.2020
267 Clear 26 1010 57 10000 6.7 220 15:39 24.01.2020
268 Clear 26 1010 57 10000 6.7 220 15:20 24.01.2020
269 Clear 26 1010 51 10000 6.7 220 14:41 24.01.2020
270 Clear 27 1010 51 10000 6.7 220 14:23 24.01.2020
271 Clear 27 1011 45 10000 5.1 210 13:57 24.01.2020
272 Clear 27 1011 45 10000 5.1 210 13:39 24.01.2020
273 Clear 27 1011 45 10000 5.1 210 13:19 24.01.2020
274 Clear 26 1011 47 10000 4.1 200 12:41 24.01.2020
275 Clear 27 1011 47 10000 4.1 200 12:18 24.01.2020
276 Clear 26 1011 47 10000 3.1 0 11:43 24.01.2020
277 Clear 27 1011 47 10000 3.1 0 11:19 24.01.2020
278 Clear 25 1011 50 10000 4.1 310 10:43 24.01.2020
279 Clear 24 1011 50 10000 4.1 310 10:22 24.01.2020
280 Clear 25 1011 50 10000 2.1 190 09:57 24.01.2020
281 Clear 25 1011 50 10000 2.1 190 09:39 24.01.2020
282 Clear 25 1011 50 10000 2.1 190 09:39 24.01.2020
283 Clear 25 1011 50 10000 2.1 190 09:21 24.01.2020
284 Clear 23 1010 53 10000 3.1 190 08:40 24.01.2020
285 Clear 23 1010 53 10000 3.1 190 08:20 24.01.2020
286 Clear 22 1010 64 10000 4.6 150 07:51 24.01.2020
287 Clear 22 1010 64 10000 4.6 150 07:32 24.01.2020
288 Clear 21 1009 72 10000 3.1 180 06:48 24.01.2020
289 Clear 20 1009 72 10000 3.1 180 06:29 24.01.2020
290 Clear 19 1008 77 10000 5.7 170 05:58 24.01.2020
291 Clear 19 1008 77 10000 6.2 180 04:57 24.01.2020
292 Clear 19 1008 68 10000 4.6 190 02:53 24.01.2020
293 Clear 20 1008 68 10000 4.6 190 02:25 24.01.2020
294 Clear 19 1009 72 10000 4.6 190 01:45 24.01.2020
295 Clear 19 1009 72 10000 4.6 190 01:26 24.01.2020
296 Clear 20 1009 68 10000 8.7 190 00:25 24.01.2020
297 Clear 20 1009 68 10000 3.1 180 23:49 23.01.2020
298 Clear 20 1009 68 10000 3.1 180 23:31 23.01.2020
299 Clear 21 1009 64 10000 2.1 210 22:59 23.01.2020
300 Clear 21 1009 64 10000 2.1 210 22:38 23.01.2020
301 Clear 21 1009 64 10000 2.1 210 22:19 23.01.2020
302 Clear 21 1009 56 10000 3.6 200 21:57 23.01.2020
303 Clear 21 1009 56 10000 3.6 200 21:39 23.01.2020
304 Clear 22 1009 56 10000 3.6 200 21:20 23.01.2020
305 Clear 22 1009 56 10000 1.5 0 20:58 23.01.2020
306 Clear 22 1009 56 10000 1.5 0 20:38 23.01.2020
307 Clear 22 1009 56 10000 1.5 0 20:38 23.01.2020
308 Clear 22 1009 56 10000 1.5 0 20:19 23.01.2020
309 Clear 22 1009 56 10000 1.5 0 20:19 23.01.2020
310 Clear 23 1008 53 10000 5.1 140 19:56 23.01.2020
311 Clear 23 1008 53 10000 5.1 140 19:38 23.01.2020
312 Clear 24 1008 53 10000 5.1 140 19:19 23.01.2020
313 Clear 25 1008 47 10000 7.7 140 18:42 23.01.2020
314 Clear 26 1008 47 10000 7.7 140 18:21 23.01.2020
315 Clear 26 1008 47 10000 7.7 140 18:21 23.01.2020
316 Clear 27 1008 39 10000 7.7 140 17:58 23.01.2020
317 Clear 27 1008 39 10000 7.7 140 17:40 23.01.2020
318 Clear 28 1008 39 10000 7.7 140 17:20 23.01.2020
319 Clear 28 1009 35 10000 7.7 140 16:56 23.01.2020
320 Clear 28 1009 35 10000 7.7 140 16:37 23.01.2020
321 Clear 28 1009 35 10000 7.7 140 16:18 23.01.2020
322 Clear 28 1009 35 10000 8.2 140 15:55 23.01.2020
323 Clear 28 1009 35 10000 8.2 140 15:37 23.01.2020
324 Clear 29 1009 35 10000 8.2 140 15:18 23.01.2020
325 Clear 28 1010 35 10000 9.3 140 14:55 23.01.2020
326 Clear 28 1010 35 10000 9.3 140 14:37 23.01.2020
327 Clear 28 1010 35 10000 9.3 140 14:19 23.01.2020
328 Clear 28 1011 35 10000 8.7 140 13:40 23.01.2020
329 Clear 29 1011 35 10000 8.7 140 13:20 23.01.2020
330 Clear 29 1011 32 10000 6.7 150 12:47 23.01.2020
331 Clear 29 1011 32 10000 6.7 150 12:25 23.01.2020
332 Clear 28 1012 34 10000 5.7 140 11:59 23.01.2020
333 Clear 28 1012 34 10000 5.7 140 11:39 23.01.2020
334 Clear 28 1012 34 10000 5.7 140 11:20 23.01.2020
335 Clear 27 1012 34 10000 5.7 140 10:45 23.01.2020
336 Clear 27 1012 34 10000 5.7 140 10:23 23.01.2020
337 Clear 26 1012 39 10000 5.1 150 09:59 23.01.2020
338 Clear 27 1012 39 10000 5.1 150 09:39 23.01.2020
339 Clear 26 1012 39 10000 5.1 150 09:20 23.01.2020
340 Clear 25 1012 44 10000 4.6 140 08:43 23.01.2020
341 Clear 24 1012 44 10000 4.6 140 08:24 23.01.2020
342 Clouds 23 1012 49 10000 2.1 140 07:49 23.01.2020
343 Clouds 22 1012 49 10000 2.1 140 07:27 23.01.2020
344 Clear 21 1012 60 10000 0.5 0 06:54 23.01.2020
345 Clear 20 1012 60 10000 0.5 0 06:24 23.01.2020
346 Clear 19 1011 72 10000 2.6 130 05:58 23.01.2020
347 Clear 18 1011 63 10000 3.6 150 04:24 23.01.2020
348 Clear 18 1011 63 10000 3.6 150 04:24 23.01.2020
349 Clear 19 1011 59 10000 3.6 150 02:45 23.01.2020
350 Clear 19 1011 59 10000 3.1 140 01:50 23.01.2020
351 Clear 19 1011 59 10000 3.6 140 00:29 23.01.2020
352 Clear 19 1012 59 10000 6.2 150 23:57 22.01.2020
353 Clear 19 1012 59 10000 6.2 150 23:38 22.01.2020
354 Clear 19 1012 59 10000 6.2 150 23:20 22.01.2020
355 Clear 20 1012 49 10000 5.7 140 22:42 22.01.2020
356 Clear 20 1012 49 10000 5.7 140 22:23 22.01.2020
357 Clear 20 1012 60 10000 6.2 140 21:56 22.01.2020
358 Clear 20 1012 60 10000 6.2 140 21:36 22.01.2020
359 Clear 20 1012 60 10000 6.2 140 21:18 22.01.2020
360 Clear 21 1012 68 10000 7.7 140 20:41 22.01.2020
361 Clear 21 1012 68 10000 7.7 140 20:23 22.01.2020
362 Clouds 21 1012 68 10000 8.7 150 19:58 22.01.2020
363 Clouds 20 1012 68 10000 8.7 150 19:39 22.01.2020
364 Clouds 21 1012 68 10000 8.7 150 19:19 22.01.2020
365 Clouds 22 1012 60 10000 9.8 140 18:57 22.01.2020
366 Clouds 22 1012 60 10000 9.8 140 18:38 22.01.2020
367 Clouds 22 1012 60 10000 9.8 140 18:20 22.01.2020
368 Clouds 22 1011 56 10000 10.3 150 17:55 22.01.2020
369 Clouds 22 1011 56 10000 10.3 150 17:55 22.01.2020
370 Clouds 23 1011 56 10000 10.3 150 17:37 22.01.2020
371 Clouds 23 1011 56 10000 10.3 150 17:19 22.01.2020
372 Clouds 26 1011 47 10000 8.7 130 16:43 22.01.2020
373 Clouds 25 1011 47 10000 8.7 130 16:23 22.01.2020
374 Clouds 25 1012 50 10000 9.3 140 15:59 22.01.2020
375 Clouds 24 1012 50 10000 9.3 140 15:41 22.01.2020
376 Clouds 25 1012 50 10000 9.3 140 15:22 22.01.2020
377 Clouds 26 1012 50 10000 10.3 140 14:58 22.01.2020
378 Clouds 25 1012 50 10000 10.3 140 14:37 22.01.2020
379 Clouds 25 1012 50 10000 10.3 140 14:18 22.01.2020
380 Clouds 25 1013 53 10000 9.8 140 13:55 22.01.2020
381 Clouds 25 1013 53 10000 9.8 140 13:36 22.01.2020
382 Clouds 25 1013 53 10000 9.8 140 13:36 22.01.2020
383 Clouds 25 1013 53 10000 9.8 140 13:36 22.01.2020
384 Clouds 25 1013 53 10000 9.8 140 13:18 22.01.2020
385 Clouds 24 1013 60 10000 10.8 140 12:55 22.01.2020
386 Clouds 24 1013 60 10000 10.8 140 12:37 22.01.2020
387 Clouds 24 1013 60 10000 10.8 140 12:18 22.01.2020
388 Clouds 23 1013 68 10000 10.3 150 11:56 22.01.2020
389 Clouds 22 1013 68 10000 10.3 150 11:37 22.01.2020
390 Clouds 22 1013 68 10000 10.3 150 11:18 22.01.2020
391 Clouds 22 1014 68 10000 8.7 170 10:44 22.01.2020
392 Clouds 21 1014 68 10000 8.7 170 10:20 22.01.2020
393 Clouds 21 1014 68 10000 3.6 180 09:44 22.01.2020
394 Clouds 21 1014 68 10000 3.6 180 09:25 22.01.2020
395 Clouds 21 1014 73 10000 3.6 160 08:58 22.01.2020
396 Clouds 20 1014 73 10000 3.6 160 08:40 22.01.2020
397 Clouds 20 1014 73 10000 3.6 160 08:21 22.01.2020
398 Clouds 19 1013 82 10000 2.1 270 07:54 22.01.2020
399 Clouds 19 1013 82 10000 2.1 270 07:36 22.01.2020
400 Clouds 18 1013 82 10000 2.1 270 07:18 22.01.2020
401 Clouds 17 1013 93 10000 4.1 320 06:30 22.01.2020
402 Clouds 18 1012 88 10000 4.1 320 05:41 22.01.2020
403 Clouds 18 1012 88 10000 4.1 320 05:41 22.01.2020
404 Clouds 17 1011 87 10000 5.7 320 04:20 22.01.2020
405 Clouds 17 1011 87 10000 5.7 320 03:23 22.01.2020
406 Clouds 17 1011 87 10000 5.7 320 03:23 22.01.2020
407 Clouds 19 1011 77 10000 2.6 260 02:27 22.01.2020
408 Clouds 20 1012 77 10000 3.6 260 00:45 22.01.2020
409 Clouds 20 1012 77 10000 3.6 260 00:26 22.01.2020
410 Clouds 20 1012 73 10000 1 0 23:39 21.01.2020
411 Clouds 21 1012 73 10000 1 0 23:21 21.01.2020
412 Clouds 21 1012 73 10000 3.6 240 22:59 21.01.2020
413 Clouds 21 1012 73 10000 3.6 240 22:39 21.01.2020
414 Clouds 21 1012 73 10000 3.6 240 22:20 21.01.2020
415 Clouds 21 1012 73 10000 2.1 160 21:56 21.01.2020
416 Clouds 21 1012 73 10000 2.1 160 21:38 21.01.2020
417 Clouds 21 1012 73 10000 2.1 160 21:19 21.01.2020
418 Clouds 21 1012 73 10000 5.1 130 20:56 21.01.2020
419 Clouds 21 1012 73 10000 5.1 130 20:37 21.01.2020
420 Clouds 21 1012 73 10000 5.1 130 20:18 21.01.2020
421 Clouds 21 1012 73 10000 5.1 130 20:18 21.01.2020
422 Clouds 22 1011 68 10000 5.7 140 19:56 21.01.2020
423 Clouds 22 1011 68 10000 5.7 140 19:37 21.01.2020
424 Clouds 22 1011 68 10000 5.7 140 19:19 21.01.2020
425 Clouds 23 1011 60 10000 5.7 140 18:55 21.01.2020
426 Clouds 23 1011 60 10000 5.7 140 18:36 21.01.2020
427 Clouds 24 1011 60 10000 5.7 140 18:18 21.01.2020
428 Clouds 24 1011 54 10000 6.7 140 17:43 21.01.2020
429 Clouds 26 1011 54 10000 6.7 140 17:20 21.01.2020
430 Clouds 26 1011 54 10000 7.2 140 16:58 21.01.2020
431 Clouds 25 1011 51 10000 5.1 160 16:37 21.01.2020
432 Clouds 25 1011 51 10000 5.1 160 16:18 21.01.2020
433 Clouds 26 1011 51 10000 5.1 160 15:41 21.01.2020
434 Clouds 26 1011 51 10000 5.1 160 15:20 21.01.2020
435 Clouds 26 1012 48 10000 4.6 160 14:58 21.01.2020
436 Clouds 26 1012 48 10000 4.6 160 14:37 21.01.2020
437 Clouds 26 1012 48 10000 4.6 160 14:19 21.01.2020
438 Clouds 26 1012 47 10000 4.6 180 13:39 21.01.2020
439 Clouds 26 1012 47 10000 4.6 180 13:19 21.01.2020
440 Clouds 27 1012 45 10000 4.1 200 12:43 21.01.2020
441 Clouds 27 1012 45 10000 4.1 200 12:25 21.01.2020
442 Clear 26 1013 47 10000 6.2 330 11:57 21.01.2020
443 Clear 26 1013 47 10000 6.2 330 11:38 21.01.2020
444 Clear 26 1013 47 10000 6.2 330 11:20 21.01.2020
445 Clear 25 1013 53 10000 5.1 330 10:44 21.01.2020
446 Clear 24 1013 53 10000 5.1 330 10:23 21.01.2020
447 Clear 24 1013 53 10000 5.1 330 10:23 21.01.2020
448 Clear 24 1013 53 10000 1.5 0 09:59 21.01.2020
449 Clear 24 1013 53 10000 1.5 0 09:40 21.01.2020
450 Clear 24 1013 53 10000 1.5 0 09:22 21.01.2020
451 Clear 24 1013 53 10000 1.5 0 08:48 21.01.2020
452 Clear 24 1013 60 10000 2.1 240 08:27 21.01.2020
453 Clear 23 1013 60 10000 3.1 230 07:57 21.01.2020
454 Clear 23 1013 60 10000 3.1 230 07:38 21.01.2020
455 Clear 22 1013 68 10000 2.1 280 07:19 21.01.2020
456 Clear 21 1012 82 10000 1.5 0 06:45 21.01.2020
457 Clear 20 1012 82 10000 1.5 0 06:23 21.01.2020
458 Clear 20 1012 82 10000 1.5 0 06:23 21.01.2020
459 Clear 19 1011 80 0 1.79 225 05:41 21.01.2020
460 Clear 19 1012 82 10000 1 0 04:39 21.01.2020
461 Clear 19 1012 77 10000 2.1 230 02:54 21.01.2020
462 Clear 19 1012 82 10000 1.5 190 01:47 21.01.2020
463 Clear 19 1012 77 10000 2.1 150 00:54 21.01.2020
464 Clear 19 1012 77 10000 2.1 150 00:32 21.01.2020
465 Clear 20 1012 68 10000 1.5 0 23:57 20.01.2020
466 Clear 20 1012 68 10000 1.5 0 23:37 20.01.2020
467 Clear 20 1012 68 10000 1.5 0 23:18 20.01.2020
468 Clear 20 1012 68 10000 1 0 22:56 20.01.2020
469 Clear 20 1012 68 10000 1 0 22:36 20.01.2020
470 Clear 20 1012 68 10000 1 0 22:18 20.01.2020
471 Clear 20 1013 68 10000 4.1 130 21:55 20.01.2020
472 Clear 20 1013 68 10000 4.1 130 21:36 20.01.2020
473 Clear 20 1013 68 10000 4.1 130 21:18 20.01.2020
474 Clouds 21 1012 68 10000 4.6 130 20:54 20.01.2020
475 Clouds 21 1012 68 10000 4.6 130 20:36 20.01.2020
476 Clouds 21 1012 68 10000 4.6 130 20:18 20.01.2020
477 Clouds 21 1012 68 10000 4.6 130 20:18 20.01.2020
478 Clouds 21 1012 64 10000 6.7 130 19:54 20.01.2020
479 Clouds 21 1012 64 10000 6.7 130 19:54 20.01.2020
480 Clouds 21 1012 64 10000 6.7 130 19:36 20.01.2020
481 Clouds 21 1012 64 10000 6.7 130 19:18 20.01.2020
482 Clouds 23 1011 60 10000 5.7 140 18:42 20.01.2020
483 Clouds 24 1011 60 10000 5.7 140 18:21 20.01.2020
484 Clouds 24 1011 57 10000 7.7 140 17:39 20.01.2020
485 Clouds 24 1011 57 10000 7.7 140 17:19 20.01.2020
486 Clouds 25 1011 53 10000 10.8 150 16:55 20.01.2020
487 Clouds 26 1011 53 10000 10.8 150 16:36 20.01.2020
488 Clouds 25 1011 53 10000 10.8 150 16:18 20.01.2020
489 Clouds 27 1011 47 10000 8.2 140 15:41 20.01.2020
490 Clouds 28 1011 47 10000 8.2 140 15:22 20.01.2020
491 Clouds 28 1011 44 10000 7.7 150 14:59 20.01.2020
492 Clouds 27 1011 44 10000 7.7 150 14:41 20.01.2020
493 Clouds 27 1011 44 10000 7.7 150 14:21 20.01.2020
494 Clouds 27 1012 44 10000 6.2 150 13:57 20.01.2020
495 Clouds 27 1012 44 10000 6.2 150 13:38 20.01.2020
496 Clouds 27 1012 44 10000 6.2 150 13:20 20.01.2020
497 Clouds 27 1012 50 10000 6.7 140 12:44 20.01.2020
498 Clouds 27 1012 50 10000 6.7 140 12:25 20.01.2020
499 Clouds 27 1012 50 10000 6.7 140 12:25 20.01.2020
500 Clouds 27 1013 47 10000 7.2 140 11:56 20.01.2020
501 Clouds 25 1013 47 10000 7.2 140 11:37 20.01.2020
502 Clouds 26 1013 47 10000 7.2 140 11:19 20.01.2020
503 Clouds 26 1012 50 10000 6.2 150 10:47 20.01.2020
504 Clouds 26 1012 50 10000 6.2 150 10:21 20.01.2020
505 Clouds 24 1013 56 10000 8.2 130 09:42 20.01.2020
506 Clouds 24 1013 56 10000 8.2 130 09:24 20.01.2020
507 Clouds 23 1012 60 10000 8.2 140 08:59 20.01.2020
508 Clouds 23 1012 60 10000 8.2 140 08:39 20.01.2020
509 Clouds 22 1012 60 10000 8.2 140 08:20 20.01.2020
510 Clouds 21 1012 64 10000 6.2 130 07:41 20.01.2020
511 Clouds 21 1012 64 10000 6.2 130 07:21 20.01.2020
512 Clouds 20 1012 68 10000 6.7 140 06:44 20.01.2020
513 Clouds 20 1012 68 10000 6.7 140 06:24 20.01.2020
514 Rain 19 1012 68 10000 8.2 130 05:41 20.01.2020
515 Rain 19 1012 68 10000 8.2 130 05:20 20.01.2020
516 Clouds 19 1011 68 10000 6.7 130 04:24 20.01.2020
517 Clouds 19 1012 77 10000 8.7 150 02:33 20.01.2020
518 Rain 19 1008 60 0 4.47 151 01:40 20.01.2020
519 Clouds 19 1013 82 10000 8.2 150 01:20 20.01.2020
520 Clouds 19 1013 82 10000 8.2 150 00:43 20.01.2020
521 Clouds 18 1013 82 10000 8.2 150 00:21 20.01.2020
522 Clouds 19 1013 77 10000 9.3 150 23:38 19.01.2020
523 Clouds 19 1013 77 10000 9.3 150 23:19 19.01.2020
524 Clouds 20 1013 77 10000 8.7 140 22:56 19.01.2020
525 Clouds 19 1013 77 10000 8.7 140 22:37 19.01.2020
526 Clouds 19 1013 77 10000 8.7 140 22:19 19.01.2020
527 Clouds 20 1013 68 10000 8.7 140 21:56 19.01.2020
528 Clouds 20 1013 68 10000 8.7 140 21:38 19.01.2020
529 Clouds 20 1013 68 10000 8.7 140 21:38 19.01.2020
530 Clouds 20 1013 68 10000 8.7 140 21:19 19.01.2020
531 Clouds 20 1012 68 10000 10.3 130 20:57 19.01.2020
532 Clouds 20 1012 68 10000 10.3 130 20:38 19.01.2020
533 Clouds 20 1012 68 10000 10.3 130 20:20 19.01.2020
534 Clouds 20 1012 64 10000 9.3 130 19:56 19.01.2020
535 Clouds 20 1012 64 10000 9.3 130 19:37 19.01.2020
536 Clouds 20 1012 64 10000 9.3 130 19:19 19.01.2020
537 Clouds 19 1012 68 10000 8.7 130 18:55 19.01.2020
538 Clouds 20 1012 68 10000 9.8 130 18:37 19.01.2020
539 Clouds 20 1012 68 10000 9.8 130 18:19 19.01.2020
540 Clouds 20 1011 82 10000 10.3 140 17:58 19.01.2020
541 Clouds 19 1011 82 10000 10.3 140 17:39 19.01.2020
542 Clouds 19 1011 82 10000 10.3 140 17:20 19.01.2020
543 Clouds 19 1012 77 10000 10.8 130 16:57 19.01.2020
544 Clouds 19 1012 77 10000 10.8 130 16:38 19.01.2020
545 Clouds 19 1012 77 10000 10.8 130 16:19 19.01.2020
546 Clouds 19 1012 77 10000 10.8 140 15:57 19.01.2020
547 Clouds 18 1012 82 10000 12.3 150 15:37 19.01.2020
548 Clouds 19 1012 82 10000 12.3 150 15:19 19.01.2020
549 Rain 19 1012 82 10000 12.3 150 14:57 19.01.2020
550 Rain 19 1012 82 10000 12.3 150 14:38 19.01.2020
551 Rain 19 1012 82 10000 12.3 150 14:18 19.01.2020
552 Rain 19 1013 88 8000 12.3 150 13:55 19.01.2020
553 Rain 19 1013 88 8000 12.3 150 13:37 19.01.2020
554 Rain 18 1013 88 9000 11.8 150 13:18 19.01.2020
555 Rain 17 1013 93 10000 11.3 160 12:54 19.01.2020
556 Rain 17 1013 93 10000 11.3 160 12:36 19.01.2020
557 Rain 18 1013 88 7000 10.3 160 12:18 19.01.2020
558 Rain 18 1013 77 10000 11.3 160 11:39 19.01.2020
559 Rain 18 1013 77 10000 11.3 160 11:20 19.01.2020
560 Rain 17 1013 87 10000 10.3 160 10:55 19.01.2020
561 Rain 17 1013 87 10000 10.3 160 10:37 19.01.2020
562 Rain 17 1013 87 10000 10.3 160 10:18 19.01.2020
563 Rain 17 1013 87 10000 10.3 160 10:18 19.01.2020
564 Rain 17 1013 87 9000 9.3 150 09:44 19.01.2020
565 Rain 18 1013 77 10000 9.8 160 09:25 19.01.2020
566 Rain 18 1013 72 10000 9.3 150 08:58 19.01.2020
567 Rain 18 1013 72 10000 9.3 150 08:39 19.01.2020
568 Rain 18 1013 72 10000 9.3 150 08:21 19.01.2020
569 Clouds 18 1012 63 10000 11.3 160 07:42 19.01.2020
570 Clouds 18 1012 63 10000 11.3 160 07:22 19.01.2020
571 Clouds 18 1011 59 10000 9.8 150 06:51 19.01.2020
572 Clouds 18 1011 77 10000 7.2 150 05:41 19.01.2020
573 Clouds 17 1012 77 10000 10.8 150 02:44 19.01.2020
574 Clouds 17 1012 77 10000 10.8 150 02:21 19.01.2020
575 Clouds 17 1013 77 10000 10.3 150 01:25 19.01.2020
576 Rain 17 1013 82 9000 10.8 150 00:50 19.01.2020
577 Rain 17 1013 82 9000 10.8 150 00:29 19.01.2020
578 Rain 17 1013 63 10000 14.4 150 23:58 18.01.2020
579 Rain 17 1013 63 10000 14.4 150 23:40 18.01.2020
580 Rain 18 1013 63 10000 14.4 150 23:21 18.01.2020
581 Clouds 17 1013 72 10000 13.9 150 22:55 18.01.2020
582 Clouds 17 1013 72 10000 13.9 150 22:37 18.01.2020
583 Clouds 17 1013 72 10000 13.9 150 22:37 18.01.2020
584 Clouds 17 1013 72 10000 13.9 150 22:19 18.01.2020
585 Clouds 17 1012 67 10000 15.9 160 21:57 18.01.2020
586 Clouds 17 1012 67 10000 15.9 160 21:37 18.01.2020
587 Clouds 18 1012 67 10000 15.9 160 21:19 18.01.2020
588 Clouds 18 1012 67 10000 13.4 150 20:43 18.01.2020
589 Clouds 18 1012 67 10000 13.4 150 20:21 18.01.2020
590 Clouds 18 1011 67 10000 17 150 19:58 18.01.2020
591 Clouds 18 1011 67 10000 17 150 19:40 18.01.2020
592 Clouds 18 1012 67 10000 15.9 160 19:22 18.01.2020
593 Clouds 18 1012 63 10000 13.9 170 18:42 18.01.2020
594 Clouds 19 1011 63 10000 14.4 150 18:22 18.01.2020
595 Clouds 19 1011 63 10000 14.9 150 17:56 18.01.2020
596 Clouds 19 1011 63 10000 14.9 150 17:37 18.01.2020
597 Clouds 20 1010 56 10000 14.4 150 17:19 18.01.2020
598 Clouds 20 1011 60 10000 16.5 150 16:55 18.01.2020
599 Clouds 20 1011 60 10000 16.5 150 16:55 18.01.2020
600 Clouds 21 1011 60 10000 16.5 150 16:36 18.01.2020
601 Clouds 21 1011 56 10000 15.9 160 16:18 18.01.2020
602 Clouds 22 1011 49 10000 12.9 150 15:41 18.01.2020
603 Clouds 23 1011 49 10000 12.9 150 15:23 18.01.2020
604 Clouds 23 1011 50 10000 13.4 150 14:57 18.01.2020
605 Clouds 23 1011 50 10000 13.4 150 14:38 18.01.2020
606 Clouds 24 1011 50 10000 13.4 150 14:18 18.01.2020
607 Clouds 25 1011 50 10000 13.4 150 13:43 18.01.2020
608 Clouds 25 1011 47 10000 12.9 160 13:24 18.01.2020
609 Clouds 25 1011 47 10000 11.8 150 12:57 18.01.2020
610 Clouds 25 1011 47 10000 11.8 150 12:57 18.01.2020
611 Clouds 24 1011 47 10000 11.8 150 12:38 18.01.2020
612 Clouds 25 1011 47 10000 11.8 150 12:20 18.01.2020
613 Clouds 25 1011 50 10000 12.3 150 11:44 18.01.2020
614 Clouds 25 1012 50 10000 12.9 150 11:21 18.01.2020
615 Clouds 25 1011 50 10000 11.8 150 10:57 18.01.2020
616 Clouds 25 1011 50 10000 11.8 150 10:38 18.01.2020
617 Clouds 25 1011 47 10000 10.3 140 10:19 18.01.2020
618 Clouds 24 1011 49 10000 9.8 140 09:43 18.01.2020
619 Clouds 24 1011 49 10000 9.8 140 09:24 18.01.2020
620 Clouds 23 1011 53 10000 10.8 130 08:55 18.01.2020
621 Clouds 23 1011 53 10000 10.8 130 08:37 18.01.2020
622 Clouds 22 1011 53 10000 10.8 130 08:19 18.01.2020
623 Clouds 22 1012 53 10000 9.3 140 07:45 18.01.2020
624 Clouds 21 1012 56 10000 9.8 150 07:26 18.01.2020
625 Clouds 20 1011 68 10000 8.7 140 06:47 18.01.2020
626 Clouds 19 1011 77 10000 8.2 140 05:59 18.01.2020
627 Clouds 18 1011 77 10000 8.2 140 05:19 18.01.2020
628 Clouds 19 1012 77 10000 12.9 160 02:55 18.01.2020
629 Clouds 19 1012 77 10000 12.9 160 01:54 18.01.2020
630 Clouds 19 1012 77 10000 12.9 160 01:30 18.01.2020
631 Clouds 19 1013 72 10000 12.3 160 00:37 18.01.2020
632 Clouds 19 1013 72 10000 12.3 160 00:18 18.01.2020
633 Clouds 19 1014 82 10000 9.8 170 23:41 17.01.2020
634 Clouds 19 1014 82 10000 9.8 170 23:20 17.01.2020
635 Clouds 20 1014 64 10000 10.8 160 22:45 17.01.2020
636 Clouds 20 1014 64 10000 10.8 160 22:22 17.01.2020
637 Clouds 20 1014 68 10000 11.3 160 21:59 17.01.2020
638 Clouds 20 1014 68 10000 11.3 160 21:41 17.01.2020
639 Clouds 20 1014 68 10000 11.3 160 21:22 17.01.2020
640 Clouds 20 1014 72 10000 11.3 160 20:57 17.01.2020
641 Clouds 20 1014 72 10000 11.3 160 20:38 17.01.2020
642 Clouds 20 1014 72 10000 11.3 160 20:20 17.01.2020
643 Clouds 20 1013 72 10000 11.8 170 19:55 17.01.2020
644 Clouds 20 1013 72 10000 11.8 170 19:55 17.01.2020
645 Clouds 20 1013 72 10000 11.8 170 19:37 17.01.2020
646 Clouds 20 1013 72 10000 11.8 170 19:18 17.01.2020
647 Clouds 21 1013 64 10000 11.8 160 18:47 17.01.2020
648 Clouds 21 1013 64 10000 11.8 160 18:29 17.01.2020
649 Clouds 22 1013 60 10000 13.9 160 17:58 17.01.2020
650 Clouds 22 1013 60 10000 13.9 160 17:39 17.01.2020
651 Clouds 23 1013 60 10000 13.9 160 17:20 17.01.2020
652 Clouds 23 1013 60 10000 14.4 170 16:43 17.01.2020
653 Clouds 24 1013 57 10000 12.9 170 16:21 17.01.2020
654 Clouds 24 1013 57 10000 14.4 170 15:55 17.01.2020
655 Clouds 24 1013 57 10000 14.4 170 15:37 17.01.2020
656 Clouds 24 1013 57 10000 14.4 170 15:19 17.01.2020
657 Clouds 24 1013 64 10000 14.9 170 14:43 17.01.2020
658 Clouds 23 1013 64 10000 14.9 170 14:23 17.01.2020
659 Clouds 24 1013 60 10000 15.4 170 13:42 17.01.2020
660 Clouds 25 1013 61 10000 14.4 170 13:23 17.01.2020
661 Clouds 26 1013 61 10000 13.9 170 12:47 17.01.2020
662 Clouds 26 1013 61 10000 13.9 170 12:23 17.01.2020
663 Clouds 25 1013 69 10000 15.4 170 11:43 17.01.2020
664 Clouds 24 1013 69 10000 15.4 170 11:20 17.01.2020
665 Clouds 25 1012 69 10000 14.9 180 10:57 17.01.2020
666 Clouds 25 1012 69 10000 14.9 180 10:39 17.01.2020
667 Clouds 25 1012 69 10000 14.9 180 10:20 17.01.2020
668 Clouds 25 1012 69 10000 13.4 180 09:44 17.01.2020
669 Clouds 24 1012 69 10000 13.4 180 09:21 17.01.2020
670 Clouds 25 1012 65 10000 9.8 190 08:58 17.01.2020
671 Clouds 26 1012 65 10000 9.8 190 08:40 17.01.2020
672 Clouds 25 1012 65 10000 9.8 190 08:21 17.01.2020
673 Clouds 25 1012 73 10000 9.8 180 07:48 17.01.2020
674 Clouds 24 1012 73 10000 9.8 180 07:29 17.01.2020
675 Clouds 24 1011 64 10000 10.3 170 06:56 17.01.2020
676 Clouds 23 1011 64 10000 10.3 170 06:36 17.01.2020
677 Clouds 22 1011 73 10000 11.3 170 05:19 17.01.2020
678 Clear 21 1010 88 10000 8.2 190 03:38 17.01.2020
679 Clear 21 1010 88 10000 9.8 200 02:42 17.01.2020
680 Clear 21 1011 78 10000 8.7 200 01:45 17.01.2020
681 Clear 22 1011 78 10000 9.8 180 01:27 17.01.2020
682 Clear 22 1011 78 10000 9.8 180 00:40 17.01.2020
683 Clear 22 1011 78 10000 9.8 180 00:19 17.01.2020
684 Clouds 22 1011 73 10000 9.3 190 23:41 16.01.2020
685 Clouds 22 1011 73 10000 9.3 190 23:22 16.01.2020
686 Clouds 22 1012 83 10000 10.3 190 22:42 16.01.2020
687 Clouds 22 1012 83 10000 10.3 190 22:22 16.01.2020
688 Clouds 22 1012 83 10000 10.3 190 22:22 16.01.2020
689 Clouds 22 1012 88 10000 11.3 200 21:57 16.01.2020
690 Clouds 22 1012 88 10000 11.3 200 21:38 16.01.2020
691 Clouds 22 1012 88 10000 11.3 200 21:19 16.01.2020
692 Clouds 22 1011 88 10000 10.8 190 20:58 16.01.2020
693 Clouds 22 1011 88 10000 10.8 190 20:39 16.01.2020
694 Clouds 22 1011 88 10000 10.8 190 20:19 16.01.2020
695 Clouds 23 1011 83 10000 11.8 190 19:56 16.01.2020
696 Clouds 23 1011 83 10000 11.8 190 19:38 16.01.2020
697 Clouds 23 1011 83 10000 11.8 190 19:19 16.01.2020
698 Clouds 24 1011 69 10000 11.3 180 18:55 16.01.2020
699 Clouds 24 1011 69 10000 11.3 180 18:37 16.01.2020
700 Clouds 25 1011 69 10000 11.3 180 18:18 16.01.2020
701 Clouds 24 1011 73 10000 12.3 180 17:42 16.01.2020
702 Clouds 25 1011 73 10000 12.3 180 17:23 16.01.2020
703 Clouds 25 1010 69 10000 12.9 180 16:57 16.01.2020
704 Clouds 26 1010 69 10000 12.9 180 16:39 16.01.2020
705 Clouds 26 1010 69 10000 12.9 180 16:19 16.01.2020
706 Clouds 27 1010 65 10000 12.3 180 15:44 16.01.2020
707 Clouds 28 1010 65 10000 12.3 180 15:23 16.01.2020
708 Clouds 28 1011 65 10000 11.8 190 14:57 16.01.2020
709 Clouds 28 1011 65 10000 11.8 190 14:57 16.01.2020
710 Clouds 28 1011 65 10000 11.8 190 14:39 16.01.2020
711 Clouds 27 1011 65 10000 11.8 190 14:20 16.01.2020
712 Clouds 27 1011 65 10000 11.3 190 13:45 16.01.2020
713 Clouds 27 1011 65 10000 11.3 190 13:26 16.01.2020
714 Clouds 26 1011 69 10000 11.8 190 12:47 16.01.2020
715 Clouds 26 1011 69 10000 11.8 190 12:29 16.01.2020
716 Clouds 27 1012 65 10000 9.3 200 11:59 16.01.2020
717 Clouds 27 1012 65 10000 9.3 200 11:41 16.01.2020
718 Clouds 27 1012 65 10000 9.3 200 11:41 16.01.2020
719 Clouds 27 1012 65 10000 9.3 200 11:23 16.01.2020
720 Clouds 27 1011 65 10000 8.2 210 10:55 16.01.2020
721 Clouds 27 1011 65 10000 8.2 210 10:37 16.01.2020
722 Clouds 27 1011 65 10000 8.2 210 10:18 16.01.2020
723 Clouds 27 1011 65 10000 7.2 220 09:42 16.01.2020
724 Clouds 28 1011 65 10000 7.2 220 09:24 16.01.2020
725 Clouds 27 1011 69 10000 6.2 240 08:58 16.01.2020
726 Clouds 26 1011 69 10000 6.2 240 08:40 16.01.2020
727 Clear 25 1011 69 10000 6.2 240 08:19 16.01.2020
728 Clear 24 1011 78 10000 6.7 240 07:42 16.01.2020
729 Clear 24 1011 78 10000 6.7 240 07:23 16.01.2020
730 Clear 24 1010 78 10000 5.7 210 06:52 16.01.2020
731 Clear 23 1010 78 10000 5.7 210 06:34 16.01.2020
732 Clear 22 1009 88 10000 6.2 230 05:49 16.01.2020
733 Clear 22 1009 88 10000 6.7 240 04:50 16.01.2020
734 Clear 22 1009 88 10000 6.7 240 03:57 16.01.2020
735 Clear 23 1009 73 10000 6.2 190 02:47 16.01.2020
736 Clear 23 1009 73 10000 6.2 190 02:21 16.01.2020
737 Clear 24 1011 73 10000 8.7 180 00:43 16.01.2020
738 Clear 24 1011 73 10000 8.7 180 00:23 16.01.2020
739 Clear 23 1011 73 10000 8.2 200 23:45 15.01.2020
740 Clear 23 1011 73 10000 8.2 200 23:22 15.01.2020
741 Clear 24 1011 69 10000 9.3 200 22:57 15.01.2020
742 Clear 24 1011 69 10000 9.3 200 22:38 15.01.2020
743 Clear 23 1011 69 10000 9.3 200 22:18 15.01.2020
744 Clear 24 1011 65 10000 10.3 180 21:56 15.01.2020
745 Clear 24 1011 65 10000 10.3 180 21:37 15.01.2020
746 Clear 24 1011 65 10000 10.3 180 21:18 15.01.2020
747 Clear 24 1011 69 10000 8.2 200 20:55 15.01.2020
748 Clear 24 1011 69 10000 8.2 200 20:37 15.01.2020
749 Clear 24 1011 69 10000 8.2 200 20:18 15.01.2020
750 Clouds 23 1011 73 10000 9.8 190 19:54 15.01.2020
751 Clouds 23 1011 73 10000 9.8 190 19:36 15.01.2020
752 Clouds 23 1011 73 10000 9.8 190 19:18 15.01.2020
753 Clouds 24 1011 73 10000 10.8 190 18:56 15.01.2020
754 Clouds 24 1011 73 10000 10.8 190 18:37 15.01.2020
755 Clouds 24 1011 73 10000 10.8 190 18:37 15.01.2020
756 Clouds 25 1011 73 10000 10.8 190 18:19 15.01.2020
757 Clouds 25 1010 69 10000 10.8 190 17:55 15.01.2020
758 Clouds 26 1010 69 10000 10.8 190 17:36 15.01.2020
759 Clouds 27 1010 69 10000 10.8 190 17:18 15.01.2020
760 Clouds 28 1011 69 10000 11.8 190 16:40 15.01.2020
761 Clouds 28 1011 69 10000 11.8 190 16:21 15.01.2020
762 Clouds 28 1011 69 10000 11.8 190 16:21 15.01.2020
763 Clouds 29 1011 65 10000 10.8 200 15:56 15.01.2020
764 Clouds 28 1011 65 10000 10.8 200 15:38 15.01.2020
765 Clouds 29 1011 65 10000 10.8 200 15:18 15.01.2020
766 Clouds 28 1011 65 10000 10.8 200 14:42 15.01.2020
767 Clouds 30 1011 65 10000 10.8 200 14:19 15.01.2020
768 Clouds 30 1011 65 10000 9.8 210 13:46 15.01.2020
769 Clouds 30 1011 65 10000 9.8 210 13:26 15.01.2020
770 Clouds 30 1011 61 10000 8.2 200 12:59 15.01.2020
771 Clouds 30 1011 61 10000 8.2 200 12:39 15.01.2020
772 Clouds 31 1011 61 10000 8.2 200 12:19 15.01.2020
773 Clouds 31 1011 61 10000 8.2 200 12:19 15.01.2020
774 Clouds 33 1012 54 10000 6.2 210 11:57 15.01.2020
775 Clouds 33 1012 54 10000 6.2 210 11:37 15.01.2020
776 Clouds 31 1012 54 10000 6.2 210 11:19 15.01.2020
777 Clouds 30 1012 58 10000 6.2 210 10:43 15.01.2020
778 Clouds 30 1012 58 10000 6.2 210 10:25 15.01.2020
779 Clouds 30 1012 51 10000 6.2 220 09:45 15.01.2020
780 Clouds 29 1012 51 10000 6.2 220 09:26 15.01.2020
781 Clouds 28 1012 58 10000 4.1 160 08:59 15.01.2020
782 Clouds 29 1012 58 10000 4.1 160 08:41 15.01.2020
783 Clouds 26 1012 65 10000 4.1 220 08:22 15.01.2020
784 Clouds 24 1012 78 10000 4.6 240 07:52 15.01.2020
785 Clouds 24 1012 78 10000 4.6 240 07:32 15.01.2020
786 Clouds 23 1011 73 10000 4.6 190 06:46 15.01.2020
787 Clouds 22 1011 83 10000 5.7 230 06:20 15.01.2020
788 Clouds 21 1011 88 10000 5.1 230 04:44 15.01.2020
789 Clouds 22 1011 88 10000 5.7 210 02:39 15.01.2020
790 Clouds 22 1012 94 10000 5.7 200 01:28 15.01.2020
791 Clouds 22 1012 94 10000 8.7 190 00:59 15.01.2020
792 Clouds 22 1012 94 10000 8.7 190 00:36 15.01.2020
793 Clouds 22 1012 94 10000 8.7 190 00:18 15.01.2020
794 Clouds 22 1012 94 10000 10.3 200 23:45 14.01.2020
795 Clouds 22 1012 94 10000 10.3 200 23:24 14.01.2020
796 Clouds 22 1012 94 10000 8.7 190 22:41 14.01.2020
797 Clouds 22 1012 94 10000 8.7 190 22:20 14.01.2020
798 Clouds 22 1012 94 10000 9.3 190 21:59 14.01.2020
799 Clouds 22 1012 94 10000 9.3 190 21:41 14.01.2020
800 Clouds 22 1012 94 10000 9.3 190 21:23 14.01.2020
801 Clouds 23 1011 94 10000 9.3 190 21:00 14.01.2020
802 Clouds 22 1011 94 10000 9.3 190 20:41 14.01.2020
803 Clouds 22 1011 94 10000 9.3 190 20:21 14.01.2020
804 Clouds 23 1011 94 10000 7.7 210 19:56 14.01.2020
805 Clouds 23 1011 94 10000 7.7 210 19:38 14.01.2020
806 Clouds 23 1011 94 10000 7.7 210 19:19 14.01.2020
807 Clouds 23 1011 94 10000 9.3 190 18:56 14.01.2020
808 Clouds 23 1011 94 10000 9.3 190 18:38 14.01.2020
809 Clouds 23 1011 88 10000 10.8 190 18:19 14.01.2020
810 Clouds 24 1011 83 10000 11.3 190 17:39 14.01.2020
811 Clouds 24 1011 83 10000 11.3 190 17:19 14.01.2020
812 Clouds 25 1011 78 10000 10.3 200 16:57 14.01.2020
813 Clouds 26 1011 78 10000 10.3 200 16:38 14.01.2020
814 Clouds 27 1011 78 10000 10.3 200 16:20 14.01.2020
815 Clouds 28 1011 65 10000 9.3 200 15:55 14.01.2020
816 Clouds 27 1011 65 10000 9.3 200 15:37 14.01.2020
817 Clouds 28 1011 65 10000 9.3 200 15:18 14.01.2020
818 Clouds 29 1011 65 10000 9.3 200 14:43 14.01.2020
819 Clouds 29 1011 65 10000 9.3 200 14:20 14.01.2020
820 Clouds 29 1012 61 10000 8.2 190 13:43 14.01.2020
821 Clouds 29 1012 61 10000 8.2 190 13:20 14.01.2020
822 Clouds 28 1012 65 10000 8.2 200 12:59 14.01.2020
823 Clouds 28 1012 65 10000 8.2 200 12:40 14.01.2020
824 Clouds 29 1012 65 10000 8.2 200 12:20 14.01.2020
825 Clouds 29 1013 61 10000 7.2 200 11:42 14.01.2020
826 Clouds 30 1013 61 10000 7.2 200 11:23 14.01.2020
827 Clouds 30 1013 54 10000 6.7 200 10:58 14.01.2020
828 Clouds 28 1013 54 10000 6.7 200 10:39 14.01.2020
829 Clouds 28 1013 54 10000 6.7 200 10:19 14.01.2020
830 Clouds 27 1012 54 10000 5.1 210 09:57 14.01.2020
831 Clouds 27 1012 54 10000 5.1 210 09:39 14.01.2020
832 Clouds 27 1012 54 10000 5.1 210 09:20 14.01.2020
833 Clouds 27 1012 65 10000 1.5 0 08:44 14.01.2020
834 Clouds 26 1012 65 10000 1.5 0 08:23 14.01.2020
835 Clouds 24 1012 78 10000 4.1 230 07:53 14.01.2020
836 Clouds 23 1012 78 10000 4.1 230 07:31 14.01.2020
837 Clouds 22 1012 94 10000 4.1 240 06:51 14.01.2020
838 Clouds 21 1012 94 10000 4.1 240 06:23 14.01.2020
839 Clouds 21 1012 94 10000 2.6 220 05:25 14.01.2020
840 Clouds 20 1011 94 10000 3.1 240 03:51 14.01.2020
841 Clouds 20 1011 88 10000 2.6 220 02:42 14.01.2020
842 Clouds 21 1012 94 10000 4.6 250 01:53 14.01.2020
843 Clouds 21 1012 94 10000 5.7 230 00:51 14.01.2020
844 Clouds 21 1012 94 10000 5.7 230 00:32 14.01.2020
845 Clouds 21 1012 94 10000 5.7 230 00:32 14.01.2020
846 Clouds 21 1012 88 10000 6.2 230 23:55 13.01.2020
847 Clouds 21 1012 88 10000 6.2 230 23:37 13.01.2020
848 Clouds 22 1012 88 10000 6.2 230 23:18 13.01.2020
849 Clouds 21 1012 94 10000 6.7 230 22:42 13.01.2020
850 Clouds 22 1012 94 10000 6.7 230 22:21 13.01.2020
851 Clouds 22 1012 94 10000 5.1 230 21:57 13.01.2020
852 Clouds 22 1012 94 10000 5.1 230 21:38 13.01.2020
853 Clouds 22 1012 94 10000 5.1 230 21:38 13.01.2020
854 Clouds 22 1012 94 10000 5.1 230 21:19 13.01.2020
855 Clouds 22 1012 94 10000 6.7 210 20:58 13.01.2020
856 Clouds 22 1012 94 10000 6.7 210 20:40 13.01.2020
857 Clouds 22 1012 94 10000 6.7 210 20:22 13.01.2020
858 Clouds 22 1013 88 10000 7.2 220 19:59 13.01.2020
859 Clouds 22 1013 88 10000 7.2 220 19:39 13.01.2020
860 Clouds 22 1013 88 10000 7.2 220 19:20 13.01.2020
861 Clouds 23 1013 88 10000 8.7 200 18:56 13.01.2020
862 Clouds 23 1013 88 10000 8.7 200 18:37 13.01.2020
863 Clouds 23 1013 88 10000 8.7 200 18:37 13.01.2020
864 Clouds 23 1013 88 10000 8.7 200 18:18 13.01.2020
865 Clouds 23 1013 88 10000 9.8 190 17:43 13.01.2020
866 Clouds 24 1013 88 10000 9.8 190 17:25 13.01.2020
867 Clouds 25 1013 83 10000 9.8 190 16:57 13.01.2020
868 Clouds 25 1013 83 10000 9.8 190 16:38 13.01.2020
869 Clouds 26 1013 78 10000 9.3 190 16:20 13.01.2020
870 Clouds 26 1013 73 0 9.39 190 15:44 13.01.2020
871 Clouds 27 1013 73 0 9.39 190 15:24 13.01.2020
872 Clouds 26 1013 73 0 9.39 190 14:59 13.01.2020
873 Clouds 26 1013 69 0 8.49 180 14:39 13.01.2020
874 Clouds 26 1013 69 0 8.49 180 14:39 13.01.2020
875 Clouds 26 1013 69 0 8.49 180 14:20 13.01.2020
876 Clouds 29 1013 61 0 8.05 200 13:55 13.01.2020
877 Clear 28 1013 61 0 8.05 200 13:37 13.01.2020
878 Clear 29 1013 61 0 8.05 200 13:19 13.01.2020
879 Clear 30 1013 51 0 5.81 210 12:43 13.01.2020
880 Clear 29 1014 45 10000 4.6 200 12:23 13.01.2020
881 Clear 28 1014 45 10000 4.6 200 11:57 13.01.2020
882 Clear 29 1014 45 10000 4.6 200 11:37 13.01.2020
883 Clear 29 1014 45 10000 4.6 200 11:37 13.01.2020
884 Clear 29 1014 45 10000 4.6 200 11:19 13.01.2020
885 Clear 29 1014 48 10000 4.1 200 10:56 13.01.2020
886 Clear 29 1014 48 10000 4.1 200 10:37 13.01.2020
887 Clear 29 1014 48 10000 4.1 200 10:19 13.01.2020
888 Clear 28 1014 45 10000 2.6 200 09:44 13.01.2020
889 Clear 26 1013 54 10000 3.6 210 09:24 13.01.2020
890 Clear 25 1013 57 10000 3.6 220 08:57 13.01.2020
891 Clear 25 1013 57 10000 3.6 220 08:57 13.01.2020
892 Clear 24 1013 64 10000 3.6 260 08:37 13.01.2020
893 Clear 24 1013 64 10000 3.6 260 08:18 13.01.2020
894 Clear 23 1013 73 10000 2.1 320 07:44 13.01.2020
895 Clear 22 1013 83 10000 1.5 0 07:26 13.01.2020
896 Clear 21 1013 88 10000 3.6 220 06:39 13.01.2020
897 Clear 19 1013 93 10000 3.6 240 05:42 13.01.2020
898 Clear 19 1013 93 10000 3.6 240 05:19 13.01.2020
899 Clear 20 1013 93 10000 4.6 240 03:46 13.01.2020
900 Clear 20 1013 93 10000 5.7 240 02:51 13.01.2020
901 Clear 20 1013 93 10000 5.7 240 02:30 13.01.2020
902 Clear 20 1013 88 10000 4.6 230 01:33 13.01.2020
903 Clouds 20 1014 88 10000 5.1 240 00:55 13.01.2020
904 Clouds 20 1014 88 10000 5.1 240 00:36 13.01.2020
905 Clouds 20 1014 88 10000 5.1 240 00:18 13.01.2020
906 Clouds 21 1015 83 10000 5.7 230 23:40 12.01.2020
907 Clouds 21 1015 83 10000 5.7 230 23:22 12.01.2020
908 Clouds 21 1015 83 10000 4.6 230 22:57 12.01.2020
909 Clouds 21 1015 83 10000 4.6 230 22:39 12.01.2020
910 Clouds 21 1015 83 10000 4.6 230 22:19 12.01.2020
911 Clouds 21 1015 88 10000 5.7 220 21:54 12.01.2020
912 Clouds 21 1015 88 10000 5.7 220 21:54 12.01.2020
913 Clouds 21 1015 88 10000 5.7 220 21:36 12.01.2020
914 Clouds 21 1015 88 10000 5.7 220 21:18 12.01.2020
915 Clouds 22 1014 83 10000 5.7 220 20:54 12.01.2020
916 Clouds 22 1014 83 10000 5.7 220 20:36 12.01.2020
917 Clouds 22 1014 83 10000 5.7 220 20:18 12.01.2020
918 Clouds 22 1014 78 10000 7.2 210 19:54 12.01.2020
919 Clouds 22 1014 78 10000 7.2 210 19:36 12.01.2020
920 Clouds 22 1014 78 10000 7.2 210 19:18 12.01.2020
921 Clouds 23 1014 78 10000 9.8 200 18:54 12.01.2020
922 Clouds 23 1014 78 10000 9.8 200 18:36 12.01.2020
923 Clouds 23 1014 78 10000 9.8 200 18:18 12.01.2020
924 Clouds 24 1014 69 10000 10.3 200 17:42 12.01.2020
925 Clouds 25 1014 69 10000 10.3 200 17:21 12.01.2020
926 Clouds 24 1014 69 10000 9.8 200 16:57 12.01.2020
927 Clouds 25 1014 69 10000 9.8 200 16:38 12.01.2020
928 Clouds 25 1014 69 10000 9.8 200 16:20 12.01.2020
929 Clouds 25 1014 65 10000 9.8 200 15:55 12.01.2020
930 Clouds 25 1014 65 10000 9.8 200 15:55 12.01.2020
931 Clouds 25 1014 65 10000 9.8 200 15:36 12.01.2020
932 Clouds 25 1014 65 10000 9.8 200 15:18 12.01.2020
933 Clear 25 1015 65 10000 9.8 190 14:42 12.01.2020
934 Clear 26 1015 65 10000 9.8 190 14:22 12.01.2020
935 Clear 25 1016 61 10000 10.3 180 13:56 12.01.2020
936 Clear 25 1016 61 10000 10.3 180 13:38 12.01.2020
937 Clear 25 1016 61 10000 10.3 180 13:20 12.01.2020
938 Clear 27 1016 61 10000 10.8 190 12:55 12.01.2020
939 Clear 27 1016 61 10000 10.8 190 12:37 12.01.2020
940 Clear 27 1016 61 10000 10.8 190 12:18 12.01.2020
941 Clouds 27 1016 57 10000 10.8 190 11:41 12.01.2020
942 Clouds 27 1016 57 10000 10.8 190 11:22 12.01.2020
943 Clouds 26 1016 60 10000 10.3 190 10:56 12.01.2020
944 Clouds 26 1016 60 10000 10.3 190 10:37 12.01.2020
945 Clouds 26 1016 60 10000 10.3 190 10:18 12.01.2020
946 Clouds 25 1016 60 10000 9.8 190 09:41 12.01.2020
947 Clouds 25 1016 60 10000 9.8 190 09:22 12.01.2020
948 Clouds 24 1016 73 10000 9.3 190 08:48 12.01.2020
949 Clouds 23 1016 73 10000 9.3 190 08:24 12.01.2020
950 Clouds 22 1016 77 10000 7.2 200 07:47 12.01.2020
951 Clouds 22 1016 77 10000 7.2 200 07:26 12.01.2020
952 Clouds 22 1016 77 10000 7.2 200 07:26 12.01.2020
953 Clear 21 1016 93 0 5.36 190 06:59 12.01.2020
954 Clear 21 1023 83 0 2.24 163 06:36 12.01.2020
955 Clouds 20 1016 93 10000 5.7 190 05:52 12.01.2020
956 Clouds 19 1015 88 10000 5.7 200 04:54 12.01.2020
957 Clear 19 1015 88 10000 4.1 200 03:43 12.01.2020
958 Clear 19 1016 88 10000 5.7 200 02:46 12.01.2020
959 Clear 19 1016 88 10000 5.7 200 02:24 12.01.2020
960 Clear 19 1016 88 10000 5.7 200 01:34 12.01.2020
961 Clear 19 1016 88 10000 5.1 200 00:46 12.01.2020
962 Clear 19 1016 88 10000 5.1 200 00:22 12.01.2020
963 Clear 20 1017 82 10000 6.2 200 23:56 11.01.2020
964 Clear 20 1017 82 10000 6.2 200 23:38 11.01.2020
965 Clear 20 1017 82 10000 6.2 200 23:18 11.01.2020
966 Clear 20 1017 88 10000 6.2 200 22:56 11.01.2020
967 Clear 20 1017 88 10000 6.2 200 22:37 11.01.2020
968 Clear 20 1017 88 10000 6.2 200 22:19 11.01.2020
969 Clear 20 1017 82 10000 5.1 180 21:44 11.01.2020
970 Clear 20 1017 82 10000 5.1 180 21:19 11.01.2020
971 Clear 20 1016 88 10000 6.2 190 20:56 11.01.2020
972 Clear 20 1016 88 10000 6.2 190 20:38 11.01.2020
973 Clear 20 1016 88 10000 6.2 190 20:19 11.01.2020
974 Clear 21 1016 83 10000 6.7 180 19:56 11.01.2020
975 Clear 21 1016 83 10000 6.7 180 19:38 11.01.2020
976 Clear 21 1016 83 10000 6.7 180 19:20 11.01.2020
977 Clear 22 1015 73 10000 7.7 180 18:55 11.01.2020
978 Clear 22 1015 73 10000 7.7 180 18:36 11.01.2020
979 Clear 22 1015 73 10000 7.7 180 18:18 11.01.2020
980 Clear 22 1015 73 10000 7.7 180 18:18 11.01.2020
981 Clear 22 1015 73 10000 7.7 180 18:18 11.01.2020
982 Clear 22 1015 73 10000 7.7 180 18:18 11.01.2020
983 Clear 23 1015 69 10000 7.7 170 17:57 11.01.2020
984 Clear 23 1015 69 10000 7.7 170 17:38 11.01.2020
985 Clear 23 1015 69 10000 7.7 170 17:18 11.01.2020
986 Clear 24 1014 64 10000 8.2 160 16:43 11.01.2020
987 Clear 24 1014 64 10000 8.2 160 16:24 11.01.2020
988 Clear 25 1014 65 10000 7.7 170 15:56 11.01.2020
989 Clear 25 1014 65 10000 7.7 170 15:37 11.01.2020
990 Clear 25 1014 65 10000 7.7 170 15:19 11.01.2020
991 Clear 25 1015 61 10000 8.2 170 14:44 11.01.2020
992 Clear 26 1015 61 10000 8.2 170 14:24 11.01.2020
993 Clear 26 1015 61 10000 5.7 150 13:57 11.01.2020
994 Clear 26 1015 61 10000 5.7 150 13:37 11.01.2020
995 Clear 26 1015 61 10000 5.7 150 13:19 11.01.2020
996 Clear 26 1014 57 10000 5.7 160 12:44 11.01.2020
997 Clear 26 1014 57 10000 5.7 160 12:26 11.01.2020
998 Clear 26 1014 54 10000 3.1 310 11:56 11.01.2020
999 Clear 26 1014 54 10000 3.1 310 11:38 11.01.2020
1000 Clear 26 1014 54 10000 3.1 310 11:18 11.01.2020
1001 Clear 25 1014 57 10000 3.6 280 10:44 11.01.2020
1002 Clear 24 1014 64 10000 3.1 300 10:24 11.01.2020
1003 Clear 24 1014 64 10000 3.1 300 10:24 11.01.2020
1004 Clear 25 1014 64 10000 3.6 310 09:43 11.01.2020
1005 Clear 25 1014 64 10000 3.6 310 09:21 11.01.2020
1006 Clear 23 1014 68 10000 2.6 320 08:43 11.01.2020
1007 Clear 22 1014 68 10000 2.6 320 08:24 11.01.2020
1008 Clear 21 1014 82 10000 3.1 330 07:59 11.01.2020
1009 Clear 20 1014 82 10000 3.1 330 07:41 11.01.2020
1010 Clear 20 1014 82 10000 3.1 330 07:22 11.01.2020
1011 Clear 19 1014 93 10000 2.1 330 06:42 11.01.2020
1012 Clear 17 1013 93 10000 2.1 330 05:29 11.01.2020
1013 Clear 17 1013 93 10000 1 300 04:40 11.01.2020
1014 Clear 17 1013 93 10000 1 300 04:21 11.01.2020
1015 Clear 17 1013 88 10000 1.5 330 02:46 11.01.2020
1016 Clear 18 1013 93 10000 1.5 0 01:47 11.01.2020
1017 Clear 19 1013 93 10000 1.5 0 01:25 11.01.2020
1018 Clear 19 1014 88 10000 3.6 220 00:52 11.01.2020
1019 Clear 19 1014 88 10000 3.6 220 00:25 11.01.2020
1020 Clear 20 1014 88 10000 4.1 240 23:58 10.01.2020
1021 Clear 20 1014 88 10000 4.1 240 23:39 10.01.2020
1022 Clear 20 1014 88 10000 4.1 240 23:20 10.01.2020
1023 Clear 20 1014 88 10000 4.1 230 22:41 10.01.2020
1024 Clear 20 1014 88 10000 4.1 230 22:22 10.01.2020
1025 Clear 20 1014 88 10000 3.1 230 21:59 10.01.2020
1026 Clear 20 1014 88 10000 3.1 230 21:41 10.01.2020
1027 Clear 21 1014 88 10000 3.1 230 21:21 10.01.2020
1028 Clear 21 1014 88 10000 3.6 210 20:59 10.01.2020
1029 Clear 21 1014 88 10000 3.6 210 20:40 10.01.2020
1030 Clear 21 1014 88 10000 3.6 210 20:22 10.01.2020
1031 Clear 22 1014 78 10000 5.1 210 19:41 10.01.2020
1032 Clear 23 1014 78 10000 5.1 210 19:21 10.01.2020
1033 Clear 24 1014 64 10000 5.1 200 18:58 10.01.2020
1034 Clear 24 1014 64 10000 5.1 200 18:40 10.01.2020
1035 Clear 25 1014 64 10000 5.1 200 18:18 10.01.2020
1036 Clear 26 1014 57 10000 5.7 180 17:56 10.01.2020
1037 Clear 26 1014 57 10000 5.7 180 17:38 10.01.2020
1038 Clear 26 1014 57 10000 5.7 180 17:20 10.01.2020
1039 Clear 26 1014 54 10000 6.7 190 16:55 10.01.2020
1040 Clear 26 1014 54 10000 6.7 190 16:36 10.01.2020
1041 Clear 27 1014 54 10000 6.7 190 16:18 10.01.2020
1042 Clear 27 1015 47 10000 7.2 180 15:55 10.01.2020
1043 Clear 26 1015 47 10000 7.2 180 15:36 10.01.2020
1044 Clear 28 1015 47 10000 7.2 180 15:18 10.01.2020
1045 Clear 27 1015 47 10000 6.7 190 14:42 10.01.2020
1046 Clear 28 1015 47 10000 6.7 190 14:20 10.01.2020
1047 Clear 28 1015 44 10000 5.7 210 13:58 10.01.2020
1048 Clear 28 1015 44 10000 5.7 210 13:58 10.01.2020
1049 Clear 28 1015 44 10000 5.7 210 13:40 10.01.2020
1050 Clear 28 1015 44 10000 5.7 210 13:22 10.01.2020
1051 Clear 27 1016 44 10000 4.6 210 12:57 10.01.2020
1052 Clear 27 1016 44 10000 4.6 210 12:38 10.01.2020
1053 Clear 27 1016 42 10000 5.1 200 12:18 10.01.2020
1054 Clear 27 1016 42 10000 5.1 200 11:54 10.01.2020
1055 Clear 26 1016 47 10000 4.1 200 11:36 10.01.2020
1056 Clear 25 1016 47 10000 4.1 200 11:18 10.01.2020
1057 Clear 26 1017 47 10000 4.1 200 10:42 10.01.2020
1058 Clear 26 1017 47 10000 4.1 200 10:24 10.01.2020
1059 Clear 25 1017 47 10000 3.1 220 09:56 10.01.2020
1060 Clear 24 1017 53 10000 2.6 230 09:37 10.01.2020
1061 Clear 24 1017 53 10000 2.6 230 09:19 10.01.2020
1062 Clear 22 1017 64 10000 1.5 0 08:41 10.01.2020
1063 Clear 22 1017 64 10000 1.5 0 08:23 10.01.2020
1064 Clouds 21 1018 72 10000 2.1 240 07:44 10.01.2020
1065 Clouds 20 1018 72 10000 2.1 240 07:26 10.01.2020
1066 Clouds 19 1018 77 10000 3.6 220 06:46 10.01.2020
1067 Clouds 19 1018 77 10000 3.6 220 06:26 10.01.2020
1068 Clouds 17 1017 88 10000 3.1 240 05:48 10.01.2020
1069 Clouds 17 1017 82 10000 3.6 210 03:37 10.01.2020
1070 Clouds 17 1017 82 10000 3.6 210 03:18 10.01.2020
1071 Clouds 17 1018 82 10000 5.1 180 02:49 10.01.2020
1072 Clouds 17 1019 82 10000 5.1 170 01:47 10.01.2020
1073 Clouds 17 1019 82 10000 5.1 170 01:28 10.01.2020
1074 Clouds 18 1019 82 10000 5.7 190 00:44 10.01.2020
1075 Clouds 18 1020 82 10000 5.1 190 23:58 09.01.2020
1076 Clouds 18 1020 82 10000 5.1 190 23:39 09.01.2020
1077 Clouds 18 1020 82 10000 5.1 190 23:20 09.01.2020
1078 Clouds 18 1020 82 10000 6.2 180 22:57 09.01.2020
1079 Clouds 18 1020 82 10000 6.2 180 22:39 09.01.2020
1080 Clouds 18 1020 82 10000 6.2 180 22:19 09.01.2020
1081 Clouds 18 1020 82 10000 6.2 180 22:19 09.01.2020
1082 Clouds 18 1020 82 10000 7.7 180 21:57 09.01.2020
1083 Clouds 18 1020 82 10000 7.7 180 21:38 09.01.2020
1084 Clouds 18 1020 82 10000 7.7 180 21:19 09.01.2020
1085 Clouds 18 1020 82 10000 8.2 180 20:58 09.01.2020
1086 Clouds 18 1020 82 10000 8.2 180 20:39 09.01.2020
1087 Clouds 18 1020 82 10000 8.2 180 20:20 09.01.2020
1088 Clouds 18 1019 88 10000 7.7 180 19:57 09.01.2020
1089 Clouds 18 1019 88 10000 7.7 180 19:38 09.01.2020
1090 Clouds 19 1019 88 10000 7.7 180 19:19 09.01.2020
1091 Clouds 19 1018 82 10000 8.7 170 18:55 09.01.2020
1092 Clouds 20 1018 82 10000 8.7 170 18:55 09.01.2020
1093 Clouds 20 1018 82 10000 8.7 170 18:37 09.01.2020
1094 Clouds 20 1018 82 10000 8.7 170 18:19 09.01.2020
1095 Clouds 20 1018 82 10000 9.3 180 17:41 09.01.2020
1096 Clouds 21 1018 82 10000 9.3 180 17:18 09.01.2020
1097 Clouds 23 1017 47 10000 6.7 200 16:55 09.01.2020
1098 Clouds 23 1017 47 10000 6.7 200 16:36 09.01.2020
1099 Clouds 24 1017 47 10000 6.7 200 16:18 09.01.2020
1100 Clouds 24 1017 41 10000 3.6 260 15:41 09.01.2020
1101 Clouds 25 1017 41 10000 3.6 260 15:19 09.01.2020
1102 Clouds 25 1017 44 10000 5.1 320 14:55 09.01.2020
1103 Clouds 25 1017 44 10000 5.1 320 14:36 09.01.2020
1104 Clouds 25 1017 44 10000 5.1 320 14:18 09.01.2020
1105 Clouds 24 1017 47 10000 6.7 320 13:54 09.01.2020
1106 Clouds 24 1017 47 10000 6.7 320 13:36 09.01.2020
1107 Clouds 24 1017 47 10000 6.7 320 13:18 09.01.2020
1108 Clouds 25 1017 47 10000 7.2 330 12:41 09.01.2020
1109 Clouds 25 1017 47 10000 7.2 330 12:22 09.01.2020
1110 Clouds 24 1018 53 10000 6.2 320 11:58 09.01.2020
1111 Clouds 24 1018 53 10000 6.2 320 11:40 09.01.2020
1112 Clouds 23 1018 53 10000 6.2 320 11:22 09.01.2020
1113 Clouds 23 1017 53 10000 6.2 310 10:44 09.01.2020
1114 Clouds 23 1017 53 10000 6.2 310 10:23 09.01.2020
1115 Clouds 23 1017 60 10000 5.1 300 09:59 09.01.2020
1116 Clouds 23 1017 60 10000 5.1 300 09:39 09.01.2020
1117 Clouds 22 1017 60 10000 5.1 300 09:21 09.01.2020
1118 Clouds 22 1017 60 10000 5.1 300 09:21 09.01.2020
1119 Clouds 22 1017 68 10000 6.2 320 08:55 09.01.2020
1120 Clouds 22 1017 68 10000 6.2 320 08:37 09.01.2020
1121 Clouds 20 1017 68 10000 6.2 320 08:19 09.01.2020
1122 Clouds 21 1016 68 10000 4.6 310 07:42 09.01.2020
1123 Clouds 21 1016 68 10000 4.6 310 07:42 09.01.2020
1124 Clouds 20 1016 68 10000 4.6 310 07:23 09.01.2020
1125 Clouds 19 1016 77 10000 5.1 340 06:39 09.01.2020
1126 Clouds 19 1016 77 10000 5.1 340 06:20 09.01.2020
1127 Clouds 18 1015 82 10000 5.7 330 05:49 09.01.2020
1128 Clouds 18 1015 82 10000 5.7 330 04:44 09.01.2020
1129 Clouds 18 1014 77 10000 5.1 330 03:38 09.01.2020
1130 Clouds 18 1014 82 10000 6.2 330 02:54 09.01.2020
1131 Clouds 18 1014 82 10000 6.2 330 02:28 09.01.2020
1132 Clouds 17 1014 88 10000 3.1 350 01:39 09.01.2020
1133 Clouds 18 1015 77 10000 3.1 350 00:43 09.01.2020
1134 Clouds 19 1015 77 10000 3.1 350 00:21 09.01.2020
1135 Clouds 20 1015 68 10000 2.1 330 23:55 08.01.2020
1136 Clouds 19 1015 68 10000 2.1 330 23:37 08.01.2020
1137 Clouds 19 1015 68 10000 2.1 330 23:18 08.01.2020
1138 Clouds 20 1015 68 10000 2.6 210 22:39 08.01.2020
1139 Clouds 20 1015 68 10000 2.6 210 22:21 08.01.2020
1140 Clouds 19 1014 72 10000 3.6 170 21:58 08.01.2020
1141 Clouds 19 1014 72 10000 3.6 170 21:38 08.01.2020
1142 Clouds 19 1014 72 10000 3.6 170 21:20 08.01.2020
1143 Clouds 19 1014 72 10000 3.6 170 21:20 08.01.2020
1144 Clouds 20 1014 72 10000 5.7 210 20:58 08.01.2020
1145 Clouds 20 1014 72 10000 5.7 210 20:40 08.01.2020
1146 Clouds 20 1014 72 10000 5.7 210 20:20 08.01.2020
1147 Clouds 20 1013 77 10000 4.6 190 19:56 08.01.2020
1148 Clouds 20 1013 77 10000 4.6 190 19:37 08.01.2020
1149 Clouds 20 1012 73 10000 6.7 210 19:19 08.01.2020
1150 Clouds 20 1012 73 10000 6.7 210 19:19 08.01.2020
1151 Clouds 20 1012 73 10000 6.7 210 18:56 08.01.2020
1152 Clouds 20 1012 73 10000 6.7 210 18:37 08.01.2020
1153 Clouds 20 1012 73 10000 6.7 210 18:18 08.01.2020
1154 Clouds 21 1010 68 10000 7.2 210 17:55 08.01.2020
1155 Clouds 21 1010 68 10000 7.2 210 17:36 08.01.2020
1156 Clouds 21 1010 68 10000 7.2 210 17:18 08.01.2020
1157 Clouds 21 1010 64 10000 6.2 220 16:54 08.01.2020
1158 Clouds 22 1010 64 10000 6.2 220 16:36 08.01.2020
1159 Clouds 22 1010 64 10000 6.2 220 16:18 08.01.2020
1160 Clouds 23 1009 60 10000 6.2 230 15:40 08.01.2020
1161 Clouds 23 1009 60 10000 6.2 230 15:20 08.01.2020
1162 Clouds 24 1009 54 10000 6.2 310 14:56 08.01.2020
1163 Clouds 24 1009 54 10000 6.2 310 14:38 08.01.2020
1164 Clouds 24 1009 54 10000 6.2 310 14:19 08.01.2020
1165 Clouds 25 1009 54 10000 6.7 320 13:40 08.01.2020
1166 Clouds 25 1009 54 10000 6.7 320 13:19 08.01.2020
1167 Clouds 24 1010 69 10000 7.7 310 12:42 08.01.2020
1168 Clouds 24 1010 69 10000 7.7 310 12:19 08.01.2020
1169 Clouds 25 1010 69 10000 6.7 320 11:55 08.01.2020
1170 Clouds 25 1010 69 10000 6.7 320 11:37 08.01.2020
1171 Clouds 25 1010 69 10000 6.7 320 11:19 08.01.2020
1172 Clouds 24 1009 73 10000 5.7 310 10:55 08.01.2020
1173 Clouds 24 1009 73 10000 5.7 310 10:37 08.01.2020
1174 Clouds 24 1009 73 10000 5.7 310 10:18 08.01.2020
1175 Clouds 24 1009 69 10000 5.7 300 09:41 08.01.2020
1176 Clouds 22 1009 78 10000 6.2 310 09:19 08.01.2020
1177 Clouds 23 1009 73 10000 6.2 320 08:56 08.01.2020
1178 Clouds 23 1009 73 10000 6.2 320 08:37 08.01.2020
1179 Clouds 21 1009 78 10000 4.1 340 08:19 08.01.2020
1180 Clouds 20 1009 82 9000 2.6 340 07:48 08.01.2020
1181 Clouds 20 1009 82 9000 2.6 340 07:29 08.01.2020
1182 Clouds 18 1008 93 10000 2.6 310 06:45 08.01.2020
1183 Clouds 19 1008 93 10000 2.6 310 06:19 08.01.2020
1184 Clouds 18 1007 100 10000 1 0 05:41 08.01.2020
1185 Clouds 19 1006 100 8000 1.5 0 04:56 08.01.2020
1186 Clouds 19 1006 100 8000 1.5 0 04:24 08.01.2020
1187 Mist 19 1006 94 3000 3.1 200 02:45 08.01.2020
1188 Mist 19 1006 94 3000 3.1 200 02:21 08.01.2020
1189 Clouds 19 1006 100 8000 2.6 240 01:42 08.01.2020
1190 Clouds 19 1006 100 8000 2.6 240 01:19 08.01.2020
1191 Clouds 20 1006 94 10000 1.5 0 00:27 08.01.2020
1192 Clouds 20 1007 94 10000 2.1 210 23:55 07.01.2020
1193 Clouds 20 1007 94 10000 2.1 210 23:37 07.01.2020
1194 Clouds 20 1007 94 10000 2.1 210 23:19 07.01.2020
1195 Clouds 20 1007 94 10000 3.6 210 22:40 07.01.2020
1196 Clouds 21 1007 94 10000 3.6 210 22:20 07.01.2020
1197 Clear 20 1007 94 10000 3.6 210 21:56 07.01.2020
1198 Clear 20 1007 94 10000 3.6 210 21:38 07.01.2020
1199 Clear 21 1007 94 10000 3.6 210 21:20 07.01.2020
1200 Clear 21 1007 88 10000 4.6 210 20:55 07.01.2020
1201 Clear 22 1007 88 10000 4.6 210 20:36 07.01.2020
1202 Clear 22 1007 88 10000 4.6 210 20:18 07.01.2020
1203 Clear 23 1006 78 10000 4.6 230 19:38 07.01.2020
1204 Clear 22 1006 78 10000 4.6 230 19:20 07.01.2020
1205 Clear 24 1006 69 10000 4.1 210 18:58 07.01.2020
1206 Clear 24 1006 69 10000 4.1 210 18:40 07.01.2020
1207 Clear 24 1006 69 10000 4.1 210 18:40 07.01.2020
1208 Clear 25 1006 69 10000 4.1 210 18:19 07.01.2020
1209 Clear 25 1006 57 10000 5.1 180 17:59 07.01.2020
1210 Clear 25 1006 57 10000 5.1 180 17:39 07.01.2020
1211 Clear 27 1006 57 10000 5.1 180 17:21 07.01.2020
1212 Clear 27 1006 48 10000 6.7 190 16:57 07.01.2020
1213 Clear 27 1006 48 10000 6.7 190 16:38 07.01.2020
1214 Clear 27 1006 48 10000 6.7 190 16:19 07.01.2020
1215 Clear 29 1006 42 10000 5.1 200 15:58 07.01.2020
1216 Clear 29 1006 42 10000 5.1 200 15:39 07.01.2020
1217 Clear 30 1006 42 10000 5.1 200 15:21 07.01.2020
1218 Clear 30 1007 42 10000 5.1 190 14:54 07.01.2020
1219 Clear 28 1007 42 10000 5.1 190 14:36 07.01.2020
1220 Clouds 29 1007 42 10000 5.1 190 14:18 07.01.2020
1221 Clouds 29 1008 42 10000 6.7 210 13:39 07.01.2020
1222 Clouds 29 1008 42 10000 6.7 210 13:19 07.01.2020
1223 Clouds 27 1008 39 10000 4.6 200 12:41 07.01.2020
1224 Clouds 29 1008 39 10000 4.6 200 12:20 07.01.2020
1225 Clouds 28 1009 39 10000 3.1 100 11:55 07.01.2020
1226 Clouds 28 1009 39 10000 3.1 100 11:36 07.01.2020
1227 Clouds 28 1009 39 10000 3.1 100 11:18 07.01.2020
1228 Clouds 27 1009 44 10000 1 0 10:41 07.01.2020
1229 Clouds 27 1009 44 10000 1 0 10:41 07.01.2020
1230 Clouds 26 1009 44 10000 1 0 10:23 07.01.2020
1231 Clouds 26 1009 47 10000 1 0 09:58 07.01.2020
1232 Clouds 25 1009 47 10000 1 0 09:38 07.01.2020
1233 Clouds 25 1009 53 10000 1.5 0 09:20 07.01.2020
1234 Clouds 22 1010 68 10000 2.6 250 08:43 07.01.2020
1235 Clouds 21 1010 68 10000 2.6 250 08:25 07.01.2020
1236 Clouds 21 1009 64 10000 2.6 210 07:54 07.01.2020
1237 Clouds 21 1009 64 10000 2.6 210 07:28 07.01.2020
1238 Clouds 21 1009 64 10000 2.6 210 07:28 07.01.2020
1239 Clouds 21 1009 64 10000 2.6 210 07:28 07.01.2020
1240 Clouds 20 1009 64 10000 2.6 210 06:53 07.01.2020
1241 Clouds 20 1009 64 10000 2.6 210 06:34 07.01.2020
1242 Clouds 19 1008 72 10000 1 0 05:55 07.01.2020
1243 Clouds 19 1008 72 10000 2.6 200 04:41 07.01.2020
1244 Clouds 19 1008 68 10000 4.1 170 03:27 07.01.2020
1245 -273 0 0 0 0 0 02:22 07.01.2020
1246 Clouds 19 1009 68 10000 8.7 160 01:54 07.01.2020
1247 Clouds 19 1009 68 10000 8.7 160 01:30 07.01.2020
1248 Clouds 19 1010 68 10000 7.7 180 00:37 07.01.2020
1249 Clouds 19 1010 68 10000 7.7 180 00:19 07.01.2020
1250 Clouds 19 1012 63 10000 8.7 160 23:55 06.01.2020
1251 Clouds 19 1012 63 10000 8.7 160 23:36 06.01.2020
1252 Clouds 19 1012 63 10000 8.7 160 23:18 06.01.2020
1253 Clouds 20 1011 64 10000 7.7 190 22:42 06.01.2020
1254 Clouds 20 1011 64 10000 7.7 190 22:22 06.01.2020
1255 Clouds 19 1012 72 10000 7.7 180 21:56 06.01.2020
1256 Clouds 19 1012 72 10000 7.7 180 21:38 06.01.2020
1257 Clouds 19 1012 72 10000 7.7 180 21:20 06.01.2020
1258 Clouds 19 1012 72 10000 7.7 180 21:20 06.01.2020
1259 Clouds 19 1012 68 10000 7.7 190 20:56 06.01.2020
1260 Clouds 19 1012 68 10000 7.7 190 20:38 06.01.2020
1261 Clouds 19 1012 68 10000 7.7 190 20:20 06.01.2020
1262 Clouds 19 1012 68 10000 9.3 180 19:56 06.01.2020
1263 Clouds 19 1012 68 10000 9.3 180 19:56 06.01.2020
1264 Clouds 20 1012 68 10000 9.3 180 19:37 06.01.2020
1265 Clouds 20 1012 68 10000 9.3 180 19:19 06.01.2020
1266 Clouds 20 1012 68 10000 9.3 180 19:19 06.01.2020
1267 Clouds 20 1013 60 10000 9.3 190 18:46 06.01.2020
1268 Clouds 20 1013 60 10000 9.3 190 18:21 06.01.2020
1269 Clouds 20 1013 60 10000 9.8 180 17:58 06.01.2020
1270 Clouds 21 1013 60 10000 9.8 180 17:37 06.01.2020
1271 Clouds 21 1013 60 10000 9.8 180 17:18 06.01.2020
1272 Clouds 21 1013 56 10000 10.8 190 16:44 06.01.2020
1273 Clouds 21 1013 56 10000 10.8 190 16:25 06.01.2020
1274 Clouds 21 1013 56 10000 10.8 190 16:25 06.01.2020
1275 Clouds 21 1013 52 10000 8.7 180 15:59 06.01.2020
1276 Clouds 21 1013 52 10000 8.7 180 15:39 06.01.2020
1277 Clouds 21 1013 52 10000 8.7 180 15:19 06.01.2020
1278 Clouds 21 1014 56 10000 8.2 170 14:57 06.01.2020
1279 Clouds 21 1014 56 10000 8.2 170 14:39 06.01.2020
1280 Clouds 21 1014 56 10000 8.2 170 14:18 06.01.2020
1281 Clouds 22 1014 53 10000 8.7 190 13:54 06.01.2020
1282 Clouds 22 1014 53 10000 8.7 190 13:36 06.01.2020
1283 Clouds 22 1014 53 10000 8.7 190 13:18 06.01.2020
1284 Clouds 21 1014 56 10000 6.7 190 12:41 06.01.2020
1285 Clouds 21 1014 56 10000 6.7 190 12:20 06.01.2020
1286 Clouds 22 1014 49 10000 6.7 190 11:57 06.01.2020
1287 Clouds 22 1014 49 10000 6.7 190 11:38 06.01.2020
1288 Clouds 22 1014 49 10000 6.7 190 11:38 06.01.2020
1289 Clouds 22 1014 49 10000 6.7 190 11:20 06.01.2020
1290 Clouds 21 1015 52 10000 5.7 160 10:43 06.01.2020
1291 Clouds 21 1015 52 10000 5.7 160 10:43 06.01.2020
1292 Clouds 21 1015 52 10000 5.7 160 10:25 06.01.2020
1293 Clouds 21 1014 52 10000 5.7 170 09:57 06.01.2020
1294 Clouds 21 1014 52 10000 5.7 170 09:37 06.01.2020
1295 Clouds 21 1014 52 10000 5.7 170 09:19 06.01.2020
1296 Clouds 19 1014 59 10000 5.1 180 08:43 06.01.2020
1297 Clouds 19 1014 59 10000 5.1 180 08:24 06.01.2020
1298 Clouds 19 1014 68 10000 4.1 210 07:48 06.01.2020
1299 Clouds 18 1014 68 10000 4.1 210 07:26 06.01.2020
1300 Clouds 18 1014 63 10000 3.1 200 06:45 06.01.2020
1301 Clouds 18 1014 63 10000 3.1 200 06:19 06.01.2020
1302 Clouds 17 1014 72 10000 3.6 210 05:42 06.01.2020
1303 Clouds 17 1013 72 10000 3.1 200 04:33 06.01.2020
1304 Clouds 17 1013 72 10000 3.6 210 03:59 06.01.2020
1305 Clouds 18 1013 72 10000 3.6 200 02:46 06.01.2020
1306 Clouds 18 1013 72 10000 3.6 200 02:23 06.01.2020
1307 Clouds 17 1014 88 10000 2.6 200 01:43 06.01.2020
1308 Clouds 17 1014 88 10000 2.6 200 01:21 06.01.2020
1309 Clouds 18 1013 82 10000 2.1 140 00:41 06.01.2020
1310 Clouds 18 1013 82 10000 2.1 140 00:20 06.01.2020
1311 Clouds 18 1014 77 10000 3.6 160 23:41 05.01.2020
1312 Clouds 18 1014 77 10000 3.6 160 23:22 05.01.2020
1313 Clouds 18 1014 82 10000 1.5 0 22:55 05.01.2020
1314 Clouds 18 1014 82 10000 1.5 0 22:37 05.01.2020
1315 Clouds 19 1014 82 10000 1.5 0 22:19 05.01.2020
1316 Clouds 18 1014 82 10000 4.1 180 21:54 05.01.2020
1317 Clouds 18 1014 82 10000 4.1 180 21:36 05.01.2020
1318 Clouds 19 1014 82 10000 4.1 180 21:18 05.01.2020
1319 Clouds 19 1014 82 10000 4.1 180 20:54 05.01.2020
1320 Clouds 19 1014 82 10000 4.1 180 20:36 05.01.2020
1321 Clouds 19 1014 82 10000 4.1 180 20:18 05.01.2020
1322 Clouds 20 1014 82 10000 1.5 140 19:41 05.01.2020
1323 Clouds 20 1014 82 10000 1.5 140 19:21 05.01.2020
1324 Clouds 20 1013 82 10000 3.1 120 18:57 05.01.2020
1325 Clouds 19 1013 82 10000 3.1 120 18:38 05.01.2020
1326 Clouds 19 1013 82 10000 3.1 120 18:20 05.01.2020
1327 Clouds 20 1013 82 10000 4.6 130 17:59 05.01.2020
1328 Clouds 19 1013 82 10000 4.6 130 17:39 05.01.2020
1329 Clouds 20 1013 82 10000 4.6 130 17:20 05.01.2020
1330 Clouds 21 1013 68 10000 4.6 300 16:57 05.01.2020
1331 Clouds 21 1013 68 10000 4.6 300 16:39 05.01.2020
1332 Clouds 21 1013 68 10000 4.6 300 16:20 05.01.2020
1333 Clouds 22 1013 68 10000 6.7 280 15:41 05.01.2020
1334 Clouds 22 1013 68 10000 6.7 280 15:22 05.01.2020
1335 Clouds 22 1013 68 10000 6.7 280 15:22 05.01.2020
1336 Clouds 22 1013 68 10000 6.7 280 15:22 05.01.2020
1337 Clouds 23 1013 60 10000 7.2 300 14:57 05.01.2020
1338 Clouds 23 1013 60 10000 7.2 300 14:39 05.01.2020
1339 Clouds 23 1013 60 10000 7.2 300 14:21 05.01.2020
1340 Clouds 23 1014 56 10000 7.2 300 13:59 05.01.2020
1341 Clouds 23 1014 56 10000 7.2 300 13:39 05.01.2020
1342 Clouds 23 1014 56 10000 7.2 300 13:20 05.01.2020
1343 Clouds 23 1013 53 10000 8.2 310 12:57 05.01.2020
1344 Clouds 23 1013 53 10000 8.2 310 12:38 05.01.2020
1345 Clouds 23 1013 53 10000 8.2 310 12:20 05.01.2020
1346 Clouds 23 1013 53 10000 8.2 310 12:20 05.01.2020
1347 Clouds 23 1013 56 10000 8.2 300 11:55 05.01.2020
1348 Clouds 23 1013 56 10000 8.2 300 11:36 05.01.2020
1349 Clouds 23 1013 56 10000 8.2 300 11:18 05.01.2020
1350 Clouds 22 1013 64 10000 7.2 300 10:41 05.01.2020
1351 Clouds 22 1013 64 10000 7.2 300 10:20 05.01.2020
1352 Clouds 22 1013 64 10000 7.2 300 10:20 05.01.2020
1353 Clouds 22 1013 68 10000 7.2 320 09:57 05.01.2020
1354 Clouds 22 1013 68 10000 7.2 320 09:38 05.01.2020
1355 Clouds 22 1013 68 10000 7.2 320 09:20 05.01.2020
1356 Clouds 22 1013 77 10000 6.2 330 08:45 05.01.2020
1357 Clouds 21 1013 77 10000 6.2 330 08:21 05.01.2020
1358 Clouds 20 1013 82 10000 5.1 330 07:47 05.01.2020
1359 Clouds 20 1013 82 10000 5.1 330 07:29 05.01.2020
1360 Clouds 19 1012 88 10000 4.1 340 06:55 05.01.2020
1361 Clouds 18 1012 93 10000 3.6 300 05:43 05.01.2020
1362 Clouds 17 1011 93 10000 3.1 330 04:56 05.01.2020
1363 Clouds 17 1011 93 10000 3.1 330 04:19 05.01.2020
1364 Clouds 18 1011 88 10000 3.1 340 03:40 05.01.2020
1365 Clouds 19 1012 82 10000 2.6 310 02:36 05.01.2020
1366 Clouds 19 1012 82 10000 2.6 310 02:36 05.01.2020
1367 Clouds 19 1012 82 10000 2.6 310 02:18 05.01.2020
1368 Clouds 19 1012 77 10000 2.1 60 01:21 05.01.2020
1369 Clouds 19 1012 82 10000 0.5 0 00:58 05.01.2020
1370 Clouds 19 1012 82 10000 0.5 0 00:39 05.01.2020
1371 Clouds 18 1012 82 10000 0.5 0 00:20 05.01.2020
1372 Clouds 18 1013 82 10000 1.5 60 23:58 04.01.2020
1373 Clouds 18 1013 82 10000 1.5 60 23:38 04.01.2020
1374 Clouds 18 1013 82 10000 1.5 60 23:18 04.01.2020
1375 Clouds 19 1012 72 10000 2.1 160 22:39 04.01.2020
1376 Clouds 19 1012 72 10000 2.1 160 22:20 04.01.2020
1377 Clouds 19 1012 77 10000 2.6 190 21:56 04.01.2020
1378 Clouds 19 1012 77 10000 2.6 190 21:37 04.01.2020
1379 Clouds 19 1012 77 10000 2.6 190 21:19 04.01.2020
1380 Clouds 19 1012 77 10000 2.6 190 21:19 04.01.2020
1381 Clouds 19 1012 77 10000 2.6 190 21:19 04.01.2020
1382 Clouds 19 1012 72 10000 3.6 200 20:56 04.01.2020
1383 Clear 19 1012 72 10000 3.6 200 20:37 04.01.2020
1384 Clear 19 1012 72 10000 3.6 200 20:19 04.01.2020
1385 Clear 20 1012 68 10000 5.7 170 19:42 04.01.2020
1386 Clear 20 1012 68 10000 5.7 170 19:23 04.01.2020
1387 Clear 21 1011 60 10000 6.2 180 18:58 04.01.2020
1388 Clear 21 1011 60 10000 6.2 180 18:39 04.01.2020
1389 Clear 21 1011 60 10000 6.2 180 18:20 04.01.2020
1390 Clouds 22 1010 60 10000 7.7 160 17:58 04.01.2020
1391 Clouds 23 1010 60 10000 7.7 160 17:40 04.01.2020
1392 Clouds 23 1010 60 10000 7.7 160 17:21 04.01.2020
1393 Clear 23 1010 60 10000 6.2 170 16:42 04.01.2020
1394 Clear 23 1010 60 10000 6.2 170 16:24 04.01.2020
1395 Clear 23 1010 60 10000 5.7 170 15:59 04.01.2020
1396 Clear 23 1010 60 10000 5.7 170 15:41 04.01.2020
1397 Clear 24 1010 60 10000 5.7 170 15:19 04.01.2020
1398 Clear 24 1010 57 10000 6.2 160 14:58 04.01.2020
1399 Clear 24 1010 57 10000 6.2 160 14:58 04.01.2020
1400 Clear 24 1010 57 10000 6.2 160 14:58 04.01.2020
1401 Clear 24 1010 57 10000 6.2 160 14:39 04.01.2020
1402 Clouds 24 1010 57 10000 6.2 160 14:19 04.01.2020
1403 Clouds 24 1011 61 10000 5.1 200 13:56 04.01.2020
1404 Clouds 24 1011 61 10000 5.1 200 13:37 04.01.2020
1405 Clouds 24 1011 61 10000 5.1 200 13:18 04.01.2020
1406 Clouds 25 1011 61 10000 4.6 200 12:42 04.01.2020
1407 Clouds 25 1011 61 10000 4.6 200 12:20 04.01.2020
1408 Clouds 26 1012 57 10000 3.6 190 11:59 04.01.2020
1409 Clouds 25 1012 57 10000 3.6 190 11:40 04.01.2020
1410 Clouds 26 1012 57 10000 3.6 190 11:20 04.01.2020
1411 Clouds 24 1012 60 10000 3.6 220 10:58 04.01.2020
1412 Clouds 25 1012 60 10000 3.6 220 10:38 04.01.2020
1413 Clouds 24 1012 60 10000 3.6 220 10:19 04.01.2020
1414 Clouds 24 1012 64 10000 3.6 230 09:42 04.01.2020
1415 Clouds 23 1012 64 10000 3.6 230 09:24 04.01.2020
1416 Clouds 22 1012 68 10000 4.1 230 08:44 04.01.2020
1417 Clouds 22 1012 68 10000 4.1 230 08:25 04.01.2020
1418 Clouds 20 1013 82 10000 3.6 240 07:51 04.01.2020
1419 Clouds 20 1013 82 10000 3.6 240 07:32 04.01.2020
1420 Clouds 19 1012 93 10000 4.1 240 06:39 04.01.2020
1421 Clouds 18 1012 93 10000 4.1 240 05:46 04.01.2020
1422 Clouds 18 1013 93 10000 4.1 230 04:48 04.01.2020
1423 Clouds 18 1013 88 10000 5.1 220 04:28 04.01.2020
1424 Clouds 18 1013 88 10000 5.1 220 03:20 04.01.2020
1425 Clouds 18 1013 88 10000 7.2 210 02:38 04.01.2020
1426 Clear 18 1013 88 10000 7.2 210 02:18 04.01.2020
1427 Clear 18 1014 88 10000 6.2 210 01:32 04.01.2020
1428 Clear 18 1014 88 10000 6.2 210 01:32 04.01.2020
1429 Clear 18 1014 88 10000 6.2 210 01:32 04.01.2020
1430 Clear 18 1014 88 10000 5.7 200 00:58 04.01.2020
1431 Clear 18 1014 88 10000 5.7 200 00:29 04.01.2020
1432 Clear 19 1015 82 10000 6.7 200 23:53 03.01.2020
1433 Clear 19 1015 82 10000 6.7 200 23:28 03.01.2020
1434 Clouds 19 1015 82 10000 6.7 200 22:57 03.01.2020
1435 Clouds 19 1015 82 10000 6.7 200 22:39 03.01.2020
1436 Clouds 19 1015 82 10000 6.7 200 22:18 03.01.2020
1437 Clouds 19 1016 82 10000 7.2 200 21:57 03.01.2020
1438 Clouds 19 1016 82 10000 7.2 200 21:37 03.01.2020
1439 Clouds 19 1016 82 10000 7.2 200 21:18 03.01.2020
1440 Clouds 19 1016 82 10000 7.7 200 20:54 03.01.2020
1441 Clouds 19 1016 82 10000 7.7 200 20:36 03.01.2020
1442 Clouds 19 1016 82 10000 7.7 200 20:18 03.01.2020
1443 Clouds 20 1016 77 10000 8.2 190 19:42 03.01.2020
1444 Clouds 20 1016 77 10000 8.2 190 19:23 03.01.2020
1445 Clouds 20 1015 73 10000 9.3 190 18:54 03.01.2020
1446 Clouds 20 1015 73 10000 9.3 190 18:36 03.01.2020
1447 Clouds 20 1015 73 10000 9.3 190 18:18 03.01.2020
1448 Clouds 22 1015 68 10000 9.8 190 17:41 03.01.2020
1449 Clouds 21 1015 68 10000 9.8 190 17:21 03.01.2020
1450 Clouds 22 1015 64 10000 9.3 180 16:45 03.01.2020
1451 Clouds 22 1015 64 10000 9.3 180 16:26 03.01.2020
1452 Clouds 23 1015 64 10000 8.2 180 16:00 03.01.2020
1453 Clouds 23 1015 64 10000 8.2 180 15:41 03.01.2020
1454 Clouds 23 1015 64 10000 8.2 180 15:19 03.01.2020
1455 Clouds 24 1015 57 10000 8.2 180 14:40 03.01.2020
1456 Clouds 24 1015 57 10000 8.2 180 14:40 03.01.2020
1457 Clouds 24 1015 57 10000 8.2 180 14:20 03.01.2020
1458 Clouds 23 1016 64 10000 8.7 180 13:59 03.01.2020
1459 Clouds 23 1016 64 10000 8.7 180 13:40 03.01.2020
1460 Clouds 24 1016 64 10000 8.7 180 13:21 03.01.2020
1461 Clouds 24 1016 64 10000 8.2 190 12:41 03.01.2020
1462 Clouds 24 1016 64 10000 8.2 190 12:22 03.01.2020
1463 Clouds 24 1016 60 10000 8.7 190 11:54 03.01.2020
1464 Clouds 24 1016 60 10000 8.7 190 11:35 03.01.2020
1465 Clouds 24 1016 64 10000 8.2 200 10:58 03.01.2020
1466 Clouds 24 1016 64 10000 8.2 200 10:40 03.01.2020
1467 Clouds 24 1016 64 10000 8.2 200 10:22 03.01.2020
1468 Clouds 23 1016 68 10000 8.2 190 09:56 03.01.2020
1469 Clouds 23 1016 68 10000 8.2 190 09:38 03.01.2020
1470 Clouds 23 1016 68 10000 8.2 190 09:20 03.01.2020
1471 Clouds 23 1016 68 10000 9.3 190 08:45 03.01.2020
1472 Clouds 23 1016 68 10000 9.3 190 08:23 03.01.2020
1473 Clouds 21 1016 77 10000 7.7 200 07:57 03.01.2020
1474 Clouds 20 1016 77 10000 7.7 200 07:38 03.01.2020
1475 Clouds 20 1016 77 10000 7.7 200 07:18 03.01.2020
1476 Clouds 20 1016 82 10000 5.1 210 06:42 03.01.2020
1477 Clouds 20 1016 82 10000 5.1 210 06:22 03.01.2020
1478 Clouds 18 1015 88 10000 6.2 220 05:20 03.01.2020
1479 Clouds 19 1014 88 10000 6.7 200 03:45 03.01.2020
1480 Clouds 19 1014 82 10000 8.7 200 02:54 03.01.2020
1481 Clouds 19 1015 82 10000 8.7 190 01:54 03.01.2020
1482 Clouds 19 1015 82 10000 8.7 190 01:36 03.01.2020
1483 Clouds 19 1015 82 10000 8.7 190 01:36 03.01.2020
1484 Clouds 19 1015 82 10000 8.7 190 00:46 03.01.2020
1485 Clouds 19 1015 82 10000 8.7 190 00:26 03.01.2020
1486 Clouds 19 1015 82 10000 8.2 190 23:54 02.01.2020
1487 Clouds 19 1015 82 10000 8.2 190 23:36 02.01.2020
1488 Clouds 19 1015 82 10000 8.2 190 23:18 02.01.2020
1489 Clouds 19 1016 82 10000 8.7 190 22:42 02.01.2020
1490 Clouds 19 1016 82 10000 8.7 190 22:20 02.01.2020
1491 Clouds 19 1016 82 10000 8.7 200 21:57 02.01.2020
1492 Clouds 19 1016 82 10000 8.7 200 21:38 02.01.2020
1493 Clouds 19 1016 82 10000 8.7 200 21:20 02.01.2020
1494 Clouds 19 1015 82 10000 9.3 190 20:56 02.01.2020
1495 Clouds 19 1015 82 10000 9.3 190 20:38 02.01.2020
1496 Clouds 19 1015 82 10000 9.3 190 20:20 02.01.2020
1497 Clouds 19 1016 82 10000 8.7 180 19:54 02.01.2020
1498 Clouds 20 1016 82 10000 8.7 180 19:36 02.01.2020
1499 Clouds 20 1016 82 10000 8.7 180 19:18 02.01.2020
1500 Clouds 21 1015 73 10000 9.8 180 18:54 02.01.2020
1501 Clouds 21 1015 73 10000 9.8 180 18:36 02.01.2020
1502 Clouds 21 1015 73 10000 9.8 180 18:18 02.01.2020
1503 Clouds 22 1015 68 10000 11.3 190 17:55 02.01.2020
1504 Clouds 22 1015 68 10000 11.3 190 17:36 02.01.2020
1505 Clouds 22 1015 68 10000 11.3 190 17:18 02.01.2020
1506 Clouds 23 1015 64 10000 10.3 180 16:41 02.01.2020
1507 Clouds 23 1015 64 10000 10.3 180 16:20 02.01.2020
1508 Clouds 23 1015 64 10000 10.3 180 15:58 02.01.2020
1509 Clouds 23 1015 64 10000 10.3 180 15:40 02.01.2020
1510 Clouds 23 1015 64 10000 10.3 180 15:40 02.01.2020
1511 Clouds 23 1015 64 10000 10.3 180 15:22 02.01.2020
1512 Clouds 23 1015 60 10000 10.8 180 14:57 02.01.2020
1513 Clouds 23 1015 60 10000 10.8 180 14:37 02.01.2020
1514 Clouds 23 1015 60 10000 10.8 180 14:18 02.01.2020
1515 Clouds 23 1015 64 10000 10.8 190 13:51 02.01.2020
1516 Clouds 23 1015 64 10000 10.8 190 13:32 02.01.2020
1517 Clouds 23 1015 64 10000 10.8 190 12:47 02.01.2020
1518 Clouds 23 1015 64 10000 10.8 190 12:28 02.01.2020
1519 Clouds 24 1015 69 10000 11.3 190 11:59 02.01.2020
1520 Clouds 24 1015 69 10000 11.3 190 11:41 02.01.2020
1521 Clouds 23 1015 69 10000 11.3 190 11:20 02.01.2020
1522 Clouds 23 1015 69 10000 10.3 190 10:45 02.01.2020
1523 Clouds 23 1015 69 10000 10.3 190 10:26 02.01.2020
1524 Clouds 23 1015 78 10000 9.8 190 09:55 02.01.2020
1525 Clouds 23 1015 83 10000 9.8 200 09:34 02.01.2020
1526 Clouds 23 1014 73 10000 6.7 200 08:53 02.01.2020
1527 Clouds 22 1014 73 10000 6.7 200 08:32 02.01.2020
1528 Clouds 21 1014 77 10000 7.7 190 07:57 02.01.2020
1529 Clouds 21 1014 77 10000 7.7 190 07:31 02.01.2020
1530 Clouds 20 1014 93 10000 7.2 190 06:57 02.01.2020
1531 Clouds 20 1014 93 10000 7.2 190 06:57 02.01.2020
1532 Clouds 20 1014 93 10000 7.2 190 06:39 02.01.2020
1533 Clouds 19 1013 100 10000 6.7 190 05:38 02.01.2020
1534 Clouds 19 1013 100 10000 7.7 190 04:34 02.01.2020
1535 Clouds 19 1013 93 10000 6.2 200 03:23 02.01.2020
1536 Clouds 19 1013 93 10000 6.2 210 02:20 02.01.2020
1537 Clouds 19 1013 93 10000 5.7 220 01:48 02.01.2020
1538 Clouds 19 1013 93 10000 5.7 220 01:23 02.01.2020
1539 Clouds 19 1013 88 10000 5.1 210 00:38 02.01.2020
1540 Clouds 19 1013 88 10000 5.1 210 00:20 02.01.2020
1541 Clouds 19 1013 88 10000 7.2 190 23:42 01.01.2020
1542 Clouds 19 1013 88 10000 7.2 190 23:21 01.01.2020
1543 Clouds 19 1013 88 10000 7.2 190 23:21 01.01.2020
1544 Clouds 20 1013 88 10000 8.7 190 22:39 01.01.2020
1545 Clouds 20 1013 88 10000 8.7 190 22:39 01.01.2020
1546 Clouds 20 1013 88 10000 8.7 190 22:20 01.01.2020
1547 Clouds 20 1013 88 10000 8.7 190 22:20 01.01.2020
1548 Clouds 20 1013 88 10000 10.3 190 21:58 01.01.2020
1549 Clouds 20 1013 88 10000 10.3 190 21:39 01.01.2020
1550 Clouds 20 1013 88 10000 10.3 190 21:20 01.01.2020
1551 Clouds 20 1013 88 10000 10.3 190 20:56 01.01.2020
1552 Clouds 20 1013 88 10000 10.3 190 20:38 01.01.2020
1553 Clouds 20 1013 88 10000 10.3 190 20:20 01.01.2020
1554 Clouds 20 1012 82 10000 10.8 190 19:56 01.01.2020
1555 Clouds 20 1012 82 10000 10.8 190 19:37 01.01.2020
1556 Clouds 20 1012 82 10000 10.8 190 19:19 01.01.2020
1557 Clouds 21 1012 77 10000 11.3 190 18:56 01.01.2020
1558 Clouds 21 1012 77 10000 11.3 190 18:37 01.01.2020
1559 Clouds 22 1012 77 10000 11.3 190 18:19 01.01.2020
1560 Clouds 23 1012 73 10000 12.3 190 17:57 01.01.2020
1561 Clouds 22 1012 73 10000 12.3 190 17:39 01.01.2020
1562 Clouds 23 1012 73 10000 12.3 190 17:19 01.01.2020
1563 Clouds 23 1012 73 10000 12.3 190 16:56 01.01.2020
1564 Clouds 23 1012 73 10000 12.3 190 16:56 01.01.2020
1565 Clouds 23 1012 73 10000 12.3 190 16:37 01.01.2020
1566 Clouds 23 1012 73 10000 12.3 190 16:19 01.01.2020
1567 Clouds 23 1012 69 10000 11.8 190 15:54 01.01.2020
1568 Clouds 23 1012 64 10000 11.3 190 15:36 01.01.2020
1569 Clouds 23 1012 64 10000 11.3 190 15:18 01.01.2020
1570 Clouds 25 1013 57 10000 9.8 190 14:41 01.01.2020
1571 Clouds 27 1013 57 10000 9.8 190 14:22 01.01.2020
1572 Clouds 26 1013 60 10000 10.8 190 13:57 01.01.2020
1573 Clouds 26 1013 60 10000 10.8 190 13:38 01.01.2020
1574 Clouds 27 1013 60 10000 10.8 190 13:19 01.01.2020
1575 Clouds 27 1013 53 10000 8.2 190 12:57 01.01.2020
1576 Clouds 27 1013 53 10000 8.2 190 12:39 01.01.2020
1577 Clouds 27 1013 53 10000 8.2 190 12:19 01.01.2020
1578 Clouds 25 1014 50 10000 7.2 190 11:56 01.01.2020
1579 Clouds 27 1014 50 10000 7.2 190 11:37 01.01.2020
1580 Clouds 27 1014 50 10000 7.2 190 11:18 01.01.2020
1581 Clouds 26 1014 50 10000 6.2 200 10:54 01.01.2020
1582 Clouds 26 1014 50 10000 6.2 200 10:36 01.01.2020
1583 Clouds 26 1014 50 10000 6.2 200 10:18 01.01.2020
1584 Clouds 24 1014 53 10000 8.2 190 09:38 01.01.2020
1585 Clouds 24 1014 53 10000 8.2 190 09:19 01.01.2020
1586 Clouds 23 1013 53 10000 7.2 190 08:56 01.01.2020
1587 Clouds 23 1013 53 10000 7.2 190 08:37 01.01.2020
1588 Clouds 23 1013 53 10000 7.2 190 08:37 01.01.2020
1589 Clouds 23 1013 53 10000 7.2 190 08:19 01.01.2020
1590 Clouds 21 1013 60 10000 7.2 180 07:55 01.01.2020
1591 Clouds 21 1013 60 10000 7.2 180 07:37 01.01.2020
1592 Clouds 20 1013 64 10000 7.2 190 06:45 01.01.2020
1593 Clouds 20 1013 64 10000 7.2 190 06:22 01.01.2020
1594 Clouds 18 1013 72 10000 6.2 200 05:23 01.01.2020
1595 Clouds 18 1012 68 10000 6.2 190 03:47 01.01.2020
1596 Clouds 18 1012 68 10000 6.2 190 03:23 01.01.2020
1597 Clouds 18 1012 68 10000 7.2 190 02:57 01.01.2020
1598 Clouds 18 1012 68 10000 7.2 190 02:37 01.01.2020
1599 Clouds 18 1013 68 10000 8.2 190 01:59 01.01.2020
1600 Clouds 18 1013 68 10000 8.2 190 01:38 01.01.2020
1601 Clouds 18 1013 68 10000 8.2 190 01:20 01.01.2020
1602 Clouds 19 1013 63 10000 8.2 180 00:44 01.01.2020
1603 Clouds 19 1013 63 10000 8.2 180 00:25 01.01.2020
1604 Clouds 19 1014 60 10000 9.8 190 23:41 31.12.2019
1605 Clouds 19 1014 60 10000 9.8 190 23:22 31.12.2019
1606 Clouds 19 1013 60 10000 7.7 170 22:58 31.12.2019
1607 Clouds 19 1013 60 10000 7.7 170 22:39 31.12.2019
1608 Clouds 20 1013 60 10000 7.7 170 22:20 31.12.2019
1609 Clouds 20 1013 60 10000 8.7 180 21:58 31.12.2019
1610 Clouds 20 1013 60 10000 8.7 180 21:40 31.12.2019
1611 Clouds 20 1013 60 10000 8.7 180 21:21 31.12.2019
1612 Clouds 20 1013 68 10000 8.7 200 20:56 31.12.2019
1613 Clouds 20 1013 68 10000 8.7 200 20:37 31.12.2019
1614 Clouds 20 1013 68 10000 8.7 200 20:19 31.12.2019
1615 Clouds 20 1013 64 10000 10.3 190 19:54 31.12.2019
1616 Clouds 20 1013 64 10000 10.3 190 19:36 31.12.2019
1617 Clouds 20 1013 64 10000 10.3 190 19:18 31.12.2019
1618 Clouds 20 1013 64 10000 10.3 190 18:54 31.12.2019
1619 Clouds 20 1013 64 10000 10.3 190 18:54 31.12.2019
1620 Clouds 21 1013 64 10000 10.3 190 18:36 31.12.2019
1621 Clouds 21 1013 64 10000 10.3 190 18:18 31.12.2019
1622 Clouds 21 1013 64 10000 10.3 190 18:18 31.12.2019
1623 Clouds 22 1012 60 10000 10.3 180 17:54 31.12.2019
1624 Clouds 22 1012 60 10000 10.3 180 17:36 31.12.2019
1625 Clouds 22 1012 60 10000 10.3 180 17:18 31.12.2019
1626 Clouds 22 1013 60 10000 12.9 190 16:54 31.12.2019
1627 Clouds 23 1013 60 10000 12.9 190 16:36 31.12.2019
1628 Clouds 23 1013 60 10000 12.9 190 16:18 31.12.2019
1629 Clouds 23 1013 60 10000 12.9 190 16:18 31.12.2019
1630 Clouds 24 1014 56 10000 13.9 180 15:54 31.12.2019
1631 Clouds 24 1014 56 10000 13.9 180 15:36 31.12.2019
1632 Clouds 24 1014 56 10000 13.9 180 15:36 31.12.2019
1633 Clouds 24 1014 56 10000 13.9 180 15:18 31.12.2019
1634 Clear 23 1014 53 10000 13.9 190 14:54 31.12.2019
1635 Clear 23 1014 53 10000 13.9 190 14:36 31.12.2019
1636 Clear 23 1014 53 10000 13.9 190 14:18 31.12.2019
1637 Clear 24 1014 53 10000 12.3 190 13:54 31.12.2019
1638 Clear 24 1014 53 10000 12.3 190 13:36 31.12.2019
1639 Clear 24 1014 53 10000 12.3 190 13:18 31.12.2019
1640 Clouds 24 1014 50 10000 10.8 190 12:40 31.12.2019
1641 Clouds 24 1014 50 10000 10.8 190 12:40 31.12.2019
1642 Clouds 24 1014 50 10000 10.8 190 12:20 31.12.2019
1643 Clouds 24 1014 50 10000 9.3 190 11:57 31.12.2019
1644 Clouds 24 1014 50 10000 9.3 190 11:39 31.12.2019
1645 Clouds 24 1014 50 10000 9.3 190 11:20 31.12.2019
1646 Clouds 24 1014 50 10000 7.7 190 10:58 31.12.2019
1647 Clouds 25 1014 50 10000 7.7 190 10:38 31.12.2019
1648 Clouds 25 1014 50 10000 7.7 190 10:20 31.12.2019
1649 Clouds 24 1014 53 10000 8.7 180 09:59 31.12.2019
1650 Clouds 24 1014 53 10000 8.7 180 09:40 31.12.2019
1651 Clouds 24 1014 53 10000 8.7 180 09:21 31.12.2019
1652 Clouds 22 1014 56 10000 8.7 190 08:58 31.12.2019
1653 Clouds 22 1014 56 10000 8.7 190 08:39 31.12.2019
1654 Clouds 22 1014 56 10000 8.7 190 08:20 31.12.2019
1655 Clouds 21 1014 60 10000 7.7 190 07:43 31.12.2019
1656 Clouds 20 1014 60 10000 7.7 190 07:22 31.12.2019
1657 Clouds 20 1014 63 10000 8.2 170 06:50 31.12.2019
1658 Clouds 19 1014 68 10000 9.3 170 05:59 31.12.2019
1659 Clouds 18 1014 72 10000 9.3 190 04:30 31.12.2019
1660 Clear 18 1014 68 10000 8.7 180 03:59 31.12.2019
1661 Clear 18 1014 68 10000 8.7 190 02:56 31.12.2019
1662 Clouds 18 1014 68 10000 8.7 190 02:19 31.12.2019
1663 Clouds 18 1015 68 10000 10.3 180 01:48 31.12.2019
1664 Clouds 18 1015 68 10000 10.3 180 01:48 31.12.2019
1665 Clouds 18 1015 68 10000 10.3 180 01:28 31.12.2019
1666 Clouds 18 1015 72 10000 8.7 180 00:47 31.12.2019
1667 Clouds 18 1015 72 10000 8.7 180 00:23 31.12.2019
1668 Clouds 18 1015 72 10000 8.7 180 00:23 31.12.2019
1669 Clouds 18 1015 77 10000 10.3 190 23:58 30.12.2019
1670 Clouds 18 1015 77 10000 10.3 190 23:38 30.12.2019
1671 Clouds 18 1015 77 10000 10.3 190 23:20 30.12.2019
1672 Clouds 18 1015 77 10000 10.8 180 22:58 30.12.2019
1673 Clouds 18 1015 77 10000 10.8 180 22:40 30.12.2019
1674 Clouds 18 1015 77 10000 10.8 180 22:20 30.12.2019
1675 Clouds 18 1015 77 10000 10.8 180 22:20 30.12.2019
1676 Clouds 18 1015 77 10000 10.3 170 21:57 30.12.2019
1677 Clouds 18 1015 77 10000 10.3 170 21:39 30.12.2019
1678 Clouds 18 1015 77 10000 10.3 170 21:39 30.12.2019
1679 Clouds 18 1015 77 10000 10.3 170 21:19 30.12.2019
1680 Clouds 18 1015 77 10000 11.3 170 20:58 30.12.2019
1681 Clouds 18 1015 77 10000 11.3 170 20:40 30.12.2019
1682 Clouds 18 1015 77 10000 11.3 170 20:20 30.12.2019
1683 Clouds 19 1015 77 10000 11.8 170 19:58 30.12.2019
1684 Clouds 19 1015 77 10000 11.8 170 19:38 30.12.2019
1685 Clouds 18 1015 77 10000 11.8 170 19:19 30.12.2019
1686 Clouds 19 1014 68 10000 12.9 180 18:58 30.12.2019
1687 Clouds 20 1014 68 10000 12.9 180 18:40 30.12.2019
1688 Clouds 20 1014 68 10000 12.9 180 18:20 30.12.2019
1689 Clouds 21 1014 60 10000 13.4 170 17:56 30.12.2019
1690 Clouds 21 1014 60 10000 13.4 170 17:56 30.12.2019
1691 Clouds 21 1014 60 10000 13.4 170 17:38 30.12.2019
1692 Clouds 21 1014 60 10000 13.4 170 17:19 30.12.2019
1693 Clouds 21 1014 60 10000 12.9 180 16:58 30.12.2019
1694 Clouds 21 1014 60 10000 12.9 180 16:37 30.12.2019
1695 Clouds 21 1014 60 10000 12.9 180 16:19 30.12.2019
1696 Clouds 22 1014 60 10000 14.4 180 15:56 30.12.2019
1697 Clouds 23 1014 60 10000 14.4 180 15:37 30.12.2019
1698 Clouds 23 1014 60 10000 14.4 180 15:18 30.12.2019
1699 Clouds 23 1013 60 10000 14.4 180 14:43 30.12.2019
1700 Clouds 23 1013 60 10000 14.4 180 14:43 30.12.2019
1701 Clouds 23 1013 60 10000 14.4 180 14:20 30.12.2019
1702 Clouds 23 1013 60 10000 13.4 180 13:58 30.12.2019
1703 Clouds 23 1013 60 10000 13.4 180 13:40 30.12.2019
1704 Clouds 24 1013 60 10000 13.4 180 13:21 30.12.2019
1705 Clouds 24 1013 60 10000 13.4 180 12:56 30.12.2019
1706 Clouds 23 1013 60 10000 13.4 180 12:37 30.12.2019
1707 Clouds 24 1013 60 10000 13.4 180 12:18 30.12.2019
1708 Clouds 23 1013 64 10000 12.9 180 11:42 30.12.2019
1709 Clouds 24 1013 64 10000 12.9 180 11:20 30.12.2019
1710 Clouds 24 1013 68 10000 12.9 170 10:58 30.12.2019
1711 Clouds 24 1013 68 10000 12.9 170 10:40 30.12.2019
1712 Clouds 24 1013 68 10000 12.9 170 10:18 30.12.2019
1713 Clouds 23 1012 68 10000 10.3 180 09:42 30.12.2019
1714 Clouds 23 1012 68 10000 10.3 180 09:20 30.12.2019
1715 Clouds 23 1012 68 10000 9.3 180 08:56 30.12.2019
1716 Clouds 23 1012 68 10000 9.3 180 08:37 30.12.2019
1717 Clear 22 1012 68 10000 9.3 180 08:18 30.12.2019
1718 Clouds 22 1011 64 10000 7.7 170 07:42 30.12.2019
1719 Clouds 21 1010 72 10000 6.7 180 06:59 30.12.2019
1720 Clouds 20 1010 72 10000 6.7 180 06:24 30.12.2019
1721 Clear 19 1009 77 10000 6.2 200 04:23 30.12.2019
1722 Clear 19 1009 77 10000 8.2 190 03:42 30.12.2019
1723 Clear 19 1009 77 10000 7.7 170 02:41 30.12.2019
1724 Clear 19 1009 77 10000 7.7 170 02:20 30.12.2019
1725 Clear 19 1009 77 10000 7.2 170 01:26 30.12.2019
1726 Clear 20 1010 72 10000 8.2 160 00:47 30.12.2019
1727 Clear 20 1010 72 10000 8.2 160 00:26 30.12.2019
1728 Clear 20 1010 72 10000 9.3 180 23:40 29.12.2019
1729 Clear 20 1010 72 10000 9.3 180 23:22 29.12.2019
1730 Clear 20 1010 68 10000 8.7 170 22:57 29.12.2019
1731 Clear 20 1010 68 10000 8.7 170 22:38 29.12.2019
1732 Clear 20 1010 68 10000 8.7 170 22:38 29.12.2019
1733 Clear 20 1010 68 10000 8.7 170 22:20 29.12.2019
1734 Clear 20 1009 64 10000 8.2 190 21:54 29.12.2019
1735 Clear 20 1009 64 10000 8.2 190 21:36 29.12.2019
1736 Clear 20 1009 64 10000 8.2 190 21:18 29.12.2019
1737 Clear 20 1009 64 10000 7.7 190 20:54 29.12.2019
1738 Clear 20 1009 64 10000 7.7 190 20:36 29.12.2019
1739 Clear 20 1009 64 10000 7.7 190 20:18 29.12.2019
1740 Clouds 20 1010 68 10000 7.2 200 19:40 29.12.2019
1741 Clouds 21 1010 68 10000 7.2 200 19:22 29.12.2019
1742 Clear 21 1009 64 10000 8.2 190 18:59 29.12.2019
1743 Clear 21 1009 64 10000 8.2 190 18:59 29.12.2019
1744 Clear 22 1009 64 10000 8.2 190 18:40 29.12.2019
1745 Clear 22 1009 64 10000 8.2 190 18:21 29.12.2019
1746 Clear 22 1009 53 10000 7.7 200 17:58 29.12.2019
1747 Clear 23 1009 53 10000 7.7 200 17:39 29.12.2019
1748 Clear 23 1009 53 10000 7.7 200 17:20 29.12.2019
1749 Clear 24 1009 47 10000 8.7 200 16:58 29.12.2019
1750 Clear 24 1009 47 10000 8.7 200 16:40 29.12.2019
1751 Clear 24 1009 47 10000 8.7 200 16:40 29.12.2019
1752 Clear 25 1009 47 10000 8.7 200 16:21 29.12.2019
1753 Clear 26 1010 47 10000 8.7 200 15:59 29.12.2019
1754 Clear 27 1010 47 10000 8.7 200 15:40 29.12.2019
1755 Clear 27 1010 47 10000 8.7 200 15:20 29.12.2019
1756 Clear 27 1010 44 10000 8.2 190 15:00 29.12.2019
1757 Clear 28 1010 44 10000 8.2 190 14:41 29.12.2019
1758 Clear 28 1010 44 10000 8.2 190 14:19 29.12.2019
1759 Clear 27 1010 44 10000 8.2 200 13:59 29.12.2019
1760 Clear 27 1010 44 10000 8.2 200 13:40 29.12.2019
1761 Clear 27 1010 44 10000 8.2 200 13:22 29.12.2019
1762 Clear 27 1010 44 10000 8.2 200 13:22 29.12.2019
1763 Clear 28 1010 42 10000 6.7 190 12:57 29.12.2019
1764 Clear 30 1010 42 10000 6.7 190 12:38 29.12.2019
1765 Clear 30 1010 42 10000 6.7 190 12:20 29.12.2019
1766 Clear 29 1010 42 10000 7.7 200 11:41 29.12.2019
1767 Clear 28 1010 42 10000 7.7 200 11:22 29.12.2019
1768 Clear 28 1010 34 10000 2.1 220 10:57 29.12.2019
1769 Clear 27 1010 34 10000 2.1 220 10:39 29.12.2019
1770 Clear 27 1010 34 10000 2.1 220 10:18 29.12.2019
1771 Clear 26 1010 36 10000 1.5 0 09:46 29.12.2019
1772 Clear 25 1010 36 10000 1.5 0 09:28 29.12.2019
1773 Clear 23 1010 49 10000 1.5 0 08:56 29.12.2019
1774 Clear 24 1010 49 10000 1.5 0 08:38 29.12.2019
1775 Clear 22 1010 49 10000 1.5 0 08:20 29.12.2019
1776 Clear 22 1010 53 10000 1 0 07:44 29.12.2019
1777 Clear 22 1010 53 10000 1 0 07:25 29.12.2019
1778 Clouds 21 1010 60 10000 2.1 240 06:38 29.12.2019
1779 Clouds 20 1009 72 10000 2.1 270 06:18 29.12.2019
1780 Clear 19 1007 73 0 4.39 144 05:44 29.12.2019
1781 Clear 18 1008 72 10000 6.2 170 04:32 29.12.2019
1782 Clear 18 1008 72 10000 3.1 180 03:35 29.12.2019
1783 Clear 19 1009 68 10000 6.7 150 02:30 29.12.2019
1784 Clear 19 1009 68 10000 9.3 150 01:52 29.12.2019
1785 Clouds 19 1009 68 10000 9.3 150 01:29 29.12.2019
1786 Clouds 19 1009 68 10000 8.7 150 00:45 29.12.2019
1787 Clouds 19 1010 68 10000 8.2 150 00:25 29.12.2019
1788 Clouds 19 1010 68 10000 8.2 150 00:25 29.12.2019
1789 Clouds 19 1010 68 10000 8.2 150 23:55 28.12.2019
1790 Clouds 19 1010 68 10000 8.2 150 23:37 28.12.2019
1791 Clear 19 1010 68 10000 8.2 150 23:18 28.12.2019
1792 Clear 19 1010 68 10000 10.3 160 22:37 28.12.2019
1793 Clear 19 1010 68 10000 10.3 160 22:18 28.12.2019
1794 Clear 20 1010 60 10000 9.8 150 21:56 28.12.2019
1795 Clear 20 1010 60 10000 9.8 150 21:37 28.12.2019
1796 Clear 20 1010 60 10000 9.8 150 21:19 28.12.2019
1797 Clear 20 1010 60 10000 9.8 150 20:54 28.12.2019
1798 Clear 20 1010 60 10000 9.8 150 20:54 28.12.2019
1799 Clear 20 1010 60 10000 9.8 150 20:36 28.12.2019
1800 Clear 21 1010 60 10000 9.8 150 20:18 28.12.2019
1801 Clear 21 1010 53 10000 8.2 150 19:43 28.12.2019
1802 Clear 22 1010 53 10000 8.2 150 19:24 28.12.2019
1803 Clear 22 1009 44 10000 8.2 140 18:59 28.12.2019
1804 Clear 22 1009 44 10000 8.2 140 18:41 28.12.2019
1805 Clear 24 1009 44 10000 8.2 140 18:20 28.12.2019
1806 Clear 24 1009 39 10000 10.3 160 17:59 28.12.2019
1807 Clear 25 1009 39 10000 10.3 160 17:39 28.12.2019
1808 Clear 25 1009 39 10000 10.3 160 17:21 28.12.2019
1809 Clear 25 1010 44 10000 9.8 180 16:50 28.12.2019
1810 Clear 25 1010 44 10000 9.8 180 16:27 28.12.2019
1811 Clear 26 1010 39 10000 8.2 200 15:58 28.12.2019
1812 Clear 27 1010 39 10000 8.2 200 15:39 28.12.2019
1813 Clear 28 1010 39 10000 8.2 200 15:21 28.12.2019
1814 Clear 28 1010 39 10000 8.2 200 15:21 28.12.2019
1815 Clear 29 1011 34 10000 6.7 220 14:47 28.12.2019
1816 Clear 28 1011 34 10000 6.7 220 14:25 28.12.2019
1817 Clear 28 1011 30 10000 6.7 190 13:58 28.12.2019
1818 Clear 30 1011 30 10000 6.7 190 13:39 28.12.2019
1819 Clear 29 1011 30 10000 6.7 190 13:20 28.12.2019
1820 Clear 29 1011 30 10000 6.7 190 13:20 28.12.2019
1821 Clear 29 1012 32 10000 8.2 170 12:56 28.12.2019
1822 Clear 29 1012 32 10000 8.2 170 12:37 28.12.2019
1823 Clear 29 1012 32 10000 8.2 170 12:19 28.12.2019
1824 Clear 28 1013 34 10000 8.2 170 11:40 28.12.2019
1825 Clear 28 1013 34 10000 8.2 170 11:21 28.12.2019
1826 Clear 27 1013 38 10000 9.3 160 10:55 28.12.2019
1827 Clear 27 1013 38 10000 9.3 160 10:36 28.12.2019
1828 Clear 26 1013 38 10000 9.3 160 10:18 28.12.2019
1829 Clear 25 1013 38 10000 9.8 160 09:45 28.12.2019
1830 Clear 24 1013 43 10000 9.8 170 09:23 28.12.2019
1831 Clear 23 1013 43 10000 7.2 140 08:57 28.12.2019
1832 Clear 23 1013 52 10000 7.2 170 08:38 28.12.2019
1833 Clear 21 1013 52 10000 7.2 170 08:19 28.12.2019
1834 Clear 19 1014 55 10000 3.6 170 07:41 28.12.2019
1835 Clear 19 1014 67 10000 1 0 06:59 28.12.2019
1836 Clear 16 1009 28 0 2.98 142 05:43 28.12.2019
1837 Clear 14 1014 81 10000 0.5 0 03:48 28.12.2019
1838 Clear 15 1015 76 10000 1.5 170 02:50 28.12.2019
1839 Clear 15 1015 76 10000 1.5 170 02:20 28.12.2019
1840 Clear 15 1015 72 10000 3.6 190 01:53 28.12.2019
1841 Clear 16 1015 72 10000 3.6 190 01:22 28.12.2019
1842 Clear 16 1016 67 10000 3.1 170 00:44 28.12.2019
1843 Clear 16 1016 67 10000 3.1 170 00:26 28.12.2019
1844 Clear 16 1017 67 10000 3.1 170 23:56 27.12.2019
1845 Clear 17 1017 67 10000 3.1 170 23:36 27.12.2019
1846 Clear 17 1017 67 10000 3.1 170 23:18 27.12.2019
1847 Clear 17 1018 63 10000 4.6 170 22:55 27.12.2019
1848 Clear 17 1018 63 10000 4.6 170 22:37 27.12.2019
1849 Clear 17 1018 63 10000 4.6 170 22:19 27.12.2019
1850 Clear 17 1018 59 10000 7.2 150 21:41 27.12.2019
1851 Clear 17 1018 59 10000 7.2 150 21:23 27.12.2019
1852 Clouds 18 1019 59 10000 10.3 160 20:44 27.12.2019
1853 Clouds 18 1019 59 10000 10.3 160 20:26 27.12.2019
1854 Clouds 18 1019 52 10000 10.3 160 19:58 27.12.2019
1855 Clouds 19 1019 52 10000 10.3 160 19:40 27.12.2019
1856 Clouds 19 1019 52 10000 10.3 160 19:19 27.12.2019
1857 Clouds 19 1020 49 10000 10.3 160 18:55 27.12.2019
1858 Clouds 20 1020 49 10000 10.3 160 18:36 27.12.2019
1859 Clouds 20 1020 52 10000 10.8 170 18:18 27.12.2019
1860 Clouds 20 1020 52 10000 12.9 170 17:55 27.12.2019
1861 Clouds 20 1020 52 10000 12.9 170 17:36 27.12.2019
1862 Clouds 20 1020 52 10000 12.9 170 17:18 27.12.2019
1863 Clouds 21 1020 49 10000 12.9 160 16:41 27.12.2019
1864 Clouds 21 1020 49 10000 12.9 160 16:22 27.12.2019
1865 Clouds 21 1021 46 10000 14.4 170 15:57 27.12.2019
1866 Clouds 21 1021 46 10000 14.4 170 15:37 27.12.2019
1867 Clouds 21 1021 46 10000 14.4 170 15:19 27.12.2019
1868 Clouds 22 1022 46 10000 12.9 170 14:55 27.12.2019
1869 Clouds 22 1022 46 10000 12.9 170 14:37 27.12.2019
1870 Clouds 23 1022 46 10000 12.9 170 14:19 27.12.2019
1871 Clouds 23 1022 46 10000 12.9 170 14:19 27.12.2019
1872 Clouds 22 1022 49 10000 12.9 170 13:46 27.12.2019
1873 Clouds 22 1022 49 10000 12.9 170 13:23 27.12.2019
1874 Clouds 22 1022 46 10000 11.8 170 12:49 27.12.2019
1875 Clouds 22 1022 46 10000 11.8 170 12:29 27.12.2019
1876 Clouds 23 1023 40 10000 10.3 180 11:59 27.12.2019
1877 Clouds 23 1023 40 10000 10.3 180 11:41 27.12.2019
1878 Clouds 22 1023 40 10000 9.3 180 11:20 27.12.2019
1879 Clouds 22 1023 40 10000 7.7 160 10:47 27.12.2019
1880 Clouds 22 1023 40 10000 7.7 160 10:24 27.12.2019
1881 Clouds 21 1024 45 10000 7.7 160 09:58 27.12.2019
1882 Clouds 21 1024 45 10000 7.7 160 09:39 27.12.2019
1883 Clouds 20 1024 45 10000 7.7 160 09:21 27.12.2019
1884 Clouds 20 1024 52 10000 6.2 130 08:49 27.12.2019
1885 Clouds 20 1024 52 10000 6.2 130 08:30 27.12.2019
1886 Clouds 19 1024 67 10000 3.1 130 07:48 27.12.2019
1887 Clouds 18 1024 67 10000 3.1 130 07:25 27.12.2019
1888 Clouds 15 1024 87 10000 1.5 0 06:33 27.12.2019
1889 Rain 13 1022 93 10000 1 0 04:51 27.12.2019
1890 Rain 14 1022 87 10000 3.1 50 02:35 27.12.2019
1891 Clouds 14 1022 76 10000 1.5 0 01:56 27.12.2019
1892 Clouds 14 1022 76 10000 1.5 0 01:23 27.12.2019
1893 Clouds 14 1022 71 10000 1.5 80 00:53 27.12.2019
1894 Clouds 14 1022 71 10000 1.5 80 00:34 27.12.2019
1895 Clouds 15 1021 71 10000 0.5 0 23:59 26.12.2019
1896 Clouds 15 1021 71 10000 0.5 0 23:40 26.12.2019
1897 Clouds 15 1021 71 10000 0.5 0 23:21 26.12.2019
1898 Clouds 15 1021 59 10000 1.5 0 22:43 26.12.2019
1899 Clouds 16 1021 59 10000 1.5 0 22:21 26.12.2019
1900 Clouds 16 1020 58 10000 2.1 310 21:56 26.12.2019
1901 Clouds 16 1020 58 10000 2.1 310 21:37 26.12.2019
1902 Clouds 15 1020 58 10000 2.1 310 21:19 26.12.2019
1903 Clouds 15 1019 54 10000 2.6 280 20:45 26.12.2019
1904 Clouds 15 1019 54 10000 2.6 280 20:22 26.12.2019
1905 Clouds 16 1018 51 10000 6.2 250 19:58 26.12.2019
1906 Clouds 16 1018 51 10000 6.2 250 19:39 26.12.2019
1907 Clouds 16 1018 51 10000 6.2 250 19:20 26.12.2019
1908 Clouds 16 1017 44 10000 5.7 260 18:57 26.12.2019
1909 Clouds 17 1017 44 10000 5.7 260 18:38 26.12.2019
1910 Clouds 17 1017 44 10000 5.7 260 18:19 26.12.2019
1911 Clouds 17 1016 45 10000 6.7 260 17:43 26.12.2019
1912 Clouds 17 1016 45 10000 6.7 260 17:22 26.12.2019
1913 Clouds 18 1016 45 10000 7.7 270 16:58 26.12.2019
1914 Clouds 18 1016 45 10000 7.7 270 16:40 26.12.2019
1915 Clouds 18 1016 45 10000 7.7 270 16:21 26.12.2019
1916 Clouds 17 1015 59 10000 6.2 270 15:41 26.12.2019
1917 -273 0 0 0 0 0 15:22 26.12.2019
1918 Rain 17 1015 72 10000 6.2 250 14:59 26.12.2019
1919 Rain 17 1015 72 10000 6.2 250 14:39 26.12.2019
1920 Rain 18 1015 55 10000 6.7 270 14:20 26.12.2019
1921 Clouds 18 1014 63 10000 6.2 250 13:43 26.12.2019
1922 Clouds 17 1014 63 10000 6.2 250 13:21 26.12.2019
1923 Clouds 17 1014 63 10000 10.3 290 12:58 26.12.2019
1924 Clouds 18 1014 63 10000 10.3 290 12:38 26.12.2019
1925 Clouds 18 1014 63 10000 10.3 290 12:19 26.12.2019
1926 Clouds 18 1013 87 10000 7.2 330 11:57 26.12.2019
1927 Clouds 17 1013 87 10000 7.2 330 11:38 26.12.2019
1928 Clouds 17 1013 87 10000 7.2 330 11:20 26.12.2019
1929 Clouds 15 1013 93 10000 5.7 340 10:42 26.12.2019
1930 Clouds 15 1013 93 10000 5.7 340 10:19 26.12.2019
1931 Rain 16 1012 87 10000 8.2 330 09:50 26.12.2019
1932 Rain 16 1012 87 10000 8.2 330 09:31 26.12.2019
1933 Clouds 16 1012 82 10000 5.7 330 08:43 26.12.2019
1934 Clouds 16 1012 82 10000 5.7 330 08:25 26.12.2019
1935 Clouds 15 1012 93 10000 6.7 360 07:53 26.12.2019
1936 Clouds 15 1012 93 10000 6.7 360 07:28 26.12.2019
1937 Clouds 15 1012 93 10000 4.6 350 06:54 26.12.2019
1938 Clouds 15 1012 93 10000 4.6 350 06:32 26.12.2019
1939 Rain 15 1012 87 10000 6.7 310 05:45 26.12.2019
1940 Rain 16 1011 77 10000 7.2 350 04:59 26.12.2019
1941 Rain 16 1011 77 10000 7.2 350 04:30 26.12.2019
1942 Clouds 16 1011 72 10000 5.7 360 02:58 26.12.2019
1943 Clouds 16 1011 72 10000 5.7 360 02:34 26.12.2019
1944 Clouds 16 1012 77 10000 6.2 360 01:51 26.12.2019
1945 Clouds 16 1012 77 10000 6.2 360 01:33 26.12.2019
1946 Clouds 16 1013 77 10000 5.7 350 00:50 26.12.2019
1947 Clouds 16 1013 77 10000 5.7 350 00:27 26.12.2019
1948 Clouds 16 1013 82 10000 4.6 350 23:59 25.12.2019
1949 Clouds 16 1013 82 10000 4.6 350 23:40 25.12.2019
1950 Clouds 16 1013 82 10000 4.6 350 23:21 25.12.2019
1951 Clouds 17 1013 72 10000 4.6 320 22:59 25.12.2019
1952 Clouds 17 1013 72 10000 4.6 320 22:39 25.12.2019
1953 Clouds 17 1013 72 10000 4.6 320 22:21 25.12.2019
1954 Clouds 17 1013 72 10000 4.1 310 21:59 25.12.2019
1955 Clouds 17 1013 72 10000 4.1 310 21:39 25.12.2019
1956 Clouds 17 1013 72 10000 4.1 310 21:20 25.12.2019
1957 Clouds 17 1012 72 10000 4.6 320 20:56 25.12.2019
1958 Clouds 17 1012 72 10000 4.6 320 20:38 25.12.2019
1959 Clouds 17 1012 72 10000 4.6 320 20:38 25.12.2019
1960 Clouds 17 1012 72 10000 4.6 320 20:18 25.12.2019
1961 Clouds 17 1012 72 10000 4.6 320 20:18 25.12.2019
1962 Clouds 18 1013 63 10000 5.7 310 19:43 25.12.2019
1963 Clouds 18 1013 63 10000 5.7 310 19:24 25.12.2019
1964 Clouds 18 1012 63 10000 6.2 310 18:58 25.12.2019
1965 Clouds 18 1012 63 10000 6.2 310 18:37 25.12.2019
1966 Clouds 18 1012 63 10000 6.2 310 18:18 25.12.2019
1967 Clouds 18 1012 68 10000 6.7 300 17:41 25.12.2019
1968 Clouds 19 1012 68 10000 6.7 300 17:19 25.12.2019
1969 Clouds 19 1012 68 10000 6.2 300 16:58 25.12.2019
1970 Clouds 19 1012 68 10000 6.2 300 16:37 25.12.2019
1971 Clouds 19 1012 68 10000 6.2 300 16:18 25.12.2019
1972 Rain 19 1012 68 10000 8.7 290 15:57 25.12.2019
1973 Rain 19 1012 68 10000 8.7 290 15:39 25.12.2019
1974 Rain 19 1012 68 10000 8.7 290 15:20 25.12.2019
1975 Clouds 21 1012 46 10000 9.8 300 14:57 25.12.2019
1976 Clouds 21 1012 46 10000 9.8 300 14:39 25.12.2019
1977 Clouds 21 1012 46 10000 9.8 300 14:20 25.12.2019
1978 Clouds 20 1013 45 10000 9.3 300 13:45 25.12.2019
1979 Clouds 20 1013 45 10000 9.3 300 13:21 25.12.2019
1980 Clouds 20 1013 59 10000 6.2 300 12:57 25.12.2019
1981 Clouds 20 1013 59 10000 6.2 300 12:38 25.12.2019
1982 Clouds 19 1013 59 10000 6.2 300 12:20 25.12.2019
1983 Clouds 19 1013 48 10000 9.3 310 11:43 25.12.2019
1984 Clouds 19 1013 48 10000 9.3 310 11:23 25.12.2019
1985 Clouds 20 1013 45 10000 9.3 300 10:59 25.12.2019
1986 Clouds 21 1013 45 10000 9.3 300 10:37 25.12.2019
1987 Clouds 20 1013 45 10000 9.3 300 10:19 25.12.2019
1988 Clouds 21 1013 43 10000 8.7 320 09:45 25.12.2019
1989 Clouds 20 1013 43 10000 8.7 320 09:27 25.12.2019
1990 Clouds 20 1013 49 10000 8.2 330 08:47 25.12.2019
1991 Clouds 19 1013 49 10000 8.2 330 08:28 25.12.2019
1992 Clouds 19 1013 59 10000 6.2 340 07:48 25.12.2019
1993 Clouds 18 1013 59 10000 6.2 340 07:29 25.12.2019
1994 Clouds 17 1013 82 10000 4.1 350 06:49 25.12.2019
1995 Clouds 16 1013 82 10000 4.1 350 06:22 25.12.2019
1996 Clouds 14 1012 87 10000 3.6 20 05:18 25.12.2019
1997 Clouds 14 1012 93 10000 2.6 360 04:38 25.12.2019
1998 Clouds 14 1012 87 10000 3.1 330 03:58 25.12.2019
1999 Clouds 14 1012 87 10000 3.1 330 03:40 25.12.2019
2000 Clouds 15 1012 82 10000 2.1 350 02:39 25.12.2019
2001 Clouds 15 1013 82 10000 2.1 310 01:59 25.12.2019
2002 Clouds 15 1013 82 10000 2.1 310 01:25 25.12.2019
2003 Clouds 15 1013 82 10000 1.5 40 00:52 25.12.2019
2004 Clouds 15 1013 82 10000 1.5 40 00:29 25.12.2019
2005 Clouds 16 1020 84 0 1.87 291 23:56 24.12.2019
2006 Clouds 16 1020 83 0 1.87 291 23:38 24.12.2019
2007 Clouds 16 1013 72 10000 1 0 23:20 24.12.2019
2008 Clouds 16 1013 72 10000 1 0 22:40 24.12.2019
2009 Clouds 16 1013 72 10000 1 0 22:21 24.12.2019
2010 Clouds 16 1013 72 10000 2.1 180 21:43 24.12.2019
2011 Clouds 17 1013 72 10000 2.1 180 21:23 24.12.2019
2012 Clouds 17 1013 77 10000 2.6 260 20:55 24.12.2019
2013 Clouds 17 1013 77 10000 2.6 260 20:36 24.12.2019
2014 Clouds 17 1013 77 10000 2.6 260 20:18 24.12.2019
2015 Clouds 18 1013 68 10000 4.6 240 19:43 24.12.2019
2016 Clouds 18 1013 68 10000 4.6 240 19:19 24.12.2019
2017 Clouds 19 1012 64 10000 2.6 250 18:43 24.12.2019
2018 Clouds 19 1012 64 10000 2.6 250 18:24 24.12.2019
2019 Clouds 19 1012 64 10000 4.6 310 17:58 24.12.2019
2020 Clouds 20 1012 64 10000 4.6 310 17:38 24.12.2019
2021 Clouds 20 1012 64 10000 4.6 310 17:20 24.12.2019
2022 Clouds 20 1012 64 10000 3.1 280 16:55 24.12.2019
2023 Clouds 20 1012 64 10000 3.1 280 16:37 24.12.2019
2024 Clouds 19 1012 77 10000 2.6 230 16:19 24.12.2019
2025 Clouds 19 1012 77 10000 2.6 230 16:19 24.12.2019
2026 Clouds 20 1013 72 10000 6.2 310 15:55 24.12.2019
2027 Clouds 20 1013 72 10000 6.2 310 15:36 24.12.2019
2028 Clouds 20 1013 72 10000 6.2 310 15:18 24.12.2019
2029 Clouds 20 1013 68 10000 8.7 310 14:55 24.12.2019
2030 Clouds 21 1013 68 10000 8.7 310 14:36 24.12.2019
2031 Clouds 21 1013 68 10000 8.7 310 14:18 24.12.2019
2032 Clouds 22 1013 53 10000 7.7 310 13:55 24.12.2019
2033 Clouds 22 1013 53 10000 7.7 310 13:37 24.12.2019
2034 Clouds 22 1013 53 10000 7.7 310 13:18 24.12.2019
2035 Clouds 22 1010 84 0 6.37 311 12:55 24.12.2019
2036 Clouds 22 1013 56 10000 8.2 300 12:36 24.12.2019
2037 Clouds 22 1013 56 10000 8.2 300 12:18 24.12.2019
2038 Clouds 23 1013 56 10000 8.2 300 11:54 24.12.2019
2039 Clouds 22 1013 56 10000 8.2 300 11:36 24.12.2019
2040 Clouds 22 1013 56 10000 8.2 300 11:36 24.12.2019
2041 Clouds 22 1013 56 10000 8.2 300 11:18 24.12.2019
2042 Clouds 22 1013 56 10000 7.2 310 10:55 24.12.2019
2043 Clouds 22 1013 56 10000 7.2 310 10:36 24.12.2019
2044 Clouds 22 1013 56 10000 7.2 310 10:18 24.12.2019
2045 Clouds 21 1013 60 10000 7.7 320 09:54 24.12.2019
2046 Clouds 21 1013 60 10000 7.7 320 09:36 24.12.2019
2047 Clouds 21 1013 60 10000 7.7 320 09:18 24.12.2019
2048 Clouds 20 1013 64 10000 7.2 320 08:42 24.12.2019
2049 Clouds 20 1013 64 10000 7.2 320 08:42 24.12.2019
2050 Clouds 20 1013 64 10000 7.2 320 08:19 24.12.2019
2051 Clouds 19 1013 72 10000 8.2 340 07:45 24.12.2019
2052 Clouds 19 1013 72 10000 8.2 340 07:24 24.12.2019
2053 Clouds 19 1013 72 10000 8.2 340 07:24 24.12.2019
2054 Clouds 18 1013 82 10000 4.6 50 06:44 24.12.2019
2055 Clouds 17 1013 82 10000 4.6 50 06:22 24.12.2019
2056 Clouds 16 1012 87 10000 4.1 360 05:57 24.12.2019
2057 Clouds 16 1012 87 10000 4.1 360 05:20 24.12.2019
2058 Clouds 15 1012 87 10000 5.1 360 04:36 24.12.2019
2059 Clear 14 1011 87 10000 3.1 360 03:50 24.12.2019
2060 Clear 14 1011 87 10000 2.6 30 02:59 24.12.2019
2061 Clear 14 1011 87 10000 2.6 30 02:19 24.12.2019
2062 Clear 14 1012 87 10000 2.1 30 01:42 24.12.2019
2063 Clear 14 1012 87 10000 2.1 30 01:20 24.12.2019
2064 Clear 14 1012 87 10000 2.6 40 00:43 24.12.2019
2065 Clear 15 1012 87 10000 2.6 40 00:23 24.12.2019
2066 Clear 15 1013 82 10000 2.6 60 23:55 23.12.2019
2067 Clear 15 1013 82 10000 2.6 60 23:37 23.12.2019
2068 Clear 16 1013 82 10000 2.6 60 23:19 23.12.2019
2069 Clear 16 1013 87 10000 2.1 140 22:54 23.12.2019
2070 Clear 16 1013 87 10000 2.1 140 22:36 23.12.2019
2071 Clear 16 1013 87 10000 2.1 140 22:18 23.12.2019
2072 Clear 17 1012 77 10000 4.1 180 21:55 23.12.2019
2073 Clear 17 1012 77 10000 4.1 180 21:36 23.12.2019
2074 Clear 17 1012 77 10000 4.1 180 21:18 23.12.2019
2075 Clear 17 1012 77 10000 3.1 160 20:56 23.12.2019
2076 Clear 17 1012 77 10000 3.1 160 20:38 23.12.2019
2077 Clear 17 1012 77 10000 3.1 160 20:18 23.12.2019
2078 Clear 18 1012 68 10000 4.6 170 19:54 23.12.2019
2079 Clear 18 1012 68 10000 4.6 170 19:36 23.12.2019
2080 Clear 19 1012 68 10000 4.6 170 19:18 23.12.2019
2081 Clear 19 1012 68 10000 4.6 170 19:18 23.12.2019
2082 Clear 20 1011 64 10000 5.7 170 18:55 23.12.2019
2083 Clear 20 1011 64 10000 5.7 170 18:36 23.12.2019
2084 Clear 20 1011 64 10000 5.7 170 18:18 23.12.2019
2085 Clear 21 1011 60 10000 6.2 180 17:55 23.12.2019
2086 Clear 21 1011 60 10000 6.2 180 17:37 23.12.2019
2087 Clear 21 1011 60 10000 6.2 180 17:18 23.12.2019
2088 Clear 22 1011 60 10000 6.2 180 16:42 23.12.2019
2089 Clear 22 1011 60 10000 6.2 180 16:19 23.12.2019
2090 Clear 22 1011 60 10000 6.2 170 15:59 23.12.2019
2091 Clear 22 1011 60 10000 6.2 170 15:38 23.12.2019
2092 Clear 22 1011 60 10000 6.2 170 15:20 23.12.2019
2093 Clouds 22 1012 64 10000 6.2 160 14:59 23.12.2019
2094 Clouds 23 1012 64 10000 6.2 160 14:39 23.12.2019
2095 Clouds 23 1012 64 10000 6.2 160 14:39 23.12.2019
2096 Clouds 23 1012 64 10000 6.2 160 14:21 23.12.2019
2097 Clouds 24 1012 57 10000 7.2 170 13:58 23.12.2019
2098 Clouds 24 1012 57 10000 7.2 170 13:40 23.12.2019
2099 Clouds 24 1012 57 10000 7.2 170 13:22 23.12.2019
2100 Clouds 23 1012 60 10000 4.6 180 12:56 23.12.2019
2101 Clouds 23 1012 60 10000 4.6 180 12:37 23.12.2019
2102 Clouds 24 1012 60 10000 4.6 180 12:19 23.12.2019
2103 Clouds 23 1013 60 10000 4.6 180 11:44 23.12.2019
2104 Clouds 23 1013 60 10000 4.6 180 11:26 23.12.2019
2105 Clouds 23 1013 60 10000 5.7 170 10:57 23.12.2019
2106 Clouds 23 1013 60 10000 5.7 170 10:57 23.12.2019
2107 Clouds 23 1013 60 10000 5.7 170 10:39 23.12.2019
2108 Clouds 23 1013 60 10000 5.7 170 10:20 23.12.2019
2109 Clouds 23 1013 64 10000 6.2 190 09:59 23.12.2019
2110 Clouds 23 1013 64 10000 6.2 190 09:39 23.12.2019
2111 Clouds 22 1013 64 10000 6.2 190 09:21 23.12.2019
2112 Clouds 21 1014 73 10000 6.7 200 08:56 23.12.2019
2113 Clouds 21 1014 73 10000 6.7 200 08:38 23.12.2019
2114 Clouds 21 1014 73 10000 6.7 200 08:19 23.12.2019
2115 Clouds 20 1013 82 10000 5.7 200 07:43 23.12.2019
2116 Clouds 20 1013 82 10000 5.7 200 07:20 23.12.2019
2117 Clouds 19 1013 88 10000 6.2 220 06:53 23.12.2019
2118 Clouds 19 1013 88 10000 6.2 220 06:25 23.12.2019
2119 Clouds 18 1012 93 10000 5.7 230 05:50 23.12.2019
2120 Clouds 18 1012 93 10000 5.7 230 05:27 23.12.2019
2121 Clouds 17 1012 93 10000 4.1 240 04:31 23.12.2019
2122 Clouds 17 1013 93 10000 5.1 220 03:18 23.12.2019
2123 Clouds 17 1013 93 10000 5.1 220 02:40 23.12.2019
2124 Clouds 18 1013 93 10000 5.1 220 02:18 23.12.2019
2125 Clouds 18 1014 93 10000 4.6 220 01:41 23.12.2019
2126 Clouds 18 1014 93 10000 4.6 220 01:20 23.12.2019
2127 Clouds 18 1014 93 10000 6.2 230 00:43 23.12.2019
2128 Clouds 18 1014 93 10000 6.2 230 00:21 23.12.2019
2129 Clouds 18 1015 88 10000 5.7 210 23:39 22.12.2019
2130 Clouds 18 1015 88 10000 5.7 210 23:21 22.12.2019
2131 Clouds 18 1016 88 10000 5.1 230 22:58 22.12.2019
2132 Clouds 18 1016 88 10000 5.1 230 22:40 22.12.2019
2133 Clouds 19 1016 88 10000 5.1 230 22:19 22.12.2019
2134 Clouds 19 1016 88 10000 7.7 210 21:57 22.12.2019
2135 Clouds 19 1016 88 10000 7.7 210 21:39 22.12.2019
2136 Clouds 19 1016 88 10000 7.7 210 21:21 22.12.2019
2137 Clouds 19 1016 77 10000 8.7 200 20:58 22.12.2019
2138 Clouds 19 1016 77 10000 8.7 200 20:38 22.12.2019
2139 Clouds 19 1016 77 10000 8.7 200 20:18 22.12.2019
2140 Clouds 19 1017 72 10000 9.3 200 19:55 22.12.2019
2141 Clouds 20 1017 72 10000 9.3 200 19:37 22.12.2019
2142 Clouds 19 1017 72 10000 9.3 200 19:19 22.12.2019
2143 Clouds 20 1017 68 10000 10.3 190 18:40 22.12.2019
2144 Clouds 21 1017 68 10000 10.3 190 18:22 22.12.2019
2145 Clouds 21 1017 64 10000 10.8 190 17:55 22.12.2019
2146 Clouds 21 1017 64 10000 10.8 190 17:37 22.12.2019
2147 Clouds 21 1017 64 10000 10.8 190 17:18 22.12.2019
2148 Clouds 22 1018 56 10000 10.3 190 16:57 22.12.2019
2149 Clouds 23 1018 56 10000 10.3 190 16:38 22.12.2019
2150 Clouds 23 1018 56 10000 10.3 190 16:19 22.12.2019
2151 Clouds 24 1018 53 10000 10.3 190 15:56 22.12.2019
2152 Clouds 24 1018 53 10000 10.3 190 15:37 22.12.2019
2153 Clouds 24 1018 53 10000 10.3 190 15:19 22.12.2019
2154 Clouds 25 1019 47 10000 8.7 190 14:54 22.12.2019
2155 Clouds 25 1019 47 10000 8.7 190 14:36 22.12.2019
2156 Clouds 25 1019 47 10000 8.7 190 14:18 22.12.2019
2157 Clouds 25 1020 44 10000 6.7 200 13:55 22.12.2019
2158 Clouds 25 1020 44 10000 6.7 200 13:36 22.12.2019
2159 Clouds 25 1020 44 10000 6.7 200 13:18 22.12.2019
2160 Clouds 24 1020 44 10000 6.2 190 12:55 22.12.2019
2161 Clouds 25 1020 44 10000 6.2 190 12:37 22.12.2019
2162 Clouds 25 1020 44 10000 6.2 190 12:18 22.12.2019
2163 Clouds 25 1020 36 10000 2.6 190 11:54 22.12.2019
2164 Clouds 25 1020 36 10000 2.6 190 11:36 22.12.2019
2165 Clear 24 1020 36 10000 2.6 190 11:18 22.12.2019
2166 Clear 24 1020 33 10000 3.6 250 10:54 22.12.2019
2167 Clear 25 1020 33 10000 3.6 250 10:36 22.12.2019
2168 Clear 23 1020 37 10000 2.6 220 10:18 22.12.2019
2169 Clear 22 1020 37 10000 2.6 220 09:40 22.12.2019
2170 Clear 22 1020 37 10000 2.6 220 09:22 22.12.2019
2171 Clear 21 1020 46 10000 3.6 220 08:59 22.12.2019
2172 Clear 21 1020 46 10000 3.6 220 08:38 22.12.2019
2173 Clouds 20 1021 52 10000 3.1 210 08:18 22.12.2019
2174 Clouds 18 1021 55 10000 5.1 240 07:38 22.12.2019
2175 Clouds 18 1021 55 10000 5.1 240 07:20 22.12.2019
2176 Clouds 18 1021 59 10000 5.1 230 06:40 22.12.2019
2177 Clouds 16 1020 72 10000 5.1 190 05:54 22.12.2019
2178 Clear 16 1020 72 10000 5.1 190 05:21 22.12.2019
2179 Clear 15 1021 67 10000 4.6 160 04:29 22.12.2019
2180 Clear 15 1021 63 10000 7.2 180 03:53 22.12.2019
2181 Clear 16 1021 67 10000 6.2 180 02:40 22.12.2019
2182 Clear 16 1021 67 10000 6.2 180 02:40 22.12.2019
2183 Clouds 16 1022 72 10000 4.1 190 01:47 22.12.2019
2184 Clouds 16 1029 75 0 0.89 193 01:28 22.12.2019
2185 Clouds 17 1029 74 0 1.34 222 00:47 22.12.2019
2186 Clouds 16 1021 72 0 1.34 180 00:23 22.12.2019
2187 Clouds 17 1030 71 0 1.34 187 23:56 21.12.2019
2188 Clouds 16 1030 70 0 1.34 186 23:38 21.12.2019
2189 Clouds 17 1024 59 10000 5.7 170 23:19 21.12.2019
2190 Clouds 17 1024 59 10000 5.7 170 22:41 21.12.2019
2191 Clouds 17 1024 59 10000 5.7 170 22:19 21.12.2019
2192 Clouds 17 1023 59 10000 5.1 170 21:57 21.12.2019
2193 Clouds 17 1023 59 10000 5.1 170 21:38 21.12.2019
2194 Clouds 17 1023 59 10000 5.1 170 21:19 21.12.2019
2195 Clouds 17 1023 59 10000 6.7 180 20:59 21.12.2019
2196 Clouds 17 1023 59 10000 6.7 180 20:39 21.12.2019
2197 Clouds 17 1023 59 10000 6.7 180 20:21 21.12.2019
2198 Clouds 18 1023 59 10000 7.2 180 19:58 21.12.2019
2199 Clouds 18 1023 59 10000 7.2 180 19:40 21.12.2019
2200 Clouds 18 1023 59 10000 7.2 180 19:19 21.12.2019
2201 Clouds 19 1023 52 10000 8.2 180 18:45 21.12.2019
2202 Clouds 20 1023 52 10000 8.2 180 18:24 21.12.2019
2203 Clouds 20 1022 46 10000 8.2 180 17:57 21.12.2019
2204 Clouds 20 1022 46 10000 8.2 180 17:57 21.12.2019
2205 Clouds 20 1022 46 10000 8.2 180 17:39 21.12.2019
2206 Clouds 21 1022 46 10000 8.2 180 17:21 21.12.2019
2207 Clouds 21 1021 46 10000 7.7 180 16:59 21.12.2019
2208 Clouds 21 1021 46 10000 7.7 180 16:41 21.12.2019
2209 Clouds 21 1021 46 10000 7.7 180 16:19 21.12.2019
2210 Clouds 22 1021 43 10000 8.2 180 15:57 21.12.2019
2211 Clouds 22 1021 43 10000 8.2 180 15:38 21.12.2019
2212 Clouds 22 1021 43 10000 8.2 180 15:38 21.12.2019
2213 Clouds 22 1021 43 10000 8.2 180 15:19 21.12.2019
2214 Clouds 22 1021 46 10000 8.2 180 14:57 21.12.2019
2215 Clouds 22 1021 46 10000 8.2 180 14:38 21.12.2019
2216 Clouds 22 1021 46 10000 8.2 180 14:18 21.12.2019
2217 Clouds 22 1021 46 10000 7.7 180 13:55 21.12.2019
2218 Clouds 22 1021 46 10000 7.7 180 13:37 21.12.2019
2219 Clouds 22 1021 46 10000 7.7 180 13:18 21.12.2019
2220 Clouds 22 1020 46 10000 7.2 190 12:54 21.12.2019
2221 Clouds 22 1020 46 10000 7.2 190 12:36 21.12.2019
2222 Clouds 22 1020 46 10000 7.2 190 12:18 21.12.2019
2223 Clouds 22 1020 49 10000 6.7 200 11:42 21.12.2019
2224 Clouds 22 1020 49 10000 6.7 200 11:24 21.12.2019
2225 Clouds 21 1020 46 10000 4.1 240 10:56 21.12.2019
2226 Clouds 21 1020 46 10000 4.1 240 10:37 21.12.2019
2227 Clouds 21 1020 46 10000 4.1 240 10:19 21.12.2019
2228 Clouds 21 1020 46 10000 4.1 240 10:19 21.12.2019
2229 Clouds 20 1019 56 10000 4.1 250 09:42 21.12.2019
2230 Clouds 20 1019 56 10000 4.1 250 09:21 21.12.2019
2231 Clouds 20 1019 60 10000 4.1 240 08:57 21.12.2019
2232 Clouds 20 1019 60 10000 4.1 240 08:37 21.12.2019
2233 Clouds 19 1019 60 10000 4.1 240 08:19 21.12.2019
2234 Clouds 18 1018 88 10000 2.1 280 07:44 21.12.2019
2235 Clouds 18 1018 88 10000 2.1 280 07:22 21.12.2019
2236 Clouds 17 1018 93 10000 2.6 320 06:44 21.12.2019
2237 Clouds 18 1018 93 10000 2.6 320 06:25 21.12.2019
2238 Clouds 17 1016 100 10000 2.6 320 05:51 21.12.2019
2239 Rain 16 1016 100 10000 1.5 0 04:58 21.12.2019
2240 Rain 17 1015 93 8000 1.5 0 03:57 21.12.2019
2241 Rain 18 1015 88 10000 5.1 300 02:53 21.12.2019
2242 Clouds 19 1015 82 10000 6.2 340 01:59 21.12.2019
2243 Clouds 19 1015 82 10000 6.2 340 01:28 21.12.2019
2244 Clouds 19 1015 82 10000 4.1 360 00:55 21.12.2019
2245 Clouds 19 1015 82 10000 4.1 360 00:37 21.12.2019
2246 Clouds 19 1015 82 10000 4.1 360 00:18 21.12.2019
2247 Clouds 19 1015 82 10000 4.6 330 23:38 20.12.2019
2248 Clouds 19 1015 82 10000 4.6 330 23:19 20.12.2019
2249 Clouds 19 1015 82 10000 4.6 330 23:19 20.12.2019
2250 Clouds 20 1016 88 10000 5.1 330 22:43 20.12.2019
2251 Clouds 19 1016 88 10000 5.1 330 22:21 20.12.2019
2252 Clouds 20 1015 77 10000 5.7 320 21:59 20.12.2019
2253 Clouds 20 1015 77 10000 5.7 320 21:40 20.12.2019
2254 Clouds 20 1015 77 10000 5.7 320 21:20 20.12.2019
2255 Clouds 20 1015 77 10000 7.2 320 20:41 20.12.2019
2256 Clouds 20 1015 77 10000 7.2 320 20:22 20.12.2019
2257 Clouds 20 1015 72 10000 6.2 330 19:59 20.12.2019
2258 Clouds 20 1015 72 10000 6.2 330 19:40 20.12.2019
2259 Clouds 20 1015 72 10000 6.2 330 19:20 20.12.2019
2260 Clouds 20 1014 72 10000 6.7 320 18:56 20.12.2019
2261 Clouds 20 1014 72 10000 6.7 320 18:56 20.12.2019
2262 Clouds 20 1014 72 10000 6.7 320 18:56 20.12.2019
2263 Clouds 20 1014 72 10000 6.7 320 18:38 20.12.2019
2264 Clouds 20 1014 72 10000 6.7 320 18:20 20.12.2019
2265 Clouds 21 1013 73 10000 7.2 310 17:54 20.12.2019
2266 Clouds 21 1013 73 10000 7.2 310 17:36 20.12.2019
2267 Clouds 21 1013 73 10000 7.2 310 17:18 20.12.2019
2268 Clouds 22 1013 68 10000 8.2 310 16:40 20.12.2019
2269 Clouds 22 1013 68 10000 9.8 310 16:20 20.12.2019
2270 Clouds 22 1013 68 10000 9.8 310 16:20 20.12.2019
2271 Clouds 23 1013 56 10000 9.8 310 15:57 20.12.2019
2272 Clouds 23 1013 56 10000 9.8 310 15:39 20.12.2019
2273 Clouds 23 1013 56 10000 9.8 310 15:20 20.12.2019
2274 Clouds 23 1013 56 10000 10.8 310 14:59 20.12.2019
2275 Clouds 23 1013 56 10000 10.8 310 14:40 20.12.2019
2276 Clouds 23 1013 56 10000 10.8 310 14:22 20.12.2019
2277 Clouds 24 1013 53 10000 9.8 310 13:55 20.12.2019
2278 Clouds 24 1013 53 10000 9.8 310 13:36 20.12.2019
2279 Clouds 24 1013 53 10000 9.8 310 13:18 20.12.2019
2280 Clouds 24 1014 50 10000 9.8 310 12:41 20.12.2019
2281 Clouds 24 1014 50 10000 9.8 310 12:19 20.12.2019
2282 Clouds 24 1014 53 10000 9.8 320 11:59 20.12.2019
2283 Clouds 24 1014 53 10000 9.8 320 11:40 20.12.2019
2284 Clouds 23 1014 53 10000 9.8 320 11:21 20.12.2019
2285 Clouds 23 1014 53 10000 9.8 330 10:59 20.12.2019
2286 Clouds 23 1014 53 10000 9.8 330 10:41 20.12.2019
2287 Clouds 22 1014 53 10000 9.8 330 10:20 20.12.2019
2288 Clouds 22 1015 68 10000 8.7 330 09:56 20.12.2019
2289 Clouds 21 1015 68 10000 8.7 330 09:38 20.12.2019
2290 Clouds 21 1015 68 10000 8.7 330 09:19 20.12.2019
2291 Clouds 22 1015 73 10000 8.2 350 08:43 20.12.2019
2292 Clouds 20 1015 93 10000 6.2 350 08:25 20.12.2019
2293 Rain 19 1015 88 4000 7.2 350 07:59 20.12.2019
2294 Rain 19 1015 88 4000 7.2 350 07:41 20.12.2019
2295 Clouds 19 1015 82 10000 5.7 10 07:19 20.12.2019
2296 Clouds 19 1014 88 10000 6.7 360 06:52 20.12.2019
2297 Clouds 19 1014 88 10000 6.7 360 06:33 20.12.2019
2298 Clouds 18 1014 82 10000 6.7 340 05:55 20.12.2019
2299 Clouds 18 1014 82 10000 6.7 340 05:36 20.12.2019
2300 Clouds 18 1013 82 10000 6.2 10 04:33 20.12.2019
2301 Clouds 17 1013 93 10000 7.2 350 03:30 20.12.2019
2302 Rain 17 1013 93 7000 8.7 350 02:44 20.12.2019
2303 Clouds 18 1013 82 10000 7.2 360 01:52 20.12.2019
2304 Clouds 18 1013 82 10000 7.2 360 01:33 20.12.2019
2305 Clouds 18 1013 82 10000 5.7 360 00:44 20.12.2019
2306 Clouds 18 1013 82 10000 5.7 360 00:25 20.12.2019
2307 Clouds 19 1014 72 10000 8.7 350 23:44 19.12.2019
2308 Clouds 19 1014 72 10000 8.7 350 23:26 19.12.2019
2309 Clouds 19 1014 77 10000 8.7 350 22:59 19.12.2019
2310 Clouds 19 1014 77 10000 8.7 350 22:37 19.12.2019
2311 Clouds 19 1014 77 10000 8.7 350 22:19 19.12.2019
2312 Clouds 19 1014 77 10000 7.7 340 21:55 19.12.2019
2313 Clouds 19 1014 77 10000 7.7 340 21:37 19.12.2019
2314 Clouds 19 1014 77 10000 7.7 340 21:18 19.12.2019
2315 Clouds 19 1013 77 10000 8.2 340 20:55 19.12.2019
2316 Clouds 19 1013 77 10000 8.2 340 20:36 19.12.2019
2317 Clouds 19 1013 77 10000 8.2 340 20:18 19.12.2019
2318 Clouds 19 1013 77 10000 7.7 340 19:56 19.12.2019
2319 Clouds 19 1013 77 10000 7.7 340 19:37 19.12.2019
2320 Clouds 19 1013 77 10000 7.7 340 19:19 19.12.2019
2321 Clouds 19 1012 77 10000 9.3 330 18:41 19.12.2019
2322 Clouds 19 1012 77 10000 9.3 330 18:23 19.12.2019
2323 Clouds 20 1012 72 10000 10.8 330 17:58 19.12.2019
2324 Clouds 20 1012 72 10000 10.8 330 17:40 19.12.2019
2325 Clouds 20 1012 72 10000 10.8 330 17:19 19.12.2019
2326 Clouds 20 1012 72 10000 10.8 330 17:19 19.12.2019
2327 Clouds 20 1012 68 10000 10.3 320 16:59 19.12.2019
2328 Clouds 20 1012 68 10000 10.3 320 16:41 19.12.2019
2329 Clouds 21 1012 68 10000 10.3 320 16:22 19.12.2019
2330 Clouds 21 1012 68 10000 11.3 320 15:59 19.12.2019
2331 Clouds 21 1012 68 10000 11.3 320 15:40 19.12.2019
2332 Clouds 21 1012 68 10000 11.3 320 15:20 19.12.2019
2333 Clouds 20 1012 72 10000 9.8 320 14:59 19.12.2019
2334 Clouds 20 1012 72 10000 9.8 320 14:41 19.12.2019
2335 Clouds 20 1012 72 10000 9.8 320 14:41 19.12.2019
2336 Clouds 20 1012 64 10000 10.3 320 14:19 19.12.2019
2337 Clouds 21 1011 64 10000 11.8 320 13:57 19.12.2019
2338 Clouds 21 1011 64 10000 11.8 320 13:38 19.12.2019
2339 Clouds 20 1011 64 10000 11.8 320 13:19 19.12.2019
2340 Clouds 20 1012 60 10000 11.8 310 12:55 19.12.2019
2341 Clouds 20 1012 60 10000 11.8 310 12:37 19.12.2019
2342 Clouds 20 1012 64 10000 12.3 320 12:19 19.12.2019
2343 Clouds 20 1012 68 10000 11.8 320 11:57 19.12.2019
2344 Clouds 20 1012 68 10000 11.8 320 11:39 19.12.2019
2345 Clouds 19 1012 68 10000 11.8 320 11:18 19.12.2019
2346 Clouds 19 1012 68 10000 10.8 320 10:55 19.12.2019
2347 Clouds 19 1012 68 10000 10.8 320 10:37 19.12.2019
2348 Clouds 19 1012 68 10000 10.8 320 10:18 19.12.2019
2349 Clouds 19 1012 59 10000 10.3 320 09:40 19.12.2019
2350 Clouds 19 1012 60 10000 9.8 320 09:21 19.12.2019
2351 Clouds 19 1012 68 10000 10.3 340 08:58 19.12.2019
2352 Clouds 19 1012 68 10000 10.3 340 08:40 19.12.2019
2353 Clouds 19 1012 68 10000 10.3 340 08:19 19.12.2019
2354 Clouds 19 1012 72 10000 10.8 350 07:57 19.12.2019
2355 Clouds 18 1012 72 10000 10.8 350 07:38 19.12.2019
2356 Clouds 18 1012 72 10000 10.8 350 07:19 19.12.2019
2357 Clouds 17 1012 77 10000 8.2 350 06:49 19.12.2019
2358 Clouds 17 1012 77 10000 8.2 350 06:29 19.12.2019
2359 Clouds 16 1012 77 10000 6.2 350 05:55 19.12.2019
2360 Clouds 16 1012 77 10000 6.2 350 05:34 19.12.2019
2361 Clouds 16 1012 77 10000 4.6 360 04:52 19.12.2019
2362 Clouds 16 1011 82 10000 4.6 360 03:21 19.12.2019
2363 Clouds 16 1012 77 10000 5.1 350 02:22 19.12.2019
2364 Clouds 16 1012 82 10000 4.6 350 01:22 19.12.2019
2365 Clouds 16 1013 77 10000 4.6 350 00:41 19.12.2019
2366 Clouds 16 1013 77 10000 4.6 350 00:22 19.12.2019
2367 Clouds 16 1014 82 10000 2.6 360 23:57 18.12.2019
2368 Clouds 16 1014 82 10000 2.6 360 23:38 18.12.2019
2369 Clouds 16 1014 82 10000 2.6 360 23:18 18.12.2019
2370 Clouds 16 1014 77 10000 4.1 330 22:55 18.12.2019
2371 Clouds 16 1014 77 10000 4.1 330 22:36 18.12.2019
2372 Clouds 16 1014 77 10000 4.1 330 22:18 18.12.2019
2373 Clouds 17 1013 77 10000 4.6 320 21:56 18.12.2019
2374 Clouds 17 1013 77 10000 4.6 320 21:56 18.12.2019
2375 Clouds 17 1013 77 10000 4.6 320 21:37 18.12.2019
2376 Clouds 17 1013 77 10000 4.6 320 21:19 18.12.2019
2377 Rain 17 1013 72 10000 6.2 320 20:55 18.12.2019
2378 Rain 17 1013 72 10000 6.2 320 20:55 18.12.2019
2379 Rain 17 1013 72 10000 6.2 320 20:37 18.12.2019
2380 Rain 18 1013 72 10000 6.2 320 20:18 18.12.2019
2381 Clouds 17 1013 72 10000 5.7 320 19:55 18.12.2019
2382 Clouds 18 1013 72 10000 5.7 320 19:37 18.12.2019
2383 Clouds 18 1013 72 10000 5.7 320 19:18 18.12.2019
2384 Clouds 18 1013 72 10000 5.7 320 19:18 18.12.2019
2385 Clouds 18 1013 63 10000 6.7 320 18:44 18.12.2019
2386 Clouds 18 1013 63 10000 6.7 320 18:25 18.12.2019
2387 Clouds 18 1013 63 10000 6.7 320 18:25 18.12.2019
2388 Clouds 19 1012 63 10000 6.7 310 17:57 18.12.2019
2389 Clouds 18 1012 63 10000 6.7 310 17:39 18.12.2019
2390 Clouds 19 1012 63 10000 6.7 310 17:19 18.12.2019
2391 Clouds 19 1011 55 10000 8.7 310 16:55 18.12.2019
2392 Clouds 19 1011 55 10000 8.7 310 16:37 18.12.2019
2393 Clouds 20 1011 55 10000 8.7 310 16:18 18.12.2019
2394 Clouds 20 1011 49 10000 9.8 300 15:55 18.12.2019
2395 Clouds 20 1011 49 10000 9.8 300 15:37 18.12.2019
2396 Clouds 20 1011 49 10000 9.8 300 15:18 18.12.2019
2397 Clouds 20 1011 52 10000 10.3 310 14:40 18.12.2019
2398 Clouds 20 1011 52 10000 10.3 310 14:21 18.12.2019
2399 Clouds 21 1010 49 10000 11.3 310 13:57 18.12.2019
2400 Clouds 21 1010 49 10000 11.3 310 13:38 18.12.2019
2401 Clouds 21 1010 49 10000 11.3 310 13:19 18.12.2019
2402 Clouds 21 1010 49 10000 10.8 310 12:57 18.12.2019
2403 Clouds 21 1010 49 10000 10.8 310 12:38 18.12.2019
2404 Clouds 21 1010 49 10000 10.8 310 12:19 18.12.2019
2405 Clouds 20 1010 56 10000 11.3 310 11:55 18.12.2019
2406 Clouds 20 1010 56 10000 11.3 310 11:55 18.12.2019
2407 Clouds 21 1010 56 10000 11.3 310 11:37 18.12.2019
2408 Clouds 20 1010 56 10000 11.3 310 11:19 18.12.2019
2409 Clouds 20 1010 56 10000 10.8 310 10:55 18.12.2019
2410 Clouds 20 1010 56 10000 10.8 310 10:37 18.12.2019
2411 Clouds 20 1010 56 10000 10.8 310 10:19 18.12.2019
2412 Rain 19 1009 68 10000 8.2 300 09:50 18.12.2019
2413 Rain 19 1009 68 10000 8.2 300 09:50 18.12.2019
2414 Rain 19 1009 68 10000 8.2 300 09:18 18.12.2019
2415 Clouds 19 1009 72 10000 6.7 310 08:41 18.12.2019
2416 Clouds 18 1009 72 10000 6.7 310 08:22 18.12.2019
2417 Clouds 18 1009 82 10000 6.7 320 07:43 18.12.2019
2418 Clouds 18 1009 82 10000 6.7 320 07:23 18.12.2019
2419 Clouds 17 1009 87 10000 4.6 310 06:56 18.12.2019
2420 Clouds 17 1009 87 10000 4.6 310 06:27 18.12.2019
2421 Drizzle 16 1009 87 10000 3.6 280 05:54 18.12.2019
2422 Rain 15 1008 82 4000 4.6 350 04:57 18.12.2019
2423 Clouds 16 1006 87 10000 7.2 350 02:55 18.12.2019
2424 Clouds 16 1006 87 10000 7.2 350 02:37 18.12.2019
2425 Clouds 16 1006 87 10000 7.2 350 02:18 18.12.2019
2426 Clouds 17 1007 87 10000 7.7 350 01:41 18.12.2019
2427 Clouds 16 1007 87 10000 7.7 350 01:22 18.12.2019
2428 Clouds 16 1007 87 10000 7.7 350 01:22 18.12.2019
2429 Clouds 16 1007 100 10000 6.7 350 00:41 18.12.2019
2430 Clouds 16 1007 100 10000 6.7 350 00:23 18.12.2019
2431 Clouds 16 1007 93 10000 6.7 350 23:57 17.12.2019
2432 Clouds 16 1007 93 10000 6.7 350 23:39 17.12.2019
2433 Rain 16 1008 93 2000 9.3 320 23:19 17.12.2019
2434 Rain 16 1008 87 3000 9.8 340 22:56 17.12.2019
2435 Rain 16 1008 87 3000 9.8 340 22:38 17.12.2019
2436 Rain 17 1007 82 7000 8.7 350 22:19 17.12.2019
2437 Rain 17 1007 77 4500 10.8 340 21:55 17.12.2019
2438 Rain 17 1007 77 4500 10.8 340 21:55 17.12.2019
2439 Rain 17 1007 77 4500 10.8 340 21:55 17.12.2019
2440 Rain 18 1007 77 4500 10.8 340 21:37 17.12.2019
2441 Rain 18 1007 77 4500 10.8 340 21:37 17.12.2019
2442 Drizzle 19 1007 63 10000 10.3 340 21:19 17.12.2019
2443 Clouds 19 1007 63 10000 9.8 340 20:57 17.12.2019
2444 Clouds 19 1007 63 10000 9.8 340 20:38 17.12.2019
2445 Clouds 19 1007 63 10000 9.8 340 20:18 17.12.2019
2446 Clouds 19 1007 68 10000 8.7 330 19:56 17.12.2019
2447 Clouds 19 1007 68 10000 8.7 330 19:37 17.12.2019
2448 Clouds 19 1007 68 10000 8.7 330 19:18 17.12.2019
2449 Clouds 19 1007 68 10000 8.7 330 19:18 17.12.2019
2450 Clouds 19 1007 68 10000 11.3 320 18:43 17.12.2019
2451 Clouds 19 1007 68 10000 11.3 320 18:43 17.12.2019
2452 Clouds 19 1007 68 10000 11.3 320 18:23 17.12.2019
2453 Clouds 19 1007 68 10000 10.8 330 17:59 17.12.2019
2454 Clouds 19 1007 68 10000 10.8 330 17:41 17.12.2019
2455 Clouds 20 1007 68 10000 10.8 330 17:20 17.12.2019
2456 Clouds 20 1007 64 10000 12.9 310 16:56 17.12.2019
2457 Clouds 20 1007 64 10000 12.9 310 16:38 17.12.2019
2458 Clouds 20 1007 64 10000 12.9 310 16:19 17.12.2019
2459 Clouds 21 1007 64 10000 11.8 300 15:58 17.12.2019
2460 Clouds 21 1007 64 10000 11.8 300 15:37 17.12.2019
2461 Clouds 21 1007 64 10000 11.8 300 15:19 17.12.2019
2462 Clouds 21 1006 64 10000 12.3 300 14:56 17.12.2019
2463 Clouds 21 1006 60 10000 12.3 310 14:37 17.12.2019
2464 Clouds 21 1006 60 10000 12.3 310 14:18 17.12.2019
2465 Clouds 21 1006 60 10000 12.3 310 14:18 17.12.2019
2466 Clouds 21 1006 60 10000 12.3 310 14:18 17.12.2019
2467 Clouds 21 1005 64 10000 13.9 310 13:56 17.12.2019
2468 Clouds 21 1005 64 10000 13.9 310 13:37 17.12.2019
2469 Clouds 21 1005 64 10000 13.9 310 13:18 17.12.2019
2470 Clouds 22 1006 60 10000 11.3 300 12:55 17.12.2019
2471 Clouds 22 1006 60 10000 11.3 300 12:37 17.12.2019
2472 Clouds 22 1006 60 10000 11.3 300 12:18 17.12.2019
2473 Clouds 22 1006 60 10000 9.8 320 11:55 17.12.2019
2474 Clouds 23 1006 60 10000 9.8 320 11:36 17.12.2019
2475 Clear 23 1006 60 10000 9.8 320 11:18 17.12.2019
2476 Clouds 22 1005 64 10000 8.2 330 10:55 17.12.2019
2477 Clouds 22 1005 64 10000 8.2 330 10:36 17.12.2019
2478 Clouds 22 1005 64 10000 8.2 330 10:18 17.12.2019
2479 Clouds 22 1005 77 10000 10.3 310 09:42 17.12.2019
2480 Clouds 22 1005 77 10000 10.3 310 09:21 17.12.2019
2481 Clear 23 1006 64 10000 7.2 320 08:58 17.12.2019
2482 Clear 22 1006 64 10000 7.2 320 08:39 17.12.2019
2483 Clear 22 1006 64 10000 7.2 320 08:21 17.12.2019
2484 Clear 21 1006 68 10000 6.2 340 07:57 17.12.2019
2485 Clear 20 1006 68 10000 6.2 340 07:39 17.12.2019
2486 Clear 20 1006 68 10000 6.2 340 07:19 17.12.2019
2487 Clear 20 1005 77 10000 3.1 10 06:41 17.12.2019
2488 Clear 18 1005 77 10000 3.1 10 06:22 17.12.2019
2489 Clear 18 1005 87 10000 2.6 10 05:40 17.12.2019
2490 Clear 14 1005 93 10000 3.1 320 04:48 17.12.2019
2491 Clear 15 1005 93 10000 2.1 340 03:40 17.12.2019
2492 Clouds 15 1005 93 10000 1.5 20 02:22 17.12.2019
2493 Clouds 16 1006 93 10000 0.5 90 01:21 17.12.2019
2494 Clouds 16 1007 87 10000 0.5 30 00:45 17.12.2019
2495 Clouds 17 1007 87 10000 0.5 30 00:21 17.12.2019
2496 Clouds 18 1008 88 10000 2.1 190 23:44 16.12.2019
2497 Clouds 18 1008 88 10000 2.1 190 23:20 16.12.2019
2498 Clouds 18 1008 82 10000 3.1 200 22:59 16.12.2019
2499 Clouds 18 1008 82 10000 3.1 200 22:39 16.12.2019
2500 Clouds 18 1008 82 10000 3.1 200 22:21 16.12.2019
2501 Clouds 18 1009 82 10000 4.1 210 21:57 16.12.2019
2502 Clouds 18 1009 82 10000 4.1 210 21:57 16.12.2019
2503 Clouds 18 1009 82 10000 4.1 210 21:39 16.12.2019
2504 Clouds 18 1009 82 10000 4.1 210 21:20 16.12.2019
2505 Clouds 18 1010 88 10000 3.6 210 20:58 16.12.2019
2506 Clouds 18 1010 88 10000 3.6 210 20:39 16.12.2019
2507 Clouds 18 1010 88 10000 3.6 210 20:19 16.12.2019
2508 Clouds 19 1011 77 10000 4.6 210 19:57 16.12.2019
2509 Clouds 19 1011 77 10000 4.6 210 19:37 16.12.2019
2510 Clouds 19 1011 77 10000 4.6 210 19:19 16.12.2019
2511 Clouds 20 1011 68 10000 6.7 210 18:59 16.12.2019
2512 Clouds 20 1011 68 10000 6.7 210 18:41 16.12.2019
2513 Clouds 20 1011 68 10000 6.7 210 18:20 16.12.2019
2514 Clouds 22 1011 60 10000 6.7 180 17:59 16.12.2019
2515 Clouds 22 1011 60 10000 6.7 180 17:40 16.12.2019
2516 Clouds 22 1011 60 10000 6.7 180 17:40 16.12.2019
2517 Clear 23 1011 60 10000 6.7 180 17:21 16.12.2019
2518 Clear 24 1012 49 10000 7.2 180 16:58 16.12.2019
2519 Clear 23 1012 49 10000 7.2 180 16:39 16.12.2019
2520 Clear 23 1012 49 10000 7.2 180 16:39 16.12.2019
2521 Clear 24 1012 49 10000 7.2 180 16:20 16.12.2019
2522 Clear 24 1013 44 10000 7.7 210 15:59 16.12.2019
2523 Clear 25 1013 44 10000 7.7 210 15:39 16.12.2019
2524 Clear 25 1013 44 10000 7.7 210 15:21 16.12.2019
2525 Clear 24 1013 41 10000 7.2 190 14:57 16.12.2019
2526 Clear 25 1013 41 10000 7.2 190 14:37 16.12.2019
2527 Clouds 26 1013 41 10000 7.2 190 14:19 16.12.2019
2528 Clouds 25 1014 34 10000 5.7 200 13:57 16.12.2019
2529 Clouds 25 1014 34 10000 5.7 200 13:38 16.12.2019
2530 Clouds 25 1014 34 10000 5.7 200 13:20 16.12.2019
2531 Clear 25 1014 31 10000 4.6 210 12:58 16.12.2019
2532 Clear 25 1014 31 10000 4.6 210 12:39 16.12.2019
2533 Clear 25 1014 31 10000 4.6 210 12:20 16.12.2019
2534 Clouds 25 1015 29 10000 2.6 220 11:59 16.12.2019
2535 Clouds 25 1015 29 10000 2.6 220 11:41 16.12.2019
2536 Clear 26 1015 29 10000 2.6 220 11:21 16.12.2019
2537 Clouds 26 1016 29 10000 2.1 0 10:58 16.12.2019
2538 Clouds 25 1016 29 10000 2.1 0 10:40 16.12.2019
2539 Clouds 25 1016 29 10000 2.1 0 10:20 16.12.2019
2540 Clouds 23 1016 28 10000 1.5 0 09:46 16.12.2019
2541 Clear 21 1017 32 10000 1.5 0 09:28 16.12.2019
2542 Clouds 21 1017 35 10000 1.5 0 08:58 16.12.2019
2543 Clouds 20 1017 42 10000 1.5 0 08:38 16.12.2019
2544 Clouds 19 1017 42 10000 1.5 0 08:18 16.12.2019
2545 Clouds 19 1017 42 10000 1.5 0 08:18 16.12.2019
2546 Clouds 18 1018 55 10000 2.6 170 07:47 16.12.2019
2547 Clouds 17 1018 55 10000 2.6 170 07:29 16.12.2019
2548 Clouds 17 1018 67 10000 3.1 250 06:46 16.12.2019
2549 Clouds 17 1018 67 10000 3.1 250 06:26 16.12.2019
2550 Clouds 15 1018 67 10000 3.1 250 05:54 16.12.2019
2551 Clouds 15 1018 67 10000 3.1 250 05:35 16.12.2019
2552 Clouds 15 1018 62 10000 4.6 170 04:27 16.12.2019
2553 Clouds 15 1020 67 10000 5.1 180 02:49 16.12.2019
2554 Clear 14 1021 76 10000 3.6 180 01:45 16.12.2019
2555 Clear 15 1022 72 10000 4.1 170 00:54 16.12.2019
2556 Clear 15 1022 72 10000 4.1 170 00:36 16.12.2019
2557 Clear 15 1022 72 10000 4.1 170 00:18 16.12.2019
2558 Clear 15 1022 71 10000 4.6 160 23:40 15.12.2019
2559 Clear 15 1022 71 10000 4.6 160 23:21 15.12.2019
2560 Clear 15 1023 62 10000 4.6 190 22:56 15.12.2019
2561 Clear 15 1023 62 10000 4.6 190 22:38 15.12.2019
2562 Clear 15 1023 62 10000 4.6 190 22:18 15.12.2019
2563 Clear 15 1023 62 10000 4.6 180 21:57 15.12.2019
2564 Clear 15 1023 62 10000 4.6 180 21:38 15.12.2019
2565 Clear 15 1023 62 10000 4.6 180 21:19 15.12.2019
2566 Clear 15 1023 58 10000 5.1 190 20:57 15.12.2019
2567 Clear 15 1023 58 10000 5.1 190 20:38 15.12.2019
2568 Clouds 16 1023 58 10000 5.1 190 20:19 15.12.2019
2569 Clouds 16 1023 58 10000 6.7 170 19:57 15.12.2019
2570 Clouds 16 1023 58 10000 6.7 170 19:39 15.12.2019
2571 Clouds 16 1023 58 10000 6.7 170 19:39 15.12.2019
2572 Clouds 16 1023 58 10000 6.7 170 19:18 15.12.2019
2573 Clouds 17 1023 48 10000 7.2 180 18:57 15.12.2019
2574 Clouds 17 1023 48 10000 7.2 180 18:38 15.12.2019
2575 Clouds 18 1023 48 10000 7.2 180 18:18 15.12.2019
2576 Clouds 18 1022 45 10000 7.2 180 17:56 15.12.2019
2577 Clouds 18 1022 45 10000 7.2 180 17:37 15.12.2019
2578 Clouds 18 1022 45 10000 7.2 180 17:19 15.12.2019
2579 Clouds 19 1022 45 10000 5.7 170 16:56 15.12.2019
2580 Clouds 19 1022 45 10000 5.7 170 16:38 15.12.2019
2581 Clouds 19 1022 45 10000 5.7 170 16:20 15.12.2019
2582 Clouds 20 1022 45 10000 6.2 190 15:55 15.12.2019
2583 Clouds 20 1022 45 10000 6.2 190 15:37 15.12.2019
2584 Clouds 20 1022 45 10000 6.2 190 15:18 15.12.2019
2585 Clouds 20 1022 48 10000 6.2 170 14:55 15.12.2019
2586 Clouds 20 1022 48 10000 6.2 170 14:36 15.12.2019
2587 Clouds 20 1022 48 10000 6.2 170 14:18 15.12.2019
2588 Clouds 20 1023 42 10000 6.7 200 13:55 15.12.2019
2589 Clouds 21 1023 42 10000 6.7 200 13:36 15.12.2019
2590 Clouds 21 1023 42 10000 6.7 200 13:18 15.12.2019
2591 Clouds 20 1023 48 10000 5.1 240 12:56 15.12.2019
2592 Clouds 20 1023 48 10000 5.1 240 12:37 15.12.2019
2593 Clouds 20 1023 48 10000 5.1 240 12:19 15.12.2019
2594 Clouds 19 1023 52 10000 3.6 260 11:38 15.12.2019
2595 Clouds 19 1023 52 10000 3.6 260 11:20 15.12.2019
2596 Clouds 20 1023 48 10000 3.1 0 10:58 15.12.2019
2597 Clouds 19 1023 48 10000 3.1 0 10:40 15.12.2019
2598 Clouds 19 1023 48 10000 3.1 0 10:20 15.12.2019
2599 Rain 17 1022 55 6000 3.6 260 09:59 15.12.2019
2600 Rain 18 1022 55 6000 3.6 260 09:38 15.12.2019
2601 Rain 17 1022 55 6000 3.6 260 09:20 15.12.2019
2602 Clouds 17 1022 63 10000 2.6 270 08:55 15.12.2019
2603 Clouds 16 1022 63 10000 2.6 270 08:37 15.12.2019
2604 Clouds 16 1022 63 10000 2.6 270 08:19 15.12.2019
2605 Clouds 16 1022 62 10000 2.6 210 07:53 15.12.2019
2606 Clouds 17 1022 62 10000 2.6 210 07:31 15.12.2019
2607 Clouds 16 1021 54 10000 2.1 270 06:30 15.12.2019
2608 Clouds 15 1020 62 10000 1.5 240 05:50 15.12.2019
2609 Clouds 14 1020 62 10000 1.5 240 05:23 15.12.2019
2610 Clouds 14 1020 58 10000 0.5 0 04:24 15.12.2019
2611 Clouds 15 1019 58 10000 1 0 02:59 15.12.2019
2612 Clouds 15 1019 58 10000 1 0 02:32 15.12.2019
2613 Clouds 15 1019 62 10000 2.1 310 01:42 15.12.2019
2614 Clouds 15 1019 62 10000 2.1 310 01:19 15.12.2019
2615 Clouds 15 1019 58 10000 1.5 0 00:51 15.12.2019
2616 Clouds 15 1019 58 10000 1.5 0 00:33 15.12.2019
2617 Clouds 15 1019 62 10000 1.5 0 23:55 14.12.2019
2618 Clouds 15 1019 62 10000 1.5 0 23:37 14.12.2019
2619 Clouds 15 1019 62 10000 1.5 0 23:18 14.12.2019
2620 Clouds 15 1019 62 10000 1.5 0 23:18 14.12.2019
2621 Clouds 15 1018 71 10000 1.5 0 22:56 14.12.2019
2622 Clouds 15 1018 71 10000 1.5 0 22:37 14.12.2019
2623 Clouds 15 1018 71 10000 1.5 0 22:18 14.12.2019
2624 Clouds 16 1018 63 10000 4.1 210 21:55 14.12.2019
2625 Clouds 16 1018 63 10000 4.1 210 21:36 14.12.2019
2626 Clouds 16 1018 63 10000 4.1 210 21:18 14.12.2019
2627 Clouds 16 1016 67 10000 5.1 230 20:42 14.12.2019
2628 Clouds 16 1016 67 10000 5.1 230 20:20 14.12.2019
2629 Rain 17 1015 67 10000 6.2 220 19:59 14.12.2019
2630 Rain 17 1015 67 10000 6.2 220 19:39 14.12.2019
2631 Rain 17 1015 67 10000 6.2 220 19:21 14.12.2019
2632 Clouds 18 1015 68 10000 5.7 260 18:57 14.12.2019
2633 Clouds 17 1015 68 10000 5.7 260 18:38 14.12.2019
2634 Clouds 18 1015 68 10000 5.7 260 18:20 14.12.2019
2635 Clouds 17 1014 77 10000 6.7 260 17:54 14.12.2019
2636 Clouds 17 1014 77 10000 6.7 260 17:36 14.12.2019
2637 Clouds 17 1014 77 10000 6.7 260 17:18 14.12.2019
2638 Clouds 17 1014 93 10000 5.7 240 16:41 14.12.2019
2639 Clouds 17 1014 93 10000 5.7 240 16:19 14.12.2019
2640 Rain 17 1014 88 4000 7.2 240 15:55 14.12.2019
2641 Rain 17 1014 88 4000 7.2 240 15:36 14.12.2019
2642 Rain 19 1013 72 10000 7.2 250 15:18 14.12.2019
2643 Rain 20 1013 64 10000 10.3 310 14:54 14.12.2019
2644 Rain 21 1013 64 10000 10.3 310 14:36 14.12.2019
2645 Rain 22 1013 64 10000 10.3 310 14:18 14.12.2019
2646 Clouds 23 1013 53 10000 9.3 300 13:42 14.12.2019
2647 Clouds 23 1013 53 10000 9.3 300 13:19 14.12.2019
2648 Clouds 23 1013 53 10000 9.3 300 13:19 14.12.2019
2649 Clouds 23 1013 53 10000 9.8 310 12:57 14.12.2019
2650 Clouds 23 1013 53 10000 9.8 310 12:38 14.12.2019
2651 Clouds 23 1013 53 10000 9.8 310 12:38 14.12.2019
2652 Clouds 23 1013 53 10000 9.8 310 12:20 14.12.2019
2653 Clouds 23 1013 60 10000 9.8 320 11:56 14.12.2019
2654 Clouds 23 1013 60 10000 9.8 320 11:38 14.12.2019
2655 Clouds 23 1013 56 10000 8.7 290 11:19 14.12.2019
2656 Clouds 22 1013 56 10000 8.7 290 10:56 14.12.2019
2657 Clouds 23 1013 56 10000 8.7 290 10:38 14.12.2019
2658 Clouds 23 1013 56 10000 8.7 290 10:19 14.12.2019
2659 Clouds 22 1013 60 10000 7.7 300 09:43 14.12.2019
2660 Clouds 22 1013 60 10000 7.7 300 09:23 14.12.2019
2661 Clouds 21 1013 77 10000 4.6 310 08:59 14.12.2019
2662 Clouds 21 1013 77 10000 4.6 310 08:59 14.12.2019
2663 Clouds 21 1013 77 10000 4.6 310 08:40 14.12.2019
2664 Clouds 20 1013 77 10000 4.6 310 08:19 14.12.2019
2665 Clouds 20 1013 93 10000 4.6 320 07:41 14.12.2019
2666 Clouds 19 1013 93 10000 4.6 320 07:22 14.12.2019
2667 Clouds 20 1012 88 10000 4.6 320 06:55 14.12.2019
2668 Clouds 19 1012 88 10000 4.6 320 06:36 14.12.2019
2669 Clouds 19 1011 93 10000 2.6 300 05:52 14.12.2019
2670 Clouds 19 1012 93 10000 4.1 300 04:34 14.12.2019
2671 Clouds 19 1011 93 10000 3.1 300 02:25 14.12.2019
2672 Clouds 19 1012 93 10000 3.6 240 01:44 14.12.2019
2673 Clouds 19 1012 93 10000 3.6 240 01:44 14.12.2019
2674 Clouds 19 1012 93 10000 3.6 240 01:22 14.12.2019
2675 Clouds 19 1012 88 10000 4.6 220 00:43 14.12.2019
2676 Clouds 19 1012 88 10000 4.6 220 00:24 14.12.2019
2677 Clouds 19 1012 93 10000 2.1 170 23:43 13.12.2019
2678 Clouds 19 1012 93 10000 2.1 170 23:22 13.12.2019
2679 Clouds 19 1013 93 10000 4.6 180 22:59 13.12.2019
2680 Clouds 19 1013 93 10000 4.6 180 22:40 13.12.2019
2681 Clouds 19 1013 93 10000 4.6 180 22:19 13.12.2019
2682 Clouds 19 1013 93 10000 5.7 190 21:55 13.12.2019
2683 Clouds 19 1013 93 10000 5.7 190 21:36 13.12.2019
2684 Clouds 19 1013 93 10000 5.7 190 21:18 13.12.2019
2685 Clouds 20 1012 93 10000 4.6 210 20:40 13.12.2019
2686 Clouds 20 1012 93 10000 4.6 210 20:21 13.12.2019
2687 Clouds 20 1011 82 10000 4.6 190 19:58 13.12.2019
2688 Clouds 20 1011 82 10000 4.6 190 19:40 13.12.2019
2689 Clouds 20 1011 82 10000 4.6 190 19:21 13.12.2019
2690 Clouds 22 1011 73 10000 4.1 190 18:58 13.12.2019
2691 Clouds 22 1011 73 10000 4.1 190 18:40 13.12.2019
2692 Clouds 22 1011 73 10000 4.1 190 18:19 13.12.2019
2693 Clouds 22 1011 73 10000 4.1 190 18:19 13.12.2019
2694 Clouds 22 1010 64 10000 5.1 190 17:42 13.12.2019
2695 Clouds 22 1010 64 10000 5.1 190 17:20 13.12.2019
2696 Clouds 23 1011 57 10000 4.1 180 16:59 13.12.2019
2697 Clouds 23 1011 57 10000 4.1 180 16:39 13.12.2019
2698 Clouds 23 1011 57 10000 4.1 180 16:20 13.12.2019
2699 Clouds 24 1011 57 10000 3.1 0 15:44 13.12.2019
2700 Clouds 24 1011 57 10000 3.1 0 15:23 13.12.2019
2701 Clouds 24 1011 57 10000 3.1 0 15:23 13.12.2019
2702 Clouds 24 1011 57 10000 4.1 320 14:59 13.12.2019
2703 Clouds 24 1011 57 10000 4.1 320 14:41 13.12.2019
2704 Clear 25 1011 57 10000 4.1 320 14:20 13.12.2019
2705 Clear 24 1012 57 10000 5.1 330 13:57 13.12.2019
2706 Clear 25 1012 57 10000 5.1 330 13:38 13.12.2019
2707 Clear 24 1012 57 10000 5.1 330 13:19 13.12.2019
2708 Clear 25 1012 54 10000 5.1 190 12:42 13.12.2019
2709 Clear 25 1012 54 10000 5.1 190 12:20 13.12.2019
2710 Clear 26 1012 51 10000 3.6 320 11:57 13.12.2019
2711 Clear 26 1012 51 10000 3.6 320 11:39 13.12.2019
2712 Clear 26 1012 51 10000 3.6 320 11:21 13.12.2019
2713 Clear 25 1012 54 10000 2.1 0 10:42 13.12.2019
2714 Clear 25 1012 54 10000 2.1 0 10:23 13.12.2019
2715 Clear 24 1013 64 10000 3.1 300 09:56 13.12.2019
2716 Clear 24 1013 64 10000 3.1 300 09:38 13.12.2019
2717 Clear 23 1013 64 10000 3.1 300 09:18 13.12.2019
2718 Clear 23 1013 64 10000 3.1 300 09:18 13.12.2019
2719 Clear 21 1013 77 10000 3.6 300 08:41 13.12.2019
2720 Clear 21 1013 77 10000 3.6 300 08:23 13.12.2019
2721 Clear 20 1013 82 10000 4.6 310 07:46 13.12.2019
2722 Clear 20 1013 82 10000 4.6 310 07:21 13.12.2019
2723 Clear 20 1013 82 10000 4.6 320 06:55 13.12.2019
2724 Clear 20 1013 82 10000 4.6 320 06:29 13.12.2019
2725 Clear 19 1012 82 10000 3.6 200 05:46 13.12.2019
2726 Clear 18 1012 82 10000 3.6 200 05:27 13.12.2019
2727 Clear 18 1011 82 10000 3.6 240 04:35 13.12.2019
2728 Clear 19 1011 82 10000 5.7 220 03:46 13.12.2019
2729 Clear 20 1011 77 10000 4.1 190 02:34 13.12.2019
2730 Clouds 20 1011 77 10000 5.7 240 01:44 13.12.2019
2731 Clouds 20 1012 73 10000 6.2 190 00:56 13.12.2019
2732 Clouds 21 1012 73 10000 6.2 190 00:37 13.12.2019
2733 Clouds 21 1012 64 10000 3.6 210 23:57 12.12.2019
2734 Clouds 21 1012 64 10000 3.6 210 23:39 12.12.2019
2735 Clouds 21 1012 64 10000 3.6 210 23:20 12.12.2019
2736 Clouds 21 1012 64 10000 3.6 170 22:55 12.12.2019
2737 Clouds 21 1012 64 10000 3.6 170 22:37 12.12.2019
2738 Clouds 21 1012 64 10000 3.6 170 22:18 12.12.2019
2739 Clouds 21 1012 73 10000 5.1 250 21:54 12.12.2019
2740 Clouds 21 1012 73 10000 5.1 250 21:36 12.12.2019
2741 Clouds 21 1012 73 10000 5.1 250 21:18 12.12.2019
2742 Clouds 22 1012 64 10000 2.6 0 20:55 12.12.2019
2743 Clouds 22 1012 64 10000 2.6 0 20:37 12.12.2019
2744 Clear 22 1012 64 10000 2.6 0 20:19 12.12.2019
2745 Clear 23 1011 60 10000 4.1 230 19:42 12.12.2019
2746 Clear 23 1011 60 10000 4.1 230 19:22 12.12.2019
2747 Clear 22 1011 69 10000 7.2 240 18:58 12.12.2019
2748 Clear 23 1011 69 10000 7.2 240 18:40 12.12.2019
2749 Clear 24 1011 69 10000 7.2 240 18:20 12.12.2019
2750 Clear 26 1011 57 10000 6.7 240 17:58 12.12.2019
2751 Clear 26 1011 57 10000 6.7 240 17:58 12.12.2019
2752 Clear 26 1011 57 10000 6.7 240 17:39 12.12.2019
2753 Clouds 26 1011 57 10000 6.7 240 17:20 12.12.2019
2754 Clouds 26 1011 57 10000 5.7 230 16:57 12.12.2019
2755 Clouds 26 1011 57 10000 5.7 230 16:39 12.12.2019
2756 Clouds 26 1011 57 10000 5.7 230 16:20 12.12.2019
2757 Clouds 26 1012 54 10000 6.2 240 15:56 12.12.2019
2758 Clouds 26 1012 54 10000 6.2 240 15:56 12.12.2019
2759 Clouds 26 1012 54 10000 6.2 240 15:38 12.12.2019
2760 Clouds 28 1012 54 10000 6.2 240 15:18 12.12.2019
2761 Clouds 27 1012 47 10000 6.7 240 14:38 12.12.2019
2762 Clouds 24 1012 47 10000 6.7 240 14:38 12.12.2019
2763 Clouds 26 1012 47 10000 6.7 240 14:20 12.12.2019
2764 Clouds 26 1012 44 10000 4.6 220 13:58 12.12.2019
2765 Clouds 26 1012 44 10000 4.6 220 13:40 12.12.2019
2766 Clouds 26 1012 44 10000 4.6 220 13:21 12.12.2019
2767 Clouds 26 1013 42 10000 4.1 200 12:59 12.12.2019
2768 Clouds 26 1013 42 10000 4.1 200 12:40 12.12.2019
2769 Clouds 26 1013 42 10000 4.1 200 12:21 12.12.2019
2770 Clouds 26 1014 44 10000 4.6 170 11:57 12.12.2019
2771 Clouds 26 1014 44 10000 4.6 170 11:38 12.12.2019
2772 Clouds 26 1014 44 10000 4.6 170 11:19 12.12.2019
2773 Clouds 26 1014 50 10000 5.1 160 10:56 12.12.2019
2774 Clouds 26 1014 50 10000 5.1 160 10:38 12.12.2019
2775 Clouds 26 1014 50 10000 5.1 160 10:20 12.12.2019
2776 Clouds 25 1014 54 10000 1.5 0 09:55 12.12.2019
2777 Clouds 25 1014 54 10000 1.5 0 09:37 12.12.2019
2778 Clouds 23 1014 60 10000 1.5 0 09:19 12.12.2019
2779 Clouds 22 1015 68 10000 2.1 240 08:43 12.12.2019
2780 Clear 22 1015 68 10000 2.1 240 08:25 12.12.2019
2781 Clear 21 1014 77 10000 2.6 300 07:49 12.12.2019
2782 Clear 21 1014 77 10000 2.6 300 07:27 12.12.2019
2783 Clear 21 1014 72 10000 1.5 0 06:56 12.12.2019
2784 Clear 20 1014 72 10000 1.5 0 06:35 12.12.2019
2785 Clear 18 1013 93 10000 0.5 0 05:42 12.12.2019
2786 Clear 18 1013 88 10000 1 240 04:55 12.12.2019
2787 Clear 18 1013 88 10000 1 240 04:23 12.12.2019
2788 Clear 18 1012 88 10000 2.1 290 02:40 12.12.2019
2789 Clouds 18 1012 88 10000 2.1 290 02:22 12.12.2019
2790 Clouds 18 1013 93 10000 1 200 01:54 12.12.2019
2791 Clouds 18 1013 93 10000 1 200 01:32 12.12.2019
2792 Clouds 19 1013 88 10000 1 0 00:47 12.12.2019
2793 Clouds 19 1013 88 10000 1 0 00:21 12.12.2019
2794 Clouds 20 1013 82 10000 3.6 250 23:45 11.12.2019
2795 Clouds 20 1013 82 10000 3.6 250 23:21 11.12.2019
2796 Clouds 20 1013 88 10000 5.1 240 22:59 11.12.2019
2797 Clouds 20 1013 88 10000 5.1 240 22:39 11.12.2019
2798 Clouds 20 1013 88 10000 5.1 240 22:20 11.12.2019
2799 Clouds 20 1013 88 10000 5.7 240 21:59 11.12.2019
2800 Clouds 20 1013 88 10000 5.7 240 21:39 11.12.2019
2801 Clouds 20 1013 88 10000 5.7 240 21:20 11.12.2019
2802 Clouds 20 1013 82 10000 6.7 240 20:57 11.12.2019
2803 Clouds 20 1013 82 10000 6.7 240 20:39 11.12.2019
2804 Clouds 20 1013 82 10000 6.7 240 20:19 11.12.2019
2805 Clouds 20 1012 82 10000 6.2 230 19:58 11.12.2019
2806 Clouds 20 1012 82 10000 6.2 230 19:40 11.12.2019
2807 Clouds 20 1012 82 10000 6.2 230 19:20 11.12.2019
2808 Clouds 21 1012 77 10000 6.2 220 18:57 11.12.2019
2809 Clouds 21 1012 77 10000 6.2 220 18:38 11.12.2019
2810 Clouds 22 1012 77 10000 6.2 220 18:18 11.12.2019
2811 Clouds 22 1012 73 10000 7.2 210 17:55 11.12.2019
2812 Clouds 22 1012 73 10000 7.2 210 17:36 11.12.2019
2813 Clouds 22 1012 73 10000 7.2 210 17:18 11.12.2019
2814 Clouds 22 1012 69 10000 7.7 200 16:55 11.12.2019
2815 Clouds 22 1012 69 10000 7.7 200 16:55 11.12.2019
2816 Clouds 22 1012 69 10000 7.7 200 16:36 11.12.2019
2817 Clouds 22 1012 69 10000 7.7 200 16:18 11.12.2019
2818 Clouds 22 1012 69 10000 7.7 200 16:18 11.12.2019
2819 Clouds 24 1013 64 10000 7.2 190 15:54 11.12.2019
2820 Clouds 24 1013 64 10000 7.2 190 15:36 11.12.2019
2821 Clouds 24 1013 64 10000 7.2 190 15:18 11.12.2019
2822 Clouds 23 1013 69 10000 6.7 190 14:54 11.12.2019
2823 Clouds 23 1014 60 10000 6.7 180 14:36 11.12.2019
2824 Clouds 24 1014 60 10000 6.7 180 14:18 11.12.2019
2825 Clouds 24 1014 60 10000 6.7 180 13:41 11.12.2019
2826 Clouds 24 1014 60 10000 6.7 180 13:21 11.12.2019
2827 Clouds 24 1015 57 10000 4.6 190 12:57 11.12.2019
2828 Clouds 24 1015 57 10000 4.6 190 12:38 11.12.2019
2829 Clouds 24 1015 57 10000 4.6 190 12:38 11.12.2019
2830 Clouds 24 1015 57 10000 4.6 190 12:20 11.12.2019
2831 Clouds 24 1015 64 10000 4.6 180 11:58 11.12.2019
2832 Clouds 24 1015 64 10000 4.6 180 11:38 11.12.2019
2833 Clouds 24 1015 64 10000 4.6 180 11:18 11.12.2019
2834 Clouds 23 1014 64 10000 2.6 0 10:57 11.12.2019
2835 Clouds 23 1014 64 10000 2.6 0 10:38 11.12.2019
2836 Clouds 22 1014 64 10000 2.6 0 10:19 11.12.2019
2837 Clouds 21 1014 68 10000 3.1 290 09:43 11.12.2019
2838 Clouds 21 1014 68 10000 3.1 290 09:21 11.12.2019
2839 Clouds 21 1014 72 10000 3.6 300 08:58 11.12.2019
2840 Clouds 21 1014 72 10000 3.6 300 08:58 11.12.2019
2841 Clouds 20 1014 72 10000 3.6 300 08:39 11.12.2019
2842 Clouds 20 1014 72 10000 3.6 300 08:20 11.12.2019
2843 Clouds 20 1014 72 10000 3.6 300 08:20 11.12.2019
2844 Clouds 19 1014 88 10000 2.6 340 07:58 11.12.2019
2845 Clouds 19 1014 88 10000 2.6 340 07:39 11.12.2019
2846 Clouds 19 1014 88 10000 2.6 340 07:21 11.12.2019
2847 Clouds 17 1013 93 8000 2.1 270 06:44 11.12.2019
2848 Clouds 17 1013 93 8000 2.1 270 06:23 11.12.2019
2849 Mist 16 1012 93 3000 2.6 340 05:46 11.12.2019
2850 Mist 16 1012 93 3000 2.6 340 05:27 11.12.2019
2851 Mist 15 1013 93 2000 4.6 330 04:41 11.12.2019
2852 Clouds 17 1012 82 10000 4.1 300 02:49 11.12.2019
2853 Clear 18 1012 77 10000 1.5 0 01:26 11.12.2019
2854 Clear 18 1012 72 10000 4.1 200 00:56 11.12.2019
2855 Clear 19 1012 72 10000 5.7 180 00:25 11.12.2019
2856 Clear 19 1012 72 10000 5.7 180 00:25 11.12.2019
2857 Clear 19 1012 72 10000 5.7 180 23:59 10.12.2019
2858 Clear 20 1012 72 10000 5.7 180 23:40 10.12.2019
2859 Clear 20 1012 72 10000 5.7 180 23:21 10.12.2019
2860 Clear 20 1011 72 10000 3.6 250 22:41 10.12.2019
2861 Clear 20 1011 72 10000 3.6 250 22:22 10.12.2019
2862 Clear 21 1011 68 10000 3.6 250 21:58 10.12.2019
2863 Clear 21 1011 68 10000 3.6 250 21:39 10.12.2019
2864 Clear 21 1011 68 10000 3.6 250 21:21 10.12.2019
2865 Clear 21 1011 64 10000 5.7 230 20:58 10.12.2019
2866 Clear 21 1011 64 10000 5.7 230 20:38 10.12.2019
2867 Clear 21 1011 64 10000 5.7 230 20:19 10.12.2019
2868 Clear 21 1011 64 10000 5.7 230 20:19 10.12.2019
2869 Clear 21 1011 64 10000 5.7 230 20:19 10.12.2019
2870 Clear 21 1011 64 10000 5.7 230 20:19 10.12.2019
2871 Clear 22 1010 60 10000 5.7 210 19:56 10.12.2019
2872 Clear 22 1010 60 10000 5.7 210 19:38 10.12.2019
2873 Clear 22 1010 60 10000 5.7 210 19:20 10.12.2019
2874 Clear 22 1009 64 10000 7.2 230 18:55 10.12.2019
2875 Clear 21 1009 64 10000 7.2 230 18:36 10.12.2019
2876 Clear 23 1009 64 10000 7.2 230 18:18 10.12.2019
2877 Clear 24 1009 53 10000 6.2 230 17:41 10.12.2019
2878 Clear 24 1009 53 10000 6.2 230 17:22 10.12.2019
2879 Clouds 25 1009 50 10000 7.7 230 16:58 10.12.2019
2880 Clouds 25 1009 50 10000 7.7 230 16:39 10.12.2019
2881 Clouds 25 1009 50 10000 7.7 230 16:19 10.12.2019
2882 Clouds 29 1009 42 10000 4.6 210 15:39 10.12.2019
2883 Clouds 30 1009 42 10000 4.6 210 15:18 10.12.2019
2884 Clouds 27 1010 47 10000 6.7 210 14:56 10.12.2019
2885 Clouds 27 1010 47 10000 6.7 210 14:38 10.12.2019
2886 Clouds 27 1010 47 10000 6.7 210 14:38 10.12.2019
2887 Clouds 25 1010 47 10000 6.7 210 14:20 10.12.2019
2888 Clouds 25 1011 44 10000 5.7 210 13:58 10.12.2019
2889 Clouds 25 1011 44 10000 5.7 210 13:40 10.12.2019
2890 Clouds 25 1011 44 10000 5.7 210 13:20 10.12.2019
2891 Clouds 25 1011 44 10000 5.7 210 13:20 10.12.2019
2892 Clouds 24 1012 50 10000 3.6 210 12:49 10.12.2019
2893 Clouds 24 1012 50 10000 3.6 210 12:28 10.12.2019
2894 Clouds 24 1012 47 10000 4.1 200 11:58 10.12.2019
2895 Clouds 25 1012 47 10000 4.1 200 11:40 10.12.2019
2896 Clouds 24 1012 47 10000 4.1 200 11:21 10.12.2019
2897 Clouds 24 1012 53 10000 1.5 0 10:43 10.12.2019
2898 Clouds 25 1012 53 10000 1.5 0 10:24 10.12.2019
2899 Clouds 23 1012 60 10000 2.6 270 09:57 10.12.2019
2900 Clouds 23 1012 60 10000 2.6 270 09:57 10.12.2019
2901 Clouds 23 1012 60 10000 2.6 270 09:39 10.12.2019
2902 Clouds 23 1012 60 10000 2.6 270 09:20 10.12.2019
2903 Clouds 23 1012 56 10000 3.6 310 08:58 10.12.2019
2904 Clouds 24 1012 56 10000 3.6 310 08:39 10.12.2019
2905 Clouds 22 1012 56 10000 3.6 310 08:20 10.12.2019
2906 Clouds 22 1012 60 10000 3.6 300 07:45 10.12.2019
2907 Clouds 21 1012 60 10000 3.6 300 07:27 10.12.2019
2908 Clouds 21 1011 64 10000 5.1 160 06:56 10.12.2019
2909 Clouds 21 1011 64 10000 5.1 160 06:38 10.12.2019
2910 Clouds 20 1011 64 10000 5.1 160 06:19 10.12.2019
2911 Clouds 19 1011 72 10000 4.1 130 05:51 10.12.2019
2912 Clouds 18 1009 72 10000 4.6 170 04:23 10.12.2019
2913 Clouds 18 1009 72 10000 4.6 170 03:25 10.12.2019
2914 Clouds 19 1010 63 10000 1.5 0 01:57 10.12.2019
2915 Clouds 19 1010 63 10000 1.5 0 01:38 10.12.2019
2916 Clouds 19 1010 63 10000 1.5 190 01:18 10.12.2019
2917 Clouds 19 1011 63 10000 4.1 160 00:29 10.12.2019
2918 Clouds 20 1011 63 10000 4.1 160 23:59 09.12.2019
2919 Clouds 20 1011 63 10000 4.1 160 23:59 09.12.2019
2920 Clouds 20 1011 63 10000 4.1 160 23:39 09.12.2019
2921 Clear 20 1011 63 10000 4.1 160 23:21 09.12.2019
2922 Clear 21 1017 69 0 2.24 224 22:57 09.12.2019
2923 Clear 21 1011 53 10000 2.1 260 22:38 09.12.2019
2924 Clear 22 1011 53 10000 2.1 260 22:18 09.12.2019
2925 Clear 22 1011 53 10000 2.1 260 22:18 09.12.2019
2926 Clear 22 1011 53 10000 2.1 260 21:56 09.12.2019
2927 Clear 22 1011 53 10000 2.1 260 21:38 09.12.2019
2928 Clear 22 1011 53 10000 2.1 260 21:18 09.12.2019
2929 Clear 22 1010 53 10000 5.7 140 20:55 09.12.2019
2930 Clear 22 1010 53 10000 5.7 140 20:37 09.12.2019
2931 Clear 23 1010 53 10000 5.7 140 20:19 09.12.2019
2932 Clear 23 1010 49 10000 7.7 140 19:55 09.12.2019
2933 Clear 23 1010 49 10000 7.7 140 19:55 09.12.2019
2934 Clear 23 1010 49 10000 7.7 140 19:37 09.12.2019
2935 Clear 23 1010 49 10000 7.7 140 19:18 09.12.2019
2936 Clear 24 1008 41 10000 8.2 140 18:55 09.12.2019
2937 Clear 25 1008 41 10000 8.2 140 18:36 09.12.2019
2938 Clear 25 1008 41 10000 8.2 140 18:18 09.12.2019
2939 Clear 25 1008 41 10000 8.2 140 18:18 09.12.2019
2940 Clear 28 1008 35 10000 6.7 180 17:56 09.12.2019
2941 Clear 29 1008 35 10000 6.7 180 17:37 09.12.2019
2942 Clear 28 1008 35 10000 6.7 180 17:19 09.12.2019
2943 Clouds 27 1009 44 10000 8.2 220 16:54 09.12.2019
2944 Clouds 27 1009 44 10000 8.2 220 16:36 09.12.2019
2945 Clouds 28 1009 44 10000 8.2 220 16:18 09.12.2019
2946 Clouds 28 1009 37 10000 6.7 220 15:55 09.12.2019
2947 Clouds 30 1009 37 10000 6.7 220 15:36 09.12.2019
2948 Clouds 30 1009 37 10000 6.7 220 15:36 09.12.2019
2949 Clouds 30 1009 37 10000 6.7 220 15:18 09.12.2019
2950 Clouds 30 1010 37 10000 6.7 220 14:42 09.12.2019
2951 Clouds 28 1010 37 10000 6.7 220 14:19 09.12.2019
2952 Clouds 28 1011 37 10000 6.2 190 13:57 09.12.2019
2953 Clouds 28 1011 37 10000 6.2 190 13:38 09.12.2019
2954 Clouds 28 1011 37 10000 6.2 190 13:19 09.12.2019
2955 Clouds 28 1011 39 10000 6.7 190 12:56 09.12.2019
2956 Clouds 28 1011 39 10000 6.7 190 12:56 09.12.2019
2957 Clouds 28 1011 39 10000 6.7 190 12:37 09.12.2019
2958 Clouds 28 1011 39 10000 6.7 190 12:19 09.12.2019
2959 Clouds 27 1020 42 10000 8.7 190 11:56 09.12.2019
2960 Clouds 28 1020 42 10000 8.7 190 11:37 09.12.2019
2961 Clouds 28 1020 42 10000 8.7 190 11:18 09.12.2019
2962 Clear 27 1011 41 10000 2.6 0 10:41 09.12.2019
2963 Clear 27 1011 41 10000 2.6 0 10:41 09.12.2019
2964 Clear 27 1011 41 10000 2.6 0 10:20 09.12.2019
2965 Clear 26 1011 44 10000 1.5 0 09:59 09.12.2019
2966 Clear 26 1011 44 10000 1.5 0 09:41 09.12.2019
2967 Clear 26 1011 44 10000 1.5 0 09:41 09.12.2019
2968 Clear 26 1011 44 10000 1.5 0 09:21 09.12.2019
2969 Clear 25 1012 47 10000 1.5 0 08:54 09.12.2019
2970 Clear 24 1012 47 10000 1.5 0 08:36 09.12.2019
2971 Clear 24 1012 47 10000 1.5 0 08:18 09.12.2019
2972 Clouds 21 1011 60 10000 2.6 130 07:42 09.12.2019
2973 Clouds 20 1011 60 10000 2.6 130 07:23 09.12.2019
2974 Clouds 21 1011 68 10000 4.1 130 06:47 09.12.2019
2975 Clouds 20 1011 68 10000 4.1 130 06:25 09.12.2019
2976 Clouds 18 1011 77 10000 4.1 190 05:29 09.12.2019
2977 Clear 18 1011 72 10000 2.6 220 04:46 09.12.2019
2978 Clear 18 1010 68 10000 3.1 200 03:21 09.12.2019
2979 Clear 18 1010 68 10000 4.1 230 02:24 09.12.2019
2980 Clouds 18 1010 68 10000 3.1 200 01:42 09.12.2019
2981 Clouds 18 1011 72 10000 3.1 150 00:51 09.12.2019
2982 Clouds 18 1011 72 10000 3.1 150 00:31 09.12.2019
2983 Clouds 19 1011 68 10000 4.1 140 23:43 08.12.2019
2984 Clouds 19 1011 68 10000 4.1 140 23:24 08.12.2019
2985 Clouds 19 1011 68 10000 4.1 140 23:24 08.12.2019
2986 Clouds 19 1011 63 10000 4.1 140 22:58 08.12.2019
2987 Clouds 19 1011 63 10000 4.1 140 22:39 08.12.2019
2988 Clouds 19 1011 63 10000 4.1 140 22:20 08.12.2019
2989 Clouds 20 1010 63 10000 6.7 140 21:58 08.12.2019
2990 Clouds 20 1010 63 10000 6.7 140 21:40 08.12.2019
2991 Clouds 20 1010 63 10000 6.7 140 21:40 08.12.2019
2992 Clouds 20 1010 63 10000 6.7 140 21:22 08.12.2019
2993 Clouds 20 1010 60 10000 8.2 150 20:57 08.12.2019
2994 Clouds 20 1010 60 10000 8.2 150 20:39 08.12.2019
2995 Clouds 20 1010 60 10000 8.2 150 20:21 08.12.2019
2996 Clouds 21 1010 56 10000 7.7 150 19:59 08.12.2019
2997 Clouds 21 1010 56 10000 7.7 150 19:41 08.12.2019
2998 Clouds 21 1010 56 10000 7.7 150 19:23 08.12.2019
2999 Clouds 21 1010 56 10000 7.7 150 19:23 08.12.2019
3000 Clouds 22 1010 53 10000 8.7 140 18:56 08.12.2019
3001 Clouds 22 1010 53 10000 8.7 140 18:37 08.12.2019
3002 Clouds 22 1010 53 10000 8.7 140 18:19 08.12.2019
3003 Clouds 23 1009 50 10000 10.3 150 17:57 08.12.2019
3004 Clouds 23 1009 50 10000 10.3 150 17:39 08.12.2019
3005 Clouds 23 1009 50 10000 10.3 150 17:20 08.12.2019
3006 Clouds 24 1009 47 10000 10.8 150 16:57 08.12.2019
3007 Clouds 24 1009 47 10000 10.8 150 16:39 08.12.2019
3008 Clouds 24 1009 47 10000 10.8 150 16:21 08.12.2019
3009 Clouds 25 1009 42 10000 9.3 150 15:57 08.12.2019
3010 Clouds 25 1009 42 10000 9.3 150 15:37 08.12.2019
3011 Clouds 27 1009 42 10000 9.3 150 15:18 08.12.2019
3012 Clouds 28 1009 37 10000 9.8 150 14:44 08.12.2019
3013 Clouds 26 1009 37 10000 9.8 150 14:25 08.12.2019
3014 Clouds 27 1009 37 10000 9.3 150 13:59 08.12.2019
3015 Clouds 27 1009 37 10000 9.3 150 13:40 08.12.2019
3016 Clouds 27 1009 39 10000 10.3 150 13:22 08.12.2019
3017 Clouds 27 1009 37 10000 7.7 150 12:58 08.12.2019
3018 Clouds 27 1009 37 10000 7.7 150 12:39 08.12.2019
3019 Clouds 28 1009 37 10000 7.7 150 12:19 08.12.2019
3020 Clouds 27 1010 39 10000 6.7 190 11:57 08.12.2019
3021 Clouds 27 1010 39 10000 6.7 190 11:37 08.12.2019
3022 Clouds 27 1010 39 10000 6.7 190 11:19 08.12.2019
3023 Clouds 27 1010 39 10000 6.7 190 11:19 08.12.2019
3024 Clouds 27 1010 39 10000 6.7 170 10:55 08.12.2019
3025 Clouds 26 1010 39 10000 6.7 170 10:36 08.12.2019
3026 Clouds 26 1010 39 10000 6.7 170 10:36 08.12.2019
3027 Clouds 26 1010 39 10000 6.7 170 10:18 08.12.2019
3028 Clouds 26 1010 41 10000 4.6 140 09:54 08.12.2019
3029 Clouds 24 1010 41 10000 4.6 140 09:36 08.12.2019
3030 Clouds 24 1010 41 10000 4.6 140 09:18 08.12.2019
3031 Clouds 23 1011 50 10000 7.7 130 08:41 08.12.2019
3032 Clouds 23 1011 50 10000 7.7 130 08:23 08.12.2019
3033 Clouds 23 1010 56 10000 7.2 150 07:49 08.12.2019
3034 Clouds 22 1010 56 10000 7.2 150 07:21 08.12.2019
3035 Clear 22 1010 64 10000 2.1 130 06:59 08.12.2019
3036 Clear 21 1010 64 10000 2.1 130 06:39 08.12.2019
3037 Clear 21 1010 64 10000 2.1 130 06:19 08.12.2019
3038 Clouds 18 1010 72 10000 3.6 130 05:23 08.12.2019
3039 Clear 19 1010 68 10000 5.7 150 04:23 08.12.2019
3040 Clear 19 1010 68 10000 5.1 150 03:38 08.12.2019
3041 Clear 19 1010 72 10000 7.2 150 02:41 08.12.2019
3042 Clouds 19 1010 72 10000 7.2 150 02:20 08.12.2019
3043 Clouds 19 1010 72 10000 6.2 150 01:35 08.12.2019
3044 Clouds 19 1011 72 10000 9.3 160 00:52 08.12.2019
3045 Clouds 20 1011 72 10000 9.3 160 00:23 08.12.2019
3046 Clouds 20 1011 64 10000 9.8 170 23:57 07.12.2019
3047 Clouds 20 1011 64 10000 9.8 170 23:37 07.12.2019
3048 Clouds 20 1011 64 10000 9.8 170 23:18 07.12.2019
3049 Clouds 20 1011 64 10000 8.2 160 22:55 07.12.2019
3050 Clouds 20 1011 64 10000 8.2 160 22:36 07.12.2019
3051 Clouds 20 1011 64 10000 8.2 160 22:18 07.12.2019
3052 Clouds 21 1011 60 10000 8.7 160 21:55 07.12.2019
3053 Clouds 21 1011 60 10000 9.8 160 21:37 07.12.2019
3054 Clouds 21 1011 60 10000 9.8 160 21:18 07.12.2019
3055 Clouds 21 1018 72 0 2.24 196 20:38 07.12.2019
3056 Clouds 21 1018 72 0 2.24 196 20:38 07.12.2019
3057 Clouds 21 1010 64 10000 10.3 190 20:20 07.12.2019
3058 Clouds 21 1010 64 10000 10.3 190 19:58 07.12.2019
3059 Clouds 21 1010 64 10000 10.3 190 19:39 07.12.2019
3060 Clouds 21 1010 64 10000 10.3 190 19:21 07.12.2019
3061 Clouds 21 1010 56 10000 9.8 190 18:58 07.12.2019
3062 Clouds 21 1010 56 10000 9.8 190 18:58 07.12.2019
3063 Clouds 21 1010 56 10000 9.8 190 18:39 07.12.2019
3064 Clouds 23 1010 56 10000 9.8 190 18:18 07.12.2019
3065 Clouds 22 1010 53 10000 9.8 180 17:56 07.12.2019
3066 Clouds 23 1010 53 10000 9.8 180 17:37 07.12.2019
3067 Clouds 23 1010 53 10000 9.8 180 17:19 07.12.2019
3068 Clouds 24 1010 50 10000 9.8 180 16:56 07.12.2019
3069 Clouds 24 1010 50 10000 9.8 180 16:36 07.12.2019
3070 Clouds 24 1010 50 10000 9.8 180 16:18 07.12.2019
3071 Clouds 24 1010 50 10000 9.8 180 16:18 07.12.2019
3072 Clouds 26 1011 50 10000 11.3 180 15:41 07.12.2019
3073 Clouds 26 1011 50 10000 11.3 180 15:23 07.12.2019
3074 Clouds 26 1011 50 10000 11.3 180 15:23 07.12.2019
3075 Clouds 25 1011 57 10000 12.3 180 14:56 07.12.2019
3076 Clouds 25 1011 57 10000 12.3 180 14:38 07.12.2019
3077 Clouds 25 1011 57 10000 12.3 180 14:18 07.12.2019
3078 Clouds 25 1011 60 10000 11.8 180 13:40 07.12.2019
3079 Clouds 24 1011 60 10000 11.8 180 13:20 07.12.2019
3080 Clear 26 1011 54 10000 10.3 180 12:55 07.12.2019
3081 Clear 26 1011 54 10000 10.3 180 12:37 07.12.2019
3082 Clear 26 1011 54 10000 10.3 180 12:19 07.12.2019
3083 Clear 25 1012 53 10000 9.3 190 11:42 07.12.2019
3084 Clear 25 1012 53 10000 9.3 190 11:24 07.12.2019
3085 Clear 26 1012 47 10000 5.1 210 10:59 07.12.2019
3086 Clear 24 1012 47 10000 5.1 210 10:37 07.12.2019
3087 Clear 26 1012 47 10000 5.1 210 10:19 07.12.2019
3088 Clear 25 1012 50 10000 7.7 170 09:40 07.12.2019
3089 Clear 26 1012 50 10000 7.7 170 09:21 07.12.2019
3090 Clear 24 1012 53 10000 5.7 210 08:47 07.12.2019
3091 Clear 22 1012 53 10000 5.7 210 08:25 07.12.2019
3092 Clear 22 1011 60 10000 5.1 190 07:57 07.12.2019
3093 Clear 21 1011 64 10000 5.1 140 07:38 07.12.2019
3094 Clear 21 1011 64 10000 5.1 140 07:19 07.12.2019
3095 Clear 21 1011 64 10000 5.1 140 06:45 07.12.2019
3096 Clear 21 1011 64 10000 5.1 140 06:24 07.12.2019
3097 Clear 19 1010 72 10000 5.1 170 04:49 07.12.2019
3098 Clear 19 1010 72 10000 7.2 170 03:54 07.12.2019
3099 Clear 18 1010 88 10000 4.1 210 02:50 07.12.2019
3100 Clear 18 1010 88 10000 4.1 210 02:19 07.12.2019
3101 Clear 19 1010 77 10000 4.1 180 01:31 07.12.2019
3102 Clear 19 1011 82 10000 4.1 190 00:52 07.12.2019
3103 Clear 19 1011 82 10000 4.1 190 00:19 07.12.2019
3104 Clear 19 1011 82 10000 5.1 190 23:47 06.12.2019
3105 Clear 19 1011 82 10000 5.1 190 23:24 06.12.2019
3106 Clear 19 1011 82 10000 7.2 190 22:58 06.12.2019
3107 Clear 20 1011 82 10000 7.2 190 22:37 06.12.2019
3108 Clear 20 1011 82 10000 7.2 190 22:19 06.12.2019
3109 Clouds 19 1012 88 10000 6.7 200 21:56 06.12.2019
3110 Clouds 19 1012 88 10000 6.7 200 21:38 06.12.2019
3111 Clouds 20 1012 88 10000 6.7 200 21:19 06.12.2019
3112 Clouds 20 1012 88 10000 8.2 200 20:42 06.12.2019
3113 Clouds 20 1011 82 10000 8.7 200 20:22 06.12.2019
3114 Clouds 21 1011 82 10000 8.7 200 19:58 06.12.2019
3115 Clouds 21 1011 82 10000 8.7 200 19:39 06.12.2019
3116 Clouds 21 1011 82 10000 8.7 200 19:21 06.12.2019
3117 Clouds 20 1011 82 10000 8.7 190 18:55 06.12.2019
3118 Clouds 21 1011 73 10000 9.8 190 18:36 06.12.2019
3119 Clouds 21 1011 73 10000 9.8 190 18:18 06.12.2019
3120 Clouds 22 1011 68 10000 9.3 200 17:55 06.12.2019
3121 Clouds 22 1011 68 10000 9.3 200 17:37 06.12.2019
3122 Clouds 23 1011 68 10000 9.3 200 17:19 06.12.2019
3123 Clouds 24 1011 64 10000 8.7 180 16:42 06.12.2019
3124 Clouds 24 1011 64 10000 8.7 180 16:23 06.12.2019
3125 Clouds 25 1011 57 10000 8.2 180 15:56 06.12.2019
3126 Clouds 24 1011 57 10000 8.2 180 15:38 06.12.2019
3127 Clouds 24 1011 57 10000 8.2 180 15:18 06.12.2019
3128 Clouds 24 1011 57 10000 6.7 180 14:41 06.12.2019
3129 Clouds 24 1011 57 10000 6.7 180 14:20 06.12.2019
3130 Clouds 24 1011 57 10000 6.2 160 13:59 06.12.2019
3131 Clouds 24 1011 57 10000 6.2 160 13:40 06.12.2019
3132 Clouds 24 1011 57 10000 6.2 160 13:22 06.12.2019
3133 Clouds 23 1012 64 10000 7.2 170 12:41 06.12.2019
3134 Clouds 23 1012 64 10000 7.2 170 12:22 06.12.2019
3135 Clouds 23 1011 60 10000 7.2 170 11:56 06.12.2019
3136 Clouds 23 1011 60 10000 7.2 170 11:37 06.12.2019
3137 Clouds 23 1011 60 10000 7.2 170 11:19 06.12.2019
3138 Clouds 23 1011 60 10000 5.1 180 10:42 06.12.2019
3139 Clouds 22 1011 60 10000 5.1 180 10:21 06.12.2019
3140 Clouds 23 1010 47 10000 3.1 260 09:57 06.12.2019
3141 Clouds 24 1010 47 10000 3.1 260 09:37 06.12.2019
3142 Clouds 24 1010 47 10000 3.1 260 09:37 06.12.2019
3143 Clouds 24 1010 47 10000 3.1 260 09:19 06.12.2019
3144 Clouds 24 1010 53 10000 2.1 260 08:45 06.12.2019
3145 Clouds 23 1010 69 10000 2.1 10 08:26 06.12.2019
3146 Clouds 22 1010 77 10000 4.6 210 07:44 06.12.2019
3147 Clouds 21 1010 77 10000 4.6 210 07:24 06.12.2019
3148 Clear 21 1009 82 10000 5.1 200 06:59 06.12.2019
3149 Clear 20 1009 82 10000 5.1 200 06:28 06.12.2019
3150 Clear 20 1008 72 10000 2.1 230 05:53 06.12.2019
3151 Clear 20 1008 72 10000 2.1 230 05:21 06.12.2019
3152 Clear 21 1007 43 10000 3.1 230 02:19 06.12.2019
3153 Clear 21 1008 43 10000 4.6 230 01:22 06.12.2019
3154 Clear 21 1009 43 10000 3.6 210 00:40 06.12.2019
3155 Clear 22 1009 43 10000 3.6 210 00:20 06.12.2019
3156 Clear 22 1009 35 10000 6.2 220 23:41 05.12.2019
3157 Clear 22 1009 35 10000 6.2 220 23:18 05.12.2019
3158 Clear 23 1010 36 10000 5.1 220 22:56 05.12.2019
3159 Clear 23 1010 36 10000 5.1 220 22:37 05.12.2019
3160 Clear 23 1010 36 10000 5.1 220 22:18 05.12.2019
3161 Clear 23 1010 36 10000 5.1 220 22:18 05.12.2019
3162 Clear 22 1010 49 10000 3.6 210 21:43 05.12.2019
3163 Clear 22 1010 49 10000 3.6 210 21:24 05.12.2019
3164 Clear 22 1007 46 0 2.95 181 20:59 05.12.2019
3165 Clear 22 1005 9 0 1.79 250 20:40 05.12.2019
3166 Clear 24 1010 47 10000 4.6 200 20:20 05.12.2019
3167 Clear 24 1010 47 10000 4.6 200 20:20 05.12.2019
3168 Clear 24 1010 47 10000 4.6 200 19:56 05.12.2019
3169 Clear 24 1010 47 10000 4.6 200 19:38 05.12.2019
3170 Clear 24 1010 47 10000 4.6 200 19:19 05.12.2019
3171 Clear 25 1010 21 10000 7.2 190 18:54 05.12.2019
3172 Clear 26 1010 21 10000 7.2 190 18:36 05.12.2019
3173 Clear 28 1010 21 10000 7.2 190 18:18 05.12.2019
3174 Clear 30 1010 16 10000 7.2 180 17:39 05.12.2019
3175 Clear 29 1010 16 10000 7.2 180 17:19 05.12.2019
3176 Clear 31 1010 19 10000 6.7 180 16:57 05.12.2019
3177 Clear 31 1010 19 10000 6.7 180 16:38 05.12.2019
3178 Clear 31 1010 19 10000 6.7 180 16:38 05.12.2019
3179 Clear 31 1010 19 10000 6.7 180 16:20 05.12.2019
3180 Clear 32 1010 18 10000 5.7 170 15:56 05.12.2019
3181 Clear 32 1010 18 10000 5.7 170 15:37 05.12.2019
3182 Clear 32 1010 18 10000 5.7 170 15:19 05.12.2019
3183 Clear 33 1011 16 10000 5.7 170 14:55 05.12.2019
3184 Clear 33 1011 16 10000 5.7 170 14:36 05.12.2019
3185 Clear 33 1011 16 10000 5.7 170 14:18 05.12.2019
3186 Clear 33 1012 19 10000 5.7 180 13:56 05.12.2019
3187 Clear 33 1012 19 10000 5.7 180 13:37 05.12.2019
3188 Clear 33 1012 19 10000 5.7 180 13:18 05.12.2019
3189 Clear 33 1012 21 10000 5.1 180 12:43 05.12.2019
3190 Clear 32 1012 21 10000 5.1 180 12:24 05.12.2019
3191 Clear 33 1013 18 10000 2.6 170 11:59 05.12.2019
3192 Clear 33 1013 18 10000 2.6 170 11:38 05.12.2019
3193 Clear 32 1013 18 10000 2.6 170 11:20 05.12.2019
3194 Clear 31 1014 18 10000 1.5 0 10:57 05.12.2019
3195 Clear 31 1014 18 10000 1.5 0 10:38 05.12.2019
3196 Clear 31 1014 18 10000 1.5 0 10:18 05.12.2019
3197 Clear 28 1014 24 10000 1 0 09:46 05.12.2019
3198 Clear 28 1014 24 10000 1 0 09:24 05.12.2019
3199 Clear 25 1014 33 10000 2.1 0 08:59 05.12.2019
3200 Clear 25 1014 33 10000 2.1 0 08:39 05.12.2019
3201 Clear 25 1014 33 10000 2.1 0 08:20 05.12.2019
3202 Clear 22 1015 40 10000 2.6 190 07:54 05.12.2019
3203 Clear 22 1015 40 10000 2.6 190 07:36 05.12.2019
3204 Clear 22 1015 40 10000 2.6 190 07:18 05.12.2019
3205 Clear 22 1015 46 10000 1 0 06:41 05.12.2019
3206 Clear 20 1015 59 10000 1.5 80 06:20 05.12.2019
3207 Clear 17 1015 76 10000 2.1 140 05:47 05.12.2019
3208 Clear 15 1015 76 10000 2.1 140 05:23 05.12.2019
3209 Clear 15 1015 62 10000 1.5 0 04:25 05.12.2019
3210 Clear 17 1016 55 10000 3.6 230 02:54 05.12.2019
3211 Clear 17 1016 55 10000 3.6 230 02:25 05.12.2019
3212 Clear 17 1018 55 10000 3.6 210 01:53 05.12.2019
3213 Clear 17 1018 55 10000 3.6 210 01:27 05.12.2019
3214 Clear 17 1018 55 10000 3.6 210 01:27 05.12.2019
3215 Clear 17 1018 55 10000 3.6 210 00:54 05.12.2019
3216 Clear 17 1018 55 10000 3.6 210 00:36 05.12.2019
3217 Clear 17 1018 55 10000 3.6 210 00:18 05.12.2019
3218 Clear 18 1018 55 10000 3.6 150 23:40 04.12.2019
3219 Clear 18 1018 55 10000 3.6 150 23:22 04.12.2019
3220 Clear 18 1019 51 10000 3.1 150 22:57 04.12.2019
3221 Clear 18 1019 51 10000 3.1 150 22:36 04.12.2019
3222 Clear 18 1019 51 10000 3.1 150 22:18 04.12.2019
3223 Clear 19 1019 45 10000 3.6 170 21:55 04.12.2019
3224 Clear 19 1019 45 10000 3.6 170 21:37 04.12.2019
3225 Clear 19 1019 45 10000 3.6 170 21:18 04.12.2019
3226 Clear 19 1019 48 10000 3.6 140 20:56 04.12.2019
3227 Clear 19 1019 48 10000 3.6 140 20:37 04.12.2019
3228 Clear 20 1019 48 10000 3.6 140 20:19 04.12.2019
3229 Clear 21 1019 43 10000 6.2 140 19:40 04.12.2019
3230 Clear 21 1019 43 10000 6.2 140 19:22 04.12.2019
3231 Clear 22 1019 36 10000 8.2 150 18:58 04.12.2019
3232 Clear 22 1019 36 10000 8.2 150 18:40 04.12.2019
3233 Clear 22 1019 36 10000 8.2 150 18:22 04.12.2019
3234 Clear 23 1019 29 10000 8.7 150 17:57 04.12.2019
3235 Clear 23 1019 29 10000 8.7 150 17:38 04.12.2019
3236 Clear 25 1019 29 10000 8.7 150 17:18 04.12.2019
3237 Clear 23 1019 38 10000 10.3 170 16:40 04.12.2019
3238 Clear 23 1019 38 10000 10.3 170 16:40 04.12.2019
3239 Clear 23 1019 38 10000 10.3 170 16:20 04.12.2019
3240 Clear 25 1020 36 10000 12.3 180 15:58 04.12.2019
3241 Clear 25 1020 36 10000 12.3 180 15:40 04.12.2019
3242 Clear 25 1020 36 10000 12.3 180 15:21 04.12.2019
3243 Clear 27 1021 28 10000 10.8 150 14:59 04.12.2019
3244 Clear 27 1021 28 10000 10.8 150 14:41 04.12.2019
3245 Clear 27 1021 28 10000 10.8 150 14:21 04.12.2019
3246 Clear 27 1022 26 10000 9.8 150 13:56 04.12.2019
3247 Clear 27 1022 26 10000 9.8 150 13:36 04.12.2019
3248 Clear 27 1022 26 10000 9.8 150 13:18 04.12.2019
3249 Clear 26 1023 29 10000 10.8 150 12:41 04.12.2019
3250 Clear 26 1023 29 10000 10.8 150 12:23 04.12.2019
3251 Clear 25 1024 29 10000 10.8 150 11:44 04.12.2019
3252 Clear 25 1024 29 10000 10.8 150 11:44 04.12.2019
3253 Clear 25 1024 29 10000 10.8 150 11:26 04.12.2019
3254 Clear 24 1024 31 10000 10.8 160 10:58 04.12.2019
3255 Clear 24 1024 31 10000 10.8 160 10:40 04.12.2019
3256 Clear 24 1024 31 10000 10.8 160 10:22 04.12.2019
3257 Clear 23 1025 35 10000 7.7 150 09:44 04.12.2019
3258 Clear 19 1025 39 10000 4.6 140 09:24 04.12.2019
3259 Clear 21 1025 39 10000 4.6 140 08:56 04.12.2019
3260 Clear 21 1020 9 0 2.24 156 08:38 04.12.2019
3261 Clear 18 1025 45 10000 7.2 140 08:19 04.12.2019
3262 Clear 18 1025 45 10000 7.2 140 07:42 04.12.2019
3263 Clear 18 1025 45 10000 7.2 140 07:22 04.12.2019
3264 Clear 17 1025 51 10000 7.7 140 06:33 04.12.2019
3265 Clear 16 1024 54 10000 7.2 140 05:47 04.12.2019
3266 Clear 15 1024 54 10000 7.7 150 04:43 04.12.2019
3267 Clear 14 1024 58 10000 8.2 140 03:54 04.12.2019
3268 Clear 15 1024 58 10000 11.8 150 02:21 04.12.2019
3269 Clear 15 1025 51 10000 10.3 150 00:50 04.12.2019
3270 Clear 15 1026 47 10000 9.3 150 00:23 04.12.2019
3271 Clear 15 1026 47 10000 9.3 150 23:56 03.12.2019
3272 Clear 15 1026 47 10000 9.3 150 23:38 03.12.2019
3273 Clear 15 1026 47 10000 9.3 150 23:18 03.12.2019
3274 Clear 15 1025 51 10000 11.8 150 22:40 03.12.2019
3275 Clear 15 1025 51 10000 11.8 150 22:19 03.12.2019
3276 Clear 15 1026 51 10000 8.7 140 21:58 03.12.2019
3277 Clear 15 1026 51 10000 8.7 140 21:37 03.12.2019
3278 Clear 16 1026 51 10000 8.7 140 21:19 03.12.2019
3279 Clouds 16 1025 44 10000 8.7 140 20:57 03.12.2019
3280 Clouds 16 1025 44 10000 8.7 140 20:39 03.12.2019
3281 Clouds 16 1025 44 10000 8.7 140 20:18 03.12.2019
3282 Clouds 16 1025 55 10000 10.3 160 19:55 03.12.2019
3283 Clouds 16 1025 55 10000 10.3 160 19:37 03.12.2019
3284 Clouds 16 1025 55 10000 10.3 160 19:18 03.12.2019
3285 Clouds 16 1025 55 10000 10.3 160 19:18 03.12.2019
3286 Clouds 16 1025 51 10000 11.3 160 18:55 03.12.2019
3287 Clouds 17 1025 51 10000 11.3 160 18:37 03.12.2019
3288 Clouds 17 1025 51 10000 11.3 160 18:19 03.12.2019
3289 Clouds 17 1025 55 10000 13.9 170 17:54 03.12.2019
3290 Clouds 18 1024 48 10000 12.3 160 17:36 03.12.2019
3291 Clouds 18 1024 48 10000 12.3 160 17:36 03.12.2019
3292 Clouds 18 1024 48 10000 12.3 160 17:18 03.12.2019
3293 Clouds 18 1024 48 10000 12.3 160 16:40 03.12.2019
3294 Clouds 18 1024 48 10000 12.3 160 16:22 03.12.2019
3295 Clouds 19 1024 45 10000 13.9 170 15:59 03.12.2019
3296 Clouds 19 1024 45 10000 13.9 170 15:40 03.12.2019
3297 Clouds 19 1024 45 10000 13.9 170 15:20 03.12.2019
3298 Clouds 19 1024 45 10000 11.8 170 14:58 03.12.2019
3299 Clouds 19 1024 45 10000 11.8 170 14:40 03.12.2019
3300 Clouds 20 1024 48 10000 11.8 160 14:19 03.12.2019
3301 Clouds 20 1024 48 10000 11.8 160 13:39 03.12.2019
3302 Clouds 20 1024 48 10000 11.8 160 13:21 03.12.2019
3303 Clouds 20 1025 48 10000 11.8 170 12:59 03.12.2019
3304 Clouds 20 1025 48 10000 11.8 170 12:59 03.12.2019
3305 Clouds 20 1024 42 10000 11.3 170 12:38 03.12.2019
3306 Clouds 20 1024 42 10000 11.3 170 12:18 03.12.2019
3307 Clouds 19 1024 45 10000 9.8 160 11:58 03.12.2019
3308 Clouds 20 1024 45 10000 9.8 160 11:58 03.12.2019
3309 Clouds 19 1024 45 10000 9.8 160 11:38 03.12.2019
3310 Clouds 19 1024 45 10000 9.8 160 11:20 03.12.2019
3311 Clouds 19 1024 45 10000 9.8 160 11:20 03.12.2019
3312 Clouds 19 1024 39 10000 8.7 160 10:57 03.12.2019
3313 Clouds 19 1024 39 10000 8.7 160 10:38 03.12.2019
3314 Clouds 19 1024 39 10000 8.7 160 10:38 03.12.2019
3315 Clouds 19 1024 39 10000 8.7 160 10:19 03.12.2019
3316 Clouds 19 1024 39 10000 9.3 180 09:45 03.12.2019
3317 Clouds 19 1024 39 10000 9.3 180 09:25 03.12.2019
3318 Clouds 17 1023 45 10000 8.7 180 08:59 03.12.2019
3319 Clouds 17 1023 45 10000 8.7 180 08:39 03.12.2019
3320 Clouds 17 1023 45 10000 8.7 180 08:21 03.12.2019
3321 Clouds 18 1023 45 10000 9.3 180 07:53 03.12.2019
3322 Clouds 17 1022 51 10000 7.7 180 07:29 03.12.2019
3323 Clouds 17 1022 51 10000 7.7 180 07:29 03.12.2019
3324 Clouds 16 1021 51 10000 6.7 180 06:58 03.12.2019
3325 Clouds 16 1021 51 10000 6.7 180 06:21 03.12.2019
3326 Clouds 15 1021 58 10000 6.2 180 05:55 03.12.2019
3327 Clouds 14 1020 58 10000 5.1 190 03:45 03.12.2019
3328 Clouds 14 1020 58 10000 5.1 190 03:23 03.12.2019
3329 Clouds 14 1020 62 10000 7.2 190 02:57 03.12.2019
3330 Clouds 14 1020 62 10000 7.2 190 02:39 03.12.2019
3331 Clouds 14 1020 62 10000 7.2 190 02:21 03.12.2019
3332 Clouds 15 1019 62 10000 6.7 190 01:40 03.12.2019
3333 Clouds 15 1019 62 10000 6.7 190 01:20 03.12.2019
3334 Clouds 15 1018 67 10000 7.2 210 00:42 03.12.2019
3335 Clouds 15 1018 67 10000 7.2 210 00:23 03.12.2019
3336 Clouds 16 1018 72 10000 6.2 210 23:44 02.12.2019
3337 Clouds 16 1018 72 10000 6.2 210 23:22 02.12.2019
3338 Clouds 16 1017 87 10000 5.7 210 22:59 02.12.2019
3339 Clouds 16 1017 87 10000 5.7 210 22:39 02.12.2019
3340 Clouds 16 1016 82 10000 3.1 240 22:21 02.12.2019
3341 Clouds 16 1016 82 10000 3.1 240 21:57 02.12.2019
3342 Clouds 17 1016 82 10000 3.1 240 21:36 02.12.2019
3343 Clouds 17 1016 82 10000 3.1 240 21:18 02.12.2019
3344 Rain 18 1016 77 4000 5.7 290 20:55 02.12.2019
3345 Clouds 18 1015 72 10000 4.6 340 20:37 02.12.2019
3346 Clouds 18 1015 72 10000 4.6 340 20:18 02.12.2019
3347 Clouds 19 1014 72 10000 5.7 310 19:42 02.12.2019
3348 Clouds 19 1014 72 10000 5.7 310 19:21 02.12.2019
3349 Clouds 19 1014 63 10000 6.2 310 18:57 02.12.2019
3350 Clouds 19 1014 63 10000 6.2 310 18:38 02.12.2019
3351 Clouds 19 1014 63 10000 6.2 310 18:18 02.12.2019
3352 Clouds 20 1013 56 10000 6.2 300 17:57 02.12.2019
3353 Clouds 20 1013 56 10000 6.2 300 17:38 02.12.2019
3354 Clouds 20 1013 56 10000 6.2 300 17:19 02.12.2019
3355 Clouds 21 1012 43 10000 6.2 300 16:40 02.12.2019
3356 Clouds 21 1012 43 10000 6.2 300 16:19 02.12.2019
3357 Clouds 22 1013 46 10000 8.2 310 15:58 02.12.2019
3358 Clouds 22 1013 46 10000 8.2 310 15:39 02.12.2019
3359 Clouds 22 1013 46 10000 8.2 310 15:21 02.12.2019
3360 Clouds 22 1012 53 10000 7.7 310 14:59 02.12.2019
3361 Clouds 22 1012 53 10000 7.7 310 14:38 02.12.2019
3362 Clouds 22 1012 53 10000 7.7 310 14:19 02.12.2019
3363 Clouds 22 1012 56 10000 7.7 290 13:57 02.12.2019
3364 Clouds 22 1012 56 10000 7.7 290 13:39 02.12.2019
3365 Clouds 22 1012 56 10000 7.7 290 13:19 02.12.2019
3366 Clouds 22 1012 53 10000 8.2 300 12:54 02.12.2019
3367 Clouds 22 1012 53 10000 8.2 300 12:54 02.12.2019
3368 Clouds 22 1012 53 10000 8.2 300 12:36 02.12.2019
3369 Clouds 22 1012 56 10000 6.7 310 12:18 02.12.2019
3370 Clouds 22 1012 56 10000 6.7 310 11:38 02.12.2019
3371 Clouds 22 1012 56 10000 6.7 310 11:20 02.12.2019
3372 Clouds 22 1011 68 10000 7.7 320 10:58 02.12.2019
3373 Clouds 22 1011 68 10000 7.7 320 10:40 02.12.2019
3374 Clouds 22 1011 68 10000 7.7 320 10:21 02.12.2019
3375 Clouds 22 1011 64 10000 7.2 340 09:56 02.12.2019
3376 Clouds 22 1011 64 10000 7.2 340 09:38 02.12.2019
3377 Clouds 22 1011 64 10000 7.2 340 09:18 02.12.2019
3378 Clouds 22 1011 64 10000 7.2 340 09:18 02.12.2019
3379 Clouds 22 1010 68 10000 5.7 330 08:55 02.12.2019
3380 Clouds 21 1010 68 10000 5.7 330 08:37 02.12.2019
3381 Clouds 21 1010 68 10000 5.7 330 08:18 02.12.2019
3382 Clouds 21 1010 60 10000 5.1 340 07:39 02.12.2019
3383 Clouds 20 1010 60 10000 5.1 340 07:20 02.12.2019
3384 Clouds 20 1010 64 10000 4.1 340 06:43 02.12.2019
3385 Clouds 18 1010 77 10000 2.1 360 06:20 02.12.2019
3386 Clouds 16 1009 87 10000 3.1 20 05:19 02.12.2019
3387 Clouds 16 1009 82 10000 3.1 360 04:19 02.12.2019
3388 Clouds 17 1009 77 10000 3.1 320 02:51 02.12.2019
3389 Clouds 17 1009 77 10000 3.1 320 02:51 02.12.2019
3390 Clouds 18 1009 72 10000 3.1 260 01:50 02.12.2019
3391 Clouds 17 1009 72 10000 3.1 260 01:21 02.12.2019
3392 Clouds 18 1010 72 10000 4.1 220 00:44 02.12.2019
3393 Clouds 18 1010 72 10000 4.1 220 00:23 02.12.2019
3394 Clouds 18 1011 72 10000 3.1 170 23:44 01.12.2019
3395 Clouds 18 1011 72 10000 3.1 170 23:23 01.12.2019
3396 Clouds 19 1011 68 10000 4.1 190 22:57 01.12.2019
3397 Clouds 19 1011 68 10000 4.1 190 22:38 01.12.2019
3398 Clouds 19 1011 68 10000 4.1 190 22:20 01.12.2019
3399 Clouds 19 1011 68 10000 4.1 190 22:20 01.12.2019
3400 Clouds 19 1012 64 10000 4.6 210 21:57 01.12.2019
3401 Clouds 19 1012 64 10000 4.6 210 21:39 01.12.2019
3402 Clouds 19 1012 64 10000 4.6 210 21:21 01.12.2019
3403 Clouds 19 1012 77 10000 5.1 230 20:58 01.12.2019
3404 Clouds 19 1012 77 10000 5.1 230 20:40 01.12.2019
3405 Clouds 19 1012 77 10000 5.1 230 20:21 01.12.2019
3406 Clouds 19 1013 72 10000 7.7 200 19:58 01.12.2019
3407 Clouds 19 1013 72 10000 7.7 200 19:39 01.12.2019
3408 Clouds 19 1013 72 10000 7.7 200 19:39 01.12.2019
3409 Clouds 19 1013 72 10000 7.7 200 19:39 01.12.2019
3410 Clouds 19 1013 72 10000 7.7 200 19:21 01.12.2019
3411 Clouds 19 1013 72 10000 7.7 200 19:21 01.12.2019
3412 Clouds 20 1013 68 10000 10.3 200 18:57 01.12.2019
3413 Clouds 20 1013 68 10000 10.3 200 18:38 01.12.2019
3414 Clouds 20 1013 68 10000 10.3 200 18:19 01.12.2019
3415 Clouds 20 1013 68 10000 10.8 190 17:58 01.12.2019
3416 Clouds 20 1013 68 10000 10.8 190 17:40 01.12.2019
3417 Clouds 21 1013 64 10000 12.9 190 17:22 01.12.2019
3418 Clouds 22 1013 64 10000 10.8 190 16:55 01.12.2019
3419 Clouds 21 1013 64 10000 10.8 190 16:37 01.12.2019
3420 Clouds 22 1013 64 10000 10.8 190 16:19 01.12.2019
3421 Clouds 23 1014 60 10000 10.3 190 15:46 01.12.2019
3422 Clouds 23 1014 60 10000 10.3 190 15:27 01.12.2019
3423 Clouds 23 1014 60 10000 10.3 190 15:27 01.12.2019
3424 Clouds 23 1014 60 10000 9.8 190 14:42 01.12.2019
3425 Clouds 23 1014 60 10000 9.8 190 14:20 01.12.2019
3426 Clear 23 1015 53 10000 8.7 190 13:56 01.12.2019
3427 Clear 23 1015 53 10000 8.7 190 13:38 01.12.2019
3428 Clear 23 1015 53 10000 8.7 190 13:19 01.12.2019
3429 Clear 24 1015 53 10000 7.7 190 12:42 01.12.2019
3430 Clouds 24 1015 49 10000 5.7 200 11:56 01.12.2019
3431 Clouds 24 1015 49 10000 5.7 200 11:37 01.12.2019
3432 Clouds 23 1015 49 10000 5.7 200 11:19 01.12.2019
3433 Clouds 23 1016 53 10000 5.7 210 10:43 01.12.2019
3434 Clouds 23 1016 53 10000 5.7 210 10:21 01.12.2019
3435 Clouds 23 1016 49 10000 5.7 210 09:55 01.12.2019
3436 Clear 22 1016 52 10000 6.7 220 09:36 01.12.2019
3437 Clear 22 1016 52 10000 6.7 220 09:18 01.12.2019
3438 Clear 22 1016 52 10000 6.7 220 08:42 01.12.2019
3439 Clouds 20 1016 52 10000 6.7 220 08:19 01.12.2019
3440 Clouds 20 1016 52 10000 4.1 210 07:50 01.12.2019
3441 Clouds 20 1016 52 10000 4.1 210 07:29 01.12.2019
3442 Clouds 19 1016 63 10000 4.6 180 06:54 01.12.2019
3443 Clouds 18 1017 72 10000 4.6 210 06:21 01.12.2019
3444 Clouds 17 1017 72 10000 4.6 210 05:45 01.12.2019
3445 Clouds 17 1017 72 10000 5.1 200 04:30 01.12.2019
3446 Clouds 17 1017 72 10000 8.7 170 02:47 01.12.2019
3447 Clouds 17 1017 72 10000 8.7 170 02:28 01.12.2019
3448 Clouds 17 1018 72 10000 8.2 170 01:55 01.12.2019
3449 Clouds 17 1018 72 10000 8.2 170 01:37 01.12.2019
3450 Clouds 17 1019 72 10000 8.7 180 00:50 01.12.2019
3451 Clouds 17 1019 72 10000 8.7 180 00:28 01.12.2019
3452 Clouds 17 1019 72 10000 8.2 170 23:59 30.11.2019
3453 Clouds 17 1019 72 10000 8.2 170 23:40 30.11.2019
3454 Clouds 17 1019 72 10000 8.2 170 23:21 30.11.2019
3455 Clouds 18 1019 72 10000 7.2 160 22:49 30.11.2019
3456 Clouds 18 1019 72 10000 7.2 160 22:29 30.11.2019
3457 Clouds 18 1019 67 10000 7.7 170 21:56 30.11.2019
3458 Clouds 18 1019 67 10000 7.7 170 21:37 30.11.2019
3459 Clouds 18 1019 67 10000 7.7 170 21:19 30.11.2019
3460 Clouds 18 1019 72 10000 6.2 160 20:55 30.11.2019
3461 Clouds 17 1019 72 10000 6.2 160 20:36 30.11.2019
3462 Clouds 17 1019 72 10000 6.2 160 20:18 30.11.2019
3463 Clouds 18 1018 72 10000 7.7 180 19:54 30.11.2019
3464 Clouds 18 1018 72 10000 7.7 180 19:36 30.11.2019
3465 Clouds 18 1018 72 10000 7.7 180 19:18 30.11.2019
3466 Clouds 19 1015 67 0 4.45 186 18:54 30.11.2019
3467 Clouds 19 1017 49 10000 5.7 170 18:36 30.11.2019
3468 Clouds 20 1017 49 10000 5.7 170 18:18 30.11.2019
3469 Clouds 20 1017 49 10000 5.7 170 17:55 30.11.2019
3470 Clouds 20 1014 60 0 4.45 186 17:36 30.11.2019
3471 Clouds 21 1017 37 10000 5.1 170 17:18 30.11.2019
3472 Clouds 22 1017 37 10000 5.1 170 16:42 30.11.2019
3473 Clouds 23 1017 40 10000 7.2 200 16:22 30.11.2019
3474 Clouds 23 1017 40 10000 7.2 200 15:55 30.11.2019
3475 Clouds 22 1017 40 10000 7.2 200 15:37 30.11.2019
3476 Clouds 23 1017 40 10000 7.2 200 15:18 30.11.2019
3477 Clouds 23 1017 38 10000 7.7 210 14:55 30.11.2019
3478 Clouds 23 1017 38 10000 7.7 210 14:37 30.11.2019
3479 Clouds 23 1017 38 10000 7.7 210 14:18 30.11.2019
3480 Clouds 23 1017 31 10000 4.1 210 13:45 30.11.2019
3481 Clouds 23 1017 31 10000 4.1 210 13:45 30.11.2019
3482 Clouds 23 1017 31 10000 4.1 210 13:26 30.11.2019
3483 Clouds 23 1018 35 10000 5.1 250 12:59 30.11.2019
3484 Clouds 23 1018 35 10000 5.1 250 12:41 30.11.2019
3485 Clouds 23 1018 35 10000 5.1 250 12:22 30.11.2019
3486 Clouds 23 1018 40 10000 5.7 230 11:43 30.11.2019
3487 Clouds 22 1018 40 10000 5.7 230 11:20 30.11.2019
3488 Clouds 22 1018 46 10000 4.6 240 10:56 30.11.2019
3489 Clouds 22 1018 46 10000 4.6 240 10:37 30.11.2019
3490 Clouds 21 1018 46 10000 4.6 240 10:19 30.11.2019
3491 Clouds 21 1018 56 10000 6.2 270 09:46 30.11.2019
3492 Clouds 20 1018 56 10000 6.2 270 09:24 30.11.2019
3493 Clouds 20 1017 52 10000 4.1 240 08:44 30.11.2019
3494 Clouds 20 1017 52 10000 4.1 240 08:22 30.11.2019
3495 Clouds 19 1017 68 10000 1.5 250 07:58 30.11.2019
3496 Clouds 19 1017 68 10000 1.5 250 07:39 30.11.2019
3497 Clouds 18 1016 77 10000 2.6 320 06:59 30.11.2019
3498 Clouds 18 1016 77 10000 2.6 320 06:29 30.11.2019
3499 Clouds 17 1015 82 10000 2.1 340 05:52 30.11.2019
3500 Clouds 17 1015 68 10000 2.6 280 03:53 30.11.2019
3501 Clouds 17 1014 68 10000 1.5 250 02:47 30.11.2019
3502 Clouds 17 1014 68 10000 1.5 250 02:22 30.11.2019
3503 Clouds 18 1014 68 10000 3.1 250 01:25 30.11.2019
3504 Clouds 18 1014 68 10000 2.6 240 00:51 30.11.2019
3505 Clouds 18 1014 68 10000 2.6 240 00:32 30.11.2019
3506 Clouds 18 1015 63 10000 3.1 240 00:00 30.11.2019
3507 Clouds 19 1015 63 10000 3.1 240 23:41 29.11.2019
3508 Clouds 19 1015 63 10000 3.1 240 23:23 29.11.2019
3509 Clouds 19 1015 60 10000 2.1 240 22:46 29.11.2019
3510 Clouds 19 1015 60 10000 2.1 240 22:46 29.11.2019
3511 Clouds 19 1015 60 10000 2.1 240 22:26 29.11.2019
3512 Clouds 19 1015 60 10000 3.1 220 21:45 29.11.2019
3513 Clouds 19 1015 60 10000 3.1 220 21:25 29.11.2019
3514 Clouds 19 1014 68 10000 1 0 20:59 29.11.2019
3515 Clouds 19 1014 68 10000 1 0 20:39 29.11.2019
3516 Clouds 19 1014 68 10000 1 0 20:21 29.11.2019
3517 Clouds 19 1014 77 10000 4.1 240 19:58 29.11.2019
3518 Clouds 19 1014 77 10000 4.1 240 19:39 29.11.2019
3519 Clouds 20 1014 77 10000 4.1 240 19:20 29.11.2019
3520 Clouds 20 1013 72 10000 6.2 320 18:58 29.11.2019
3521 Clouds 20 1013 72 10000 6.2 320 18:40 29.11.2019
3522 Clouds 20 1013 72 10000 6.2 320 18:21 29.11.2019
3523 Clouds 21 1012 60 10000 6.2 320 17:45 29.11.2019
3524 Clouds 22 1012 60 10000 6.2 320 17:27 29.11.2019
3525 Clouds 22 1013 60 10000 6.7 320 16:59 29.11.2019
3526 Clouds 22 1013 60 10000 6.7 320 16:59 29.11.2019
3527 Clouds 22 1013 60 10000 6.7 320 16:41 29.11.2019
3528 Clouds 22 1013 60 10000 6.7 320 16:19 29.11.2019
3529 Clouds 22 1013 60 10000 6.7 320 16:19 29.11.2019
3530 Clouds 23 1012 53 10000 7.7 320 15:42 29.11.2019
3531 Clouds 23 1012 53 10000 7.7 320 15:24 29.11.2019
3532 Clouds 23 1013 56 10000 7.7 310 14:58 29.11.2019
3533 Clouds 23 1013 56 10000 7.7 310 14:39 29.11.2019
3534 Clouds 23 1013 56 10000 7.7 310 14:21 29.11.2019
3535 Clouds 23 1013 53 10000 8.2 300 13:55 29.11.2019
3536 Clouds 23 1013 53 10000 8.2 300 13:37 29.11.2019
3537 Clear 23 1013 53 10000 8.2 300 13:19 29.11.2019
3538 Clear 23 1013 53 10000 6.2 310 12:41 29.11.2019
3539 Clear 23 1013 53 10000 6.2 310 12:23 29.11.2019
3540 Clouds 23 1013 53 10000 7.2 320 11:55 29.11.2019
3541 Clouds 23 1013 53 10000 7.2 320 11:55 29.11.2019
3542 Clouds 23 1013 53 10000 7.2 320 11:36 29.11.2019
3543 Clouds 23 1013 53 10000 7.2 320 11:18 29.11.2019
3544 Clouds 22 1014 56 10000 6.7 290 10:56 29.11.2019
3545 Clouds 22 1014 56 10000 6.7 290 10:38 29.11.2019
3546 Clouds 21 1014 56 10000 6.7 290 10:19 29.11.2019
3547 Clouds 22 1013 60 10000 6.2 340 09:56 29.11.2019
3548 Clouds 22 1013 60 10000 6.2 340 09:37 29.11.2019
3549 Clouds 22 1013 60 10000 6.2 340 09:19 29.11.2019
3550 Clouds 21 1014 63 10000 5.7 310 08:40 29.11.2019
3551 Clouds 19 1014 63 10000 5.7 310 08:22 29.11.2019
3552 Clouds 19 1014 72 10000 4.6 310 07:59 29.11.2019
3553 Clouds 19 1014 72 10000 4.6 310 07:40 29.11.2019
3554 Clouds 19 1014 72 10000 4.6 310 07:22 29.11.2019
3555 Clouds 19 1013 77 10000 5.1 330 06:46 29.11.2019
3556 Clouds 18 1012 82 10000 4.1 350 05:48 29.11.2019
3557 Clouds 18 1012 82 10000 4.1 350 05:26 29.11.2019
3558 Clouds 17 1012 88 10000 3.6 310 04:35 29.11.2019
3559 Clouds 17 1012 93 10000 2.1 40 03:23 29.11.2019
3560 Clouds 17 1012 93 10000 2.1 40 02:42 29.11.2019
3561 Clear 17 1012 93 10000 2.1 40 02:20 29.11.2019
3562 Clear 17 1012 82 10000 3.6 160 01:27 29.11.2019
3563 Clear 18 1012 82 10000 3.6 160 00:51 29.11.2019
3564 Clear 19 1012 82 10000 3.6 160 00:22 29.11.2019
3565 Clear 19 1012 88 10000 4.6 170 23:57 28.11.2019
3566 Clear 19 1012 88 10000 4.6 170 23:39 28.11.2019
3567 Clear 19 1012 88 10000 4.6 170 23:20 28.11.2019
3568 Clear 19 1011 82 10000 6.2 190 22:55 28.11.2019
3569 Clear 19 1011 82 10000 6.2 190 22:36 28.11.2019
3570 Clear 20 1011 82 10000 5.1 180 22:18 28.11.2019
3571 Clear 19 1011 82 10000 5.1 180 21:42 28.11.2019
3572 Clear 20 1010 77 10000 2.6 170 21:21 28.11.2019
3573 Clear 20 1010 77 10000 2.6 170 21:21 28.11.2019
3574 Clear 20 1010 77 10000 2.6 170 20:58 28.11.2019
3575 Clear 20 1010 77 10000 2.6 170 20:40 28.11.2019
3576 Clouds 20 1010 77 10000 2.6 170 20:21 28.11.2019
3577 Clouds 21 1009 68 10000 2.6 150 19:57 28.11.2019
3578 Clouds 21 1009 68 10000 2.6 150 19:38 28.11.2019
3579 Clouds 21 1009 68 10000 2.6 150 19:19 28.11.2019
3580 Clouds 21 1009 56 10000 4.1 150 18:57 28.11.2019
3581 Clouds 22 1009 56 10000 4.1 150 18:39 28.11.2019
3582 Clouds 22 1009 56 10000 4.1 150 18:18 28.11.2019
3583 Clouds 23 1008 47 10000 4.6 160 17:56 28.11.2019
3584 Clouds 24 1008 47 10000 4.6 160 17:38 28.11.2019
3585 Clear 25 1008 47 10000 4.6 160 17:20 28.11.2019
3586 Clear 25 1008 42 10000 4.6 180 16:40 28.11.2019
3587 Clear 28 1008 42 10000 4.6 180 16:19 28.11.2019
3588 Clear 26 1008 42 10000 4.1 170 15:58 28.11.2019
3589 Clear 26 1008 42 10000 4.1 170 15:39 28.11.2019
3590 Clear 26 1008 42 10000 4.1 170 15:19 28.11.2019
3591 Clear 28 1008 21 10000 4.1 300 14:58 28.11.2019
3592 Clear 28 1008 21 10000 4.1 300 14:39 28.11.2019
3593 Clear 32 1008 21 10000 4.1 300 14:19 28.11.2019
3594 Clear 30 1008 33 10000 3.6 300 13:42 28.11.2019
3595 Clear 31 1008 33 10000 3.6 300 13:23 28.11.2019
3596 Clear 31 1009 33 10000 5.1 310 12:56 28.11.2019
3597 Clear 31 1009 33 10000 5.1 310 12:38 28.11.2019
3598 Clear 31 1009 33 10000 5.1 310 12:20 28.11.2019
3599 Clear 30 1009 37 10000 1.5 0 11:55 28.11.2019
3600 Clear 30 1009 37 10000 1.5 0 11:37 28.11.2019
3601 Clear 30 1009 37 10000 1.5 0 11:18 28.11.2019
3602 Clear 27 1010 39 10000 0.5 0 10:42 28.11.2019
3603 Clear 27 1010 39 10000 0.5 0 10:21 28.11.2019
3604 Clear 26 1010 39 10000 0.5 0 09:56 28.11.2019
3605 Clear 26 1010 47 10000 1.5 0 09:38 28.11.2019
3606 Clear 25 1010 47 10000 1.5 0 09:19 28.11.2019
3607 Clear 24 1010 60 10000 1.5 0 08:41 28.11.2019
3608 Clear 22 1010 60 10000 1.5 0 08:22 28.11.2019
3609 Clear 22 1010 73 10000 2.1 220 07:56 28.11.2019
3610 Clear 22 1010 73 10000 2.1 220 07:38 28.11.2019
3611 Clear 21 1010 73 10000 2.1 220 07:18 28.11.2019
3612 Clear 20 1010 77 10000 2.1 220 06:40 28.11.2019
3613 Clear 18 1009 88 10000 5.1 230 05:53 28.11.2019
3614 Clear 18 1009 88 10000 5.1 230 05:34 28.11.2019
3615 Clear 17 1009 88 10000 4.1 230 04:51 28.11.2019
3616 Clear 17 1010 82 10000 3.1 240 02:32 28.11.2019
3617 Clear 18 1010 82 10000 3.1 240 01:25 28.11.2019
3618 Clear 18 1010 82 10000 3.1 240 00:39 28.11.2019
3619 Clear 18 1010 82 10000 3.1 240 00:18 28.11.2019
3620 Clear 18 1011 88 10000 4.6 230 23:39 27.11.2019
3621 Clear 18 1011 88 10000 4.6 230 23:21 27.11.2019
3622 Clear 18 1012 88 10000 4.1 230 22:56 27.11.2019
3623 Clear 19 1012 88 10000 4.1 230 22:38 27.11.2019
3624 Clear 19 1012 88 10000 4.1 230 22:19 27.11.2019
3625 Clear 19 1012 82 10000 4.6 220 21:56 27.11.2019
3626 Clear 19 1012 82 10000 7.2 210 21:37 27.11.2019
3627 Clear 19 1012 82 10000 7.2 210 21:18 27.11.2019
3628 Clear 19 1012 82 10000 7.2 210 20:57 27.11.2019
3629 Clear 19 1012 82 10000 7.2 210 20:37 27.11.2019
3630 Clear 19 1012 82 10000 7.2 210 20:37 27.11.2019
3631 Clear 19 1012 82 10000 7.2 210 20:19 27.11.2019
3632 Clouds 19 1012 82 10000 8.7 210 19:55 27.11.2019
3633 Clouds 19 1012 82 10000 8.7 210 19:37 27.11.2019
3634 Clouds 19 1012 82 10000 8.7 210 19:18 27.11.2019
3635 Clouds 20 1012 77 10000 10.3 200 18:55 27.11.2019
3636 Clouds 20 1012 77 10000 10.3 200 18:36 27.11.2019
3637 Clouds 20 1012 77 10000 10.3 200 18:18 27.11.2019
3638 Clouds 21 1012 68 10000 11.3 190 17:55 27.11.2019
3639 Clouds 21 1012 68 10000 11.3 190 17:36 27.11.2019
3640 Clouds 21 1012 68 10000 11.3 190 17:18 27.11.2019
3641 Clear 22 1012 64 10000 11.3 190 16:55 27.11.2019
3642 Clear 23 1012 64 10000 11.3 190 16:36 27.11.2019
3643 Clear 22 1012 64 10000 11.3 190 16:18 27.11.2019
3644 Clear 22 1013 64 10000 11.3 190 15:55 27.11.2019
3645 Clear 22 1013 64 10000 11.3 190 15:37 27.11.2019
3646 Clear 23 1013 64 10000 11.3 190 15:18 27.11.2019
3647 Clear 24 1013 56 10000 9.8 190 14:41 27.11.2019
3648 Clouds 24 1013 56 10000 9.8 190 14:23 27.11.2019
3649 Clouds 24 1013 56 10000 8.7 190 13:59 27.11.2019
3650 Clear 24 1013 56 10000 8.7 190 13:40 27.11.2019
3651 Clear 24 1013 56 10000 8.7 190 13:19 27.11.2019
3652 Clear 24 1014 56 10000 9.3 190 12:59 27.11.2019
3653 Clear 24 1014 56 10000 9.3 190 12:40 27.11.2019
3654 Clear 24 1014 56 10000 9.3 190 12:20 27.11.2019
3655 Clear 24 1015 56 10000 9.3 190 11:54 27.11.2019
3656 Clear 24 1015 56 10000 9.3 190 11:36 27.11.2019
3657 Clear 23 1015 56 10000 9.3 190 11:18 27.11.2019
3658 Clear 23 1014 60 10000 8.7 190 10:42 27.11.2019
3659 Clear 22 1014 60 10000 8.7 190 10:23 27.11.2019
3660 Clear 23 1014 60 10000 8.7 190 09:48 27.11.2019
3661 Clear 23 1014 60 10000 8.7 190 09:26 27.11.2019
3662 Clear 22 1014 68 10000 8.7 200 08:59 27.11.2019
3663 Clear 21 1014 68 10000 8.7 200 08:41 27.11.2019
3664 Clear 20 1014 68 10000 8.7 200 08:22 27.11.2019
3665 Clear 19 1014 82 10000 8.2 190 07:47 27.11.2019
3666 Clear 19 1014 82 10000 8.2 190 07:28 27.11.2019
3667 Clear 18 1014 82 10000 8.2 190 06:49 27.11.2019
3668 Clear 18 1014 82 10000 8.2 190 06:30 27.11.2019
3669 Clear 17 1013 87 10000 6.2 200 05:45 27.11.2019
3670 Clear 17 1013 87 10000 6.2 200 05:19 27.11.2019
3671 Clear 16 1013 87 10000 6.7 200 04:43 27.11.2019
3672 Clear 16 1013 87 10000 6.7 190 03:55 27.11.2019
3673 Clear 16 1013 87 10000 6.7 190 03:36 27.11.2019
3674 Clear 16 1013 87 10000 6.7 190 03:18 27.11.2019
3675 Clear 16 1014 87 10000 6.2 190 01:48 27.11.2019
3676 Clear 17 1015 82 10000 5.1 190 00:46 27.11.2019
3677 Clear 17 1015 82 10000 5.1 190 00:27 27.11.2019
3678 Clear 17 1015 82 10000 6.2 190 23:54 26.11.2019
3679 Clear 17 1015 82 10000 6.2 190 23:54 26.11.2019
3680 Clear 17 1015 82 10000 6.2 190 23:36 26.11.2019
3681 Clear 17 1015 82 10000 6.2 190 23:18 26.11.2019
3682 Clear 17 1015 82 10000 5.7 190 22:39 26.11.2019
3683 Clear 17 1015 82 10000 5.7 190 22:19 26.11.2019
3684 Clear 17 1015 82 10000 6.7 190 21:59 26.11.2019
3685 Clear 17 1015 82 10000 6.7 190 21:38 26.11.2019
3686 Clear 17 1015 82 10000 6.7 190 21:20 26.11.2019
3687 Clear 17 1015 82 10000 6.2 170 20:57 26.11.2019
3688 Clear 17 1015 82 10000 6.2 170 20:57 26.11.2019
3689 Clear 17 1015 82 10000 6.2 170 20:57 26.11.2019
3690 Clear 17 1015 82 10000 6.2 170 20:37 26.11.2019
3691 Clear 17 1015 82 10000 6.2 170 20:37 26.11.2019
3692 Clear 17 1015 82 10000 6.2 170 20:37 26.11.2019
3693 Clear 18 1015 82 10000 6.2 170 20:19 26.11.2019
3694 Clear 18 1015 77 10000 6.7 170 19:55 26.11.2019
3695 Clear 18 1015 77 10000 6.7 170 19:37 26.11.2019
3696 Clear 18 1015 77 10000 6.7 170 19:37 26.11.2019
3697 Clear 18 1015 77 10000 6.7 170 19:19 26.11.2019
3698 Clear 18 1015 77 10000 6.7 170 19:19 26.11.2019
3699 Clear 19 1015 72 10000 8.7 170 18:57 26.11.2019
3700 Clear 19 1015 72 10000 8.7 170 18:38 26.11.2019
3701 Clear 19 1015 72 10000 8.7 170 18:38 26.11.2019
3702 Clear 20 1015 72 10000 8.7 170 18:20 26.11.2019
3703 Clear 20 1014 68 10000 8.2 170 17:57 26.11.2019
3704 Clear 20 1014 68 10000 8.2 170 17:38 26.11.2019
3705 Clear 21 1014 68 10000 8.2 170 17:20 26.11.2019
3706 Clear 21 1014 64 10000 7.7 160 16:56 26.11.2019
3707 Clear 22 1014 64 10000 7.7 160 16:37 26.11.2019
3708 Clear 22 1014 64 10000 7.7 160 16:18 26.11.2019
3709 Clear 23 1014 53 10000 5.7 160 15:57 26.11.2019
3710 Clear 23 1014 53 10000 5.7 160 15:37 26.11.2019
3711 Clear 23 1014 53 10000 5.7 160 15:19 26.11.2019
3712 Clear 23 1015 47 10000 5.7 160 14:46 26.11.2019
3713 Clear 24 1015 47 10000 5.7 160 14:25 26.11.2019
3714 Clear 24 1015 44 10000 4.6 180 13:56 26.11.2019
3715 Clear 24 1015 44 10000 4.6 180 13:37 26.11.2019
3716 Clear 24 1015 33 10000 5.1 180 13:18 26.11.2019
3717 Clear 24 1015 33 10000 5.1 180 12:38 26.11.2019
3718 Clear 24 1015 33 10000 5.1 180 12:19 26.11.2019
3719 Clear 24 1016 33 10000 3.6 170 11:56 26.11.2019
3720 Clear 24 1016 33 10000 3.6 170 11:38 26.11.2019
3721 Clear 24 1016 33 10000 3.6 170 11:19 26.11.2019
3722 Clear 24 1017 41 10000 2.6 200 10:57 26.11.2019
3723 Clear 24 1017 41 10000 2.6 200 10:39 26.11.2019
3724 Clear 24 1017 41 10000 2.6 200 10:20 26.11.2019
3725 Clear 22 1017 60 10000 4.1 180 09:55 26.11.2019
3726 Clear 22 1017 60 10000 4.1 180 09:37 26.11.2019
3727 Clear 22 1017 60 10000 4.1 180 09:18 26.11.2019
3728 Clear 21 1017 64 10000 4.6 180 08:42 26.11.2019
3729 Clear 21 1017 64 10000 4.6 180 08:22 26.11.2019
3730 Clear 19 1017 77 10000 5.7 180 07:44 26.11.2019
3731 Clear 19 1017 77 10000 5.7 180 07:25 26.11.2019
3732 Clear 19 1017 77 10000 5.7 180 06:54 26.11.2019
3733 Clear 17 1017 77 10000 1 140 06:22 26.11.2019
3734 Clear 16 1017 93 10000 1 140 05:39 26.11.2019
3735 Clear 13 1017 87 10000 2.1 190 03:58 26.11.2019
3736 Clear 15 1018 87 10000 3.1 190 02:24 26.11.2019
3737 Clear 15 1018 82 10000 2.6 160 01:32 26.11.2019
3738 Clear 16 1018 82 10000 2.6 160 00:50 26.11.2019
3739 Clear 16 1018 82 10000 2.6 160 00:25 26.11.2019
3740 Clear 17 1019 77 10000 3.6 200 23:40 25.11.2019
3741 Clear 17 1019 82 10000 3.1 190 23:20 25.11.2019
3742 Clear 17 1019 82 10000 3.1 190 22:58 25.11.2019
3743 Clear 17 1026 81 0 0.45 164 22:38 25.11.2019
3744 Clear 17 1019 77 10000 4.6 190 22:18 25.11.2019
3745 Clear 17 1019 77 10000 4.6 190 21:58 25.11.2019
3746 Clear 17 1019 77 10000 4.6 190 21:39 25.11.2019
3747 Clear 18 1019 77 10000 4.6 190 21:19 25.11.2019
3748 Clear 18 1019 77 10000 5.7 180 20:56 25.11.2019
3749 Clear 18 1026 76 0 0.89 170 20:37 25.11.2019
3750 Clear 19 1018 64 10000 2.6 210 20:19 25.11.2019
3751 Clear 19 1018 64 10000 2.6 210 19:55 25.11.2019
3752 Clear 19 1018 64 10000 2.6 210 19:37 25.11.2019
3753 Clear 19 1018 64 10000 2.6 210 19:18 25.11.2019
3754 Clear 19 1018 64 10000 2.6 210 19:18 25.11.2019
3755 Clear 19 1018 64 10000 3.1 360 18:56 25.11.2019
3756 Clear 20 1018 64 10000 3.1 360 18:38 25.11.2019
3757 Clear 20 1018 64 10000 3.1 360 18:38 25.11.2019
3758 Clear 20 1018 64 10000 3.1 360 18:19 25.11.2019
3759 Clear 21 1017 56 10000 5.7 360 17:56 25.11.2019
3760 Clear 22 1017 53 10000 5.7 340 17:37 25.11.2019
3761 Clear 22 1017 53 10000 5.7 340 17:18 25.11.2019
3762 Clear 23 1017 53 10000 5.7 340 16:55 25.11.2019
3763 Clear 23 1017 53 10000 5.7 340 16:37 25.11.2019
3764 Clear 23 1017 53 10000 5.7 340 16:18 25.11.2019
3765 Clear 24 1017 50 10000 4.6 340 15:41 25.11.2019
3766 Clear 24 1017 50 10000 4.6 340 15:21 25.11.2019
3767 Clear 24 1017 50 10000 4.6 340 15:21 25.11.2019
3768 -273 0 0 0 0 0 14:58 25.11.2019
3769 Clear 23 1018 53 10000 5.7 340 14:40 25.11.2019
3770 Clouds 23 1018 53 10000 5.7 340 14:21 25.11.2019
3771 Clouds 23 1018 53 10000 5.1 320 13:54 25.11.2019
3772 Clouds 24 1018 53 0 4.92 320 13:36 25.11.2019
3773 Clouds 23 1018 53 10000 5.1 340 13:18 25.11.2019
3774 Clouds 23 1018 53 10000 5.1 340 12:40 25.11.2019
3775 Clouds 23 1018 53 10000 5.1 340 12:21 25.11.2019
3776 Clouds 23 1019 56 10000 3.6 0 11:59 25.11.2019
3777 Clouds 23 1019 56 10000 3.6 0 11:39 25.11.2019
3778 Clouds 22 1019 56 10000 3.6 0 11:20 25.11.2019
3779 Clouds 22 1019 60 10000 4.6 310 10:46 25.11.2019
3780 Clouds 22 1019 60 10000 4.6 310 10:27 25.11.2019
3781 Clouds 22 1019 56 10000 5.1 300 09:59 25.11.2019
3782 Clouds 21 1019 56 10000 5.1 300 09:40 25.11.2019
3783 Clouds 21 1019 56 10000 5.1 300 09:22 25.11.2019
3784 Clouds 22 1018 64 10000 4.1 320 08:41 25.11.2019
3785 Clouds 20 1018 64 10000 4.1 320 08:22 25.11.2019
3786 Clouds 19 1018 68 10000 2.6 360 07:45 25.11.2019
3787 Clouds 19 1018 68 10000 2.6 360 07:25 25.11.2019
3788 Clouds 19 1018 68 10000 2.6 360 07:25 25.11.2019
3789 Clouds 17 1018 82 10000 2.6 60 06:51 25.11.2019
3790 Clouds 16 1018 93 10000 2.6 50 06:22 25.11.2019
3791 Clouds 15 1018 93 10000 2.6 60 05:50 25.11.2019
3792 Clouds 14 1018 93 10000 2.6 60 05:29 25.11.2019
3793 Clouds 13 1017 87 10000 1 40 03:49 25.11.2019
3794 Clouds 13 1017 87 10000 1.5 50 02:32 25.11.2019
3795 Clouds 14 1018 87 10000 1 50 01:42 25.11.2019
3796 Clouds 14 1018 87 10000 1 50 01:23 25.11.2019
3797 Clouds 14 1019 87 10000 0.5 10 00:39 25.11.2019
3798 Clouds 14 1019 87 10000 0.5 10 00:18 25.11.2019
3799 Clouds 15 1019 82 10000 1 350 23:43 24.11.2019
3800 Clear 15 1019 82 10000 1 350 23:20 24.11.2019
3801 Clear 15 1019 82 10000 2.1 60 22:57 24.11.2019
3802 Clear 15 1019 82 10000 2.1 60 22:38 24.11.2019
3803 Clear 15 1019 82 10000 2.1 60 22:19 24.11.2019
3804 Clear 16 1019 72 10000 2.1 120 21:56 24.11.2019
3805 Clear 16 1019 72 10000 2.1 120 21:37 24.11.2019
3806 Clear 16 1019 72 10000 2.1 120 21:19 24.11.2019
3807 Clear 17 1019 67 10000 2.1 160 20:56 24.11.2019
3808 Clouds 17 1019 67 10000 2.1 160 20:37 24.11.2019
3809 Clear 17 1019 67 10000 2.1 160 20:37 24.11.2019
3810 Clouds 17 1019 67 10000 2.1 160 20:18 24.11.2019
3811 Clouds 18 1018 59 10000 4.6 210 19:55 24.11.2019
3812 Clouds 18 1018 59 10000 4.6 210 19:37 24.11.2019
3813 Clouds 19 1018 59 10000 4.6 210 19:19 24.11.2019
3814 Clouds 19 1018 59 10000 4.6 210 19:19 24.11.2019
3815 Clouds 20 1017 52 10000 4.1 220 18:56 24.11.2019
3816 Clouds 20 1017 52 10000 4.1 220 18:36 24.11.2019
3817 Clouds 20 1017 52 10000 4.1 220 18:18 24.11.2019
3818 Clouds 20 1017 52 10000 4.1 220 18:18 24.11.2019
3819 Clouds 20 1017 52 10000 4.1 220 18:18 24.11.2019
3820 Clouds 21 1017 46 10000 5.1 220 17:55 24.11.2019
3821 Clouds 21 1017 46 10000 5.1 220 17:36 24.11.2019
3822 Clouds 21 1017 46 10000 5.1 220 17:36 24.11.2019
3823 Clouds 21 1017 46 10000 5.1 220 17:18 24.11.2019
3824 Clouds 22 1017 46 10000 3.6 300 16:54 24.11.2019
3825 Clouds 22 1017 46 10000 3.6 300 16:36 24.11.2019
3826 Clouds 22 1017 46 10000 3.6 300 16:18 24.11.2019
3827 Clouds 23 1017 49 10000 5.7 320 15:42 24.11.2019
3828 Clouds 22 1017 49 10000 5.7 320 15:24 24.11.2019
3829 Clouds 23 1017 49 10000 4.6 310 14:57 24.11.2019
3830 Clouds 23 1017 49 10000 4.6 310 14:38 24.11.2019
3831 Clouds 23 1017 49 10000 4.6 310 14:18 24.11.2019
3832 Clouds 22 1018 49 10000 5.7 300 13:40 24.11.2019
3833 Clouds 22 1018 49 10000 5.7 300 13:22 24.11.2019
3834 Clouds 22 1018 53 10000 6.7 310 12:59 24.11.2019
3835 Clouds 22 1018 53 10000 6.7 310 12:39 24.11.2019
3836 Clouds 22 1018 53 10000 6.7 310 12:18 24.11.2019
3837 Clouds 21 1019 56 10000 6.7 310 11:56 24.11.2019
3838 Clouds 21 1019 56 10000 6.7 310 11:36 24.11.2019
3839 Clouds 21 1019 56 10000 6.7 310 11:18 24.11.2019
3840 Clouds 21 1019 56 10000 6.2 320 10:46 24.11.2019
3841 Clouds 21 1019 56 10000 6.2 320 10:28 24.11.2019
3842 Clouds 21 1019 64 10000 5.7 320 09:55 24.11.2019
3843 Clouds 20 1019 64 10000 5.7 320 09:37 24.11.2019
3844 Clouds 21 1019 64 10000 5.7 320 09:18 24.11.2019
3845 Clouds 20 1019 68 10000 5.7 310 08:44 24.11.2019
3846 Clouds 19 1019 68 10000 5.7 310 08:22 24.11.2019
3847 Clouds 19 1018 72 10000 3.6 360 07:57 24.11.2019
3848 Clouds 19 1018 72 10000 3.6 360 07:57 24.11.2019
3849 Clouds 19 1018 72 10000 3.6 360 07:37 24.11.2019
3850 Clouds 18 1018 72 10000 3.6 360 07:18 24.11.2019
3851 Clouds 17 1018 87 10000 2.6 350 06:19 24.11.2019
3852 Clouds 17 1018 87 10000 2.6 350 06:19 24.11.2019
3853 Clouds 15 1017 93 10000 2.6 40 04:48 24.11.2019
3854 Clouds 14 1017 93 10000 0.5 0 03:33 24.11.2019
3855 Clouds 15 1017 93 10000 1 0 02:22 24.11.2019
3856 Clouds 15 1018 93 10000 2.6 350 01:40 24.11.2019
3857 Clouds 15 1018 93 10000 2.6 350 01:21 24.11.2019
3858 Clouds 15 1018 93 10000 2.1 0 00:47 24.11.2019
3859 Clouds 15 1018 93 10000 2.1 0 00:24 24.11.2019
3860 Clouds 15 1018 93 10000 1.5 0 23:46 23.11.2019
3861 Clouds 15 1018 93 10000 1.5 0 23:23 23.11.2019
3862 Clear 15 1018 87 10000 3.6 300 22:59 23.11.2019
3863 Clear 16 1018 87 10000 3.6 300 22:40 23.11.2019
3864 Clear 16 1018 87 10000 3.6 300 22:22 23.11.2019
3865 Clear 16 1017 82 10000 3.6 310 21:59 23.11.2019
3866 Clear 16 1017 82 10000 3.6 310 21:41 23.11.2019
3867 Clear 16 1017 82 10000 3.6 310 21:22 23.11.2019
3868 Clear 16 1017 87 10000 2.6 330 20:57 23.11.2019
3869 Clear 16 1017 87 10000 2.6 330 20:36 23.11.2019
3870 Clouds 16 1017 87 10000 2.6 330 20:18 23.11.2019
3871 Clouds 17 1017 82 10000 3.6 310 19:55 23.11.2019
3872 Clouds 17 1017 82 10000 3.6 310 19:36 23.11.2019
3873 Clouds 17 1017 82 10000 3.6 310 19:36 23.11.2019
3874 Clouds 17 1017 82 10000 3.6 310 19:18 23.11.2019
3875 Clouds 19 1016 68 10000 5.1 310 18:40 23.11.2019
3876 Clouds 19 1016 68 10000 5.1 310 18:21 23.11.2019
3877 Clouds 19 1016 68 10000 6.2 300 17:55 23.11.2019
3878 Clouds 19 1016 68 10000 6.2 300 17:37 23.11.2019
3879 Clouds 19 1016 68 10000 6.2 300 17:19 23.11.2019
3880 Clouds 20 1016 64 10000 6.2 300 16:55 23.11.2019
3881 Clouds 20 1015 60 10000 7.7 290 16:37 23.11.2019
3882 Clouds 20 1015 60 10000 7.7 290 16:18 23.11.2019
3883 Clouds 20 1015 60 10000 7.7 290 15:56 23.11.2019
3884 Clouds 20 1015 60 10000 7.7 290 15:38 23.11.2019
3885 Clouds 20 1015 60 10000 7.7 290 15:18 23.11.2019
3886 Clouds 21 1016 56 10000 7.7 310 14:43 23.11.2019
3887 Clouds 21 1015 56 10000 7.7 310 14:21 23.11.2019
3888 Clouds 21 1015 56 10000 7.7 310 13:59 23.11.2019
3889 Clouds 21 1015 56 10000 7.7 310 13:40 23.11.2019
3890 Clouds 21 1015 56 10000 7.7 310 13:19 23.11.2019
3891 Clouds 21 1016 60 10000 7.7 310 12:44 23.11.2019
3892 Clouds 21 1016 60 10000 7.7 310 12:24 23.11.2019
3893 Clouds 21 1016 52 10000 7.2 300 11:56 23.11.2019
3894 Clouds 21 1016 52 10000 7.2 300 11:38 23.11.2019
3895 Clouds 21 1016 52 10000 7.2 300 11:18 23.11.2019
3896 Clouds 21 1016 49 10000 7.2 340 10:43 23.11.2019
3897 Clouds 21 1016 49 10000 7.2 340 10:20 23.11.2019
3898 Clouds 21 1016 49 10000 7.2 340 09:41 23.11.2019
3899 Clouds 21 1016 49 10000 7.2 340 09:19 23.11.2019
3900 Clouds 20 1015 59 10000 6.7 350 08:41 23.11.2019
3901 Clouds 19 1015 59 10000 6.7 350 08:19 23.11.2019
3902 Clouds 19 1016 63 10000 6.2 350 07:44 23.11.2019
3903 Clouds 19 1016 63 10000 6.2 350 07:26 23.11.2019
3904 Clouds 18 1015 67 10000 6.2 340 06:42 23.11.2019
3905 Clouds 18 1015 67 10000 6.2 340 06:19 23.11.2019
3906 Clouds 17 1015 67 10000 4.6 340 05:45 23.11.2019
3907 Clouds 17 1015 67 10000 4.6 340 05:27 23.11.2019
3908 Clouds 17 1015 63 10000 4.6 340 04:40 23.11.2019
3909 Clouds 17 1015 63 10000 4.6 340 04:21 23.11.2019
3910 Clouds 17 1014 67 10000 2.1 320 02:39 23.11.2019
3911 Clouds 17 1014 67 10000 3.6 350 01:42 23.11.2019
3912 Clouds 17 1015 67 10000 3.6 350 00:54 23.11.2019
3913 Clouds 17 1015 67 10000 3.6 350 00:54 23.11.2019
3914 Clouds 17 1015 67 10000 3.6 350 00:36 23.11.2019
3915 Clouds 17 1015 63 10000 3.6 320 00:18 23.11.2019
3916 Clouds 17 1015 63 10000 3.6 320 00:18 23.11.2019
3917 Clouds 17 1015 63 10000 3.6 320 00:18 23.11.2019
3918 Clouds 17 1015 63 10000 3.6 320 23:39 22.11.2019
3919 Clouds 17 1015 63 10000 3.6 320 23:20 22.11.2019
3920 Clouds 17 1015 63 10000 4.1 320 22:57 22.11.2019
3921 Clouds 17 1015 63 10000 4.1 320 22:38 22.11.2019
3922 Clouds 17 1015 63 10000 4.1 320 22:20 22.11.2019
3923 Clouds 17 1014 63 10000 3.6 350 21:58 22.11.2019
3924 Clouds 17 1014 63 10000 3.6 350 21:38 22.11.2019
3925 Clouds 17 1014 63 10000 3.6 350 21:19 22.11.2019
3926 Clouds 17 1014 67 10000 3.6 10 20:42 22.11.2019
3927 Clouds 18 1014 67 10000 3.6 10 20:22 22.11.2019
3928 Clouds 19 1013 59 10000 4.6 210 19:55 22.11.2019
3929 Clouds 19 1013 59 10000 4.6 210 19:37 22.11.2019
3930 Clouds 19 1013 59 10000 4.6 210 19:18 22.11.2019
3931 Clouds 19 1012 56 10000 4.6 200 18:39 22.11.2019
3932 Clouds 19 1012 56 10000 4.6 200 18:21 22.11.2019
3933 Clouds 19 1012 56 10000 4.6 200 18:21 22.11.2019
3934 Clouds 20 1012 60 10000 4.1 140 17:56 22.11.2019
3935 Clouds 20 1012 60 10000 4.1 140 17:56 22.11.2019
3936 Clouds 20 1012 60 10000 4.1 140 17:38 22.11.2019
3937 Clouds 20 1012 60 10000 4.1 140 17:20 22.11.2019
3938 Clouds 21 1012 56 10000 4.1 150 16:41 22.11.2019
3939 Clouds 21 1012 56 10000 4.1 150 16:23 22.11.2019
3940 Clear 22 1012 53 10000 6.2 160 15:44 22.11.2019
3941 Clear 22 1012 53 10000 6.2 160 15:24 22.11.2019
3942 Clear 22 1011 53 10000 5.1 160 14:56 22.11.2019
3943 Clear 22 1011 53 10000 5.1 160 14:38 22.11.2019
3944 Clear 22 1011 53 10000 5.1 160 14:19 22.11.2019
3945 Clear 23 1011 40 10000 4.6 330 13:57 22.11.2019
3946 Clear 23 1011 40 10000 4.6 330 13:37 22.11.2019
3947 Clear 23 1011 40 10000 4.6 330 13:18 22.11.2019
3948 Clear 23 1012 43 10000 5.1 320 12:55 22.11.2019
3949 Clear 23 1012 43 10000 5.1 320 12:36 22.11.2019
3950 Clear 23 1012 43 10000 5.1 320 12:18 22.11.2019
3951 Clear 22 1012 46 0 3.31 196 11:40 22.11.2019
3952 Clear 22 1012 46 10000 3.1 0 11:22 22.11.2019
3953 Clear 22 1012 46 10000 3.1 0 10:59 22.11.2019
3954 Clear 22 1012 46 10000 3.1 0 10:39 22.11.2019
3955 Clear 22 1012 46 10000 3.1 0 10:21 22.11.2019
3956 Clear 21 1012 52 10000 4.6 320 09:55 22.11.2019
3957 Clear 21 1012 52 10000 4.6 320 09:37 22.11.2019
3958 Clear 20 1012 52 10000 4.6 320 09:18 22.11.2019
3959 Clear 20 1012 55 10000 3.1 270 08:45 22.11.2019
3960 Clear 19 1011 63 10000 3.1 220 08:26 22.11.2019
3961 Clear 18 1011 63 10000 3.1 220 07:45 22.11.2019
3962 Clear 18 1011 63 10000 3.1 220 07:23 22.11.2019
3963 Clear 18 1011 67 10000 2.1 230 06:49 22.11.2019
3964 Clear 17 1011 67 10000 2.1 230 06:30 22.11.2019
3965 Clear 16 1011 77 10000 3.1 230 05:49 22.11.2019
3966 Clear 15 1011 77 10000 3.6 220 04:50 22.11.2019
3967 Clear 16 1012 72 10000 5.1 210 02:53 22.11.2019
3968 Clear 16 1012 72 10000 5.1 210 02:31 22.11.2019
3969 Clear 16 1012 72 10000 5.7 190 01:45 22.11.2019
3970 Clear 16 1012 72 10000 5.7 190 01:20 22.11.2019
3971 Clear 16 1013 72 10000 5.7 180 00:51 22.11.2019
3972 Clear 16 1013 72 10000 5.7 180 00:24 22.11.2019
3973 Clear 16 1014 72 10000 5.1 180 23:49 21.11.2019
3974 Clear 16 1014 72 10000 5.1 180 23:31 21.11.2019
3975 Clear 16 1014 72 10000 5.7 180 22:59 21.11.2019
3976 Clear 16 1014 72 10000 5.7 180 22:39 21.11.2019
3977 Clear 16 1014 72 10000 5.7 180 22:21 21.11.2019
3978 Clear 16 1014 67 10000 5.7 190 21:57 21.11.2019
3979 Clear 17 1014 67 10000 5.7 190 21:38 21.11.2019
3980 Clear 16 1014 67 10000 5.7 190 21:19 21.11.2019
3981 Clear 17 1014 67 10000 5.1 190 20:58 21.11.2019
3982 Clear 17 1014 67 10000 5.1 190 20:39 21.11.2019
3983 Clear 17 1014 67 10000 5.1 190 20:19 21.11.2019
3984 Clear 17 1013 63 10000 7.2 190 19:59 21.11.2019
3985 Clear 17 1013 63 10000 7.2 190 19:41 21.11.2019
3986 Clear 17 1013 63 10000 7.2 190 19:22 21.11.2019
3987 Clear 17 1013 59 10000 7.2 170 18:57 21.11.2019
3988 Clear 18 1013 59 10000 7.2 170 18:38 21.11.2019
3989 Clear 18 1013 59 10000 7.2 170 18:19 21.11.2019
3990 Clear 18 1013 55 10000 7.2 170 17:57 21.11.2019
3991 Clear 19 1013 55 10000 7.2 170 17:38 21.11.2019
3992 Clear 19 1013 55 10000 7.2 170 17:19 21.11.2019
3993 Clear 20 1013 52 10000 7.7 180 16:41 21.11.2019
3994 Clear 20 1013 52 10000 7.7 180 16:21 21.11.2019
3995 Clear 20 1014 49 10000 7.2 180 15:58 21.11.2019
3996 Clear 20 1014 49 10000 7.2 180 15:39 21.11.2019
3997 Clear 20 1014 49 10000 7.2 180 15:19 21.11.2019
3998 Clear 20 1014 49 10000 7.2 180 14:56 21.11.2019
3999 Clear 20 1014 49 10000 7.2 180 14:56 21.11.2019
4000 Clear 21 1014 49 10000 7.2 180 14:36 21.11.2019
4001 Clear 21 1014 49 10000 7.2 180 14:18 21.11.2019
4002 Clear 21 1014 49 10000 7.2 180 13:39 21.11.2019
4003 Clear 21 1014 49 10000 7.2 180 13:20 21.11.2019
4004 Clear 21 1015 52 10000 6.7 170 12:59 21.11.2019
4005 Clear 21 1015 52 10000 6.7 170 12:38 21.11.2019
4006 Clear 21 1015 52 10000 6.7 170 12:20 21.11.2019
4007 Clouds 21 1015 52 10000 5.7 180 11:41 21.11.2019
4008 Clouds 21 1015 52 10000 5.7 180 11:22 21.11.2019
4009 Clouds 21 1015 52 10000 6.2 180 10:59 21.11.2019
4010 Clouds 21 1015 52 10000 6.2 180 10:41 21.11.2019
4011 Clouds 21 1015 52 10000 6.2 180 10:22 21.11.2019
4012 Clouds 20 1015 59 10000 7.7 200 09:57 21.11.2019
4013 Clouds 20 1015 59 10000 7.7 200 09:38 21.11.2019
4014 Clouds 19 1015 59 10000 7.7 200 09:19 21.11.2019
4015 Clouds 20 1014 59 10000 8.2 200 08:42 21.11.2019
4016 Clouds 19 1014 59 10000 8.2 200 08:20 21.11.2019
4017 Clouds 18 1013 63 10000 9.3 180 07:43 21.11.2019
4018 Clouds 18 1013 63 10000 9.3 180 07:18 21.11.2019
4019 Clouds 18 1013 72 10000 8.7 190 06:57 21.11.2019
4020 Clouds 18 1013 72 10000 8.7 190 06:34 21.11.2019
4021 Clear 16 1013 77 10000 7.2 200 05:39 21.11.2019
4022 Clear 16 1012 72 10000 6.2 200 03:34 21.11.2019
4023 Clear 16 1012 72 10000 8.2 190 02:42 21.11.2019
4024 Clear 16 1012 72 10000 8.2 190 02:21 21.11.2019
4025 Clear 16 1012 72 10000 7.2 200 01:42 21.11.2019
4026 Clear 16 1012 72 10000 7.2 200 01:19 21.11.2019
4027 Clear 16 1013 72 10000 6.7 190 00:37 21.11.2019
4028 Clear 16 1013 72 10000 6.7 190 00:18 21.11.2019
4029 Clear 17 1013 72 10000 8.2 190 23:41 20.11.2019
4030 Clear 17 1013 72 10000 8.2 190 23:21 20.11.2019
4031 Clear 17 1013 77 10000 8.2 190 22:56 20.11.2019
4032 Clear 17 1013 77 10000 8.2 190 22:37 20.11.2019
4033 Clear 16 1013 77 10000 8.2 190 22:19 20.11.2019
4034 Clear 17 1014 77 10000 7.2 200 21:57 20.11.2019
4035 Clear 17 1014 77 10000 7.2 200 21:38 20.11.2019
4036 Clear 17 1014 77 10000 7.2 200 21:19 20.11.2019
4037 Clear 17 1013 72 10000 9.8 190 20:56 20.11.2019
4038 Clear 17 1013 72 10000 9.8 190 20:37 20.11.2019
4039 Clear 17 1013 72 10000 9.8 190 20:19 20.11.2019
4040 Clear 17 1013 67 10000 8.7 190 19:55 20.11.2019
4041 Clear 17 1021 78 0 3.13 216 19:36 20.11.2019
4042 Clear 18 1013 59 10000 10.3 200 19:18 20.11.2019
4043 Clear 18 1013 59 10000 10.3 200 18:57 20.11.2019
4044 Clear 18 1013 59 10000 10.3 200 18:38 20.11.2019
4045 Clear 18 1013 59 10000 10.3 200 18:20 20.11.2019
4046 Clear 19 1012 55 10000 9.8 190 17:55 20.11.2019
4047 Clear 19 1012 55 10000 9.8 190 17:37 20.11.2019
4048 Clear 20 1012 55 10000 9.8 190 17:18 20.11.2019
4049 Clear 19 1012 55 10000 14.9 190 16:41 20.11.2019
4050 Clear 20 1012 55 10000 14.9 190 16:20 20.11.2019
4051 Clear 21 1012 52 10000 13.9 190 15:58 20.11.2019
4052 Clear 20 1012 52 10000 13.9 190 15:40 20.11.2019
4053 Clear 20 1012 52 10000 13.9 190 15:20 20.11.2019
4054 Clear 22 1012 49 10000 9.8 190 14:58 20.11.2019
4055 Clear 22 1012 49 10000 9.8 190 14:39 20.11.2019
4056 Clouds 22 1012 49 10000 9.8 190 14:21 20.11.2019
4057 Clouds 22 1013 46 10000 7.2 200 13:57 20.11.2019
4058 Clouds 22 1013 46 10000 7.2 200 13:38 20.11.2019
4059 Clouds 22 1013 46 10000 7.2 200 13:19 20.11.2019
4060 Clouds 22 1013 43 10000 5.7 210 12:42 20.11.2019
4061 Clouds 23 1013 43 10000 5.7 210 12:24 20.11.2019
4062 Clouds 23 1013 38 10000 5.1 220 11:57 20.11.2019
4063 Clouds 23 1013 38 10000 5.1 220 11:38 20.11.2019
4064 Clouds 22 1013 38 10000 5.1 220 11:20 20.11.2019
4065 Clouds 21 1014 40 10000 3.6 200 10:55 20.11.2019
4066 Clouds 21 1014 40 10000 3.6 200 10:36 20.11.2019
4067 Clouds 21 1014 40 10000 3.6 200 10:18 20.11.2019
4068 Clouds 21 1013 49 0 3.13 225 09:42 20.11.2019
4069 Clouds 21 1013 48 10000 9.8 160 09:21 20.11.2019
4070 Clouds 21 1013 48 10000 9.8 160 08:56 20.11.2019
4071 Clouds 20 1013 48 10000 9.8 160 08:37 20.11.2019
4072 Clear 19 1013 48 10000 9.8 160 08:18 20.11.2019
4073 Clear 18 1014 52 10000 9.8 180 07:42 20.11.2019
4074 Clear 18 1014 52 10000 9.8 180 07:24 20.11.2019
4075 Clear 17 1014 59 10000 9.3 160 06:46 20.11.2019
4076 Clear 16 1014 59 10000 9.3 160 06:20 20.11.2019
4077 Clear 15 1015 67 10000 5.7 180 04:51 20.11.2019
4078 Clear 15 1016 62 10000 7.2 170 03:28 20.11.2019
4079 Clear 15 1016 62 10000 7.2 170 02:18 20.11.2019
4080 Clear 15 1016 67 10000 9.3 180 01:21 20.11.2019
4081 Clear 15 1016 67 10000 9.3 180 00:40 20.11.2019
4082 Clear 15 1017 62 10000 8.2 170 23:52 19.11.2019
4083 Clear 15 1017 62 10000 8.2 170 23:25 19.11.2019
4084 Clear 16 1018 59 10000 8.2 180 22:57 19.11.2019
4085 Clear 16 1018 59 10000 8.2 180 22:57 19.11.2019
4086 Clear 16 1018 59 10000 8.2 180 22:39 19.11.2019
4087 Clear 16 1018 59 10000 8.2 180 22:19 19.11.2019
4088 Clouds 16 1018 63 10000 9.3 180 21:56 19.11.2019
4089 Clouds 16 1018 63 10000 9.3 180 21:37 19.11.2019
4090 Clouds 16 1018 63 10000 8.7 180 21:19 19.11.2019
4091 Clouds 16 1018 63 10000 8.7 180 21:19 19.11.2019
4092 Clouds 16 1018 63 10000 8.7 180 20:56 19.11.2019
4093 Clouds 16 1018 63 10000 8.7 180 20:38 19.11.2019
4094 Clouds 16 1018 59 10000 10.3 180 20:19 19.11.2019
4095 Clouds 16 1018 59 10000 10.3 180 19:56 19.11.2019
4096 Clouds 16 1018 59 10000 10.3 180 19:38 19.11.2019
4097 Clouds 16 1018 59 10000 10.3 180 19:19 19.11.2019
4098 Clouds 17 1017 55 10000 9.3 180 18:55 19.11.2019
4099 Clouds 17 1017 55 10000 9.3 180 18:36 19.11.2019
4100 Clouds 17 1017 55 10000 9.3 180 18:18 19.11.2019
4101 Clouds 18 1017 48 10000 9.3 190 17:55 19.11.2019
4102 Clouds 18 1017 48 10000 9.3 190 17:55 19.11.2019
4103 Clouds 17 1017 48 10000 9.3 190 17:36 19.11.2019
4104 Clouds 18 1017 48 10000 9.3 190 17:18 19.11.2019
4105 Clouds 19 1018 45 10000 8.7 180 16:42 19.11.2019
4106 Clouds 19 1018 45 10000 8.7 180 16:22 19.11.2019
4107 Clouds 19 1017 48 10000 9.8 180 15:56 19.11.2019
4108 Clouds 19 1017 48 10000 9.8 180 15:38 19.11.2019
4109 Clouds 19 1017 48 10000 9.8 180 15:20 19.11.2019
4110 Clouds 20 1018 42 10000 9.8 180 14:55 19.11.2019
4111 Clear 20 1018 42 0 9.39 180 14:37 19.11.2019
4112 Clear 20 1018 42 0 9.39 180 14:37 19.11.2019
4113 Clouds 20 1018 42 10000 7.7 180 14:19 19.11.2019
4114 Clouds 20 1018 45 10000 8.2 180 13:40 19.11.2019
4115 Clouds 20 1018 45 10000 8.2 180 13:40 19.11.2019
4116 Clouds 20 1018 45 10000 8.2 180 13:19 19.11.2019
4117 Clouds 20 1018 45 10000 8.2 180 12:40 19.11.2019
4118 Clouds 20 1018 45 10000 8.2 180 12:22 19.11.2019
4119 Clouds 20 1018 42 10000 7.2 190 11:58 19.11.2019
4120 Clouds 20 1018 42 10000 7.2 190 11:38 19.11.2019
4121 Clouds 20 1018 42 10000 7.2 190 11:19 19.11.2019
4122 Clouds 20 1018 42 10000 7.2 190 11:19 19.11.2019
4123 Clouds 19 1019 45 10000 6.2 190 10:48 19.11.2019
4124 Clouds 19 1019 45 10000 6.2 190 10:23 19.11.2019
4125 Clouds 19 1018 48 10000 5.7 190 09:58 19.11.2019
4126 Clouds 19 1018 48 10000 5.7 190 09:40 19.11.2019
4127 Clouds 19 1018 48 10000 5.7 190 09:19 19.11.2019
4128 Clouds 19 1019 55 10000 6.2 190 08:41 19.11.2019
4129 Clouds 18 1019 55 10000 6.2 190 08:23 19.11.2019
4130 Clouds 18 1019 52 10000 7.2 200 07:57 19.11.2019
4131 Clouds 18 1019 52 10000 7.2 200 07:39 19.11.2019
4132 Clouds 18 1019 52 10000 7.2 200 07:20 19.11.2019
4133 Clouds 18 1018 55 10000 5.7 170 06:50 19.11.2019
4134 Clouds 17 1018 55 10000 5.7 170 06:30 19.11.2019
4135 Clouds 15 1018 62 10000 5.1 180 05:28 19.11.2019
4136 Clouds 15 1017 67 10000 6.2 190 03:50 19.11.2019
4137 Clouds 15 1017 67 10000 6.2 190 03:31 19.11.2019
4138 Clouds 15 1017 67 10000 6.7 180 02:55 19.11.2019
4139 Clouds 15 1017 72 10000 7.2 180 01:59 19.11.2019
4140 Clouds 15 1017 72 10000 7.2 180 01:27 19.11.2019
4141 Clouds 14 1017 81 10000 2.1 140 00:21 19.11.2019
4142 Clouds 14 1018 82 10000 3.6 150 23:57 18.11.2019
4143 Clouds 15 1012 34 0 2.24 183 23:37 18.11.2019
4144 Clouds 14 1018 76 10000 3.1 150 23:18 18.11.2019
4145 Clouds 14 1018 76 10000 3.1 150 22:42 18.11.2019
4146 Clouds 14 1018 76 10000 3.1 150 22:23 18.11.2019
4147 Clouds 15 1016 72 0 1.79 180 21:55 18.11.2019
4148 Clouds 15 1025 75 0 1.34 182 21:37 18.11.2019
4149 Clouds 15 1017 62 10000 6.7 180 21:19 18.11.2019
4150 Clouds 15 1017 62 10000 6.7 180 20:56 18.11.2019
4151 Clouds 15 1017 62 10000 6.7 180 20:38 18.11.2019
4152 Clouds 15 1017 62 10000 6.7 180 20:18 18.11.2019
4153 Clouds 15 1017 58 10000 8.2 180 19:54 18.11.2019
4154 Clouds 15 1017 58 10000 8.2 180 19:36 18.11.2019
4155 Clouds 15 1017 58 10000 8.2 180 19:18 18.11.2019
4156 Clouds 16 1016 55 10000 9.3 190 18:54 18.11.2019
4157 Clouds 16 1016 55 10000 9.3 190 18:36 18.11.2019
4158 Clouds 16 1016 55 10000 9.3 190 18:18 18.11.2019
4159 Clouds 16 1016 51 10000 8.7 180 17:38 18.11.2019
4160 Clouds 17 1016 51 10000 8.7 180 17:19 18.11.2019
4161 Clouds 18 1016 45 10000 9.8 180 16:54 18.11.2019
4162 Clouds 18 1016 45 10000 9.8 180 16:36 18.11.2019
4163 Clouds 18 1016 45 10000 9.8 180 16:18 18.11.2019
4164 Clouds 19 1016 42 10000 8.7 190 15:54 18.11.2019
4165 Clouds 19 1016 42 10000 8.7 190 15:36 18.11.2019
4166 Clouds 19 1016 42 10000 8.7 190 15:18 18.11.2019
4167 Clouds 19 1015 45 10000 9.3 190 14:41 18.11.2019
4168 Clouds 19 1015 45 10000 9.3 190 14:22 18.11.2019
4169 Clouds 19 1016 45 10000 9.8 190 13:46 18.11.2019
4170 Clouds 19 1016 40 10000 8.7 190 13:27 18.11.2019
4171 Clouds 20 1016 40 10000 8.7 190 12:57 18.11.2019
4172 Clouds 20 1016 40 10000 8.7 190 12:37 18.11.2019
4173 Clouds 20 1016 40 10000 8.7 190 12:18 18.11.2019
4174 Clouds 19 1016 42 10000 8.7 190 11:44 18.11.2019
4175 Clouds 19 1016 42 10000 8.7 190 11:25 18.11.2019
4176 Clouds 19 1016 42 10000 8.7 190 10:55 18.11.2019
4177 Clouds 19 1016 42 10000 8.7 190 10:37 18.11.2019
4178 Clouds 19 1016 42 10000 8.7 190 10:18 18.11.2019
4179 Clouds 18 1016 45 10000 7.7 180 09:54 18.11.2019
4180 Clouds 18 1016 45 10000 7.7 180 09:36 18.11.2019
4181 Clouds 18 1016 45 10000 7.7 180 09:18 18.11.2019
4182 Clouds 18 1017 51 10000 8.2 180 08:42 18.11.2019
4183 Clouds 18 1017 51 10000 8.2 180 08:20 18.11.2019
4184 Clear 18 1016 48 10000 9.3 160 07:47 18.11.2019
4185 Clear 17 1016 48 10000 9.3 160 07:27 18.11.2019
4186 Clear 17 1016 51 10000 7.2 170 06:53 18.11.2019
4187 Clear 16 1016 51 10000 7.2 170 06:32 18.11.2019
4188 Clear 14 1015 62 10000 4.6 170 05:48 18.11.2019
4189 Clouds 14 1015 62 10000 5.7 170 04:46 18.11.2019
4190 Clouds 14 1016 62 10000 6.2 170 01:56 18.11.2019
4191 Clouds 14 1016 62 10000 6.2 170 01:31 18.11.2019
4192 Clouds 15 1017 58 10000 7.7 170 00:23 18.11.2019
4193 Clouds 15 1017 58 10000 8.7 170 23:43 17.11.2019
4194 Clouds 15 1017 58 10000 8.7 170 23:24 17.11.2019
4195 Clouds 15 1017 62 10000 9.3 160 22:58 17.11.2019
4196 Clouds 15 1017 62 10000 9.3 160 22:40 17.11.2019
4197 Clouds 15 1017 62 10000 9.3 160 22:22 17.11.2019
4198 Clouds 15 1017 62 10000 6.7 160 21:58 17.11.2019
4199 Clouds 15 1017 62 10000 6.7 160 21:40 17.11.2019
4200 Clouds 15 1017 62 10000 6.7 160 21:19 17.11.2019
4201 Clouds 15 1017 62 10000 8.2 160 20:56 17.11.2019
4202 Clouds 15 1017 62 10000 8.2 160 20:38 17.11.2019
4203 Clouds 15 1017 62 10000 8.2 160 20:19 17.11.2019
4204 Clouds 15 1017 58 10000 7.7 170 19:56 17.11.2019
4205 Clouds 15 1017 58 10000 7.7 170 19:56 17.11.2019
4206 Clouds 15 1017 58 10000 7.7 170 19:37 17.11.2019
4207 Clouds 15 1017 58 10000 7.7 170 19:37 17.11.2019
4208 Clouds 15 1017 58 10000 7.7 170 19:19 17.11.2019
4209 Clear 16 1017 55 10000 9.3 160 18:55 17.11.2019
4210 Clear 16 1017 55 10000 9.3 160 18:37 17.11.2019
4211 Clear 16 1017 55 10000 9.3 160 18:18 17.11.2019
4212 Clouds 17 1017 48 10000 10.3 170 17:57 17.11.2019
4213 Clouds 17 1017 48 10000 10.3 170 17:38 17.11.2019
4214 Clouds 17 1017 48 10000 10.3 170 17:20 17.11.2019
4215 Clouds 18 1017 48 10000 10.3 170 16:57 17.11.2019
4216 Clouds 18 1017 48 10000 10.3 170 16:39 17.11.2019
4217 Clouds 18 1017 48 10000 10.3 170 16:21 17.11.2019
4218 Clouds 18 1016 48 10000 10.3 180 15:55 17.11.2019
4219 Clouds 18 1016 48 10000 10.3 180 15:36 17.11.2019
4220 Clouds 19 1016 48 10000 10.3 180 15:18 17.11.2019
4221 Clouds 19 1017 42 10000 9.8 170 14:55 17.11.2019
4222 Clouds 19 1017 42 0 9.39 170 14:37 17.11.2019
4223 Clouds 19 1017 45 10000 10.3 180 14:18 17.11.2019
4224 Clouds 19 1017 45 10000 10.3 180 13:54 17.11.2019
4225 Clouds 19 1017 45 10000 10.3 180 13:36 17.11.2019
4226 Clouds 19 1017 45 10000 10.3 180 13:18 17.11.2019
4227 Clouds 19 1017 52 10000 9.8 180 12:39 17.11.2019
4228 Clouds 19 1017 52 10000 9.8 180 12:21 17.11.2019
4229 Clouds 19 1017 52 10000 9.8 180 12:21 17.11.2019
4230 Clouds 19 1017 55 10000 10.3 180 11:56 17.11.2019
4231 Clouds 19 1017 55 10000 10.3 180 11:38 17.11.2019
4232 Clouds 19 1017 52 10000 7.7 180 11:19 17.11.2019
4233 Clouds 19 1017 52 10000 7.7 180 11:19 17.11.2019
4234 Clouds 19 1017 52 10000 7.7 180 10:43 17.11.2019
4235 Clouds 19 1017 55 10000 8.2 180 10:23 17.11.2019
4236 Clouds 19 1017 55 10000 8.2 180 09:57 17.11.2019
4237 Clouds 19 1017 55 10000 8.2 180 09:39 17.11.2019
4238 Clouds 19 1017 55 10000 8.2 180 09:19 17.11.2019
4239 Clouds 17 1016 45 10000 6.2 160 08:38 17.11.2019
4240 Clouds 18 1016 45 10000 6.2 160 08:19 17.11.2019
4241 Clouds 18 1016 42 10000 6.2 170 07:46 17.11.2019
4242 Clouds 18 1016 42 10000 6.2 170 07:22 17.11.2019
4243 Clouds 17 1016 59 10000 6.2 170 06:57 17.11.2019
4244 Clouds 16 1016 59 10000 6.2 170 06:31 17.11.2019
4245 Clouds 16 1015 55 10000 5.7 170 05:39 17.11.2019
4246 Clouds 15 1014 62 10000 8.7 190 04:23 17.11.2019
4247 Clouds 15 1014 62 10000 8.7 190 03:43 17.11.2019
4248 Clouds 15 1014 62 10000 8.7 190 03:23 17.11.2019
4249 Clouds 16 1014 63 10000 8.7 190 02:25 17.11.2019
4250 Clouds 16 1014 72 10000 8.7 180 01:25 17.11.2019
4251 Clouds 16 1014 72 10000 7.2 180 00:53 17.11.2019
4252 Clouds 16 1014 72 10000 7.2 180 00:22 17.11.2019
4253 Clouds 16 1014 67 10000 7.7 170 23:44 16.11.2019
4254 Clouds 16 1014 67 10000 7.7 170 23:20 16.11.2019
4255 Clouds 16 1014 67 10000 8.2 170 22:59 16.11.2019
4256 Clouds 16 1014 67 10000 8.2 170 22:40 16.11.2019
4257 Clouds 16 1014 67 10000 8.2 170 22:40 16.11.2019
4258 Clouds 16 1014 67 10000 8.2 170 22:18 16.11.2019
4259 Clouds 16 1013 72 10000 10.3 170 21:42 16.11.2019
4260 Clouds 16 1013 72 10000 10.3 170 21:23 16.11.2019
4261 Clouds 16 1013 87 10000 10.8 170 20:59 16.11.2019
4262 Clouds 16 1013 87 10000 10.8 170 20:41 16.11.2019
4263 Clouds 16 1013 87 10000 10.8 170 20:20 16.11.2019
4264 Clouds 16 1013 77 10000 9.8 170 19:57 16.11.2019
4265 Clouds 16 1013 77 10000 9.8 170 19:39 16.11.2019
4266 Clouds 16 1013 77 10000 9.8 170 19:20 16.11.2019
4267 Clouds 17 1012 72 10000 10.8 170 18:45 16.11.2019
4268 Clouds 17 1012 72 10000 10.8 170 18:27 16.11.2019
4269 Clouds 18 1012 72 10000 12.3 170 17:56 16.11.2019
4270 Clouds 18 1012 72 10000 12.3 170 17:38 16.11.2019
4271 Clouds 18 1012 72 10000 12.3 170 17:19 16.11.2019
4272 Clouds 19 1011 68 10000 14.4 170 16:48 16.11.2019
4273 Clouds 19 1011 64 10000 13.9 170 16:30 16.11.2019
4274 Clouds 20 1011 64 10000 13.9 170 15:58 16.11.2019
4275 Clouds 20 1011 64 10000 13.9 170 15:39 16.11.2019
4276 Clouds 20 1011 64 10000 13.9 170 15:20 16.11.2019
4277 Clouds 20 1011 64 10000 14.4 170 14:57 16.11.2019
4278 Clouds 20 1011 64 10000 14.4 170 14:39 16.11.2019
4279 Clouds 21 1012 64 10000 14.9 170 14:20 16.11.2019
4280 Clouds 22 1012 64 10000 14.9 170 13:55 16.11.2019
4281 Clouds 21 1012 64 10000 14.9 170 13:37 16.11.2019
4282 Clouds 22 1012 64 10000 14.9 170 13:18 16.11.2019
4283 Clouds 22 1012 64 10000 14.9 170 13:18 16.11.2019
4284 Clouds 22 1012 64 10000 14.4 170 12:42 16.11.2019
4285 Clouds 22 1012 64 10000 12.9 170 12:22 16.11.2019
4286 Clouds 22 1012 64 10000 13.4 170 11:56 16.11.2019
4287 Clouds 22 1012 64 10000 13.4 170 11:38 16.11.2019
4288 Clouds 21 1012 64 10000 13.4 170 11:19 16.11.2019
4289 Clouds 21 1013 64 10000 12.3 170 10:43 16.11.2019
4290 Clouds 21 1013 64 10000 12.3 170 10:25 16.11.2019
4291 Clouds 21 1013 64 10000 11.8 170 09:59 16.11.2019
4292 Clouds 21 1013 64 10000 11.8 170 09:40 16.11.2019
4293 Clouds 21 1013 64 10000 11.8 170 09:20 16.11.2019
4294 Clouds 20 1013 68 10000 11.8 170 08:41 16.11.2019
4295 Clouds 20 1013 68 10000 11.8 170 08:41 16.11.2019
4296 Clouds 20 1013 68 10000 11.8 170 08:21 16.11.2019
4297 Clouds 20 1013 72 10000 12.3 180 07:46 16.11.2019
4298 Clouds 19 1013 72 10000 12.3 180 07:22 16.11.2019
4299 Clouds 19 1012 77 10000 13.4 180 06:59 16.11.2019
4300 Clouds 18 1012 77 10000 13.4 180 06:59 16.11.2019
4301 Clouds 19 1012 77 10000 13.4 180 06:59 16.11.2019
4302 Clouds 19 1012 77 10000 13.4 180 06:41 16.11.2019
4303 Clouds 18 1011 93 10000 11.3 190 06:20 16.11.2019
4304 Clouds 18 1011 77 10000 10.3 180 04:45 16.11.2019
4305 Clouds 18 1011 77 10000 9.8 180 03:26 16.11.2019
4306 Clouds 18 1011 82 10000 11.3 180 02:36 16.11.2019
4307 Clouds 18 1012 72 10000 9.8 190 02:36 16.11.2019
4308 Clouds 19 1012 72 10000 9.8 190 01:41 16.11.2019
4309 Clouds 18 1013 77 10000 8.2 190 00:51 16.11.2019
4310 Clouds 19 1013 72 10000 10.3 170 00:31 16.11.2019
4311 Clouds 19 1013 72 10000 10.3 170 23:58 15.11.2019
4312 Clouds 19 1013 72 10000 10.3 170 23:38 15.11.2019
4313 Clouds 19 1013 72 10000 10.3 170 23:20 15.11.2019
4314 Clouds 19 1013 77 10000 8.2 190 22:42 15.11.2019
4315 Clouds 19 1013 77 10000 8.2 190 22:20 15.11.2019
4316 Clouds 18 1014 82 10000 8.7 190 21:58 15.11.2019
4317 Clouds 19 1014 82 10000 8.7 190 21:40 15.11.2019
4318 Clouds 19 1014 82 10000 8.7 190 21:20 15.11.2019
4319 Clouds 19 1014 77 10000 9.8 180 20:57 15.11.2019
4320 Clouds 19 1014 77 10000 9.8 180 20:39 15.11.2019
4321 Clouds 19 1014 77 10000 9.8 180 20:20 15.11.2019
4322 Clouds 19 1013 77 10000 11.8 180 19:57 15.11.2019
4323 Clouds 19 1013 77 10000 11.8 180 19:39 15.11.2019
4324 Clouds 19 1013 77 10000 11.8 180 19:20 15.11.2019
4325 Clouds 19 1012 82 10000 11.8 180 18:56 15.11.2019
4326 Clouds 20 1012 82 10000 11.8 180 18:38 15.11.2019
4327 Clouds 20 1012 82 10000 11.8 180 18:20 15.11.2019
4328 Clouds 21 1012 73 10000 11.8 180 17:42 15.11.2019
4329 Clouds 21 1012 73 10000 11.8 180 17:24 15.11.2019
4330 Clouds 21 1012 73 10000 12.3 190 16:56 15.11.2019
4331 Clouds 21 1012 73 10000 12.3 190 16:37 15.11.2019
4332 Clouds 21 1012 73 10000 12.3 190 16:19 15.11.2019
4333 Clouds 22 1012 68 10000 11.8 190 15:38 15.11.2019
4334 Clouds 22 1012 68 10000 11.8 190 15:20 15.11.2019
4335 Clouds 23 1013 64 10000 9.8 190 14:57 15.11.2019
4336 Clouds 23 1013 64 10000 9.8 190 14:38 15.11.2019
4337 Clouds 23 1013 64 10000 9.8 190 14:19 15.11.2019
4338 Clouds 25 1013 60 10000 9.3 200 13:58 15.11.2019
4339 Clouds 25 1013 60 10000 9.3 200 13:39 15.11.2019
4340 Clouds 25 1013 60 10000 9.3 200 13:20 15.11.2019
4341 Clouds 24 1013 60 10000 8.7 200 12:57 15.11.2019
4342 Clouds 24 1013 60 10000 8.7 200 12:39 15.11.2019
4343 Clouds 24 1013 60 10000 8.7 200 12:20 15.11.2019
4344 Clouds 25 1014 60 10000 7.7 200 11:57 15.11.2019
4345 Clouds 25 1014 60 10000 7.7 200 11:38 15.11.2019
4346 Clouds 25 1014 60 10000 7.7 200 11:20 15.11.2019
4347 Clouds 25 1014 64 10000 7.2 190 10:56 15.11.2019
4348 Clouds 25 1014 64 10000 7.2 190 10:38 15.11.2019
4349 Clouds 24 1014 64 10000 7.2 190 10:18 15.11.2019
4350 Clouds 24 1014 64 10000 6.2 200 09:40 15.11.2019
4351 Clouds 24 1014 64 10000 6.2 200 09:19 15.11.2019
4352 Clouds 22 1014 73 10000 4.6 220 08:44 15.11.2019
4353 Clouds 22 1014 73 10000 4.6 220 08:23 15.11.2019
4354 Clouds 20 1011 70 0 0.89 173 07:49 15.11.2019
4355 Clouds 20 1014 93 10000 6.7 210 07:28 15.11.2019
4356 Clouds 19 1014 93 10000 6.7 210 06:50 15.11.2019
4357 Clouds 19 1014 93 10000 6.7 210 06:31 15.11.2019
4358 Clouds 18 1014 93 10000 5.7 190 05:42 15.11.2019
4359 Clouds 18 1014 93 10000 5.7 190 05:23 15.11.2019
4360 Clouds 18 1014 100 10000 6.2 200 03:53 15.11.2019
4361 Clouds 18 1014 100 10000 6.2 200 03:23 15.11.2019
4362 Clouds 18 1014 93 10000 7.7 180 02:19 15.11.2019
4363 Clouds 18 1014 93 10000 9.3 180 01:33 15.11.2019
4364 Clouds 18 1014 93 10000 9.3 180 01:33 15.11.2019
4365 Clouds 19 1015 93 10000 8.2 180 00:54 15.11.2019
4366 Clouds 19 1015 93 10000 8.2 180 00:33 15.11.2019
4367 Clouds 19 1016 93 10000 8.2 190 23:53 14.11.2019
4368 Clouds 19 1016 93 10000 8.2 190 23:29 14.11.2019
4369 Clouds 19 1016 93 10000 9.3 180 22:59 14.11.2019
4370 Clouds 19 1016 93 10000 9.3 180 22:40 14.11.2019
4371 Clouds 19 1016 93 10000 9.3 180 22:21 14.11.2019
4372 Clouds 19 1016 93 10000 8.7 180 21:56 14.11.2019
4373 Clouds 19 1016 93 10000 8.7 180 21:56 14.11.2019
4374 Clouds 19 1016 93 10000 8.7 180 21:38 14.11.2019
4375 Clouds 19 1016 93 10000 8.7 180 21:19 14.11.2019
4376 Clouds 19 1016 93 10000 9.3 170 20:42 14.11.2019
4377 Clouds 19 1016 93 10000 9.3 170 20:42 14.11.2019
4378 Clouds 19 1016 93 10000 9.3 170 20:24 14.11.2019
4379 Clouds 19 1016 100 8000 9.8 170 19:59 14.11.2019
4380 Clouds 19 1016 100 8000 9.8 170 19:41 14.11.2019
4381 Clouds 19 1016 100 8000 9.8 170 19:18 14.11.2019
4382 Clouds 19 1016 88 10000 10.3 170 18:56 14.11.2019
4383 Clouds 19 1016 88 10000 10.3 170 18:38 14.11.2019
4384 Clouds 20 1016 77 10000 11.3 180 18:20 14.11.2019
4385 Clouds 20 1016 77 10000 11.3 180 18:20 14.11.2019
4386 Clouds 20 1016 77 10000 11.3 180 17:55 14.11.2019
4387 Clouds 20 1016 77 10000 11.3 180 17:37 14.11.2019
4388 Clouds 20 1016 77 10000 11.3 180 17:18 14.11.2019
4389 Clouds 21 1016 68 10000 10.8 190 16:57 14.11.2019
4390 Clouds 21 1016 68 10000 10.8 190 16:36 14.11.2019
4391 Clouds 21 1016 68 10000 10.8 190 16:18 14.11.2019
4392 Clouds 22 1016 68 10000 11.8 180 15:54 14.11.2019
4393 Clouds 22 1016 56 10000 11.3 170 15:36 14.11.2019
4394 Clouds 23 1016 56 10000 11.3 170 15:18 14.11.2019
4395 Clouds 23 1016 56 10000 11.3 170 14:43 14.11.2019
4396 Clouds 23 1016 56 10000 11.3 170 14:22 14.11.2019
4397 Clouds 24 1017 60 10000 11.3 170 13:56 14.11.2019
4398 Clouds 23 1017 60 10000 11.3 170 13:37 14.11.2019
4399 Clouds 23 1017 60 10000 11.3 170 13:19 14.11.2019
4400 Clouds 24 1017 53 10000 10.8 170 12:46 14.11.2019
4401 Clouds 24 1017 53 10000 10.8 170 12:26 14.11.2019
4402 Clouds 24 1017 53 10000 10.3 170 11:59 14.11.2019
4403 Clouds 24 1017 53 10000 10.3 170 11:38 14.11.2019
4404 Clouds 24 1017 53 10000 10.3 170 11:19 14.11.2019
4405 Clouds 24 1017 49 10000 9.3 170 10:58 14.11.2019
4406 Clouds 24 1017 49 10000 9.3 170 10:38 14.11.2019
4407 Clouds 24 1017 49 10000 9.3 170 10:19 14.11.2019
4408 Clouds 22 1017 53 10000 8.7 160 09:56 14.11.2019
4409 Clouds 22 1017 53 10000 8.7 160 09:37 14.11.2019
4410 Clouds 22 1017 53 10000 8.7 160 09:18 14.11.2019
4411 Clouds 21 1017 52 10000 12.3 160 08:46 14.11.2019
4412 Clouds 21 1017 52 10000 12.3 160 08:25 14.11.2019
4413 Clouds 20 1017 56 10000 12.3 160 07:43 14.11.2019
4414 Clouds 20 1017 56 10000 12.3 160 07:25 14.11.2019
4415 Clouds 18 1019 69 0 6.2 147 06:55 14.11.2019
4416 Clouds 18 1019 69 0 6.2 147 06:37 14.11.2019
4417 Clouds 17 1016 67 10000 10.3 170 06:18 14.11.2019
4418 Clouds 17 1015 72 10000 11.3 160 04:40 14.11.2019
4419 Clouds 17 1016 72 10000 10.8 150 03:52 14.11.2019
4420 Clouds 18 1016 63 10000 13.4 160 02:41 14.11.2019
4421 Clouds 18 1016 63 10000 11.3 150 01:41 14.11.2019
4422 Clouds 18 1016 63 10000 11.3 150 01:20 14.11.2019
4423 Clouds 17 1016 63 10000 8.2 150 00:43 14.11.2019
4424 Clouds 17 1016 63 10000 8.2 150 00:43 14.11.2019
4425 Clouds 18 1017 59 10000 10.8 150 00:25 14.11.2019
4426 Clouds 18 1017 59 10000 10.8 150 23:40 13.11.2019
4427 Clear 18 1017 59 10000 13.4 160 23:21 13.11.2019
4428 Clear 18 1017 59 10000 13.4 160 22:56 13.11.2019
4429 Clear 18 1017 59 10000 13.4 160 22:38 13.11.2019
4430 Clear 18 1017 63 10000 12.9 150 22:20 13.11.2019
4431 Clear 18 1017 63 10000 12.9 150 21:55 13.11.2019
4432 Clear 19 1017 63 10000 12.9 150 21:37 13.11.2019
4433 Clear 19 1017 63 10000 12.9 150 21:19 13.11.2019
4434 Clear 19 1017 59 10000 12.3 160 20:56 13.11.2019
4435 Clear 19 1017 59 10000 12.3 160 20:37 13.11.2019
4436 Clear 19 1017 59 10000 12.3 160 20:18 13.11.2019
4437 Clear 19 1017 63 10000 8.7 160 19:44 13.11.2019
4438 Clear 19 1017 63 10000 8.7 160 19:20 13.11.2019
4439 Clear 20 1016 49 10000 9.3 150 18:58 13.11.2019
4440 Clear 20 1016 49 10000 9.3 150 18:39 13.11.2019
4441 Clear 20 1016 49 10000 9.3 150 18:21 13.11.2019
4442 Clear 21 1016 53 10000 9.8 150 17:58 13.11.2019
4443 Clear 21 1015 56 10000 11.3 170 17:40 13.11.2019
4444 Clear 22 1015 56 10000 11.3 170 17:21 13.11.2019
4445 Clear 23 1015 47 10000 10.3 150 16:58 13.11.2019
4446 Clear 23 1015 47 10000 10.3 150 16:40 13.11.2019
4447 Clouds 24 1015 47 10000 11.3 150 16:21 13.11.2019
4448 Clouds 25 1015 47 10000 11.3 150 15:58 13.11.2019
4449 Clouds 25 1015 47 10000 11.3 150 15:39 13.11.2019
4450 Clouds 26 1015 47 10000 11.3 150 15:20 13.11.2019
4451 Clouds 26 1015 44 10000 10.8 140 14:43 13.11.2019
4452 Clouds 27 1015 44 10000 9.8 140 14:23 13.11.2019
4453 Clouds 26 1015 44 10000 9.3 140 13:58 13.11.2019
4454 Clouds 26 1015 44 10000 9.3 140 13:37 13.11.2019
4455 Clouds 27 1015 44 10000 9.3 140 13:18 13.11.2019
4456 Clear 27 1016 39 0 7.6 140 12:55 13.11.2019
4457 Clouds 26 1016 39 10000 7.7 140 12:37 13.11.2019
4458 Clouds 26 1016 39 10000 7.7 140 12:19 13.11.2019
4459 Clouds 25 1016 39 10000 7.7 140 11:41 13.11.2019
4460 Clouds 25 1016 39 10000 7.7 140 11:21 13.11.2019
4461 Clear 25 1016 44 10000 5.7 150 10:58 13.11.2019
4462 Clear 25 1016 44 10000 5.7 150 10:40 13.11.2019
4463 Clear 25 1016 44 10000 5.7 150 10:20 13.11.2019
4464 Clouds 24 1016 44 10000 6.7 130 09:57 13.11.2019
4465 Clouds 24 1016 44 10000 6.7 130 09:38 13.11.2019
4466 Clouds 24 1016 44 10000 6.7 130 09:20 13.11.2019
4467 Clouds 24 1017 44 10000 7.7 140 08:39 13.11.2019
4468 Clouds 24 1017 44 10000 7.7 140 08:39 13.11.2019
4469 Clouds 22 1017 44 10000 7.7 140 08:20 13.11.2019
4470 Clouds 21 1017 53 10000 6.2 140 07:43 13.11.2019
4471 Clouds 21 1017 53 10000 6.2 140 07:21 13.11.2019
4472 Clouds 21 1016 64 10000 4.6 150 06:47 13.11.2019
4473 Clouds 20 1016 64 10000 4.6 150 06:19 13.11.2019
4474 Clouds 20 1016 64 10000 4.6 150 06:19 13.11.2019
4475 Clouds 20 1016 64 10000 4.6 150 06:19 13.11.2019
4476 Clouds 19 1015 82 10000 7.7 140 05:57 13.11.2019
4477 Clouds 18 1015 82 10000 7.7 140 05:38 13.11.2019
4478 Clouds 17 1015 82 10000 8.2 150 04:44 13.11.2019
4479 Clouds 17 1016 72 10000 8.2 160 03:23 13.11.2019
4480 Clear 18 1016 82 10000 8.7 160 01:46 13.11.2019
4481 Clear 18 1016 82 10000 8.7 160 01:18 13.11.2019
4482 Clouds 18 1016 77 10000 7.7 170 00:37 13.11.2019
4483 Clouds 19 1015 72 10000 9.3 150 23:54 12.11.2019
4484 Clouds 19 1015 72 10000 9.3 150 23:36 12.11.2019
4485 Clouds 19 1015 72 10000 9.3 150 23:18 12.11.2019
4486 Clear 19 1023 79 0 1.79 138 22:40 12.11.2019
4487 Clouds 19 1015 72 10000 7.7 150 22:18 12.11.2019
4488 Clouds 19 1015 72 10000 7.7 150 21:54 12.11.2019
4489 Clouds 19 1015 72 10000 7.7 150 21:36 12.11.2019
4490 Clouds 19 1015 72 10000 7.7 150 21:18 12.11.2019
4491 Clouds 19 1015 77 10000 7.2 160 20:54 12.11.2019
4492 Clouds 19 1015 77 10000 7.2 160 20:36 12.11.2019
4493 Clouds 19 1015 77 10000 7.2 160 20:18 12.11.2019
4494 Clouds 19 1015 77 10000 7.7 160 19:54 12.11.2019
4495 Clouds 19 1015 77 10000 7.7 160 19:36 12.11.2019
4496 Clouds 19 1015 77 10000 7.7 160 19:18 12.11.2019
4497 Clouds 20 1014 77 10000 8.7 160 18:54 12.11.2019
4498 Clouds 20 1014 77 10000 8.7 160 18:36 12.11.2019
4499 Clouds 20 1014 77 10000 8.7 160 18:18 12.11.2019
4500 Clouds 21 1014 73 10000 10.3 170 17:55 12.11.2019
4501 Clouds 21 1014 73 10000 10.3 170 17:36 12.11.2019
4502 Clouds 22 1014 73 10000 10.3 170 17:18 12.11.2019
4503 Clouds 22 1014 64 10000 10.3 170 16:41 12.11.2019
4504 Clouds 23 1014 64 10000 10.3 170 16:23 12.11.2019
4505 Clouds 23 1013 64 10000 10.3 170 15:55 12.11.2019
4506 Clouds 24 1013 64 10000 10.3 170 15:37 12.11.2019
4507 Clouds 24 1013 64 10000 10.3 170 15:18 12.11.2019
4508 Clouds 25 1014 57 10000 10.8 180 14:41 12.11.2019
4509 Clouds 25 1014 57 10000 10.8 180 14:20 12.11.2019
4510 Clouds 26 1013 50 10000 10.8 160 13:58 12.11.2019
4511 Clouds 26 1013 50 10000 10.8 160 13:39 12.11.2019
4512 Clouds 26 1013 53 10000 7.7 170 13:19 12.11.2019
4513 Clouds 26 1013 53 10000 7.7 170 12:58 12.11.2019
4514 Clouds 26 1013 53 10000 7.7 170 12:39 12.11.2019
4515 Clouds 26 1013 53 10000 7.7 170 12:18 12.11.2019
4516 Clouds 26 1013 53 10000 9.8 150 11:43 12.11.2019
4517 Clouds 25 1014 57 10000 8.2 150 11:23 12.11.2019
4518 Clouds 24 1014 57 10000 8.2 150 10:58 12.11.2019
4519 Clouds 24 1014 57 10000 8.2 150 10:40 12.11.2019
4520 Clouds 24 1014 57 10000 8.2 150 10:22 12.11.2019
4521 Clouds 23 1014 68 10000 8.7 160 09:59 12.11.2019
4522 Clouds 23 1014 68 10000 8.7 160 09:39 12.11.2019
4523 Clouds 22 1014 68 10000 8.7 160 09:19 12.11.2019
4524 Clouds 22 1014 73 10000 9.3 180 08:49 12.11.2019
4525 Clouds 21 1014 73 10000 9.3 180 08:29 12.11.2019
4526 Clouds 20 1013 77 10000 6.7 170 07:42 12.11.2019
4527 Clouds 19 1013 93 10000 4.6 150 07:24 12.11.2019
4528 Clouds 18 1013 88 10000 7.2 150 06:53 12.11.2019
4529 Clouds 18 1013 88 10000 7.2 150 06:26 12.11.2019
4530 Clouds 18 1012 88 10000 5.7 170 05:53 12.11.2019
4531 Clouds 18 1012 88 10000 4.6 170 04:56 12.11.2019
4532 Clouds 18 1012 88 10000 1.5 0 04:35 12.11.2019
4533 Clouds 18 1012 88 10000 1.5 0 02:39 12.11.2019
4534 Clouds 18 1012 88 10000 1.5 0 01:27 12.11.2019
4535 Clouds 17 1012 93 10000 2.1 310 00:57 12.11.2019
4536 Clouds 18 1019 93 0 1.4 149 00:39 12.11.2019
4537 Clouds 17 1012 93 10000 2.6 0 23:56 11.11.2019
4538 Clouds 17 1012 93 10000 2.6 0 23:38 11.11.2019
4539 Clouds 17 1012 93 10000 2.6 0 23:18 11.11.2019
4540 Clouds 17 1012 93 10000 2.1 330 22:39 11.11.2019
4541 Clouds 17 1012 93 10000 2.1 330 22:20 11.11.2019
4542 Clouds 18 1012 88 10000 3.1 340 21:58 11.11.2019
4543 Clouds 18 1012 88 10000 3.1 340 21:39 11.11.2019
4544 Clouds 18 1012 88 10000 3.1 220 21:21 11.11.2019
4545 Clouds 18 1011 91 0 0.89 0 20:59 11.11.2019
4546 Clouds 18 1011 91 0 0.89 0 20:40 11.11.2019
4547 Clouds 18 1011 88 10000 3.6 240 20:19 11.11.2019
4548 Clouds 18 1011 88 10000 3.6 240 19:56 11.11.2019
4549 Clouds 18 1011 88 10000 3.6 240 19:37 11.11.2019
4550 Clouds 18 1011 88 10000 3.6 240 19:18 11.11.2019
4551 Clouds 19 1011 82 10000 3.1 200 18:41 11.11.2019
4552 Clouds 19 1011 82 10000 3.1 200 18:21 11.11.2019
4553 Clouds 19 1011 77 10000 3.1 170 17:46 11.11.2019
4554 Clouds 19 1011 77 10000 3.1 170 17:28 11.11.2019
4555 Clouds 20 1011 72 10000 4.6 180 16:59 11.11.2019
4556 Clouds 20 1011 72 10000 4.6 180 16:39 11.11.2019
4557 Clouds 20 1011 72 10000 4.6 180 16:20 11.11.2019
4558 Clouds 19 1011 77 10000 4.6 170 15:55 11.11.2019
4559 Clouds 19 1011 77 10000 4.6 170 15:37 11.11.2019
4560 Clouds 19 1011 77 10000 4.6 170 15:19 11.11.2019
4561 Clouds 20 1011 77 10000 4.1 170 14:42 11.11.2019
4562 Clouds 20 1011 77 10000 4.1 170 14:24 11.11.2019
4563 Clouds 20 1012 77 10000 4.6 190 13:57 11.11.2019
4564 Clouds 20 1012 77 10000 4.6 190 13:37 11.11.2019
4565 Clouds 20 1012 77 10000 4.6 190 13:19 11.11.2019
4566 Clouds 20 1012 72 10000 2.6 280 12:56 11.11.2019
4567 Clouds 21 1012 72 10000 2.6 280 12:38 11.11.2019
4568 Clouds 20 1012 72 10000 2.6 280 12:19 11.11.2019
4569 Clouds 20 1012 72 10000 2.1 310 11:41 11.11.2019
4570 Clouds 19 1012 72 10000 2.1 310 11:21 11.11.2019
4571 Clouds 20 1012 72 10000 3.6 310 10:55 11.11.2019
4572 Clouds 20 1012 72 10000 3.6 310 10:37 11.11.2019
4573 Clouds 20 1012 72 10000 3.6 310 10:18 11.11.2019
4574 Clouds 19 1012 68 10000 2.1 320 09:42 11.11.2019
4575 Clouds 19 1012 68 10000 2.1 320 09:21 11.11.2019
4576 Clouds 19 1012 72 10000 3.1 330 08:43 11.11.2019
4577 Clouds 18 1012 82 10000 3.1 350 08:23 11.11.2019
4578 Clouds 18 1012 82 10000 3.1 350 07:58 11.11.2019
4579 Clouds 18 1012 82 10000 3.1 350 07:39 11.11.2019
4580 Clouds 18 1012 82 10000 3.1 350 07:39 11.11.2019
4581 Clouds 18 1012 82 10000 3.1 350 07:20 11.11.2019
4582 Clouds 18 1012 88 10000 3.1 360 06:57 11.11.2019
4583 Clouds 17 1012 88 10000 3.1 360 06:38 11.11.2019
4584 Clouds 17 1012 88 10000 3.1 360 06:20 11.11.2019
4585 Clouds 17 1011 88 10000 4.6 340 05:48 11.11.2019
4586 Clouds 17 1010 88 10000 4.6 330 03:56 11.11.2019
4587 Clouds 17 1010 93 10000 5.7 330 02:49 11.11.2019
4588 Clouds 17 1010 93 10000 5.7 330 02:18 11.11.2019
4589 Clear 18 1017 93 0 1.79 38 01:37 11.11.2019
4590 Clouds 18 1010 77 10000 3.6 320 00:58 11.11.2019
4591 Clouds 18 1010 77 10000 3.6 320 00:40 11.11.2019
4592 Rain 19 1011 77 9000 3.1 280 23:58 10.11.2019
4593 Clouds 19 1018 84 0 1.34 0 23:38 10.11.2019
4594 Clear 19 1011 77 10000 4.1 340 23:19 10.11.2019
4595 Clear 19 1011 77 10000 4.1 340 22:57 10.11.2019
4596 Clear 19 1011 77 10000 4.1 340 22:38 10.11.2019
4597 Clear 20 1011 72 10000 1.5 0 22:20 10.11.2019
4598 Clear 20 1011 72 10000 1.5 0 21:57 10.11.2019
4599 Clear 20 1011 72 10000 1.5 0 21:38 10.11.2019
4600 Clear 20 1011 72 10000 1.5 0 21:20 10.11.2019
4601 Clear 20 1011 72 10000 1.5 0 21:20 10.11.2019
4602 Clear 19 1011 77 10000 1.5 300 20:42 10.11.2019
4603 Clouds 20 1011 77 10000 1.5 300 20:22 10.11.2019
4604 Clouds 20 1011 77 10000 4.1 330 19:56 10.11.2019
4605 Clouds 20 1011 77 10000 4.1 330 19:38 10.11.2019
4606 Clouds 20 1011 77 10000 4.1 330 19:38 10.11.2019
4607 Clouds 20 1011 77 10000 4.1 330 19:38 10.11.2019
4608 Clouds 20 1011 77 10000 4.1 330 19:19 10.11.2019
4609 Clouds 20 1010 72 10000 6.2 330 18:58 10.11.2019
4610 Clouds 20 1010 72 10000 6.2 330 18:58 10.11.2019
4611 Clouds 20 1010 72 10000 6.2 330 18:40 10.11.2019
4612 Clouds 20 1010 72 10000 6.2 330 18:20 10.11.2019
4613 Clouds 20 1010 72 10000 6.2 330 18:20 10.11.2019
4614 Clouds 23 1010 57 10000 4.1 260 17:57 10.11.2019
4615 Clouds 23 1010 57 10000 4.1 260 17:39 10.11.2019
4616 Clouds 23 1010 57 10000 4.1 260 17:20 10.11.2019
4617 Clouds 23 1010 60 10000 5.1 220 16:58 10.11.2019
4618 Clouds 23 1010 60 10000 5.1 220 16:40 10.11.2019
4619 Clouds 23 1010 60 10000 5.1 220 16:21 10.11.2019
4620 Clouds 23 1010 53 10000 5.1 230 15:56 10.11.2019
4621 Clouds 24 1010 53 10000 5.1 230 15:37 10.11.2019
4622 Clouds 24 1010 53 10000 5.1 230 15:37 10.11.2019
4623 Clouds 24 1010 53 10000 5.1 230 15:18 10.11.2019
4624 Clouds 24 1011 50 10000 4.6 310 14:55 10.11.2019
4625 Clouds 24 1011 53 10000 5.1 320 14:36 10.11.2019
4626 Clouds 24 1011 53 10000 5.1 320 14:18 10.11.2019
4627 Clouds 24 1011 53 10000 5.1 320 13:42 10.11.2019
4628 Clouds 24 1011 53 10000 5.1 320 13:21 10.11.2019
4629 Clouds 24 1012 57 10000 4.1 310 12:58 10.11.2019
4630 Clouds 24 1012 57 10000 4.1 310 12:40 10.11.2019
4631 Clouds 24 1012 57 10000 4.1 310 12:18 10.11.2019
4632 Clouds 23 1013 60 10000 3.1 320 11:54 10.11.2019
4633 Clouds 23 1013 60 10000 3.1 320 11:36 10.11.2019
4634 Clouds 23 1013 60 10000 3.1 320 11:18 10.11.2019
4635 Clouds 22 1013 68 10000 5.7 320 10:42 10.11.2019
4636 Clouds 22 1013 68 10000 5.7 320 10:20 10.11.2019
4637 Clouds 20 1013 72 10000 6.7 300 09:55 10.11.2019
4638 Clouds 20 1013 72 10000 6.7 300 09:37 10.11.2019
4639 Clouds 20 1013 72 10000 6.7 300 09:18 10.11.2019
4640 Clouds 20 1013 77 10000 4.6 320 08:39 10.11.2019
4641 Clouds 19 1013 77 10000 5.1 310 08:19 10.11.2019
4642 Clouds 19 1013 77 10000 5.1 310 08:19 10.11.2019
4643 Clouds 18 1013 77 10000 5.1 310 07:44 10.11.2019
4644 Clouds 18 1013 82 10000 3.6 310 07:25 10.11.2019
4645 Clouds 17 1013 93 10000 4.1 320 06:38 10.11.2019
4646 Clouds 17 1012 93 10000 4.1 320 05:51 10.11.2019
4647 Clouds 17 1012 77 10000 2.6 320 03:28 10.11.2019
4648 Clear 17 1012 72 10000 2.6 270 02:20 10.11.2019
4649 Clear 18 1012 72 10000 2.6 270 01:20 10.11.2019
4650 Clear 18 1012 63 10000 2.6 230 00:48 10.11.2019
4651 Clear 18 1012 72 10000 3.1 260 23:59 09.11.2019
4652 Clear 18 1012 72 10000 3.1 260 23:40 09.11.2019
4653 Clear 19 1012 72 10000 3.1 260 23:19 09.11.2019
4654 Clear 19 1012 68 10000 3.6 290 22:42 09.11.2019
4655 Clear 19 1012 68 10000 3.6 290 22:22 09.11.2019
4656 Clear 19 1012 63 10000 1.5 190 21:58 09.11.2019
4657 Clear 19 1012 63 10000 1.5 190 21:39 09.11.2019
4658 Clear 19 1012 63 10000 1.5 190 21:20 09.11.2019
4659 Clear 20 1012 64 10000 3.6 170 20:56 09.11.2019
4660 Clear 20 1012 64 10000 3.6 170 20:37 09.11.2019
4661 Clear 20 1012 64 10000 3.6 170 20:18 09.11.2019
4662 Clear 21 1012 60 10000 5.1 140 19:41 09.11.2019
4663 Clear 21 1012 60 10000 5.1 140 19:22 09.11.2019
4664 Clear 22 1011 56 10000 7.2 140 18:58 09.11.2019
4665 Clear 21 1011 56 10000 7.2 140 18:38 09.11.2019
4666 Clear 22 1011 56 10000 7.2 140 18:18 09.11.2019
4667 Clear 24 1011 47 10000 8.2 140 17:43 09.11.2019
4668 Clear 26 1011 47 10000 8.2 140 17:23 09.11.2019
4669 Clear 27 1011 39 10000 8.2 140 16:57 09.11.2019
4670 Clear 27 1011 39 10000 8.2 140 16:39 09.11.2019
4671 Clear 27 1011 39 10000 8.2 140 16:19 09.11.2019
4672 Clear 27 1011 37 10000 8.7 140 15:42 09.11.2019
4673 Clear 27 1011 37 10000 8.7 140 15:24 09.11.2019
4674 Clear 29 1011 32 10000 7.2 190 14:57 09.11.2019
4675 Clear 29 1011 32 10000 7.2 190 14:39 09.11.2019
4676 Clouds 29 1011 32 10000 7.2 190 14:18 09.11.2019
4677 Clouds 29 1012 32 10000 7.7 180 13:55 09.11.2019
4678 Clear 30 1012 32 10000 7.7 180 13:36 09.11.2019
4679 Clear 29 1012 32 10000 7.7 180 13:18 09.11.2019
4680 Clear 29 1012 36 10000 8.2 160 12:42 09.11.2019
4681 Clear 28 1012 36 10000 8.2 160 12:23 09.11.2019
4682 Clear 29 1013 34 10000 8.7 170 11:56 09.11.2019
4683 Clear 29 1013 34 10000 8.7 170 11:38 09.11.2019
4684 Clouds 29 1013 34 10000 8.7 170 11:18 09.11.2019
4685 Clouds 28 1013 36 10000 3.6 170 10:41 09.11.2019
4686 Clouds 29 1013 36 10000 3.6 170 10:19 09.11.2019
4687 Clouds 28 1013 36 10000 3.6 170 10:19 09.11.2019
4688 Clouds 27 1013 41 10000 2.1 190 09:56 09.11.2019
4689 Clouds 27 1013 41 10000 2.1 190 09:56 09.11.2019
4690 Clouds 26 1013 41 10000 2.1 190 09:38 09.11.2019
4691 Clouds 25 1013 41 10000 2.1 190 09:18 09.11.2019
4692 Clouds 23 1013 49 10000 1.5 0 08:43 09.11.2019
4693 Clouds 23 1013 49 10000 1.5 0 08:43 09.11.2019
4694 Clouds 22 1013 49 10000 1.5 0 08:24 09.11.2019
4695 Clouds 20 1013 56 10000 2.6 200 07:47 09.11.2019
4696 Clouds 21 1013 56 10000 2.6 200 07:24 09.11.2019
4697 Clouds 20 1013 63 10000 3.1 240 06:51 09.11.2019
4698 Clouds 19 1013 63 10000 3.1 240 06:32 09.11.2019
4699 Clouds 18 1012 63 10000 3.6 230 05:54 09.11.2019
4700 Clouds 18 1012 63 10000 3.6 230 05:34 09.11.2019
4701 Clouds 18 1012 63 10000 2.6 210 03:57 09.11.2019
4702 Clouds 18 1012 63 10000 2.6 210 03:57 09.11.2019
4703 Clouds 19 1021 43 10000 2.6 190 02:45 09.11.2019
4704 Clouds 19 1021 43 10000 2.6 190 02:22 09.11.2019
4705 Clouds 18 1014 67 10000 4.1 140 00:57 09.11.2019
4706 Clouds 18 1014 67 10000 4.1 140 00:39 09.11.2019
4707 Clouds 18 1014 67 10000 4.1 140 00:20 09.11.2019
4708 Clouds 18 1015 63 10000 3.1 150 23:40 08.11.2019
4709 Clouds 18 1016 63 10000 3.1 150 23:21 08.11.2019
4710 Clouds 19 1023 73 0 2.24 220 22:49 08.11.2019
4711 Clouds 19 1016 59 10000 5.1 140 22:22 08.11.2019
4712 Clouds 19 1016 59 10000 5.1 140 21:58 08.11.2019
4713 Clouds 19 1016 59 10000 5.1 140 21:40 08.11.2019
4714 Clouds 19 1016 59 10000 5.7 160 21:22 08.11.2019
4715 Clouds 19 1016 59 10000 5.7 160 20:54 08.11.2019
4716 Clouds 19 1016 59 10000 5.7 160 20:36 08.11.2019
4717 Clouds 19 1016 59 10000 5.7 160 20:18 08.11.2019
4718 Clouds 20 1016 59 10000 8.2 140 19:40 08.11.2019
4719 Clouds 20 1016 56 10000 9.3 140 19:19 08.11.2019
4720 Clouds 21 1016 56 10000 9.3 140 18:56 08.11.2019
4721 Clouds 21 1016 56 10000 9.3 140 18:38 08.11.2019
4722 Clouds 21 1016 56 10000 9.3 140 18:20 08.11.2019
4723 Clouds 21 1017 56 10000 9.3 160 17:56 08.11.2019
4724 Clouds 21 1017 56 10000 9.3 160 17:38 08.11.2019
4725 Clouds 21 1017 56 10000 9.3 160 17:20 08.11.2019
4726 Clouds 21 1018 60 10000 9.3 180 16:58 08.11.2019
4727 Clouds 21 1018 60 10000 9.3 180 16:58 08.11.2019
4728 Clouds 21 1013 23 0 2.24 181 16:40 08.11.2019
4729 Clouds 21 1013 23 0 2.24 181 16:40 08.11.2019
4730 Clouds 22 1018 56 10000 10.3 170 16:20 08.11.2019
4731 Clouds 22 1018 56 10000 10.3 170 15:59 08.11.2019
4732 Clouds 23 1018 56 10000 10.3 170 15:40 08.11.2019
4733 Clouds 23 1019 53 10000 9.3 180 15:22 08.11.2019
4734 Clouds 23 1019 53 10000 9.3 180 15:22 08.11.2019
4735 Clouds 24 1019 53 10000 9.3 180 14:56 08.11.2019
4736 Clouds 24 1019 53 10000 9.3 180 14:37 08.11.2019
4737 Clouds 24 1019 53 10000 9.3 180 14:37 08.11.2019
4738 Clouds 24 1019 53 10000 9.3 180 14:19 08.11.2019
4739 Clouds 25 1019 49 10000 7.7 180 13:58 08.11.2019
4740 Clouds 25 1019 49 10000 7.7 180 13:39 08.11.2019
4741 Clouds 23 1019 46 10000 7.7 200 13:20 08.11.2019
4742 Clouds 24 1019 46 10000 7.7 200 12:44 08.11.2019
4743 Clouds 25 1019 46 10000 7.7 200 12:26 08.11.2019
4744 Clouds 24 1020 40 10000 6.2 190 11:58 08.11.2019
4745 Clouds 24 1020 40 10000 6.2 190 11:40 08.11.2019
4746 Clear 23 1020 40 10000 6.2 190 11:20 08.11.2019
4747 Clear 23 1021 37 10000 3.1 200 10:57 08.11.2019
4748 Clear 22 1021 37 10000 3.1 200 10:39 08.11.2019
4749 Clear 22 1021 37 10000 3.1 200 10:21 08.11.2019
4750 Clear 21 1021 43 10000 2.6 250 09:56 08.11.2019
4751 Clear 21 1021 43 10000 2.6 250 09:37 08.11.2019
4752 Clear 21 1021 43 10000 2.6 250 09:18 08.11.2019
4753 Clear 20 1021 42 10000 1.5 0 08:44 08.11.2019
4754 Clear 20 1021 42 10000 1.5 0 08:20 08.11.2019
4755 Clear 18 1021 55 10000 5.7 160 07:43 08.11.2019
4756 Clear 18 1021 55 10000 5.7 160 07:23 08.11.2019
4757 Clouds 16 1021 63 10000 7.2 140 06:56 08.11.2019
4758 Clouds 16 1021 63 10000 7.2 140 06:37 08.11.2019
4759 Clouds 16 1021 63 10000 7.2 140 06:19 08.11.2019
4760 Clear 15 1019 67 10000 8.2 160 05:26 08.11.2019
4761 Clear 15 1020 67 10000 8.2 160 04:28 08.11.2019
4762 Clear 14 1020 76 10000 4.1 170 03:42 08.11.2019
4763 Clear 14 1020 76 10000 4.1 170 03:42 08.11.2019
4764 Clear 14 1020 76 10000 4.1 170 03:42 08.11.2019
4765 Clear 14 1020 76 10000 4.1 170 03:18 08.11.2019
4766 Clouds 15 1021 77 10000 4.6 160 01:54 08.11.2019
4767 Clouds 15 1021 77 10000 5.1 180 01:35 08.11.2019
4768 Clouds 16 1021 77 10000 5.1 180 00:46 08.11.2019
4769 Clouds 14 1022 82 10000 3.6 170 00:22 08.11.2019
4770 Clouds 14 1022 82 10000 3.6 170 23:49 07.11.2019
4771 Clouds 14 1022 87 10000 3.6 170 23:28 07.11.2019
4772 Clouds 14 1022 87 10000 3.6 170 22:58 07.11.2019
4773 Clouds 14 1022 87 10000 3.6 170 22:40 07.11.2019
4774 Clouds 14 1022 87 10000 3.6 170 22:20 07.11.2019
4775 Clouds 15 1022 77 10000 3.6 200 21:40 07.11.2019
4776 Clouds 15 1022 77 10000 3.6 200 21:21 07.11.2019
4777 Clouds 15 1022 77 10000 3.6 200 21:21 07.11.2019
4778 Clouds 15 1022 76 10000 3.6 190 20:59 07.11.2019
4779 Clouds 15 1022 76 10000 3.6 190 20:59 07.11.2019
4780 Clouds 14 1022 76 10000 3.6 190 20:41 07.11.2019
4781 Clouds 15 1022 76 10000 3.6 190 20:23 07.11.2019
4782 Clouds 15 1021 67 10000 4.6 190 19:59 07.11.2019
4783 Clouds 15 1021 67 10000 4.6 190 19:40 07.11.2019
4784 Clouds 16 1021 67 10000 4.6 190 19:21 07.11.2019
4785 Clouds 16 1020 63 10000 5.1 180 18:58 07.11.2019
4786 Clouds 16 1020 63 10000 5.1 180 18:58 07.11.2019
4787 Clouds 16 1020 63 10000 5.1 180 18:39 07.11.2019
4788 Clouds 16 1020 63 10000 5.1 180 18:39 07.11.2019
4789 Clouds 16 1020 63 10000 5.1 180 18:39 07.11.2019
4790 Clouds 17 1020 63 10000 5.1 180 18:19 07.11.2019
4791 Clouds 17 1020 55 10000 5.1 180 17:59 07.11.2019
4792 Clouds 18 1020 55 10000 5.1 180 17:38 07.11.2019
4793 Clouds 18 1020 55 10000 5.1 180 17:20 07.11.2019
4794 Clouds 18 1019 52 10000 5.1 210 16:56 07.11.2019
4795 Clouds 19 1019 52 10000 5.1 210 16:37 07.11.2019
4796 Clouds 19 1019 52 10000 5.1 210 16:19 07.11.2019
4797 Clouds 19 1019 52 10000 4.1 230 15:54 07.11.2019
4798 Clouds 19 1019 52 10000 4.1 230 15:36 07.11.2019
4799 Clouds 19 1019 52 10000 4.1 230 15:18 07.11.2019
4800 Clouds 18 1019 55 10000 3.1 240 14:41 07.11.2019
4801 Clouds 18 1019 55 10000 3.1 240 14:23 07.11.2019
4802 Clouds 18 1019 59 10000 4.1 260 13:56 07.11.2019
4803 Clouds 18 1019 72 10000 3.1 330 13:37 07.11.2019
4804 Clouds 17 1019 72 10000 3.1 330 13:19 07.11.2019
4805 Clouds 17 1019 72 10000 3.1 330 12:57 07.11.2019
4806 Clouds 18 1019 72 10000 3.1 330 12:39 07.11.2019
4807 Clouds 18 1019 72 10000 3.1 330 12:19 07.11.2019
4808 Drizzle 16 1019 82 6000 6.2 280 11:43 07.11.2019
4809 Rain 16 1019 77 10000 4.1 240 11:23 07.11.2019
4810 -273 0 0 0 0 0 10:57 07.11.2019
4811 Clouds 16 1018 63 10000 3.1 240 10:55 07.11.2019
4812 Rain 16 1018 73 0 2.68 293 10:37 07.11.2019
4813 Clouds 17 1018 55 10000 5.7 300 10:18 07.11.2019
4814 Clouds 17 1018 55 10000 5.7 300 09:42 07.11.2019
4815 Clouds 16 1018 55 10000 5.7 300 09:21 07.11.2019
4816 Clouds 17 1017 59 10000 2.6 250 08:49 07.11.2019
4817 Clouds 17 1017 59 10000 2.6 250 08:47 07.11.2019
4818 -273 0 0 0 0 0 08:46 07.11.2019
4819 Clouds 16 1017 59 10000 2.6 250 08:25 07.11.2019
4820 Clouds 16 1017 59 10000 2.6 250 08:25 07.11.2019
4821 Clouds 16 1017 62 10000 2.1 230 07:58 07.11.2019
4822 Clouds 16 1017 62 10000 2.1 230 07:40 07.11.2019
4823 Clouds 16 1017 62 10000 3.1 300 07:21 07.11.2019
4824 Clouds 15 1017 62 10000 3.1 300 06:47 07.11.2019
4825 Clouds 15 1017 62 10000 3.1 300 06:27 07.11.2019
4826 Clouds 15 1016 71 10000 4.1 330 05:51 07.11.2019
4827 Clouds 14 1016 71 10000 4.1 330 05:33 07.11.2019
4828 Clouds 15 1016 62 10000 4.1 250 04:57 07.11.2019
4829 Clouds 15 1016 62 10000 4.1 250 04:37 07.11.2019
4830 Rain 15 1015 76 10000 1.5 0 01:54 07.11.2019
4831 Rain 15 1016 67 9000 5.7 250 00:46 07.11.2019
4832 Clouds 15 1015 62 10000 4.1 320 00:19 07.11.2019
4833 Clouds 15 1015 62 10000 4.1 320 23:47 06.11.2019
4834 Clouds 16 1015 55 10000 5.1 300 23:21 06.11.2019
4835 Clouds 16 1015 55 10000 5.1 300 22:56 06.11.2019
4836 Clouds 15 1015 55 10000 5.1 300 22:37 06.11.2019
4837 Clouds 16 1015 55 10000 5.1 300 22:18 06.11.2019
4838 Clouds 16 1015 55 10000 5.1 300 22:18 06.11.2019
4839 Clouds 16 1015 59 10000 5.7 270 21:42 06.11.2019
4840 Clouds 16 1015 59 10000 5.7 270 21:21 06.11.2019
4841 Clouds 16 1015 63 10000 5.1 280 20:59 06.11.2019
4842 Clouds 16 1015 63 10000 5.1 280 20:40 06.11.2019
4843 Clouds 16 1015 63 10000 5.1 280 20:21 06.11.2019
4844 Clouds 16 1014 72 10000 4.6 320 19:59 06.11.2019
4845 Clouds 16 1014 72 10000 4.6 320 19:39 06.11.2019
4846 Clouds 16 1014 72 10000 4.6 320 19:21 06.11.2019
4847 Clouds 16 1013 72 10000 5.7 0 18:58 06.11.2019
4848 Clouds 16 1013 72 10000 5.7 0 18:39 06.11.2019
4849 Clouds 16 1013 72 10000 5.7 0 18:19 06.11.2019
4850 Clouds 17 1013 67 10000 8.2 300 17:57 06.11.2019
4851 Clouds 17 1013 67 10000 8.2 300 17:39 06.11.2019
4852 Clouds 17 1013 67 10000 8.2 300 17:21 06.11.2019
4853 Clouds 17 1012 77 10000 8.2 320 16:55 06.11.2019
4854 Clouds 17 1012 77 10000 8.2 320 16:37 06.11.2019
4855 Clouds 17 1012 77 10000 8.2 320 16:37 06.11.2019
4856 Clouds 17 1012 77 10000 8.2 320 16:18 06.11.2019
4857 Clouds 17 1012 77 10000 7.7 310 15:54 06.11.2019
4858 Clouds 17 1012 82 10000 8.2 300 15:36 06.11.2019
4859 Clouds 17 1012 82 10000 8.2 300 15:18 06.11.2019
4860 Clouds 18 1012 82 10000 8.2 300 14:55 06.11.2019
4861 Clouds 18 1012 82 10000 8.2 300 14:37 06.11.2019
4862 Clouds 18 1012 82 10000 8.2 300 14:37 06.11.2019
4863 Clouds 18 1012 82 10000 8.2 300 14:19 06.11.2019
4864 Clouds 19 1013 59 10000 7.2 300 13:40 06.11.2019
4865 Clouds 19 1012 68 10000 9.8 310 13:22 06.11.2019
4866 Clouds 18 1012 68 10000 9.8 310 12:58 06.11.2019
4867 Clouds 18 1012 68 10000 9.8 310 12:39 06.11.2019
4868 Clouds 18 1012 68 10000 9.8 310 12:39 06.11.2019
4869 Clouds 18 1012 68 10000 9.8 310 12:21 06.11.2019
4870 Clouds 20 1012 60 10000 9.8 310 11:58 06.11.2019
4871 Clouds 20 1012 60 10000 9.8 310 11:37 06.11.2019
4872 Clouds 20 1012 60 10000 9.8 310 11:18 06.11.2019
4873 Clouds 18 1012 72 10000 8.2 330 10:56 06.11.2019
4874 Clouds 19 1012 72 10000 8.2 330 10:38 06.11.2019
4875 Clouds 19 1012 72 10000 8.2 330 10:19 06.11.2019
4876 Clouds 19 1012 72 10000 8.2 320 09:44 06.11.2019
4877 Clouds 19 1012 72 10000 8.2 320 09:24 06.11.2019
4878 Clouds 18 1012 82 10000 7.7 340 08:59 06.11.2019
4879 Clouds 18 1012 82 10000 7.7 340 08:39 06.11.2019
4880 Clouds 17 1012 87 10000 6.7 340 08:20 06.11.2019
4881 Clouds 16 1012 87 10000 6.7 340 07:59 06.11.2019
4882 Clouds 17 1012 87 10000 6.7 340 07:40 06.11.2019
4883 Clouds 16 1012 87 10000 6.7 340 07:20 06.11.2019
4884 Clouds 16 1012 87 10000 4.6 350 06:44 06.11.2019
4885 Rain 16 1012 87 4000 13.4 330 06:24 06.11.2019
4886 Clouds 17 1011 88 10000 6.2 350 04:32 06.11.2019
4887 Clouds 17 1011 88 10000 5.7 340 02:22 06.11.2019
4888 Clouds 17 1012 88 10000 7.2 350 01:37 06.11.2019
4889 Clouds 18 1012 88 10000 7.2 350 00:39 06.11.2019
4890 Clouds 18 1012 88 10000 5.1 350 23:58 05.11.2019
4891 Clouds 18 1012 88 10000 5.1 350 23:38 05.11.2019
4892 Clouds 18 1012 88 10000 5.1 350 23:20 05.11.2019
4893 Clouds 18 1012 88 10000 4.6 340 22:45 05.11.2019
4894 Clouds 18 1012 88 10000 4.6 340 22:20 05.11.2019
4895 Clouds 18 1012 82 10000 5.1 350 21:59 05.11.2019
4896 Clouds 18 1012 82 10000 5.1 350 21:59 05.11.2019
4897 Clouds 18 1012 82 10000 5.1 350 21:41 05.11.2019
4898 Clouds 18 1012 82 10000 5.1 350 21:21 05.11.2019
4899 Clouds 18 1012 82 10000 6.2 340 20:58 05.11.2019
4900 Clouds 18 1012 82 10000 6.2 340 20:38 05.11.2019
4901 Clouds 18 1012 82 10000 6.2 340 20:20 05.11.2019
4902 Clouds 18 1012 82 10000 6.7 320 19:57 05.11.2019
4903 Clouds 18 1012 82 10000 6.7 320 19:38 05.11.2019
4904 Clouds 18 1012 82 10000 6.7 320 19:20 05.11.2019
4905 Clouds 19 1012 77 10000 7.7 320 18:57 05.11.2019
4906 Clouds 19 1012 77 10000 7.7 320 18:38 05.11.2019
4907 Clouds 19 1012 77 10000 7.7 320 18:19 05.11.2019
4908 Clouds 20 1012 72 10000 8.2 310 17:57 05.11.2019
4909 Clouds 20 1012 72 10000 8.2 310 17:38 05.11.2019
4910 Clouds 20 1012 72 10000 8.2 310 17:18 05.11.2019
4911 Clouds 21 1012 68 10000 9.3 310 16:42 05.11.2019
4912 Clouds 21 1012 68 10000 9.3 310 16:22 05.11.2019
4913 Clear 21 1012 73 10000 10.8 310 15:59 05.11.2019
4914 Clear 21 1012 73 10000 10.8 310 15:37 05.11.2019
4915 Clear 21 1012 73 10000 10.8 310 15:37 05.11.2019
4916 Clear 21 1012 73 10000 10.8 310 15:19 05.11.2019
4917 Clear 22 1012 64 10000 10.8 310 14:57 05.11.2019
4918 Clear 22 1012 64 10000 10.8 310 14:38 05.11.2019
4919 Clouds 23 1012 64 10000 10.8 310 14:19 05.11.2019
4920 Clouds 24 1012 43 10000 10.8 310 13:43 05.11.2019
4921 Clouds 24 1012 43 10000 10.8 310 13:24 05.11.2019
4922 Clouds 25 1012 33 10000 9.8 310 12:59 05.11.2019
4923 Clouds 25 1012 33 10000 9.8 310 12:39 05.11.2019
4924 Clouds 25 1012 33 10000 9.8 310 12:19 05.11.2019
4925 Clouds 26 1013 25 10000 7.7 320 11:54 05.11.2019
4926 Clouds 26 1013 25 10000 7.7 320 11:36 05.11.2019
4927 Clouds 26 1013 25 10000 7.7 320 11:36 05.11.2019
4928 Clouds 26 1013 25 10000 7.7 320 11:18 05.11.2019
4929 Clouds 26 1013 25 10000 7.7 320 11:18 05.11.2019
4930 Clouds 26 1013 29 10000 7.2 310 10:41 05.11.2019
4931 Clouds 25 1013 50 10000 6.7 310 10:23 05.11.2019
4932 Clouds 25 1014 57 10000 6.2 330 09:57 05.11.2019
4933 Clouds 25 1014 57 10000 6.2 330 09:38 05.11.2019
4934 Clouds 25 1014 57 10000 6.2 330 09:19 05.11.2019
4935 Clouds 26 1013 38 10000 4.6 340 08:54 05.11.2019
4936 Clouds 26 1013 38 10000 4.6 340 08:36 05.11.2019
4937 Clouds 24 1013 38 10000 4.6 340 08:18 05.11.2019
4938 Clouds 23 1014 56 10000 2.1 340 07:42 05.11.2019
4939 Clouds 22 1014 56 10000 2.1 340 07:23 05.11.2019
4940 Clouds 21 1014 68 10000 3.6 360 06:51 05.11.2019
4941 Clouds 18 1013 72 10000 1 0 05:52 05.11.2019
4942 Clouds 18 1013 72 10000 1 0 05:34 05.11.2019
4943 Clouds 18 1012 68 10000 5.7 330 04:47 05.11.2019
4944 Clouds 19 1012 68 10000 5.7 330 04:18 05.11.2019
4945 Clouds 18 1012 72 10000 7.7 320 03:23 05.11.2019
4946 Clouds 18 1011 77 10000 2.6 310 02:41 05.11.2019
4947 Clouds 18 1010 77 0 1.53 288 01:48 05.11.2019
4948 Clouds 18 1011 77 10000 2.6 90 00:41 05.11.2019
4949 Clouds 19 1011 77 10000 2.6 90 00:18 05.11.2019
4950 Clouds 19 1012 77 10000 2.1 110 23:41 04.11.2019
4951 Clouds 19 1012 77 10000 2.1 110 23:19 04.11.2019
4952 Clouds 19 1012 77 10000 1.5 280 22:55 04.11.2019
4953 Clouds 19 1013 77 10000 0.5 0 22:37 04.11.2019
4954 Clouds 20 1019 73 0 0.93 155 22:37 04.11.2019
4955 Clouds 19 1013 77 10000 0.5 0 22:19 04.11.2019
4956 Clouds 19 1013 77 10000 0.5 0 21:54 04.11.2019
4957 Clouds 19 1013 77 10000 0.5 0 21:36 04.11.2019
4958 Clouds 19 1013 77 10000 0.5 0 21:18 04.11.2019
4959 Clouds 19 1014 77 10000 4.6 230 20:55 04.11.2019
4960 Clouds 20 1014 77 10000 4.6 230 20:36 04.11.2019
4961 Clouds 19 1014 77 10000 4.6 230 20:18 04.11.2019
4962 Clouds 20 1014 72 10000 4.6 220 19:42 04.11.2019
4963 Clouds 20 1014 72 10000 4.6 220 19:23 04.11.2019
4964 Clouds 21 1014 64 10000 3.6 220 18:59 04.11.2019
4965 Clouds 22 1014 64 10000 3.6 220 18:40 04.11.2019
4966 Clouds 22 1014 64 10000 3.6 220 18:21 04.11.2019
4967 Clouds 24 1014 57 10000 4.1 210 17:58 04.11.2019
4968 Clouds 24 1014 57 10000 4.1 210 17:37 04.11.2019
4969 Clouds 24 1014 57 10000 4.1 210 17:19 04.11.2019
4970 Clouds 26 1014 53 10000 5.7 220 16:44 04.11.2019
4971 Clouds 26 1014 53 10000 5.7 220 16:25 04.11.2019
4972 Clouds 27 1014 50 10000 5.1 230 15:59 04.11.2019
4973 Clouds 27 1014 50 10000 5.1 230 15:59 04.11.2019
4974 Clouds 27 1014 50 10000 5.1 230 15:41 04.11.2019
4975 Clouds 27 1015 47 10000 5.1 230 15:21 04.11.2019
4976 Clouds 27 1015 47 10000 5.1 230 14:58 04.11.2019
4977 Clouds 28 1015 47 10000 5.1 230 14:40 04.11.2019
4978 Clouds 28 1015 47 10000 5.1 230 14:20 04.11.2019
4979 Clouds 29 1016 39 10000 6.2 230 13:58 04.11.2019
4980 Clouds 28 1016 39 10000 6.2 230 13:39 04.11.2019
4981 Clouds 29 1016 39 10000 6.2 230 13:21 04.11.2019
4982 Clouds 27 1016 44 10000 4.1 230 12:56 04.11.2019
4983 Clouds 27 1016 44 10000 4.1 230 12:38 04.11.2019
4984 Clouds 27 1016 44 10000 4.1 230 12:18 04.11.2019
4985 Clouds 26 1017 41 10000 2.6 230 11:42 04.11.2019
4986 Clouds 26 1017 41 10000 2.6 230 11:23 04.11.2019
4987 Clouds 25 1017 46 10000 4.1 190 10:58 04.11.2019
4988 Clouds 25 1017 46 10000 4.1 190 10:58 04.11.2019
4989 Clouds 24 1017 46 10000 4.1 190 10:39 04.11.2019
4990 Clouds 24 1017 46 10000 4.1 190 10:20 04.11.2019
4991 Clouds 23 1017 46 10000 4.6 190 09:45 04.11.2019
4992 Clouds 23 1017 46 10000 4.6 190 09:27 04.11.2019
4993 Clouds 21 1017 49 10000 3.6 210 08:57 04.11.2019
4994 Clouds 22 1017 49 10000 3.6 210 08:37 04.11.2019
4995 Clouds 21 1017 49 10000 3.6 210 08:18 04.11.2019
4996 Clouds 19 1017 59 10000 4.1 210 07:43 04.11.2019
4997 Clouds 19 1017 59 10000 4.1 210 07:21 04.11.2019
4998 Clouds 19 1017 59 10000 4.1 210 07:21 04.11.2019
4999 Clouds 18 1017 63 10000 4.1 140 06:56 04.11.2019
5000 Clouds 17 1017 63 10000 4.1 140 06:18 04.11.2019
5001 Clouds 16 1017 67 10000 6.2 170 05:46 04.11.2019
5002 Clouds 14 1017 67 10000 5.7 140 04:43 04.11.2019
5003 Clouds 15 1017 67 10000 5.7 140 04:21 04.11.2019
5004 Clouds 16 1018 63 10000 7.7 150 02:32 04.11.2019
5005 Clouds 15 1019 67 10000 7.2 170 01:21 04.11.2019
5006 Clouds 16 1019 67 10000 7.2 170 00:41 04.11.2019
5007 Clouds 15 1019 67 10000 7.2 170 00:20 04.11.2019
5008 Clouds 16 1020 67 10000 9.3 190 23:41 03.11.2019
5009 Clouds 16 1020 67 10000 9.3 190 23:21 03.11.2019
5010 Clouds 16 1020 67 10000 6.2 190 22:59 03.11.2019
5011 Clouds 16 1020 67 10000 6.2 190 22:41 03.11.2019
5012 Clouds 16 1020 67 10000 6.2 190 22:20 03.11.2019
5013 Clouds 16 1021 67 10000 6.7 190 21:58 03.11.2019
5014 Clouds 16 1021 67 10000 6.7 190 21:39 03.11.2019
5015 Clouds 16 1021 67 10000 6.7 190 21:20 03.11.2019
5016 Clouds 16 1018 69 0 0.89 131 20:55 03.11.2019
5017 Clouds 16 1021 63 10000 10.3 180 20:36 03.11.2019
5018 Clouds 16 1021 63 10000 10.3 180 20:18 03.11.2019
5019 Clouds 16 1021 63 10000 10.3 180 19:55 03.11.2019
5020 Clouds 16 1021 63 10000 10.3 180 19:37 03.11.2019
5021 Clouds 16 1021 63 10000 10.3 180 19:19 03.11.2019
5022 Clouds 16 1021 63 10000 10.8 180 18:39 03.11.2019
5023 Clouds 16 1021 63 10000 10.8 180 18:19 03.11.2019
5024 Clouds 17 1021 59 10000 11.3 180 17:58 03.11.2019
5025 Clouds 17 1021 59 10000 11.3 180 17:40 03.11.2019
5026 Clouds 17 1021 59 10000 11.3 180 17:40 03.11.2019
5027 Clouds 18 1021 59 10000 11.3 180 17:19 03.11.2019
5028 Clouds 18 1021 55 10000 10.3 180 16:55 03.11.2019
5029 Clouds 19 1021 55 10000 10.3 180 16:37 03.11.2019
5030 Clouds 19 1021 55 10000 10.3 180 16:19 03.11.2019
5031 Clouds 19 1021 52 10000 9.3 180 15:56 03.11.2019
5032 Clouds 20 1021 52 0 8.94 180 15:38 03.11.2019
5033 Clouds 20 1021 49 10000 9.3 180 15:20 03.11.2019
5034 Clouds 20 1021 49 10000 9.3 180 14:40 03.11.2019
5035 Clouds 20 1021 49 10000 9.3 180 14:19 03.11.2019
5036 Clouds 20 1021 52 10000 8.2 160 13:56 03.11.2019
5037 Clouds 20 1021 52 10000 5.7 170 13:37 03.11.2019
5038 Clouds 20 1021 52 10000 5.7 170 13:18 03.11.2019
5039 Clouds 20 1021 52 10000 5.7 170 12:38 03.11.2019
5040 Clouds 20 1021 52 10000 5.7 170 12:19 03.11.2019
5041 Clouds 21 1021 52 10000 4.1 180 11:57 03.11.2019
5042 Clouds 20 1021 52 10000 4.1 180 11:39 03.11.2019
5043 Clouds 21 1021 52 10000 4.1 180 11:20 03.11.2019
5044 Clouds 20 1021 55 10000 3.6 150 10:42 03.11.2019
5045 Clouds 19 1021 55 10000 3.6 150 10:22 03.11.2019
5046 Clouds 20 1021 63 10000 3.6 180 09:59 03.11.2019
5047 Clouds 20 1021 63 10000 3.6 180 09:41 03.11.2019
5048 Clouds 19 1021 63 10000 3.6 180 09:23 03.11.2019
5049 Clouds 19 1021 63 10000 4.1 190 08:55 03.11.2019
5050 Clouds 19 1021 63 10000 4.1 190 08:36 03.11.2019
5051 Clouds 18 1021 63 10000 4.1 190 08:18 03.11.2019
5052 Clouds 18 1021 72 10000 4.1 200 07:43 03.11.2019
5053 Clouds 17 1019 79 0 0.89 180 07:18 03.11.2019
5054 Clouds 16 1019 86 0 0.85 191 06:39 03.11.2019
5055 Clouds 15 1019 100 10000 2.1 170 05:41 03.11.2019
5056 Clouds 15 1019 100 10000 2.1 170 05:19 03.11.2019
5057 Clouds 15 1018 93 10000 1.5 60 04:48 03.11.2019
5058 Clouds 15 1018 93 10000 2.1 50 03:50 03.11.2019
5059 Clouds 16 1018 93 10000 2.1 300 02:47 03.11.2019
5060 Clouds 16 1018 93 10000 2.1 300 02:21 03.11.2019
5061 Clouds 16 1018 93 10000 2.1 300 02:21 03.11.2019
5062 Clouds 16 1018 93 10000 3.1 310 01:49 03.11.2019
5063 Clouds 16 1018 93 10000 3.1 310 01:24 03.11.2019
5064 Clouds 17 1018 88 10000 2.6 320 00:57 03.11.2019
5065 Clouds 17 1018 88 10000 2.6 320 00:37 03.11.2019
5066 Clouds 17 1018 88 10000 2.6 320 00:18 03.11.2019
5067 Clouds 17 1018 88 10000 3.6 330 23:39 02.11.2019
5068 Clouds 17 1018 88 10000 3.6 330 23:20 02.11.2019
5069 Clouds 17 1018 88 10000 4.1 330 22:56 02.11.2019
5070 Clouds 17 1018 88 10000 4.1 330 22:38 02.11.2019
5071 Clouds 17 1018 88 10000 4.1 330 22:38 02.11.2019
5072 Clouds 17 1018 88 10000 4.1 330 22:19 02.11.2019
5073 Clouds 18 1018 82 10000 4.6 320 21:57 02.11.2019
5074 Clouds 18 1018 82 10000 4.6 320 21:38 02.11.2019
5075 Clouds 18 1018 82 10000 4.6 320 21:19 02.11.2019
5076 Clouds 18 1018 82 10000 4.6 320 21:19 02.11.2019
5077 Clouds 18 1018 82 10000 4.6 320 21:19 02.11.2019
5078 Clouds 18 1018 82 10000 4.6 320 21:19 02.11.2019
5079 Clouds 18 1017 77 10000 4.6 330 20:59 02.11.2019
5080 Clouds 18 1017 77 10000 4.6 330 20:41 02.11.2019
5081 Clouds 18 1017 77 10000 4.6 330 20:21 02.11.2019
5082 Clouds 18 1016 77 10000 5.7 330 19:58 02.11.2019
5083 Clouds 18 1016 77 10000 5.7 330 19:36 02.11.2019
5084 Clouds 18 1016 77 10000 5.7 330 19:18 02.11.2019
5085 Clouds 18 1016 77 10000 7.2 320 18:54 02.11.2019
5086 Clouds 18 1016 77 10000 7.2 320 18:36 02.11.2019
5087 Clouds 18 1016 77 10000 7.2 320 18:18 02.11.2019
5088 Clouds 19 1015 78 0 3.13 315 17:43 02.11.2019
5089 Clouds 20 1015 60 10000 8.2 300 17:25 02.11.2019
5090 Clouds 20 1015 60 10000 8.2 300 16:59 02.11.2019
5091 Clouds 20 1015 60 10000 8.2 300 16:39 02.11.2019
5092 Clouds 20 1015 60 10000 8.2 300 16:39 02.11.2019
5093 Clouds 21 1015 60 10000 8.2 300 16:20 02.11.2019
5094 Clouds 21 1015 52 10000 9.3 310 15:43 02.11.2019
5095 Clouds 21 1015 52 10000 9.3 310 15:21 02.11.2019
5096 Clouds 21 1014 52 10000 10.3 320 14:58 02.11.2019
5097 Clouds 21 1014 52 10000 10.3 320 14:40 02.11.2019
5098 Clouds 22 1014 52 10000 10.3 320 14:21 02.11.2019
5099 Clouds 22 1014 56 10000 10.3 320 13:54 02.11.2019
5100 Clouds 22 1014 63 0 4.02 315 13:36 02.11.2019
5101 Clouds 21 1015 64 0 10.73 320 13:18 02.11.2019
5102 Clouds 21 1014 63 0 4.02 293 12:40 02.11.2019
5103 Clouds 21 1011 62 0 1.34 35 12:22 02.11.2019
5104 Clouds 21 1011 59 0 0.89 0 11:56 02.11.2019
5105 Clouds 21 1011 64 0 1.34 359 11:38 02.11.2019
5106 Clouds 21 1015 64 10000 10.8 320 11:19 02.11.2019
5107 Clouds 21 1015 64 10000 10.8 320 10:43 02.11.2019
5108 Clouds 20 1015 64 10000 10.8 320 10:24 02.11.2019
5109 Clouds 20 1014 68 10000 10.3 330 09:54 02.11.2019
5110 Clouds 19 1014 68 10000 10.3 330 09:36 02.11.2019
5111 Clouds 19 1014 68 10000 10.3 330 09:18 02.11.2019
5112 Clouds 19 1014 72 10000 8.7 330 08:42 02.11.2019
5113 Clouds 18 1014 72 10000 8.7 330 08:19 02.11.2019
5114 Clouds 18 1013 67 10000 9.3 330 07:47 02.11.2019
5115 Clouds 17 1013 67 10000 9.3 330 07:27 02.11.2019
5116 Clouds 16 1013 82 10000 4.1 40 06:52 02.11.2019
5117 Clouds 15 1013 82 10000 4.1 40 06:25 02.11.2019
5118 Clouds 14 1013 87 10000 3.1 50 05:55 02.11.2019
5119 Clouds 13 1013 87 10000 3.1 50 04:51 02.11.2019
5120 Clouds 14 1012 87 10000 4.6 20 04:19 02.11.2019
5121 Clouds 15 1013 87 10000 5.1 360 03:45 02.11.2019
5122 Clouds 15 1013 87 10000 5.7 340 02:38 02.11.2019
5123 Clouds 15 1012 93 10000 5.7 330 01:42 02.11.2019
5124 Clouds 15 1012 93 10000 6.2 330 01:20 02.11.2019
5125 Clouds 15 1012 93 10000 6.2 330 00:42 02.11.2019
5126 Clouds 15 1012 87 10000 3.6 340 00:24 02.11.2019
5127 Clouds 15 1012 87 10000 3.6 340 23:45 01.11.2019
5128 Clouds 15 1012 87 10000 3.6 340 23:20 01.11.2019
5129 Clouds 15 1011 93 10000 4.1 10 22:57 01.11.2019
5130 Clouds 15 1008 90 0 3.05 354 22:38 01.11.2019
5131 Clouds 15 1011 93 10000 1.5 0 22:19 01.11.2019
5132 Clouds 16 1012 82 10000 4.6 310 21:40 01.11.2019
5133 Clouds 17 1012 82 10000 4.6 310 21:22 01.11.2019
5134 Clouds 17 1012 82 10000 4.6 310 20:56 01.11.2019
5135 Clouds 17 1012 82 10000 4.6 310 20:38 01.11.2019
5136 Clouds 17 1012 82 10000 4.6 310 20:18 01.11.2019
5137 Clouds 18 1011 55 10000 6.7 320 19:42 01.11.2019
5138 Clouds 18 1011 55 10000 6.7 320 19:22 01.11.2019
5139 Clouds 19 1011 37 10000 8.2 310 18:59 01.11.2019
5140 Clouds 19 1011 37 10000 8.2 310 18:39 01.11.2019
5141 Clouds 20 1011 37 10000 8.2 310 18:19 01.11.2019
5142 Clouds 22 1011 33 10000 5.7 330 17:55 01.11.2019
5143 Clouds 22 1011 33 10000 5.7 330 17:36 01.11.2019
5144 Clouds 23 1011 33 10000 5.7 330 17:18 01.11.2019
5145 Clouds 22 1010 37 10000 4.1 340 16:37 01.11.2019
5146 Clouds 22 1010 37 10000 4.1 340 16:18 01.11.2019
5147 Clouds 23 1010 36 10000 4.6 340 15:41 01.11.2019
5148 Clouds 23 1010 36 10000 4.6 340 15:23 01.11.2019
5149 Clouds 24 1010 36 10000 3.1 350 14:58 01.11.2019
5150 Clouds 24 1010 36 10000 3.1 350 14:40 01.11.2019
5151 Clouds 24 1010 36 10000 3.1 350 14:22 01.11.2019
5152 Clouds 24 1011 41 10000 2.6 250 13:56 01.11.2019
5153 Clouds 23 1011 41 10000 2.6 250 13:37 01.11.2019
5154 Clouds 23 1011 41 10000 2.6 250 13:19 01.11.2019
5155 Clouds 23 1008 58 0 1.4 161 12:43 01.11.2019
5156 Clouds 23 1009 39 0 1.4 161 12:25 01.11.2019
5157 Clouds 25 1018 40 0 1.4 161 11:55 01.11.2019
5158 Clouds 25 1018 40 0 1.4 161 11:37 01.11.2019
5159 Clouds 25 1013 36 10000 2.6 190 11:18 01.11.2019
5160 Clouds 26 1013 36 10000 2.6 190 10:41 01.11.2019
5161 Clouds 26 1013 36 10000 2.6 190 10:21 01.11.2019
5162 Clouds 25 1013 36 10000 2.1 0 09:56 01.11.2019
5163 Clouds 25 1013 36 10000 2.1 0 09:37 01.11.2019
5164 Clouds 25 1013 36 10000 2.1 0 09:19 01.11.2019
5165 Clouds 24 1013 43 10000 2.6 230 08:42 01.11.2019
5166 Clouds 22 1013 43 10000 2.6 230 08:22 01.11.2019
5167 Clouds 19 1014 63 10000 0.5 0 07:55 01.11.2019
5168 Clouds 19 1014 63 10000 0.5 0 07:36 01.11.2019
5169 Clouds 18 1014 63 10000 0.5 0 07:18 01.11.2019
5170 Clouds 17 1013 66 0 0.95 158 06:40 01.11.2019
5171 Clouds 16 1014 82 10000 1 0 06:21 01.11.2019
5172 Clouds 13 1013 87 10000 1.5 180 05:43 01.11.2019
5173 Clouds 14 1014 76 10000 1 230 03:34 01.11.2019
5174 Clouds 16 1015 67 10000 3.1 220 01:56 01.11.2019
5175 Clouds 16 1015 67 10000 3.1 220 01:28 01.11.2019
5176 Clouds 15 1017 76 10000 1.5 0 00:22 01.11.2019
5177 Clouds 15 1017 72 10000 2.6 250 23:59 31.10.2019
5178 Clouds 15 1017 72 10000 2.6 250 23:41 31.10.2019
5179 Clear 15 1017 72 10000 2.6 250 23:22 31.10.2019
5180 Clear 16 1018 67 10000 1 0 22:42 31.10.2019
5181 Clear 16 1018 67 10000 1 0 22:24 31.10.2019
5182 Clear 16 1018 67 10000 5.1 160 21:59 31.10.2019
5183 Clear 16 1018 67 10000 5.1 160 21:41 31.10.2019
5184 Clear 16 1018 67 10000 5.1 160 21:41 31.10.2019
5185 Clear 17 1018 67 10000 5.1 160 21:20 31.10.2019
5186 Clear 17 1019 63 10000 6.7 150 20:55 31.10.2019
5187 Clear 17 1019 63 10000 6.7 150 20:37 31.10.2019
5188 Clear 17 1019 63 10000 6.7 150 20:19 31.10.2019
5189 Clear 18 1019 55 10000 6.7 150 19:40 31.10.2019
5190 Clear 18 1019 55 10000 6.7 150 19:40 31.10.2019
5191 Clear 18 1019 55 10000 6.7 150 19:40 31.10.2019
5192 Clear 18 1019 55 10000 6.7 150 19:21 31.10.2019
5193 Clear 18 1019 55 10000 6.7 150 19:21 31.10.2019
5194 Clear 19 1019 52 10000 8.2 170 18:56 31.10.2019
5195 Clear 19 1019 52 10000 8.2 170 18:37 31.10.2019
5196 Clear 19 1019 52 10000 8.2 170 18:18 31.10.2019
5197 Clear 21 1019 49 10000 7.2 180 17:41 31.10.2019
5198 Clear 21 1019 49 10000 7.2 180 17:22 31.10.2019
5199 Clear 22 1020 43 10000 8.2 190 16:58 31.10.2019
5200 Clear 21 1020 43 10000 8.2 190 16:40 31.10.2019
5201 Clear 22 1020 43 10000 8.2 190 16:20 31.10.2019
5202 Clouds 22 1020 43 10000 8.7 190 15:54 31.10.2019
5203 Clouds 22 1020 43 10000 8.7 190 15:36 31.10.2019
5204 Clouds 23 1020 43 10000 8.7 190 15:18 31.10.2019
5205 Clear 24 1020 41 10000 8.2 180 14:41 31.10.2019
5206 Clear 24 1020 41 10000 8.2 180 14:23 31.10.2019
5207 Clear 25 1020 31 10000 7.2 180 13:59 31.10.2019
5208 Clear 25 1020 31 10000 7.2 180 13:39 31.10.2019
5209 Clear 25 1020 31 10000 7.2 180 13:20 31.10.2019
5210 Clear 24 1021 36 10000 7.7 170 12:58 31.10.2019
5211 Clear 25 1021 36 10000 7.7 170 12:40 31.10.2019
5212 Clear 24 1021 36 10000 7.7 170 12:22 31.10.2019
5213 Clear 25 1021 33 10000 8.2 170 11:47 31.10.2019
5214 Clear 25 1021 33 10000 8.2 170 11:21 31.10.2019
5215 Clear 24 1022 40 10000 9.8 170 10:59 31.10.2019
5216 Clear 23 1022 40 10000 9.8 170 10:59 31.10.2019
5217 Clear 23 1022 40 10000 9.8 170 10:40 31.10.2019
5218 Clear 23 1022 40 10000 9.8 170 10:21 31.10.2019
5219 Clear 22 1022 37 10000 3.6 120 09:57 31.10.2019
5220 Clear 21 1022 37 10000 3.6 120 09:39 31.10.2019
5221 Clear 21 1022 37 10000 3.6 120 09:18 31.10.2019
5222 Clear 20 1022 48 10000 2.6 0 08:46 31.10.2019
5223 Clear 19 1022 48 10000 2.6 0 08:26 31.10.2019
5224 Clear 16 1022 59 10000 5.1 150 07:49 31.10.2019
5225 Clear 16 1022 59 10000 5.1 150 07:28 31.10.2019
5226 Clear 15 1022 67 10000 4.6 140 06:55 31.10.2019
5227 Clear 16 1022 67 10000 4.6 140 06:33 31.10.2019
5228 Clear 14 1022 76 10000 4.1 160 05:58 31.10.2019
5229 Clear 13 1022 71 10000 4.1 150 03:22 31.10.2019
5230 Clear 14 1023 67 10000 6.7 170 02:38 31.10.2019
5231 Clear 14 1023 71 10000 7.7 170 01:50 31.10.2019
5232 Clear 14 1025 67 10000 8.7 170 00:36 31.10.2019
5233 Clear 15 1025 58 10000 7.2 170 23:56 30.10.2019
5234 Clear 15 1025 58 10000 7.2 170 23:28 30.10.2019
5235 Clear 14 1025 67 10000 5.1 160 22:43 30.10.2019
5236 Clear 15 1025 67 10000 5.1 160 22:23 30.10.2019
5237 Clear 15 1025 62 10000 7.7 170 21:56 30.10.2019
5238 Clear 15 1025 62 10000 7.7 170 21:37 30.10.2019
5239 Clear 15 1025 62 10000 7.7 170 21:18 30.10.2019
5240 Clouds 15 1025 67 10000 7.7 170 20:59 30.10.2019
5241 Clouds 15 1025 67 10000 7.7 170 20:41 30.10.2019
5242 Clouds 15 1025 67 10000 7.7 170 20:41 30.10.2019
5243 Clouds 15 1025 67 10000 7.7 170 20:41 30.10.2019
5244 Clouds 15 1025 67 10000 7.2 170 20:22 30.10.2019
5245 Clouds 15 1025 67 10000 7.2 170 19:58 30.10.2019
5246 Clouds 15 1025 67 10000 7.2 170 19:38 30.10.2019
5247 Clouds 15 1025 67 10000 7.2 170 19:20 30.10.2019
5248 Clouds 15 1025 67 10000 9.3 170 18:57 30.10.2019
5249 Clouds 15 1025 67 10000 9.3 170 18:37 30.10.2019
5250 Clouds 15 1025 67 10000 9.3 170 18:18 30.10.2019
5251 Clouds 16 1024 63 10000 9.8 170 17:41 30.10.2019
5252 Clouds 17 1024 63 10000 9.8 170 17:19 30.10.2019
5253 Clouds 17 1024 63 10000 9.8 170 17:19 30.10.2019
5254 Clouds 18 1025 52 10000 8.7 180 16:56 30.10.2019
5255 Clouds 18 1024 52 10000 8.7 180 16:38 30.10.2019
5256 Clouds 18 1024 52 10000 8.7 180 16:20 30.10.2019
5257 Clouds 18 1024 52 10000 8.7 180 15:57 30.10.2019
5258 Clouds 18 1024 52 10000 8.7 180 15:38 30.10.2019
5259 Clouds 19 1024 45 10000 6.7 190 15:19 30.10.2019
5260 Clouds 19 1024 45 10000 6.7 190 14:56 30.10.2019
5261 Clouds 19 1024 45 10000 6.7 190 14:56 30.10.2019
5262 Clouds 19 1024 45 10000 6.7 190 14:38 30.10.2019
5263 Clouds 19 1024 45 10000 6.7 190 14:18 30.10.2019
5264 Clouds 19 1025 42 10000 6.2 190 13:42 30.10.2019
5265 Clouds 19 1024 45 10000 4.1 170 13:21 30.10.2019
5266 Clouds 19 1024 45 10000 4.1 170 12:59 30.10.2019
5267 Clouds 19 1024 45 10000 4.1 170 12:41 30.10.2019
5268 Clouds 18 1025 51 10000 3.6 150 12:22 30.10.2019
5269 Clouds 19 1025 51 10000 3.6 150 11:43 30.10.2019
5270 Clouds 18 1025 51 10000 3.6 150 11:25 30.10.2019
5271 Clouds 18 1025 51 10000 4.6 210 10:59 30.10.2019
5272 Clouds 18 1025 51 10000 4.6 210 10:41 30.10.2019
5273 Clouds 18 1025 51 10000 4.6 210 10:22 30.10.2019
5274 Clouds 18 1025 55 10000 2.1 0 09:40 30.10.2019
5275 Clouds 18 1025 55 10000 2.1 0 09:22 30.10.2019
5276 Clouds 17 1025 62 10000 2.6 210 08:56 30.10.2019
5277 Clouds 17 1024 67 10000 2.6 40 08:38 30.10.2019
5278 Clouds 16 1024 67 10000 2.6 40 08:18 30.10.2019
5279 Clouds 16 1024 67 10000 2.6 40 07:43 30.10.2019
5280 Clouds 14 1024 76 10000 2.6 40 06:59 30.10.2019
5281 Clouds 14 1024 76 10000 2.6 40 06:40 30.10.2019
5282 Clouds 12 1023 81 10000 3.1 50 05:56 30.10.2019
5283 Clouds 12 1023 81 10000 3.1 50 05:56 30.10.2019
5284 Clouds 12 1023 81 10000 3.1 50 05:38 30.10.2019
5285 Clouds 12 1023 87 10000 2.6 50 03:54 30.10.2019
5286 Clouds 12 1022 87 10000 2.6 40 03:23 30.10.2019
5287 Clouds 12 1022 87 10000 2.6 40 02:49 30.10.2019
5288 Rain 13 1023 81 10000 2.6 320 01:49 30.10.2019
5289 Clouds 13 1023 76 10000 2.1 30 00:43 30.10.2019
5290 Clouds 12 1023 76 10000 2.1 30 00:25 30.10.2019
5291 Rain 13 1019 79 0 0.13 12 23:41 29.10.2019
5292 Clouds 13 1023 67 10000 2.6 40 23:22 29.10.2019
5293 Clouds 14 1023 67 10000 2.6 40 22:45 29.10.2019
5294 Clouds 14 1023 54 10000 2.1 250 22:20 29.10.2019
5295 Clouds 14 1023 54 10000 2.1 250 21:56 29.10.2019
5296 Clouds 14 1023 54 10000 2.1 250 21:38 29.10.2019
5297 Clouds 14 1023 54 10000 2.1 250 21:20 29.10.2019
5298 Clouds 15 1023 54 10000 4.1 250 20:42 29.10.2019
5299 Clouds 15 1023 54 10000 4.1 250 20:23 29.10.2019
5300 Clouds 15 1022 47 10000 2.6 270 19:59 29.10.2019
5301 Clouds 15 1022 47 10000 2.6 270 19:41 29.10.2019
5302 Clouds 15 1022 38 10000 4.1 270 19:22 29.10.2019
5303 Clouds 15 1022 38 10000 4.1 270 18:59 29.10.2019
5304 Clouds 15 1022 38 10000 4.1 270 18:40 29.10.2019
5305 Clouds 15 1022 38 10000 4.1 270 18:21 29.10.2019
5306 Clouds 16 1021 36 10000 3.6 300 17:59 29.10.2019
5307 Clear 17 1029 45 0 1.79 212 17:40 29.10.2019
5308 Clouds 17 1022 36 10000 5.1 240 17:21 29.10.2019
5309 Clouds 17 1022 36 10000 5.1 240 16:58 29.10.2019
5310 Clouds 17 1022 36 10000 5.1 240 16:38 29.10.2019
5311 Clouds 17 1022 36 10000 5.1 240 16:19 29.10.2019
5312 Clouds 17 1022 45 10000 6.2 260 15:54 29.10.2019
5313 Clouds 17 1022 45 10000 6.2 260 15:36 29.10.2019
5314 Clouds 17 1022 45 10000 6.2 260 15:18 29.10.2019
5315 Clouds 18 1022 39 10000 6.2 290 14:42 29.10.2019
5316 Clouds 18 1022 39 10000 6.2 290 14:42 29.10.2019
5317 Clouds 18 1022 39 10000 6.2 290 14:23 29.10.2019
5318 Clouds 18 1022 36 10000 6.7 320 13:58 29.10.2019
5319 Clouds 18 1022 36 10000 6.7 320 13:39 29.10.2019
5320 Clouds 18 1022 36 10000 6.7 320 13:21 29.10.2019
5321 Clouds 18 1022 36 10000 6.7 320 13:21 29.10.2019
5322 Clouds 18 1022 39 10000 5.1 290 12:43 29.10.2019
5323 Clouds 18 1022 39 10000 5.1 290 12:25 29.10.2019
5324 Clouds 18 1022 39 10000 7.2 310 11:56 29.10.2019
5325 Clouds 18 1022 46 0 2.68 293 11:38 29.10.2019
5326 Clouds 17 1022 42 10000 6.2 40 11:18 29.10.2019
5327 Clouds 17 1022 42 10000 6.2 40 10:57 29.10.2019
5328 Clouds 17 1022 42 10000 6.2 40 10:38 29.10.2019
5329 Clouds 17 1022 42 10000 6.2 40 10:19 29.10.2019
5330 Clouds 17 1021 48 0 2.24 248 09:43 29.10.2019
5331 Clouds 16 1022 62 10000 3.1 0 09:23 29.10.2019
5332 Clouds 16 1022 62 10000 3.1 0 09:23 29.10.2019
5333 Clouds 16 1022 62 10000 3.1 0 09:23 29.10.2019
5334 Clouds 16 1022 62 10000 3.1 0 08:58 29.10.2019
5335 Clouds 16 1021 50 0 1.34 293 08:39 29.10.2019
5336 Clouds 15 1022 71 10000 3.6 40 08:21 29.10.2019
5337 Clouds 15 1022 71 10000 3.6 40 07:48 29.10.2019
5338 Clouds 14 1021 87 10000 3.1 50 07:22 29.10.2019
5339 Clouds 14 1021 87 10000 3.1 50 06:55 29.10.2019
5340 Clouds 13 1021 87 10000 3.1 50 06:36 29.10.2019
5341 Clouds 13 1021 87 10000 3.1 50 06:18 29.10.2019
5342 Clouds 11 1021 93 10000 2.6 50 05:48 29.10.2019
5343 Clouds 10 1021 93 10000 2.6 50 05:18 29.10.2019
5344 Clouds 11 1021 87 10000 1.5 60 03:34 29.10.2019
5345 Clouds 11 1021 81 10000 1 0 02:32 29.10.2019
5346 Clouds 12 1021 71 10000 2.6 320 01:42 29.10.2019
5347 Clouds 12 1022 81 10000 1.5 0 00:57 29.10.2019
5348 Clouds 12 1022 81 10000 1.5 0 00:30 29.10.2019
5349 Clouds 12 1022 71 10000 2.1 240 23:42 28.10.2019
5350 Clouds 12 1022 71 10000 2.1 240 23:20 28.10.2019
5351 Clouds 13 1021 62 10000 1 0 22:57 28.10.2019
5352 Clouds 13 1021 62 10000 1 0 22:37 28.10.2019
5353 Clouds 13 1021 62 10000 1 0 22:18 28.10.2019
5354 Clouds 14 1021 62 10000 2.6 270 21:54 28.10.2019
5355 Clouds 14 1021 62 10000 2.6 270 21:36 28.10.2019
5356 Clouds 14 1021 62 10000 2.6 270 21:18 28.10.2019
5357 Clouds 14 1021 71 10000 4.1 270 20:42 28.10.2019
5358 Rain 14 1020 54 10000 4.1 260 20:24 28.10.2019
5359 Rain 14 1020 54 10000 4.1 260 20:24 28.10.2019
5360 Clouds 14 1019 54 10000 5.7 260 19:58 28.10.2019
5361 Clouds 14 1019 54 10000 5.7 260 19:39 28.10.2019
5362 Clouds 14 1019 54 10000 5.7 260 19:20 28.10.2019
5363 Rain 14 1019 62 10000 9.3 250 18:58 28.10.2019
5364 Rain 15 1019 62 10000 9.3 250 18:39 28.10.2019
5365 Rain 15 1019 62 10000 9.3 250 18:21 28.10.2019
5366 Rain 15 1019 62 10000 9.3 250 18:21 28.10.2019
5367 Clouds 15 1017 51 10000 5.7 260 17:56 28.10.2019
5368 Clouds 15 1017 51 10000 5.7 260 17:38 28.10.2019
5369 Clouds 15 1017 58 10000 6.2 260 17:19 28.10.2019
5370 Clouds 16 1017 58 10000 6.2 260 16:56 28.10.2019
5371 Clouds 16 1017 58 10000 6.2 260 16:38 28.10.2019
5372 Clouds 15 1017 58 10000 6.2 260 16:19 28.10.2019
5373 Rain 15 1015 71 0 4.47 270 15:56 28.10.2019
5374 Rain 17 1015 61 0 4.92 270 15:38 28.10.2019
5375 Rain 17 1024 57 0 4.92 234 15:18 28.10.2019
5376 Rain 16 1013 72 0 10.13 257 14:55 28.10.2019
5377 Rain 16 1015 55 0 4.92 270 14:37 28.10.2019
5378 Rain 16 1015 57 0 4.92 270 14:18 28.10.2019
5379 Rain 16 1015 57 0 4.92 270 14:18 28.10.2019
5380 Rain 17 1015 56 0 4.02 270 13:54 28.10.2019
5381 Rain 17 1015 57 0 4.92 225 13:36 28.10.2019
5382 Rain 16 1015 57 0 4.92 225 13:18 28.10.2019
5383 Clouds 16 1015 54 10000 9.8 270 12:40 28.10.2019
5384 Clouds 16 1015 54 10000 9.8 270 12:20 28.10.2019
5385 Clouds 16 1015 54 10000 9.8 270 12:20 28.10.2019
5386 Clouds 16 1015 51 10000 7.2 290 11:40 28.10.2019
5387 Clouds 16 1015 51 10000 7.2 290 11:21 28.10.2019
5388 Clouds 16 1015 48 10000 5.7 280 10:56 28.10.2019
5389 Clouds 16 1015 48 10000 5.7 280 10:38 28.10.2019
5390 Clouds 16 1015 48 10000 5.7 280 10:19 28.10.2019
5391 Rain 17 1014 64 0 2.68 270 09:55 28.10.2019
5392 Rain 16 1014 64 0 2.68 270 09:36 28.10.2019
5393 Clouds 14 1014 71 10000 2.6 30 09:18 28.10.2019
5394 Clouds 14 1014 71 10000 2.6 30 08:56 28.10.2019
5395 Clouds 14 1014 71 10000 2.6 30 08:37 28.10.2019
5396 Clouds 13 1014 71 10000 2.6 30 08:18 28.10.2019
5397 Clouds 13 1014 81 10000 2.1 20 07:43 28.10.2019
5398 Rain 11 1013 87 6000 1.5 0 07:23 28.10.2019
5399 Rain 11 1013 87 6000 1.5 0 06:59 28.10.2019
5400 Rain 11 1022 96 0 6.39 247 06:37 28.10.2019
5401 Clouds 11 1012 93 10000 2.1 20 05:19 28.10.2019
5402 Clouds 11 1011 81 10000 2.6 10 03:44 28.10.2019
5403 Clouds 11 1011 81 10000 1 0 02:45 28.10.2019
5404 Clouds 12 1012 76 10000 6.2 230 01:52 28.10.2019
5405 Clouds 12 1011 82 10000 1.5 0 00:47 28.10.2019
5406 Clouds 13 1011 82 10000 1.5 0 00:25 28.10.2019
5407 Clouds 13 1011 87 10000 2.1 340 23:44 27.10.2019
5408 Clouds 13 1011 87 10000 2.1 340 23:22 27.10.2019
5409 Clouds 13 1011 93 10000 2.1 360 22:57 27.10.2019
5410 Clouds 13 1011 93 10000 2.1 360 22:37 27.10.2019
5411 Clouds 13 1011 93 10000 2.1 360 22:19 27.10.2019
5412 Rain 13 1011 87 10000 3.6 310 21:56 27.10.2019
5413 Rain 13 1011 87 10000 3.6 310 21:38 27.10.2019
5414 Rain 13 1011 87 10000 3.6 310 21:20 27.10.2019
5415 Rain 13 1011 82 10000 3.6 300 20:41 27.10.2019
5416 Rain 13 1011 82 10000 3.6 300 20:23 27.10.2019
5417 Clouds 14 1010 82 10000 4.1 240 19:59 27.10.2019
5418 Clouds 14 1010 82 10000 4.1 240 19:39 27.10.2019
5419 Rain 14 1010 87 4000 5.1 240 19:20 27.10.2019
5420 Rain 14 1010 87 4000 5.1 240 19:20 27.10.2019
5421 Rain 14 1010 87 4000 5.1 240 18:57 27.10.2019
5422 Rain 15 1009 93 6000 4.6 320 18:39 27.10.2019
5423 Rain 15 1009 93 6000 4.6 320 18:21 27.10.2019
5424 Rain 15 1009 93 6000 4.6 320 18:21 27.10.2019
5425 Rain 15 1009 93 6000 4.6 320 17:56 27.10.2019
5426 Rain 15 1009 93 6000 4.6 320 17:37 27.10.2019
5427 Rain 15 1009 93 6000 4.6 320 17:19 27.10.2019
5428 Rain 15 1008 82 3000 12.9 320 16:56 27.10.2019
5429 Rain 16 1008 82 3000 12.9 320 16:38 27.10.2019
5430 Clouds 16 1008 82 8000 12.3 330 16:19 27.10.2019
5431 Clouds 17 1008 82 8000 12.3 330 15:55 27.10.2019
5432 Rain 17 1008 86 0 5.81 315 15:37 27.10.2019
5433 Clouds 17 1008 59 10000 13.9 330 15:18 27.10.2019
5434 Clouds 18 1008 59 10000 13.9 330 14:41 27.10.2019
5435 Clouds 19 1008 59 10000 13.9 330 14:20 27.10.2019
5436 Clouds 17 1009 77 10000 10.8 330 13:56 27.10.2019
5437 Clouds 17 1009 77 10000 10.8 330 13:38 27.10.2019
5438 Clouds 17 1009 77 10000 10.8 330 13:19 27.10.2019
5439 Clouds 17 1009 67 10000 12.3 320 12:45 27.10.2019
5440 Clouds 17 1009 67 10000 12.3 320 12:24 27.10.2019
5441 Clouds 19 1009 52 10000 12.9 320 11:57 27.10.2019
5442 Clouds 19 1009 52 10000 12.9 320 11:38 27.10.2019
5443 Clouds 19 1009 52 10000 12.9 320 11:20 27.10.2019
5444 Clouds 19 1010 52 10000 11.3 330 10:43 27.10.2019
5445 Clouds 19 1010 52 10000 11.3 330 10:24 27.10.2019
5446 Clouds 18 1010 48 10000 12.3 330 09:56 27.10.2019
5447 Clouds 18 1010 48 10000 12.3 330 09:37 27.10.2019
5448 Clouds 18 1010 48 10000 12.3 330 09:37 27.10.2019
5449 Clouds 18 1010 48 10000 12.3 330 09:18 27.10.2019
5450 Clouds 18 1010 48 10000 12.3 330 09:18 27.10.2019
5451 Clouds 18 1010 48 10000 12.3 330 09:18 27.10.2019
5452 Clouds 18 1010 48 10000 12.3 330 09:18 27.10.2019
5453 Clouds 17 1010 59 10000 9.8 340 08:41 27.10.2019
5454 Clouds 17 1010 59 10000 9.8 340 08:22 27.10.2019
5455 Clouds 17 1011 63 10000 6.7 350 07:56 27.10.2019
5456 Clouds 17 1011 63 10000 6.7 350 07:38 27.10.2019
5457 Clouds 16 1011 63 10000 6.7 350 07:19 27.10.2019
5458 Clouds 15 1011 72 10000 6.2 350 06:42 27.10.2019
5459 Clouds 15 1011 72 10000 6.2 350 06:42 27.10.2019
5460 Clouds 15 1011 72 10000 6.2 350 06:23 27.10.2019
5461 Clouds 14 1011 82 10000 3.1 20 05:39 27.10.2019
5462 Clouds 14 1010 82 10000 4.6 20 04:50 27.10.2019
5463 Clouds 14 1012 87 10000 3.1 20 02:54 27.10.2019
5464 Rain 14 1012 85 0 1.34 23 01:49 27.10.2019
5465 Rain 14 1021 88 0 0.45 83 01:20 27.10.2019
5466 Rain 15 1021 90 0 0.45 117 00:43 27.10.2019
5467 Clear 15 1021 91 0 0.45 86 00:18 27.10.2019
5468 Clear 15 1013 86 0 1.34 23 23:55 26.10.2019
5469 Clear 15 1013 87 0 1.34 0 23:36 26.10.2019
5470 Clear 15 1013 87 0 1.34 0 23:18 26.10.2019
5471 Clear 16 1022 88 0 2.17 331 22:40 26.10.2019
5472 Clear 16 1010 70 0 2.17 331 22:20 26.10.2019
5473 Clear 16 1013 83 0 0.89 315 21:59 26.10.2019
5474 Clear 16 1013 83 0 0.89 315 21:41 26.10.2019
5475 Clouds 16 1014 82 10000 4.6 330 21:21 26.10.2019
5476 Clouds 16 1014 82 10000 4.6 330 20:46 26.10.2019
5477 Clouds 16 1014 82 10000 4.6 330 20:20 26.10.2019
5478 Clouds 17 1013 72 10000 5.1 310 19:59 26.10.2019
5479 Clouds 17 1013 72 10000 5.1 310 19:40 26.10.2019
5480 Clouds 17 1013 72 10000 5.1 310 19:20 26.10.2019
5481 Clouds 18 1013 63 10000 7.7 300 18:56 26.10.2019
5482 Clouds 18 1013 63 10000 7.7 300 18:56 26.10.2019
5483 Clouds 18 1013 63 10000 7.7 300 18:38 26.10.2019
5484 Clouds 18 1013 63 10000 7.7 300 18:18 26.10.2019
5485 Clouds 19 1013 55 10000 7.7 290 17:56 26.10.2019
5486 Clouds 19 1013 55 10000 7.7 290 17:37 26.10.2019
5487 Clouds 19 1013 55 10000 7.7 290 17:18 26.10.2019
5488 Clouds 20 1013 37 10000 7.7 310 16:43 26.10.2019
5489 Clouds 20 1013 37 10000 7.7 310 16:24 26.10.2019
5490 Clouds 21 1013 35 10000 6.2 300 15:43 26.10.2019
5491 Clouds 21 1013 35 10000 6.2 300 15:21 26.10.2019
5492 Clouds 21 1014 35 10000 7.2 320 14:58 26.10.2019
5493 Clouds 21 1014 35 10000 7.2 320 14:37 26.10.2019
5494 Clear 20 1014 44 0 4.11 297 14:18 26.10.2019
5495 Clear 20 1014 44 0 4.11 297 13:42 26.10.2019
5496 Clouds 21 1015 37 10000 5.1 350 13:22 26.10.2019
5497 Clouds 21 1015 37 10000 5.1 350 13:22 26.10.2019
5498 Clear 20 1016 42 0 4.11 297 12:49 26.10.2019
5499 Clouds 20 1016 42 10000 1.5 0 12:26 26.10.2019
5500 Clouds 20 1016 42 10000 1.5 0 11:57 26.10.2019
5501 Clouds 20 1016 42 10000 1.5 0 11:38 26.10.2019
5502 Clouds 20 1016 42 10000 1.5 0 11:20 26.10.2019
5503 Clear 19 1016 45 10000 0.5 0 10:45 26.10.2019
5504 Clear 19 1016 45 10000 0.5 0 10:24 26.10.2019
5505 Clear 17 1016 67 10000 2.6 70 09:48 26.10.2019
5506 Clear 17 1016 67 10000 2.6 70 09:29 26.10.2019
5507 Clouds 15 1016 87 10000 1.5 50 08:48 26.10.2019
5508 Clouds 15 1016 87 10000 1.5 50 08:26 26.10.2019
5509 Fog 12 1015 100 6000 1 90 07:57 26.10.2019
5510 Fog 12 1015 100 6000 1 90 07:34 26.10.2019
5511 Mist 9 1015 93 4000 2.1 50 06:56 26.10.2019
5512 Mist 9 1015 93 4000 2.1 50 06:38 26.10.2019
5513 Fog 10 1015 100 300 1 70 05:24 26.10.2019
5514 Clouds 12 1015 93 10000 1 70 04:59 26.10.2019
5515 Clouds 13 1015 100 10000 0.5 0 03:25 26.10.2019
5516 Mist 12 1015 93 4000 2.1 230 02:28 26.10.2019
5517 Fog 12 1015 93 700 0.5 0 01:45 26.10.2019
5518 Clouds 13 1023 98 0 1.34 203 00:50 26.10.2019
5519 Clouds 13 1015 93 10000 0.5 0 23:48 25.10.2019
5520 Clouds 13 1015 93 10000 0.5 0 23:22 25.10.2019
5521 Clouds 14 1015 93 10000 1.5 190 22:58 25.10.2019
5522 Clouds 14 1015 93 10000 1.5 190 22:39 25.10.2019
5523 Clouds 14 1015 93 10000 1.5 190 22:21 25.10.2019
5524 Clouds 14 1014 93 10000 1 110 21:55 25.10.2019
5525 Clouds 14 1014 93 10000 1 110 21:37 25.10.2019
5526 Clouds 14 1014 93 10000 1 110 21:18 25.10.2019
5527 Clouds 15 1013 100 10000 1 140 20:42 25.10.2019
5528 Clouds 15 1013 100 10000 1 140 20:19 25.10.2019
5529 Clouds 14 1012 100 10000 2.1 150 19:47 25.10.2019
5530 Clouds 15 1012 100 10000 2.1 150 19:27 25.10.2019
5531 Drizzle 15 1010 100 10000 2.1 140 18:56 25.10.2019
5532 Drizzle 15 1010 100 10000 2.1 140 18:37 25.10.2019
5533 Drizzle 15 1010 100 10000 2.1 140 18:19 25.10.2019
5534 Drizzle 15 1011 100 5000 3.6 170 17:39 25.10.2019
5535 Rain 15 1010 100 6000 3.6 180 17:20 25.10.2019
5536 Rain 15 1010 100 6000 3.6 180 16:46 25.10.2019
5537 Rain 15 1010 93 4000 4.1 180 16:23 25.10.2019
5538 Rain 15 1010 93 4000 4.1 180 15:57 25.10.2019
5539 Rain 16 1009 95 0 0.45 270 15:38 25.10.2019
5540 Rain 16 1010 93 4000 4.1 320 15:20 25.10.2019
5541 Rain 16 1010 93 4000 4.1 320 14:42 25.10.2019
5542 Rain 16 1010 93 4000 4.1 320 14:23 25.10.2019
5543 Rain 16 1010 93 6000 9.8 330 13:59 25.10.2019
5544 Rain 16 1010 93 6000 9.8 330 13:38 25.10.2019
5545 Rain 16 1010 93 8000 1 50 13:20 25.10.2019
5546 Rain 16 1010 93 8000 1 50 12:43 25.10.2019
5547 Rain 17 1010 93 4000 6.7 330 12:22 25.10.2019
5548 Rain 17 1010 93 4000 6.7 330 11:59 25.10.2019
5549 Rain 16 1010 93 3000 7.2 320 11:38 25.10.2019
5550 Rain 16 1010 93 3000 7.2 320 11:19 25.10.2019
5551 Rain 16 1010 93 2000 7.2 330 10:41 25.10.2019
5552 Rain 16 1010 93 2000 7.2 330 10:23 25.10.2019
5553 Rain 16 1009 93 2500 10.8 330 09:58 25.10.2019
5554 Rain 16 1009 93 2500 10.8 330 09:39 25.10.2019
5555 Rain 16 1009 93 2500 10.8 330 09:20 25.10.2019
5556 Rain 16 1009 93 2500 8.7 10 08:51 25.10.2019
5557 Rain 15 1009 93 2500 8.7 10 08:33 25.10.2019
5558 Rain 15 1008 93 4000 8.2 20 07:57 25.10.2019
5559 Rain 16 1008 93 4000 8.2 20 07:35 25.10.2019
5560 Rain 16 1008 93 5000 8.7 350 06:53 25.10.2019
5561 Rain 16 1007 93 5000 9.3 360 06:31 25.10.2019
5562 Rain 16 1007 87 9000 9.3 360 05:40 25.10.2019
5563 Rain 16 1007 87 9000 10.8 350 04:54 25.10.2019
5564 Clouds 17 1007 72 10000 10.3 350 03:45 25.10.2019
5565 Rain 17 1007 78 0 3.58 0 01:55 25.10.2019
5566 Clouds 17 1008 63 10000 9.8 360 01:35 25.10.2019
5567 Clouds 18 1008 63 10000 9.8 350 00:26 25.10.2019
5568 Clouds 18 1008 63 10000 9.8 350 23:41 24.10.2019
5569 Clouds 18 1008 63 10000 9.8 350 23:23 24.10.2019
5570 Clouds 18 1008 59 10000 9.3 350 22:56 24.10.2019
5571 Clouds 18 1008 59 10000 9.3 350 22:37 24.10.2019
5572 Clouds 18 1008 59 10000 9.3 350 22:19 24.10.2019
5573 Clouds 18 1008 48 10000 7.2 350 21:57 24.10.2019
5574 Clouds 18 1008 45 10000 8.2 340 21:38 24.10.2019
5575 Clouds 18 1008 45 10000 8.2 340 21:19 24.10.2019
5576 Clouds 18 1008 45 10000 8.2 340 20:57 24.10.2019
5577 Clouds 18 1008 45 10000 8.2 340 20:38 24.10.2019
5578 Clouds 18 1008 45 10000 8.2 340 20:20 24.10.2019
5579 Clouds 18 1008 48 10000 5.7 340 19:54 24.10.2019
5580 Clouds 18 1016 64 0 3.58 347 19:36 24.10.2019
5581 Clouds 19 1007 45 10000 7.7 330 19:18 24.10.2019
5582 Clouds 19 1007 45 10000 7.7 330 19:18 24.10.2019
5583 Clouds 19 1007 45 10000 7.7 330 18:40 24.10.2019
5584 Clouds 19 1007 45 10000 7.7 330 18:22 24.10.2019
5585 Clouds 19 1007 42 10000 6.2 320 17:59 24.10.2019
5586 Clouds 20 1007 42 10000 6.2 320 17:40 24.10.2019
5587 Clouds 20 1007 42 10000 6.2 320 17:20 24.10.2019
5588 Clouds 20 1007 42 10000 6.2 320 17:20 24.10.2019
5589 Clouds 20 1007 48 10000 6.7 330 16:55 24.10.2019
5590 Clouds 20 1006 58 0 2.68 315 16:37 24.10.2019
5591 Clouds 20 1008 52 10000 7.2 310 16:19 24.10.2019
5592 Clouds 20 1008 52 10000 7.2 310 15:55 24.10.2019
5593 Clouds 20 1008 52 10000 7.2 310 15:37 24.10.2019
5594 Clouds 20 1008 52 10000 7.2 310 15:19 24.10.2019
5595 Clouds 20 1008 59 10000 6.2 310 14:44 24.10.2019
5596 Clouds 20 1008 59 10000 6.2 310 14:26 24.10.2019
5597 Clouds 19 1009 63 10000 7.2 310 13:59 24.10.2019
5598 Clouds 19 1009 63 10000 7.2 310 13:39 24.10.2019
5599 Clouds 19 1009 63 10000 7.2 310 13:19 24.10.2019
5600 Clouds 20 1009 59 10000 5.7 320 12:57 24.10.2019
5601 Clouds 19 1009 59 10000 5.7 320 12:38 24.10.2019
5602 Clouds 19 1009 59 10000 5.7 320 12:19 24.10.2019
5603 Clouds 19 1009 63 10000 5.7 310 11:56 24.10.2019
5604 Clouds 18 1009 63 10000 5.7 310 11:37 24.10.2019
5605 Clouds 18 1009 63 10000 5.7 310 11:18 24.10.2019
5606 Clouds 18 1009 52 10000 6.7 330 10:42 24.10.2019
5607 Clouds 19 1009 52 10000 6.7 330 10:23 24.10.2019
5608 Clouds 17 1009 63 10000 4.6 360 09:58 24.10.2019
5609 Clouds 17 1009 63 10000 4.6 360 09:37 24.10.2019
5610 Clouds 17 1009 63 10000 4.6 360 09:18 24.10.2019
5611 Clouds 17 1009 63 10000 4.6 360 09:18 24.10.2019
5612 Rain 16 1010 82 10000 2.6 30 08:42 24.10.2019
5613 Clouds 15 1010 82 10000 3.1 10 08:20 24.10.2019
5614 Clouds 15 1010 82 10000 3.1 10 07:49 24.10.2019
5615 Clouds 14 1010 82 10000 3.1 10 07:24 24.10.2019
5616 Clouds 14 1010 87 10000 3.6 20 06:59 24.10.2019
5617 Clouds 14 1010 87 10000 3.6 20 06:37 24.10.2019
5618 Clouds 13 1010 87 10000 4.1 40 05:56 24.10.2019
5619 Clouds 13 1010 87 10000 4.1 40 05:36 24.10.2019
5620 Clouds 13 1010 87 10000 4.1 20 04:44 24.10.2019
5621 Clouds 13 1011 87 10000 4.6 40 03:36 24.10.2019
5622 Clouds 13 1011 93 10000 4.6 40 02:51 24.10.2019
5623 Clouds 13 1012 87 10000 4.1 40 02:22 24.10.2019
5624 Clouds 14 1012 87 10000 4.1 40 01:33 24.10.2019
5625 Clouds 14 1013 87 10000 4.6 10 00:57 24.10.2019
5626 Clouds 14 1013 87 10000 4.6 10 00:37 24.10.2019
5627 Clouds 14 1013 87 10000 4.6 10 00:18 24.10.2019
5628 Clouds 15 1013 82 10000 5.1 350 23:41 23.10.2019
5629 Clouds 15 1013 82 10000 5.1 350 23:21 23.10.2019
5630 Clouds 15 1013 82 10000 4.1 350 22:57 23.10.2019
5631 Clouds 15 1013 82 10000 4.1 350 22:57 23.10.2019
5632 Clouds 15 1013 82 10000 4.1 350 22:57 23.10.2019
5633 Clouds 15 1013 82 10000 4.1 350 22:37 23.10.2019
5634 Clouds 15 1013 82 10000 4.1 350 22:18 23.10.2019
5635 Clouds 15 1013 82 10000 4.1 350 22:18 23.10.2019
5636 Clouds 15 1013 82 10000 3.6 330 21:57 23.10.2019
5637 Clouds 15 1013 82 10000 3.6 330 21:38 23.10.2019
5638 Clouds 15 1013 82 10000 3.6 330 21:19 23.10.2019
5639 Clouds 15 1013 87 10000 5.1 330 20:56 23.10.2019
5640 Clouds 15 1013 87 10000 5.1 330 20:37 23.10.2019
5641 Clouds 15 1013 87 10000 5.1 330 20:19 23.10.2019
5642 Clouds 15 1012 82 10000 5.1 320 19:44 23.10.2019
5643 Clouds 16 1012 72 10000 5.1 300 19:20 23.10.2019
5644 Clouds 16 1012 72 10000 5.1 300 18:59 23.10.2019
5645 Clouds 16 1012 72 10000 5.1 300 18:39 23.10.2019
5646 Clouds 17 1012 72 10000 5.1 300 18:19 23.10.2019
5647 Clouds 17 1012 67 10000 4.6 310 17:58 23.10.2019
5648 Clouds 17 1012 67 10000 4.6 310 17:58 23.10.2019
5649 Clouds 17 1012 67 10000 4.6 310 17:40 23.10.2019
5650 Clouds 17 1012 67 10000 4.6 310 17:19 23.10.2019
5651 Clouds 17 1012 72 10000 5.7 290 16:54 23.10.2019
5652 Clouds 17 1012 72 10000 5.7 290 16:36 23.10.2019
5653 Clouds 17 1012 72 10000 5.7 290 16:36 23.10.2019
5654 Clouds 17 1012 72 10000 5.7 290 16:18 23.10.2019
5655 Clouds 17 1012 63 10000 7.2 330 15:40 23.10.2019
5656 Clouds 17 1012 63 10000 7.2 330 15:21 23.10.2019
5657 Clouds 17 1013 67 10000 7.2 320 14:57 23.10.2019
5658 Clouds 17 1013 67 10000 7.2 320 14:38 23.10.2019
5659 Clouds 17 1013 67 10000 7.2 320 14:19 23.10.2019
5660 Clouds 17 1013 67 10000 7.2 320 14:19 23.10.2019
5661 Clouds 17 1013 67 10000 9.3 330 13:54 23.10.2019
5662 Clouds 17 1013 67 10000 9.3 330 13:36 23.10.2019
5663 Clouds 17 1013 67 10000 9.3 330 13:18 23.10.2019
5664 Clouds 18 1013 63 10000 7.2 330 12:41 23.10.2019
5665 Clouds 17 1013 72 10000 7.2 330 12:20 23.10.2019
5666 Clouds 17 1013 72 10000 7.2 330 11:58 23.10.2019
5667 Clouds 17 1013 72 10000 7.2 330 11:58 23.10.2019
5668 Clouds 16 1014 82 10000 6.2 340 11:40 23.10.2019
5669 Clouds 16 1014 82 10000 6.2 340 11:21 23.10.2019
5670 Clouds 16 1013 77 10000 8.2 330 10:59 23.10.2019
5671 Clouds 16 1013 77 10000 8.2 330 10:41 23.10.2019
5672 Clouds 16 1013 77 10000 8.2 330 10:22 23.10.2019
5673 Clouds 16 1013 67 10000 7.2 340 09:41 23.10.2019
5674 Clouds 16 1013 67 10000 7.2 340 09:41 23.10.2019
5675 Clouds 16 1013 67 10000 7.2 340 09:23 23.10.2019
5676 Clouds 16 1013 67 10000 3.1 30 08:57 23.10.2019
5677 Clouds 16 1013 67 10000 3.1 30 08:39 23.10.2019
5678 Clouds 16 1013 67 10000 3.1 30 08:18 23.10.2019
5679 Clouds 15 1012 67 10000 4.6 20 07:45 23.10.2019
5680 Clouds 14 1012 67 10000 4.6 20 07:21 23.10.2019
5681 Clouds 14 1012 67 10000 4.1 10 06:45 23.10.2019
5682 Clouds 12 1012 81 10000 3.1 40 06:20 23.10.2019
5683 Clouds 12 1012 76 10000 4.1 40 05:20 23.10.2019
5684 Clouds 12 1012 71 10000 2.6 340 04:33 23.10.2019
5685 Clouds 13 1012 62 10000 2.1 270 02:44 23.10.2019
5686 Clouds 13 1012 67 10000 3.6 270 01:56 23.10.2019
5687 Clouds 14 1012 67 10000 3.6 270 01:25 23.10.2019
5688 Clouds 15 1012 67 10000 3.1 240 00:35 23.10.2019
5689 Clouds 15 1012 67 10000 3.1 240 00:35 23.10.2019
5690 Clouds 15 1011 72 10000 4.6 210 23:57 22.10.2019
5691 Clouds 15 1011 72 10000 4.6 210 23:38 22.10.2019
5692 Clouds 15 1011 72 10000 4.6 210 23:18 22.10.2019
5693 Clouds 15 1011 72 10000 4.6 210 23:18 22.10.2019
5694 Clouds 15 1011 72 10000 5.7 190 22:55 22.10.2019
5695 Clouds 15 1011 72 10000 5.7 190 22:37 22.10.2019
5696 Clouds 16 1011 72 10000 5.7 190 22:19 22.10.2019
5697 Clouds 16 1011 67 10000 6.7 200 21:56 22.10.2019
5698 Clouds 16 1011 67 10000 6.7 200 21:36 22.10.2019
5699 Clouds 16 1011 67 10000 6.7 200 21:36 22.10.2019
5700 Clouds 16 1011 67 10000 6.7 200 21:18 22.10.2019
5701 Clouds 16 1010 72 10000 7.7 190 20:55 22.10.2019
5702 Clouds 16 1010 72 10000 7.7 190 20:37 22.10.2019
5703 Clouds 16 1009 72 10000 8.2 180 20:18 22.10.2019
5704 Clouds 16 1009 72 10000 8.2 180 19:42 22.10.2019
5705 Clouds 17 1009 72 10000 8.2 180 19:24 22.10.2019
5706 Clouds 18 1009 52 10000 6.7 190 18:57 22.10.2019
5707 Clouds 18 1007 69 0 4.54 176 18:39 22.10.2019
5708 Clouds 19 1009 45 10000 5.7 190 18:20 22.10.2019
5709 Clouds 20 1009 45 10000 5.7 190 17:56 22.10.2019
5710 Clouds 19 1008 54 0 2.24 225 17:38 22.10.2019
5711 Clouds 19 1009 45 10000 5.7 200 17:19 22.10.2019
5712 Clouds 19 1009 45 10000 5.7 200 16:56 22.10.2019
5713 Clouds 19 1009 45 10000 5.7 200 16:37 22.10.2019
5714 Clouds 20 1009 45 10000 5.7 200 16:18 22.10.2019
5715 Clouds 20 1009 40 10000 5.7 210 15:43 22.10.2019
5716 Clouds 21 1009 40 10000 5.7 210 15:20 22.10.2019
5717 Clouds 22 1010 33 10000 3.6 210 14:50 22.10.2019
5718 Clouds 21 1010 33 10000 3.6 210 14:23 22.10.2019
5719 Clouds 21 1010 35 10000 3.1 230 13:59 22.10.2019
5720 Clouds 21 1010 35 10000 3.1 230 13:41 22.10.2019
5721 Clouds 21 1012 40 10000 4.6 240 13:19 22.10.2019
5722 Clouds 21 1012 40 10000 4.6 240 12:56 22.10.2019
5723 Clouds 21 1012 40 10000 4.6 240 12:38 22.10.2019
5724 Clouds 20 1012 40 10000 4.6 240 12:19 22.10.2019
5725 Clouds 20 1013 32 10000 0.5 0 11:41 22.10.2019
5726 Clouds 19 1013 32 10000 0.5 0 11:22 22.10.2019
5727 Clouds 19 1013 36 10000 2.1 0 10:59 22.10.2019
5728 Clouds 18 1013 36 10000 2.1 0 10:38 22.10.2019
5729 Clouds 18 1013 36 10000 2.1 0 10:19 22.10.2019
5730 Clouds 18 1013 36 10000 2.1 0 10:19 22.10.2019
5731 Clouds 18 1014 44 10000 0.5 0 09:58 22.10.2019
5732 Clouds 18 1014 44 10000 0.5 0 09:40 22.10.2019
5733 Clear 16 1014 44 10000 0.5 0 09:21 22.10.2019
5734 Clear 15 1015 54 10000 2.6 250 08:55 22.10.2019
5735 Clear 15 1015 54 10000 2.6 250 08:37 22.10.2019
5736 Clear 15 1015 54 10000 2.6 250 08:18 22.10.2019
5737 Clear 14 1015 71 10000 0.5 0 07:42 22.10.2019
5738 Clear 12 1015 71 10000 0.5 0 07:24 22.10.2019
5739 Clear 11 1015 81 10000 0.5 0 06:40 22.10.2019
5740 Clear 11 1013 80 0 2.49 137 06:21 22.10.2019
5741 Clear 12 1023 75 0 2.49 137 05:34 22.10.2019
5742 Clear 12 1011 26 0 1.34 132 04:22 22.10.2019
5743 Clear 12 1016 66 0 1.79 180 02:31 22.10.2019
5744 Clear 13 1017 64 0 2.68 180 01:38 22.10.2019
5745 Clear 13 1014 17 0 2.24 155 01:18 22.10.2019
5746 Clear 13 1016 61 0 0.45 160 00:42 22.10.2019
5747 Clear 13 1014 20 0 0.89 172 00:24 22.10.2019
5748 Clear 13 1018 65 0 4.02 180 23:59 21.10.2019
5749 Clear 13 1015 17 0 1.34 146 23:38 21.10.2019
5750 Clear 13 1015 17 0 1.34 155 23:19 21.10.2019
5751 Clear 13 1019 63 0 4.02 180 22:58 21.10.2019
5752 Clear 13 1019 63 0 4.02 180 22:39 21.10.2019
5753 Clear 13 1016 14 0 2.24 185 22:20 21.10.2019
5754 Clear 13 1028 65 0 2.68 178 21:58 21.10.2019
5755 Clear 13 1020 65 0 4.02 158 21:38 21.10.2019
5756 Clouds 13 1021 62 10000 6.7 140 21:20 21.10.2019
5757 Clouds 14 1021 62 10000 6.7 140 20:57 21.10.2019
5758 Clouds 14 1021 62 10000 6.7 140 20:39 21.10.2019
5759 Clouds 14 1021 62 10000 6.7 140 20:20 21.10.2019
5760 Clouds 14 1020 66 10000 8.7 160 19:56 21.10.2019
5761 Clouds 14 1020 66 10000 8.7 160 19:37 21.10.2019
5762 Clouds 14 1020 66 10000 8.7 160 19:19 21.10.2019
5763 Clouds 15 1020 58 10000 10.3 160 18:55 21.10.2019
5764 Clouds 15 1020 58 10000 10.3 160 18:55 21.10.2019
5765 Clouds 15 1020 58 10000 10.3 160 18:36 21.10.2019
5766 Clouds 15 1020 58 10000 10.3 160 18:18 21.10.2019
5767 Clouds 16 1020 59 10000 10.3 160 17:39 21.10.2019
5768 Clouds 16 1020 59 10000 10.3 160 17:20 21.10.2019
5769 Clouds 17 1020 55 10000 11.3 170 16:59 21.10.2019
5770 Clouds 17 1020 55 10000 11.3 170 16:40 21.10.2019
5771 Clouds 17 1020 55 10000 11.3 170 16:22 21.10.2019
5772 Clouds 17 1020 52 10000 8.2 160 15:58 21.10.2019
5773 Clouds 18 1020 52 10000 8.2 160 15:39 21.10.2019
5774 Clouds 18 1020 52 10000 8.2 160 15:20 21.10.2019
5775 Clouds 18 1020 55 10000 10.8 180 14:56 21.10.2019
5776 Clouds 18 1020 55 10000 10.8 180 14:37 21.10.2019
5777 Clouds 18 1020 55 10000 10.8 180 14:18 21.10.2019
5778 Clouds 19 1021 52 10000 10.8 190 13:42 21.10.2019
5779 Clouds 19 1021 52 10000 10.8 190 13:21 21.10.2019
5780 Clouds 20 1021 37 10000 7.2 200 12:59 21.10.2019
5781 Clouds 20 1021 37 10000 7.2 200 12:40 21.10.2019
5782 Clouds 19 1021 37 10000 7.2 200 12:21 21.10.2019
5783 Clouds 19 1021 39 10000 7.2 200 11:55 21.10.2019
5784 Clouds 19 1021 39 10000 7.2 200 11:37 21.10.2019
5785 Clouds 19 1021 39 10000 7.2 200 11:18 21.10.2019
5786 Clouds 19 1021 45 10000 7.7 200 10:55 21.10.2019
5787 Clouds 18 1021 51 10000 7.7 210 10:37 21.10.2019
5788 Clouds 19 1021 51 10000 7.7 210 10:18 21.10.2019
5789 Clouds 17 1021 51 10000 7.7 210 09:43 21.10.2019
5790 Clouds 18 1021 51 10000 7.7 210 09:23 21.10.2019
5791 Clouds 17 1020 59 10000 3.1 200 08:43 21.10.2019
5792 Clouds 16 1020 59 10000 3.1 200 08:23 21.10.2019
5793 Clouds 15 1020 66 10000 1 0 07:59 21.10.2019
5794 Clouds 15 1020 66 10000 1 0 07:37 21.10.2019
5795 Clouds 14 1020 66 10000 1 0 07:19 21.10.2019
5796 Clouds 14 1019 71 10000 1.5 340 06:51 21.10.2019
5797 Clouds 13 1019 71 10000 1.5 340 06:32 21.10.2019
5798 Clouds 12 1019 71 10000 0.5 0 05:50 21.10.2019
5799 Clouds 12 1019 71 10000 0.5 0 04:43 21.10.2019
5800 Clouds 14 1019 62 10000 1.5 0 02:42 21.10.2019
5801 Clouds 14 1019 62 10000 1.5 0 02:22 21.10.2019
5802 Clouds 14 1019 62 10000 1.5 0 02:22 21.10.2019
5803 Clouds 15 1019 62 10000 4.6 220 01:53 21.10.2019
5804 Clouds 15 1019 72 10000 3.6 210 01:23 21.10.2019
5805 Clouds 15 1019 72 10000 3.6 210 00:43 21.10.2019
5806 Clouds 15 1019 72 10000 3.6 210 00:24 21.10.2019
5807 Clouds 15 1019 87 10000 1.5 150 23:42 20.10.2019
5808 Clouds 15 1019 87 10000 1.5 150 23:22 20.10.2019
5809 Clouds 16 1019 77 10000 3.6 200 22:56 20.10.2019
5810 Clouds 16 1019 77 10000 3.6 200 22:37 20.10.2019
5811 Clouds 15 1019 87 10000 4.1 180 22:18 20.10.2019
5812 Clouds 15 1019 87 10000 4.1 180 21:57 20.10.2019
5813 Clouds 15 1019 87 10000 4.1 180 21:38 20.10.2019
5814 Clouds 16 1019 87 10000 4.1 180 21:20 20.10.2019
5815 Rain 16 1018 77 8000 5.7 190 20:41 20.10.2019
5816 Rain 16 1018 77 8000 5.7 190 20:19 20.10.2019
5817 Rain 16 1025 77 0 1.34 194 19:56 20.10.2019
5818 Rain 17 1016 80 0 2.24 180 19:38 20.10.2019
5819 Clouds 17 1017 77 10000 6.7 190 19:20 20.10.2019
5820 Clouds 17 1017 77 10000 6.7 190 18:55 20.10.2019
5821 Rain 17 1014 73 0 6.57 187.064 18:36 20.10.2019
5822 Clouds 18 1016 77 10000 7.2 190 18:18 20.10.2019
5823 Clouds 18 1016 77 10000 7.2 190 17:42 20.10.2019
5824 Clouds 18 1016 77 10000 7.2 190 17:23 20.10.2019
5825 Clouds 19 1016 72 10000 5.1 160 16:57 20.10.2019
5826 Clouds 19 1016 72 10000 5.1 160 16:39 20.10.2019
5827 Clouds 19 1016 72 10000 5.1 160 16:39 20.10.2019
5828 Clouds 20 1016 72 10000 5.1 160 16:21 20.10.2019
5829 Clouds 20 1016 64 10000 5.1 160 15:56 20.10.2019
5830 Clouds 20 1016 64 10000 5.1 160 15:38 20.10.2019
5831 Rain 20 1016 63 10000 3.6 160 15:19 20.10.2019
5832 Rain 20 1016 63 10000 3.6 160 14:56 20.10.2019
5833 Rain 21 1016 63 10000 3.6 160 14:37 20.10.2019
5834 Rain 21 1016 63 10000 3.6 160 14:37 20.10.2019
5835 Rain 20 1016 63 10000 3.6 160 14:18 20.10.2019
5836 Clouds 21 1016 56 10000 1.5 0 13:54 20.10.2019
5837 Clouds 21 1016 56 10000 1.5 0 13:36 20.10.2019
5838 Clouds 21 1016 56 10000 1.5 0 13:18 20.10.2019
5839 Clouds 21 1016 56 10000 1.5 0 13:18 20.10.2019
5840 Clouds 20 1017 68 10000 1.5 0 12:55 20.10.2019
5841 Clouds 21 1017 68 10000 1.5 0 12:36 20.10.2019
5842 Clouds 20 1017 77 10000 1 0 12:18 20.10.2019
5843 Rain 20 1017 77 10000 2.6 270 11:41 20.10.2019
5844 Rain 20 1017 77 10000 2.6 270 11:41 20.10.2019
5845 Rain 20 1017 77 10000 2.6 270 11:23 20.10.2019
5846 Clouds 21 1017 60 10000 2.1 220 10:59 20.10.2019
5847 Clouds 20 1017 60 10000 2.1 220 10:39 20.10.2019
5848 Clouds 20 1017 60 10000 2.1 220 10:21 20.10.2019
5849 Clouds 19 1017 72 10000 1.5 270 09:56 20.10.2019
5850 Clouds 19 1017 72 10000 1.5 270 09:38 20.10.2019
5851 Clouds 19 1017 88 10000 2.1 360 09:20 20.10.2019
5852 Clouds 18 1017 88 10000 2.1 360 08:44 20.10.2019
5853 Clouds 17 1016 87 10000 2.1 50 08:22 20.10.2019
5854 Clouds 16 1016 87 10000 2.1 50 07:49 20.10.2019
5855 Clouds 16 1016 87 10000 2.1 50 07:29 20.10.2019
5856 Clear 14 1015 93 10000 1 50 06:31 20.10.2019
5857 Clear 15 1015 93 10000 2.1 70 04:46 20.10.2019
5858 Clear 15 1015 87 10000 1.5 300 04:25 20.10.2019
5859 Clear 16 1015 87 10000 1.5 300 03:41 20.10.2019
5860 Clear 16 1015 87 10000 1.5 260 03:18 20.10.2019
5861 Clear 16 1015 87 10000 1.5 260 02:33 20.10.2019
5862 Clear 16 1015 88 10000 3.6 230 01:55 20.10.2019
5863 Clear 17 1015 88 10000 3.6 230 01:23 20.10.2019
5864 Clear 17 1015 88 10000 3.6 230 00:53 20.10.2019
5865 Clear 16 1015 88 10000 3.6 230 00:21 20.10.2019
5866 Clear 17 1015 88 10000 4.1 230 23:55 19.10.2019
5867 Clear 17 1015 88 10000 4.1 230 23:37 19.10.2019
5868 Clear 17 1015 88 10000 4.1 230 23:19 19.10.2019
5869 Clouds 18 1022 88 0 0.89 168 22:55 19.10.2019
5870 Clouds 18 1022 88 0 1.34 188 22:37 19.10.2019
5871 Clouds 18 1013 87 0 2.24 180 22:18 19.10.2019
5872 Clouds 18 1013 87 0 2.68 203 21:43 19.10.2019
5873 Clouds 18 1013 82 10000 6.7 190 21:21 19.10.2019
5874 Clouds 18 1013 82 10000 6.7 190 20:44 19.10.2019
5875 Clouds 18 1013 82 10000 6.7 190 20:44 19.10.2019
5876 Clouds 18 1013 82 10000 6.7 190 20:22 19.10.2019
5877 Clouds 19 1013 82 10000 8.2 180 19:57 19.10.2019
5878 Clouds 19 1013 82 10000 8.2 180 19:38 19.10.2019
5879 Clouds 19 1013 82 10000 8.2 180 19:20 19.10.2019
5880 Clouds 20 1013 72 10000 9.3 190 18:41 19.10.2019
5881 Clouds 20 1013 72 10000 9.3 190 18:41 19.10.2019
5882 Clouds 20 1013 72 10000 9.3 190 18:23 19.10.2019
5883 Clouds 21 1012 68 10000 9.3 180 17:55 19.10.2019
5884 Clouds 21 1012 68 10000 9.3 180 17:55 19.10.2019
5885 Clouds 21 1012 68 10000 9.3 180 17:36 19.10.2019
5886 Clouds 22 1012 68 10000 9.3 180 17:18 19.10.2019
5887 Clouds 22 1011 64 10000 8.7 190 16:39 19.10.2019
5888 Clouds 22 1011 64 10000 8.7 190 16:20 19.10.2019
5889 Clouds 22 1011 64 10000 8.7 190 15:44 19.10.2019
5890 Clouds 22 1011 64 10000 8.7 190 15:44 19.10.2019
5891 Clouds 22 1011 64 10000 8.7 190 15:44 19.10.2019
5892 Clouds 22 1011 64 10000 8.7 190 15:26 19.10.2019
5893 Clouds 22 1011 64 10000 8.7 190 15:26 19.10.2019
5894 Clouds 22 1012 64 10000 7.7 180 14:55 19.10.2019
5895 Clouds 23 1012 64 10000 7.7 180 14:37 19.10.2019
5896 Clouds 23 1012 64 10000 7.7 180 14:19 19.10.2019
5897 Clouds 23 1012 64 10000 5.7 180 13:54 19.10.2019
5898 Clouds 23 1012 64 10000 5.7 180 13:36 19.10.2019
5899 Clouds 22 1012 64 10000 5.7 180 13:18 19.10.2019
5900 Clouds 22 1013 72 10000 8.7 200 12:39 19.10.2019
5901 Clouds 21 1013 72 10000 8.7 200 12:21 19.10.2019
5902 Clouds 21 1013 72 10000 5.1 200 11:56 19.10.2019
5903 Clouds 21 1013 72 10000 5.1 200 11:56 19.10.2019
5904 Clouds 21 1013 72 10000 5.1 200 11:36 19.10.2019
5905 Clouds 21 1013 72 10000 5.1 200 11:18 19.10.2019
5906 Clouds 20 1013 77 10000 5.1 200 10:40 19.10.2019
5907 Clouds 20 1013 77 10000 5.1 200 10:22 19.10.2019
5908 Clear 20 1013 77 10000 6.2 200 09:57 19.10.2019
5909 Clear 20 1013 77 10000 6.2 200 09:39 19.10.2019
5910 Clear 20 1013 77 10000 6.2 200 09:20 19.10.2019
5911 Clear 18 1012 93 10000 4.6 210 08:41 19.10.2019
5912 Clear 18 1012 93 10000 4.6 210 08:22 19.10.2019
5913 Clear 18 1011 93 10000 4.1 220 07:46 19.10.2019
5914 Clear 18 1011 93 10000 3.6 210 07:26 19.10.2019
5915 Clear 17 1011 93 10000 3.6 210 06:52 19.10.2019
5916 Clear 17 1011 93 10000 3.6 210 06:32 19.10.2019
5917 Clear 17 1012 93 10000 5.1 210 05:36 19.10.2019
5918 Clear 17 1012 93 10000 3.6 210 04:26 19.10.2019
5919 Clear 17 1012 93 10000 3.6 210 04:26 19.10.2019
5920 Clear 17 1012 88 10000 5.1 220 03:18 19.10.2019
5921 Clear 17 1012 88 10000 2.6 230 02:20 19.10.2019
5922 Clear 17 1013 88 10000 4.6 220 01:48 19.10.2019
5923 Clear 17 1013 93 10000 5.7 210 00:52 19.10.2019
5924 Clear 17 1013 93 10000 5.7 210 00:29 19.10.2019
5925 Clouds 18 1014 82 10000 7.2 210 23:57 18.10.2019
5926 Clouds 18 1014 82 10000 7.2 210 23:38 18.10.2019
5927 Clouds 18 1014 82 10000 7.2 210 23:19 18.10.2019
5928 Clouds 18 1014 82 10000 8.2 200 22:54 18.10.2019
5929 Clouds 18 1014 82 10000 8.2 200 22:36 18.10.2019
5930 Clouds 18 1014 82 10000 8.2 200 22:18 18.10.2019
5931 Clouds 18 1014 88 10000 7.7 200 21:55 18.10.2019
5932 Clouds 18 1014 88 10000 7.7 200 21:36 18.10.2019
5933 Clouds 18 1014 88 10000 7.7 200 21:18 18.10.2019
5934 Clouds 18 1013 88 10000 6.7 200 20:42 18.10.2019
5935 Clouds 18 1013 88 10000 6.7 200 20:22 18.10.2019
5936 Clouds 18 1013 88 10000 6.7 200 20:22 18.10.2019
5937 Clear 19 1013 77 10000 6.7 190 19:58 18.10.2019
5938 Clear 19 1013 77 10000 6.7 190 19:40 18.10.2019
5939 Clear 19 1013 77 10000 6.7 190 19:22 18.10.2019
5940 Clear 20 1013 72 10000 7.7 190 18:58 18.10.2019
5941 Clear 20 1013 72 10000 7.7 190 18:40 18.10.2019
5942 Clear 21 1013 68 10000 7.7 180 18:22 18.10.2019
5943 Clear 21 1013 68 10000 7.7 180 17:55 18.10.2019
5944 Clear 21 1013 68 10000 7.7 180 17:36 18.10.2019
5945 Clear 22 1013 68 10000 7.7 180 17:18 18.10.2019
5946 Clear 23 1013 64 10000 7.7 180 16:39 18.10.2019
5947 Clear 23 1013 60 10000 7.2 180 16:21 18.10.2019
5948 Clear 23 1013 60 10000 7.2 180 15:57 18.10.2019
5949 Clear 23 1013 60 10000 7.2 180 15:38 18.10.2019
5950 Clear 23 1013 60 10000 7.2 180 15:19 18.10.2019
5951 Clear 23 1013 60 10000 6.2 190 14:57 18.10.2019
5952 Clear 23 1013 60 10000 6.2 190 14:38 18.10.2019
5953 Clear 23 1013 60 10000 6.2 190 14:19 18.10.2019
5954 Clear 23 1014 60 10000 5.1 200 13:55 18.10.2019
5955 Clear 24 1014 60 10000 5.1 200 13:36 18.10.2019
5956 Clear 23 1014 60 10000 5.1 200 13:18 18.10.2019
5957 Clear 23 1014 60 10000 5.1 210 12:55 18.10.2019
5958 Clear 23 1014 60 10000 5.1 210 12:36 18.10.2019
5959 Clear 22 1014 60 10000 5.1 210 12:18 18.10.2019
5960 Clear 22 1015 60 10000 4.6 200 11:41 18.10.2019
5961 Clear 24 1015 60 10000 4.6 200 11:20 18.10.2019
5962 Clear 23 1014 68 10000 6.2 210 10:57 18.10.2019
5963 Clear 22 1014 68 10000 6.2 210 10:39 18.10.2019
5964 Clear 21 1014 68 10000 6.2 210 10:20 18.10.2019
5965 Clear 20 1015 77 10000 7.2 210 09:57 18.10.2019
5966 Clear 20 1015 77 10000 7.2 210 09:39 18.10.2019
5967 Clear 19 1015 77 10000 7.2 210 09:19 18.10.2019
5968 Clear 19 1014 82 10000 4.6 200 08:45 18.10.2019
5969 Clear 19 1014 82 10000 4.6 200 08:25 18.10.2019
5970 -273 0 0 0 0 0 08:25 18.10.2019
5971 Clear 18 1014 93 7000 4.6 210 07:53 18.10.2019
5972 Clear 17 1014 93 7000 4.6 210 07:35 18.10.2019
5973 Clear 16 1014 93 6000 3.1 200 06:55 18.10.2019
5974 Clear 16 1014 93 6000 3.1 200 06:55 18.10.2019
5975 Mist 16 1014 93 4500 2.6 180 06:35 18.10.2019
5976 Clear 16 1014 93 10000 3.1 230 05:59 18.10.2019
5977 Clear 16 1014 93 10000 3.1 230 05:41 18.10.2019
5978 Clear 16 1014 93 10000 3.1 230 05:18 18.10.2019
5979 Clouds 17 1014 93 10000 5.7 220 03:36 18.10.2019
5980 Clouds 17 1014 93 10000 5.1 210 02:54 18.10.2019
5981 Clouds 17 1014 93 10000 5.1 210 02:32 18.10.2019
5982 Clouds 17 1014 93 10000 4.6 210 01:39 18.10.2019
5983 Clouds 18 1014 93 10000 4.6 210 01:20 18.10.2019
5984 Clouds 18 1014 93 10000 6.7 210 00:41 18.10.2019
5985 Clouds 17 1014 93 10000 6.7 210 00:19 18.10.2019
5986 Clouds 17 1014 93 0 7.7 210 23:40 17.10.2019
5987 Clear 18 1013 89 0 3.13 180 23:20 17.10.2019
5988 Clear 18 1022 88 0 2.24 195 22:57 17.10.2019
5989 Clear 18 1013 88 0 4.02 203 22:39 17.10.2019
5990 Clear 18 1013 87 0 3.13 180 22:19 17.10.2019
5991 Clear 18 1022 86 0 2.24 183 21:57 17.10.2019
5992 Clear 18 1022 86 0 2.24 205 21:57 17.10.2019
5993 Clear 18 1013 86 0 3.13 203 21:39 17.10.2019
5994 Clear 18 1014 82 10000 9.3 190 21:20 17.10.2019
5995 Clear 18 1014 82 10000 9.3 190 20:58 17.10.2019
5996 Clear 18 1022 83 0 2.24 187 20:39 17.10.2019
5997 Clouds 18 1013 82 10000 9.3 190 20:19 17.10.2019
5998 Clouds 18 1013 82 10000 9.3 190 19:58 17.10.2019
5999 Clouds 18 1013 82 10000 9.3 190 19:39 17.10.2019
6000 Clouds 18 1013 82 10000 9.3 190 19:19 17.10.2019
6001 Clouds 18 1013 82 10000 9.3 190 19:19 17.10.2019
6002 Clouds 19 1014 77 10000 9.3 190 18:58 17.10.2019
6003 Clouds 19 1014 77 10000 9.3 190 18:38 17.10.2019
6004 Clouds 20 1014 77 10000 9.3 190 18:19 17.10.2019
6005 Rain 21 1013 64 10000 8.7 190 17:42 17.10.2019
6006 Rain 21 1013 64 10000 8.7 190 17:23 17.10.2019
6007 Rain 23 1011 65 0 5.051 170 16:57 17.10.2019
6008 Rain 23 1014 64 10000 9.3 200 16:38 17.10.2019
6009 Rain 23 1014 64 10000 9.3 200 16:18 17.10.2019
6010 Rain 23 1014 64 10000 9.3 200 15:55 17.10.2019
6011 Rain 22 1014 64 10000 9.3 200 15:37 17.10.2019
6012 Rain 22 1014 64 10000 9.3 200 15:19 17.10.2019
6013 Rain 23 1012 67 0 3.13 180 14:42 17.10.2019
6014 Clear 24 1013 68 0 3.58 180 14:24 17.10.2019
6015 Clear 23 1013 70 0 3.58 180 13:57 17.10.2019
6016 Clear 22 1015 77 0 8.49 200 13:39 17.10.2019
6017 Clear 22 1013 71 0 4.02 180 13:19 17.10.2019
6018 Clear 22 1013 71 0 4.02 180 12:41 17.10.2019
6019 Clear 23 1015 77 0 8.49 200 12:21 17.10.2019
6020 Clear 23 1013 73 0 4.47 180 11:59 17.10.2019
6021 Clear 23 1013 73 0 4.47 180 11:41 17.10.2019
6022 Clouds 22 1015 77 10000 8.7 200 11:41 17.10.2019
6023 Clouds 22 1015 77 10000 8.7 200 11:19 17.10.2019
6024 Clouds 21 1015 77 10000 8.7 200 10:56 17.10.2019
6025 Clouds 21 1015 77 10000 8.7 200 10:56 17.10.2019
6026 Clouds 21 1015 77 10000 8.7 200 10:38 17.10.2019
6027 Clouds 21 1015 77 10000 8.7 200 10:18 17.10.2019
6028 Clouds 21 1016 77 10000 6.7 190 09:54 17.10.2019
6029 Clouds 21 1016 77 10000 6.7 190 09:36 17.10.2019
6030 Clouds 20 1016 77 10000 6.7 190 09:18 17.10.2019
6031 Clouds 19 1016 82 10000 6.2 190 08:42 17.10.2019
6032 -273 0 0 0 0 0 08:24 17.10.2019
6033 Clouds 18 1015 88 9000 7.7 210 07:56 17.10.2019
6034 Clouds 18 1015 88 9000 7.7 210 07:37 17.10.2019
6035 Clouds 17 1015 88 9000 7.7 210 07:18 17.10.2019
6036 Clouds 17 1015 88 9000 7.7 210 07:18 17.10.2019
6037 Clouds 18 1014 88 10000 5.7 200 06:40 17.10.2019
6038 Clouds 17 1014 88 10000 5.7 200 06:21 17.10.2019
6039 Clouds 17 1013 88 10000 7.7 200 05:57 17.10.2019
6040 Clouds 17 1013 88 10000 7.7 200 05:32 17.10.2019
6041 Clouds 17 1013 88 10000 7.2 210 04:56 17.10.2019
6042 Clouds 17 1012 93 10000 6.2 200 03:55 17.10.2019
6043 Clouds 17 1012 93 10000 6.2 210 02:50 17.10.2019
6044 Clear 17 1013 88 10000 6.2 210 01:39 17.10.2019
6045 Clear 17 1013 88 10000 5.1 210 00:40 17.10.2019
6046 Clear 17 1013 88 10000 5.1 210 00:19 17.10.2019
6047 Clear 17 1014 93 10000 5.1 210 23:42 16.10.2019
6048 Clear 17 1014 93 10000 5.1 210 23:21 16.10.2019
6049 Clear 17 1014 93 10000 7.2 210 22:56 16.10.2019
6050 Clear 17 1014 93 10000 7.2 210 22:56 16.10.2019
6051 Clear 17 1014 93 10000 7.2 210 22:37 16.10.2019
6052 Clear 17 1014 93 10000 7.2 210 22:37 16.10.2019
6053 Clear 17 1014 93 10000 7.2 210 22:19 16.10.2019
6054 Clear 17 1014 93 10000 7.2 210 22:19 16.10.2019
6055 Clear 17 1014 93 10000 7.2 210 22:19 16.10.2019
6056 Clear 17 1014 93 10000 7.7 210 21:57 16.10.2019
6057 Clear 18 1014 93 10000 7.7 210 21:38 16.10.2019
6058 Clear 18 1014 93 10000 7.7 210 21:19 16.10.2019
6059 Clear 18 1014 88 10000 7.7 200 20:58 16.10.2019
6060 Clear 18 1014 88 10000 7.7 200 20:58 16.10.2019
6061 Clear 18 1014 88 10000 7.7 200 20:39 16.10.2019
6062 Clear 18 1014 88 10000 7.7 200 20:21 16.10.2019
6063 Clear 18 1014 82 10000 8.2 210 19:59 16.10.2019
6064 Clear 18 1014 82 10000 8.2 210 19:39 16.10.2019
6065 Clear 19 1014 82 10000 8.2 210 19:21 16.10.2019
6066 Clear 19 1015 77 10000 8.7 200 18:55 16.10.2019
6067 Clear 19 1015 77 10000 8.7 200 18:36 16.10.2019
6068 Clear 20 1015 77 10000 8.7 200 18:18 16.10.2019
6069 Clear 20 1015 72 10000 8.7 200 17:54 16.10.2019
6070 Clear 20 1015 72 10000 8.7 200 17:54 16.10.2019
6071 Clear 20 1015 72 10000 8.7 200 17:36 16.10.2019
6072 Clear 21 1015 72 10000 8.7 200 17:18 16.10.2019
6073 Clear 22 1015 64 10000 8.2 190 16:43 16.10.2019
6074 Clear 22 1015 64 10000 8.2 190 16:21 16.10.2019
6075 Clear 23 1015 60 10000 9.3 190 15:58 16.10.2019
6076 Clear 23 1015 60 10000 9.3 190 15:39 16.10.2019
6077 Clear 22 1015 60 10000 9.3 190 15:19 16.10.2019
6078 Clear 22 1016 60 10000 8.2 190 14:58 16.10.2019
6079 Clear 22 1016 60 10000 8.2 190 14:39 16.10.2019
6080 Clear 22 1016 60 10000 8.2 190 14:19 16.10.2019
6081 Clear 22 1017 56 10000 7.7 200 13:57 16.10.2019
6082 Clear 23 1017 56 10000 7.7 200 13:38 16.10.2019
6083 Clear 24 1017 56 10000 7.7 200 13:20 16.10.2019
6084 Clear 23 1017 64 10000 8.7 200 12:42 16.10.2019
6085 Clouds 23 1017 64 10000 8.7 200 12:20 16.10.2019
6086 Clouds 23 1018 64 10000 8.7 200 11:45 16.10.2019
6087 Clouds 22 1018 64 10000 8.7 200 11:19 16.10.2019
6088 Clouds 22 1018 64 10000 8.7 200 10:56 16.10.2019
6089 Clouds 22 1018 64 10000 8.7 200 10:36 16.10.2019
6090 Clouds 22 1018 64 10000 8.7 200 10:18 16.10.2019
6091 Clouds 20 1018 68 10000 8.7 190 09:40 16.10.2019
6092 Clouds 20 1018 68 10000 8.7 190 09:40 16.10.2019
6093 Clouds 19 1018 68 10000 8.7 190 09:22 16.10.2019
6094 Clouds 18 1018 72 10000 7.2 200 08:56 16.10.2019
6095 Clouds 18 1018 72 10000 7.2 200 08:56 16.10.2019
6096 Clouds 18 1018 72 10000 7.2 200 08:37 16.10.2019
6097 Clouds 18 1018 72 10000 7.2 200 08:19 16.10.2019
6098 Clouds 16 1018 82 10000 6.7 210 07:41 16.10.2019
6099 Clouds 18 1018 82 10000 6.7 210 07:23 16.10.2019
6100 Clouds 17 1018 51 10000 5.1 220 06:48 16.10.2019
6101 Clouds 16 1018 51 10000 5.1 220 06:29 16.10.2019
6102 Clouds 15 1018 67 10000 5.1 230 04:31 16.10.2019
6103 Clear 15 1019 93 10000 5.1 230 02:51 16.10.2019
6104 Clear 15 1020 82 10000 4.6 220 01:20 16.10.2019
6105 Clear 16 1020 82 10000 5.1 210 00:59 16.10.2019
6106 Clear 16 1020 82 10000 5.1 210 00:40 16.10.2019
6107 Clear 16 1021 87 10000 5.1 190 23:59 15.10.2019
6108 Clear 16 1021 87 10000 5.1 190 23:38 15.10.2019
6109 Clear 16 1021 87 10000 5.1 190 23:20 15.10.2019
6110 Clear 16 1021 87 10000 5.1 180 22:55 15.10.2019
6111 Clear 16 1021 87 10000 5.1 180 22:37 15.10.2019
6112 Clear 16 1021 87 10000 5.1 180 22:18 15.10.2019
6113 Clear 17 1021 82 10000 5.7 180 21:55 15.10.2019
6114 Clear 17 1021 82 10000 5.7 180 21:55 15.10.2019
6115 Clouds 17 1021 82 10000 5.7 180 21:36 15.10.2019
6116 Clouds 17 1021 82 10000 5.7 180 21:18 15.10.2019
6117 Clouds 17 1021 82 10000 6.2 180 20:55 15.10.2019
6118 Clouds 17 1021 82 10000 6.2 180 20:55 15.10.2019
6119 Clouds 17 1021 82 10000 6.2 180 20:37 15.10.2019
6120 Clouds 17 1021 82 10000 6.2 180 20:19 15.10.2019
6121 Clouds 17 1021 77 10000 6.7 170 19:55 15.10.2019
6122 Clouds 17 1021 77 10000 6.7 170 19:36 15.10.2019
6123 Clouds 17 1021 77 10000 6.7 170 19:18 15.10.2019
6124 Clouds 17 1021 77 10000 6.7 170 19:18 15.10.2019
6125 Clouds 19 1021 68 10000 7.7 170 18:43 15.10.2019
6126 Clear 19 1021 68 10000 7.7 170 18:25 15.10.2019
6127 Clear 20 1021 52 10000 6.2 160 17:55 15.10.2019
6128 Clear 20 1021 52 10000 6.2 160 17:37 15.10.2019
6129 Clear 20 1021 52 10000 6.2 160 17:37 15.10.2019
6130 Clear 20 1021 52 10000 6.2 160 17:18 15.10.2019
6131 Clear 21 1021 49 10000 6.7 150 16:43 15.10.2019
6132 Clear 21 1021 49 10000 6.7 150 16:22 15.10.2019
6133 Clear 22 1021 41 10000 6.7 170 15:57 15.10.2019
6134 Clear 22 1021 41 10000 6.7 170 15:39 15.10.2019
6135 Clouds 23 1021 41 10000 6.7 170 15:19 15.10.2019
6136 Clouds 23 1022 44 10000 2.6 160 14:56 15.10.2019
6137 Clouds 22 1022 44 10000 2.6 160 14:37 15.10.2019
6138 Clouds 23 1022 44 10000 2.6 160 14:19 15.10.2019
6139 Clouds 23 1022 44 10000 3.1 150 13:43 15.10.2019
6140 Clouds 23 1022 44 10000 3.1 150 13:21 15.10.2019
6141 Clouds 23 1023 43 10000 4.1 310 12:57 15.10.2019
6142 Clouds 22 1023 43 10000 4.1 310 12:38 15.10.2019
6143 Clouds 23 1023 43 10000 4.1 310 12:20 15.10.2019
6144 Clouds 23 1023 44 10000 3.6 310 11:44 15.10.2019
6145 Clouds 23 1023 49 10000 4.6 310 11:20 15.10.2019
6146 Clouds 22 1023 46 10000 4.1 310 10:57 15.10.2019
6147 Clear 21 1022 49 10000 4.1 320 10:39 15.10.2019
6148 Clear 21 1022 49 10000 4.1 320 10:19 15.10.2019
6149 Clear 21 1022 46 10000 3.6 350 09:56 15.10.2019
6150 Clear 21 1022 56 10000 3.6 10 09:37 15.10.2019
6151 Clear 20 1022 56 10000 3.6 10 09:19 15.10.2019
6152 Clear 18 1022 67 10000 2.1 70 08:41 15.10.2019
6153 Clear 16 1022 67 10000 2.1 70 08:21 15.10.2019
6154 Clear 16 1022 77 10000 2.1 50 07:55 15.10.2019
6155 Clear 16 1022 82 10000 2.1 10 07:37 15.10.2019
6156 Clear 16 1022 82 10000 2.1 10 07:37 15.10.2019
6157 Clear 14 1022 82 10000 2.1 10 07:18 15.10.2019
6158 Clear 14 1023 76 10000 1.5 0 06:43 15.10.2019
6159 Clear 13 1022 81 10000 2.1 300 06:22 15.10.2019
6160 Clouds 13 1022 82 10000 2.1 190 05:37 15.10.2019
6161 Clouds 14 1022 82 10000 2.1 190 05:19 15.10.2019
6162 Clouds 15 1023 82 10000 4.1 180 04:23 15.10.2019
6163 Clouds 16 1024 77 10000 3.6 180 03:36 15.10.2019
6164 Clouds 16 1024 77 10000 3.6 180 03:36 15.10.2019
6165 Clouds 16 1024 87 10000 0.5 0 02:23 15.10.2019
6166 Clouds 16 1023 87 10000 2.6 40 01:47 15.10.2019
6167 Clouds 16 1023 87 10000 2.6 40 01:19 15.10.2019
6168 Clouds 17 1023 77 10000 2.6 320 00:48 15.10.2019
6169 Clouds 17 1023 77 10000 2.6 320 00:21 15.10.2019
6170 Clouds 17 1023 82 10000 3.1 360 23:40 14.10.2019
6171 Clouds 17 1023 82 10000 3.1 360 23:19 14.10.2019
6172 Clouds 17 1022 77 10000 3.6 340 22:41 14.10.2019
6173 Clouds 17 1022 77 10000 3.6 340 22:21 14.10.2019
6174 Clouds 17 1022 77 10000 3.6 340 22:21 14.10.2019
6175 Clouds 17 1022 77 10000 2.6 330 21:59 14.10.2019
6176 Clouds 17 1022 77 10000 2.6 330 21:40 14.10.2019
6177 Clouds 17 1022 77 10000 2.6 330 21:21 14.10.2019
6178 Clouds 17 1021 72 10000 6.2 290 20:59 14.10.2019
6179 Clouds 18 1021 72 10000 6.2 290 20:39 14.10.2019
6180 Clouds 18 1021 72 10000 6.2 290 20:20 14.10.2019
6181 Clouds 18 1019 68 10000 7.2 320 19:58 14.10.2019
6182 Clouds 18 1019 68 10000 7.2 320 19:40 14.10.2019
6183 Clouds 18 1019 68 10000 7.2 320 19:22 14.10.2019
6184 Clouds 18 1018 63 10000 5.7 310 18:58 14.10.2019
6185 Clouds 19 1018 63 10000 5.7 310 18:38 14.10.2019
6186 Clouds 19 1018 63 10000 5.7 310 18:18 14.10.2019
6187 Clouds 19 1018 63 10000 5.7 310 18:18 14.10.2019
6188 Clouds 20 1019 60 10000 7.2 310 17:44 14.10.2019
6189 Clouds 20 1019 60 10000 7.2 310 17:25 14.10.2019
6190 Clouds 21 1019 56 10000 6.2 320 16:59 14.10.2019
6191 Clouds 21 1019 56 10000 6.2 320 16:40 14.10.2019
6192 Clouds 21 1019 56 10000 6.2 320 16:20 14.10.2019
6193 Clouds 21 1019 56 10000 6.2 320 16:20 14.10.2019
6194 Clouds 22 1018 49 10000 6.2 310 15:42 14.10.2019
6195 Clouds 22 1018 49 10000 6.2 310 15:22 14.10.2019
6196 -273 0 0 0 0 0 14:56 14.10.2019
6197 Clouds 22 1018 49 10000 8.2 250 14:56 14.10.2019
6198 Clouds 21 1018 49 10000 8.2 250 14:38 14.10.2019
6199 Clouds 21 1018 49 10000 8.2 250 14:18 14.10.2019
6200 Clouds 21 1016 56 10000 7.2 310 13:42 14.10.2019
6201 Clouds 22 1016 56 10000 7.2 310 13:21 14.10.2019
6202 Clouds 21 1016 64 10000 5.7 300 12:55 14.10.2019
6203 Clouds 21 1016 64 10000 5.7 300 12:36 14.10.2019
6204 Clouds 21 1016 64 10000 5.7 300 12:18 14.10.2019
6205 Clouds 21 1016 60 10000 4.1 300 11:44 14.10.2019
6206 Clouds 21 1016 60 10000 4.1 300 11:24 14.10.2019
6207 Clouds 20 1016 64 10000 2.1 80 10:55 14.10.2019
6208 Clouds 20 1016 64 10000 2.1 80 10:37 14.10.2019
6209 Clouds 21 1016 64 10000 2.1 80 10:18 14.10.2019
6210 Clouds 21 1016 64 10000 2.1 80 10:18 14.10.2019
6211 Clouds 20 1015 77 10000 3.1 120 09:41 14.10.2019
6212 Clouds 20 1015 77 10000 3.1 120 09:41 14.10.2019
6213 Clouds 20 1015 77 10000 3.1 120 09:41 14.10.2019
6214 Clouds 18 1015 77 10000 3.1 120 09:21 14.10.2019
6215 Clouds 17 1015 82 7000 1 0 08:51 14.10.2019
6216 Clouds 17 1014 100 6000 7.2 330 08:23 14.10.2019
6217 Mist 16 1013 100 3000 7.2 340 07:47 14.10.2019
6218 Fog 16 1013 100 800 7.2 340 07:25 14.10.2019
6219 Fog 16 1012 100 800 5.1 350 06:59 14.10.2019
6220 Fog 16 1012 87 800 4.6 330 06:28 14.10.2019
6221 Clouds 15 1011 87 10000 4.6 340 05:57 14.10.2019
6222 Clouds 15 1011 87 10000 4.6 340 05:27 14.10.2019
6223 Clear 14 1012 87 10000 2.6 330 03:51 14.10.2019
6224 Clear 16 1012 87 10000 2.6 330 03:26 14.10.2019
6225 Clear 16 1012 87 10000 2.6 350 02:34 14.10.2019
6226 Clear 16 1012 87 10000 1 40 01:22 14.10.2019
6227 Clear 17 1013 77 10000 2.1 210 00:45 14.10.2019
6228 Clear 18 1013 77 10000 2.1 210 00:19 14.10.2019
6229 Clear 18 1013 77 10000 1.5 0 23:44 13.10.2019
6230 Clear 18 1013 77 10000 1.5 0 23:20 13.10.2019
6231 Clear 18 1013 77 10000 1.5 0 23:20 13.10.2019
6232 Clear 19 1013 72 10000 3.6 200 22:58 13.10.2019
6233 Clear 19 1013 72 10000 3.6 200 22:58 13.10.2019
6234 Clear 19 1013 72 10000 3.6 200 22:40 13.10.2019
6235 Clear 19 1013 72 10000 3.6 200 22:21 13.10.2019
6236 Clear 20 1013 68 10000 4.1 220 21:58 13.10.2019
6237 Clear 20 1013 68 10000 4.1 220 21:37 13.10.2019
6238 Clear 20 1013 68 10000 4.1 220 21:18 13.10.2019
6239 Clear 20 1013 68 10000 4.6 220 20:57 13.10.2019
6240 Clear 20 1013 68 10000 4.6 220 20:38 13.10.2019
6241 Clear 21 1013 68 10000 4.6 220 20:19 13.10.2019
6242 Clear 21 1013 64 10000 5.1 230 19:57 13.10.2019
6243 -273 0 0 0 0 0 19:57 13.10.2019
6244 Clear 21 1013 64 10000 5.1 230 19:57 13.10.2019
6245 Clear 21 1013 64 10000 5.1 230 19:39 13.10.2019
6246 Clear 21 1013 64 10000 5.1 230 19:39 13.10.2019
6247 Clear 21 1013 64 10000 5.1 230 19:20 13.10.2019
6248 -273 0 0 0 0 0 18:55 13.10.2019
6249 -273 0 0 0 0 0 18:55 13.10.2019
6250 Clear 23 1013 50 10000 5.1 220 18:54 13.10.2019
6251 Clear 23 1013 50 10000 5.1 220 18:36 13.10.2019
6252 Clear 24 1013 50 10000 5.1 220 18:18 13.10.2019
6253 Clear 25 1013 44 10000 6.2 210 17:42 13.10.2019
6254 Clear 25 1013 44 10000 6.2 210 17:42 13.10.2019
6255 Clear 25 1013 44 10000 6.2 210 17:42 13.10.2019
6256 Clear 25 1013 44 10000 6.2 210 17:24 13.10.2019
6257 Clear 25 1014 41 10000 7.2 210 16:45 13.10.2019
6258 Clear 25 1014 41 10000 7.2 210 16:45 13.10.2019
6259 Clear 25 1014 41 10000 7.2 210 16:21 13.10.2019
6260 Clear 25 1014 39 10000 6.7 200 15:59 13.10.2019
6261 Clear 27 1014 39 10000 6.7 200 15:40 13.10.2019
6262 Clear 26 1014 39 10000 6.7 200 15:22 13.10.2019
6263 Clear 25 1015 41 10000 8.2 200 14:59 13.10.2019
6264 Clear 26 1015 41 10000 8.2 200 14:40 13.10.2019
6265 Clear 26 1015 41 10000 8.2 200 14:22 13.10.2019
6266 Clear 27 1016 34 10000 4.1 190 13:59 13.10.2019
6267 Clear 27 1016 34 10000 4.1 190 13:39 13.10.2019
6268 Clear 27 1016 34 10000 4.1 190 13:21 13.10.2019
6269 Clear 26 1016 36 10000 5.1 210 12:56 13.10.2019
6270 Clear 25 1016 36 10000 5.1 210 12:38 13.10.2019
6271 Clear 25 1016 36 10000 5.1 210 12:19 13.10.2019
6272 Clouds 24 1017 31 10000 2.6 190 11:58 13.10.2019
6273 Clouds 25 1017 31 10000 2.6 190 11:38 13.10.2019
6274 Clouds 25 1017 31 10000 2.6 190 11:38 13.10.2019
6275 Clouds 25 1017 31 10000 2.6 190 11:19 13.10.2019
6276 Clouds 23 1017 38 10000 1.5 0 10:42 13.10.2019
6277 Clouds 24 1017 38 10000 1.5 0 10:23 13.10.2019
6278 Clouds 22 1017 49 10000 2.6 150 09:58 13.10.2019
6279 Clouds 21 1017 49 10000 2.6 150 09:38 13.10.2019
6280 Clouds 20 1017 49 10000 2.6 150 09:19 13.10.2019
6281 -273 0 0 0 0 0 08:43 13.10.2019
6282 Clouds 19 1018 59 10000 4.1 160 08:43 13.10.2019
6283 Clouds 19 1018 59 10000 4.1 160 08:23 13.10.2019
6284 Clouds 17 1017 77 10000 1 0 07:47 13.10.2019
6285 Clouds 17 1017 77 10000 1 0 07:28 13.10.2019
6286 Clouds 16 1018 77 10000 6.7 140 06:48 13.10.2019
6287 Clouds 16 1017 77 10000 7.2 140 05:57 13.10.2019
6288 Clouds 16 1017 77 10000 7.7 170 04:59 13.10.2019
6289 Clouds 16 1017 77 10000 7.7 170 04:33 13.10.2019
6290 Clouds 17 1018 72 10000 8.2 170 02:48 13.10.2019
6291 Clouds 17 1018 72 10000 8.2 170 02:23 13.10.2019
6292 Clear 17 1018 72 10000 8.7 190 01:34 13.10.2019
6293 Clear 17 1018 72 10000 8.7 190 01:34 13.10.2019
6294 Clear 17 1019 77 10000 7.2 190 00:52 13.10.2019
6295 Clear 17 1019 77 10000 7.2 190 00:52 13.10.2019
6296 Clear 17 1019 77 10000 7.2 190 00:22 13.10.2019
6297 Clear 17 1019 77 10000 7.2 180 23:59 12.10.2019
6298 Clear 17 1019 77 10000 7.2 180 23:40 12.10.2019
6299 Clear 17 1019 77 10000 7.2 180 23:21 12.10.2019
6300 Clear 16 1019 82 10000 5.7 170 22:58 12.10.2019
6301 Clear 16 1019 82 10000 5.7 170 22:39 12.10.2019
6302 Clear 17 1019 82 10000 5.7 170 22:21 12.10.2019
6303 Clear 17 1019 77 10000 8.2 170 21:55 12.10.2019
6304 Clear 17 1019 77 10000 8.2 170 21:37 12.10.2019
6305 Clear 17 1019 77 10000 8.2 170 21:19 12.10.2019
6306 Clear 17 1019 77 10000 9.3 180 20:43 12.10.2019
6307 Clear 17 1019 77 10000 9.3 180 20:25 12.10.2019
6308 Clouds 18 1019 72 10000 8.7 180 19:40 12.10.2019
6309 Clouds 18 1019 72 10000 8.7 180 19:22 12.10.2019
6310 Clouds 18 1019 72 10000 8.7 180 19:22 12.10.2019
6311 Clouds 18 1018 68 10000 9.8 180 18:59 12.10.2019
6312 Clouds 19 1018 68 10000 9.8 180 18:41 12.10.2019
6313 Clouds 19 1018 68 10000 9.8 180 18:23 12.10.2019
6314 Clouds 20 1018 60 10000 9.3 190 17:45 12.10.2019
6315 Clouds 20 1018 60 10000 9.3 190 17:20 12.10.2019
6316 Clouds 20 1018 56 10000 11.3 190 16:56 12.10.2019
6317 Clouds 20 1018 56 10000 11.3 190 16:38 12.10.2019
6318 Clouds 20 1018 56 10000 11.3 190 16:18 12.10.2019
6319 Clear 21 1018 52 10000 10.3 190 15:44 12.10.2019
6320 Clear 21 1018 52 10000 10.3 190 15:25 12.10.2019
6321 Clear 21 1018 52 10000 10.3 190 15:25 12.10.2019
6322 Clear 21 1018 52 10000 10.3 190 15:25 12.10.2019
6323 Clear 21 1018 52 10000 11.8 190 14:57 12.10.2019
6324 Clear 21 1018 52 10000 11.8 190 14:38 12.10.2019
6325 Clear 21 1018 52 10000 11.8 190 14:19 12.10.2019
6326 Clear 21 1019 52 10000 9.3 180 13:44 12.10.2019
6327 Clear 21 1019 52 10000 9.3 180 13:26 12.10.2019
6328 Clear 20 1019 52 10000 11.3 190 12:41 12.10.2019
6329 Clear 20 1019 52 10000 11.3 190 12:22 12.10.2019
6330 Clear 20 1019 52 10000 11.3 190 12:22 12.10.2019
6331 Clear 20 1019 52 10000 11.3 190 12:22 12.10.2019
6332 Clear 19 1019 55 10000 9.3 180 11:59 12.10.2019
6333 Clear 20 1019 55 10000 9.3 180 11:40 12.10.2019
6334 Clear 20 1019 55 10000 9.3 180 11:22 12.10.2019
6335 Clouds 19 1019 55 10000 9.8 180 10:56 12.10.2019
6336 Clouds 19 1019 55 10000 9.8 180 10:37 12.10.2019
6337 Clouds 19 1019 55 10000 9.8 180 10:18 12.10.2019
6338 -273 0 0 0 0 0 09:55 12.10.2019
6339 Clouds 19 1018 63 10000 8.7 180 09:55 12.10.2019
6340 Clouds 19 1018 63 10000 8.7 180 09:37 12.10.2019
6341 Clouds 18 1018 63 10000 8.7 180 09:18 12.10.2019
6342 Clouds 18 1018 63 10000 8.7 180 09:18 12.10.2019
6343 Clouds 17 1018 77 10000 8.7 190 08:41 12.10.2019
6344 Clouds 17 1018 77 10000 8.7 190 08:41 12.10.2019
6345 Clouds 17 1018 77 10000 8.7 190 08:20 12.10.2019
6346 Clouds 17 1018 77 10000 8.7 190 08:20 12.10.2019
6347 Clouds 15 1017 82 10000 6.2 200 07:36 12.10.2019
6348 Clouds 15 1017 82 10000 6.2 200 07:18 12.10.2019
6349 Clouds 15 1016 82 10000 6.7 190 05:53 12.10.2019
6350 Clouds 15 1016 82 10000 6.7 190 05:24 12.10.2019
6351 Clouds 15 1017 87 10000 7.7 190 04:29 12.10.2019
6352 Clear 15 1016 87 10000 7.2 200 03:42 12.10.2019
6353 Clear 15 1016 87 10000 5.7 220 02:28 12.10.2019
6354 Clear 15 1016 87 10000 5.7 220 01:30 12.10.2019
6355 Clear 15 1017 87 10000 4.6 210 00:44 12.10.2019
6356 Clear 15 1017 87 10000 4.6 210 00:24 12.10.2019
6357 Clear 16 1017 82 10000 6.2 210 23:41 11.10.2019
6358 Clear 16 1017 82 10000 6.2 210 23:21 11.10.2019
6359 Clear 16 1018 82 10000 8.2 200 22:59 11.10.2019
6360 Clear 16 1018 82 10000 8.2 200 22:37 11.10.2019
6361 Clear 16 1018 82 10000 8.2 200 22:37 11.10.2019
6362 Clear 16 1018 82 10000 8.2 200 22:18 11.10.2019
6363 Clear 16 1018 82 10000 8.2 200 21:40 11.10.2019
6364 Clear 16 1018 82 10000 8.2 200 21:21 11.10.2019
6365 Clear 16 1018 82 10000 8.7 190 20:55 11.10.2019
6366 Clear 16 1018 82 10000 8.7 190 20:37 11.10.2019
6367 Clear 16 1018 82 10000 8.7 190 20:18 11.10.2019
6368 Clear 17 1018 82 10000 8.7 190 19:55 11.10.2019
6369 Clear 17 1018 82 10000 8.7 190 19:36 11.10.2019
6370 Clear 17 1018 82 10000 8.7 190 19:18 11.10.2019
6371 Clear 18 1017 68 10000 9.3 190 18:54 11.10.2019
6372 Clear 18 1017 68 10000 9.3 190 18:36 11.10.2019
6373 Clear 19 1017 68 10000 9.3 190 18:18 11.10.2019
6374 Clear 19 1018 59 10000 7.7 190 17:54 11.10.2019
6375 Clear 20 1018 59 10000 7.7 190 17:36 11.10.2019
6376 Clear 19 1018 59 10000 7.7 190 17:18 11.10.2019
6377 Clear 21 1018 52 10000 7.7 180 16:39 11.10.2019
6378 Clear 21 1018 52 10000 7.7 180 16:19 11.10.2019
6379 Clear 23 1018 46 10000 7.2 180 15:57 11.10.2019
6380 Clear 22 1018 46 10000 7.2 180 15:37 11.10.2019
6381 Clear 22 1018 46 10000 7.2 180 15:18 11.10.2019
6382 Clear 22 1018 43 10000 6.7 200 14:44 11.10.2019
6383 Clear 22 1018 43 10000 6.7 200 14:25 11.10.2019
6384 Clear 22 1019 43 10000 5.1 190 13:47 11.10.2019
6385 Clear 23 1019 43 10000 5.1 190 13:27 11.10.2019
6386 Clear 23 1020 40 10000 5.1 200 12:59 11.10.2019
6387 Clear 22 1020 40 10000 5.1 200 12:41 11.10.2019
6388 Clear 23 1020 40 10000 5.1 200 12:22 11.10.2019
6389 Clear 21 1020 43 10000 3.1 220 11:59 11.10.2019
6390 Clear 21 1020 43 10000 3.1 220 11:39 11.10.2019
6391 Clear 20 1020 43 10000 3.1 220 11:21 11.10.2019
6392 Clear 21 1020 46 10000 2.6 220 10:56 11.10.2019
6393 Clear 20 1020 59 10000 3.1 230 10:38 11.10.2019
6394 Clear 20 1020 59 10000 3.1 230 10:20 11.10.2019
6395 Clear 19 1020 59 10000 2.1 180 09:54 11.10.2019
6396 Clear 19 1020 59 10000 2.1 180 09:54 11.10.2019
6397 Clear 19 1020 59 10000 2.1 180 09:36 11.10.2019
6398 Clear 18 1020 59 10000 2.1 180 09:18 11.10.2019
6399 Clear 17 1020 77 10000 0.5 0 08:40 11.10.2019
6400 Clear 16 1020 77 10000 0.5 0 08:21 11.10.2019
6401 Clear 16 1020 87 10000 0.5 0 07:59 11.10.2019
6402 Clear 15 1020 87 10000 0.5 0 07:40 11.10.2019
6403 Clear 13 1020 87 10000 1.5 0 07:20 11.10.2019
6404 Clear 13 1020 93 10000 1 80 06:44 11.10.2019
6405 Clear 13 1020 93 10000 1 80 06:21 11.10.2019
6406 Clear 13 1020 87 10000 3.6 220 05:37 11.10.2019
6407 Clear 13 1020 87 10000 2.6 240 04:59 11.10.2019
6408 Clear 14 1020 87 10000 2.6 240 04:24 11.10.2019
6409 Clear 14 1021 76 10000 3.1 150 02:18 11.10.2019
6410 Clear 15 1022 82 10000 3.6 230 00:43 11.10.2019
6411 Clear 15 1022 82 10000 3.6 230 00:25 11.10.2019
6412 Clear 15 1022 77 10000 3.6 240 23:43 10.10.2019
6413 Clear 15 1022 77 10000 3.6 240 23:21 10.10.2019
6414 Clear 16 1023 72 10000 4.1 200 22:57 10.10.2019
6415 Clear 16 1023 72 10000 4.1 200 22:39 10.10.2019
6416 Clear 15 1023 72 10000 4.1 200 22:20 10.10.2019
6417 Clear 16 1024 72 10000 4.6 200 21:57 10.10.2019
6418 Clear 16 1024 72 10000 4.6 200 21:38 10.10.2019
6419 Clear 16 1024 72 10000 4.6 200 21:20 10.10.2019
6420 Clear 16 1024 72 10000 5.7 220 20:42 10.10.2019
6421 Clear 16 1024 72 10000 5.7 220 20:22 10.10.2019
6422 Clouds 16 1024 67 10000 8.2 200 19:59 10.10.2019
6423 Clouds 16 1024 67 10000 8.2 200 19:41 10.10.2019
6424 Clouds 17 1024 67 10000 8.2 200 19:20 10.10.2019
6425 Clear 17 1024 63 10000 7.7 190 18:59 10.10.2019
6426 Clear 17 1024 63 10000 7.7 190 18:39 10.10.2019
6427 Clear 17 1024 63 10000 7.7 190 18:20 10.10.2019
6428 Clear 18 1024 52 10000 7.7 190 17:55 10.10.2019
6429 Clear 19 1024 52 10000 7.7 190 17:36 10.10.2019
6430 Clear 19 1024 52 10000 7.7 190 17:18 10.10.2019
6431 Clear 19 1024 40 10000 5.1 210 16:44 10.10.2019
6432 Clear 19 1024 40 10000 5.1 210 16:44 10.10.2019
6433 Clear 19 1024 40 10000 5.1 210 16:26 10.10.2019
6434 Clear 20 1024 43 10000 6.2 190 15:57 10.10.2019
6435 Clear 20 1024 43 10000 6.2 190 15:37 10.10.2019
6436 Clear 21 1025 34 10000 1.5 0 15:19 10.10.2019
6437 Clear 21 1025 34 10000 1.5 0 14:54 10.10.2019
6438 Clear 21 1025 34 10000 1.5 0 14:36 10.10.2019
6439 Clear 21 1025 34 10000 1.5 0 14:18 10.10.2019
6440 Clear 21 1025 37 10000 3.6 230 13:41 10.10.2019
6441 Clear 20 1025 37 10000 3.6 230 13:23 10.10.2019
6442 Clear 20 1025 37 10000 3.1 240 12:57 10.10.2019
6443 Clear 20 1025 37 10000 3.1 240 12:39 10.10.2019
6444 Clear 19 1025 37 10000 3.1 240 12:20 10.10.2019
6445 Clear 19 1025 34 10000 2.6 290 11:56 10.10.2019
6446 Clear 19 1025 34 10000 2.6 290 11:38 10.10.2019
6447 Clear 19 1025 34 10000 2.6 290 11:19 10.10.2019
6448 Clear 18 1026 36 10000 1 0 10:44 10.10.2019
6449 Clear 18 1026 36 10000 1 0 10:26 10.10.2019
6450 Clear 17 1026 38 10000 1 0 09:56 10.10.2019
6451 Clear 17 1026 38 10000 1 0 09:38 10.10.2019
6452 Clear 17 1026 38 10000 1 0 09:38 10.10.2019
6453 Clear 16 1026 38 10000 1 0 09:19 10.10.2019
6454 Clear 15 1027 54 10000 2.1 160 08:56 10.10.2019
6455 Clear 15 1027 54 10000 2.1 160 08:37 10.10.2019
6456 Clear 15 1027 54 10000 2.1 160 08:18 10.10.2019
6457 Clear 15 1027 54 10000 2.1 160 08:18 10.10.2019
6458 Clear 13 1027 62 10000 5.1 140 07:42 10.10.2019
6459 Clear 13 1027 62 10000 5.1 140 07:20 10.10.2019
6460 Clear 12 1027 62 10000 8.2 160 06:46 10.10.2019
6461 Clear 12 1027 62 10000 8.2 160 06:26 10.10.2019
6462 Clear 12 1027 62 10000 8.2 170 05:27 10.10.2019
6463 Clear 12 1027 62 10000 7.7 170 04:39 10.10.2019
6464 Clear 11 1027 62 10000 7.7 170 04:21 10.10.2019
6465 Clear 12 1029 71 10000 3.6 140 01:43 10.10.2019
6466 Clear 12 1029 71 10000 3.6 140 01:43 10.10.2019
6467 Clear 12 1029 71 10000 3.6 140 01:24 10.10.2019
6468 Clouds 12 1029 71 10000 4.1 130 00:53 10.10.2019
6469 Clouds 12 1029 71 10000 4.1 130 00:22 10.10.2019
6470 Clouds 12 1029 71 10000 3.1 130 23:40 09.10.2019
6471 Clouds 12 1029 71 10000 3.1 130 23:20 09.10.2019
6472 Clouds 12 1029 66 10000 3.6 140 22:56 09.10.2019
6473 Clouds 12 1029 66 10000 3.6 140 22:37 09.10.2019
6474 Clouds 12 1029 66 10000 3.6 140 22:19 09.10.2019
6475 Clouds 13 1028 62 10000 3.1 140 21:40 09.10.2019
6476 Clouds 13 1028 62 10000 3.1 140 21:21 09.10.2019
6477 Clouds 13 1027 62 10000 5.7 150 20:56 09.10.2019
6478 Clouds 13 1027 62 10000 5.7 150 20:38 09.10.2019
6479 Clouds 13 1027 62 10000 5.7 150 20:38 09.10.2019
6480 Clouds 13 1027 62 10000 5.7 150 20:19 09.10.2019
6481 Clouds 13 1027 58 10000 6.2 160 19:58 09.10.2019
6482 Clouds 14 1027 58 10000 6.2 160 19:39 09.10.2019
6483 Clouds 14 1027 58 10000 6.2 160 19:20 09.10.2019
6484 Clouds 15 1026 44 10000 7.7 180 18:38 09.10.2019
6485 Clouds 15 1026 44 10000 7.7 180 18:19 09.10.2019
6486 Clouds 15 1026 44 10000 9.3 180 17:57 09.10.2019
6487 Clouds 15 1026 44 10000 9.3 180 17:37 09.10.2019
6488 Clouds 16 1026 44 10000 9.3 180 17:19 09.10.2019
6489 Clouds 16 1025 48 10000 8.7 180 16:55 09.10.2019
6490 Clouds 16 1025 48 10000 8.7 180 16:36 09.10.2019
6491 Clouds 17 1025 55 10000 5.1 190 16:18 09.10.2019
6492 Clouds 16 1025 55 10000 5.1 190 15:55 09.10.2019
6493 Clouds 16 1025 55 10000 5.1 190 15:55 09.10.2019
6494 Clouds 17 1025 55 10000 5.1 190 15:36 09.10.2019
6495 Clouds 17 1025 55 10000 5.1 190 15:36 09.10.2019
6496 Clouds 16 1025 55 10000 5.1 190 15:18 09.10.2019
6497 Rain 17 1026 48 8000 9.3 180 14:42 09.10.2019
6498 Rain 17 1026 48 8000 9.3 180 14:42 09.10.2019
6499 Rain 17 1026 48 8000 9.3 180 14:18 09.10.2019
6500 Clouds 17 1025 48 10000 8.2 190 13:58 09.10.2019
6501 Clouds 16 1025 48 10000 8.2 190 13:36 09.10.2019
6502 Clouds 17 1025 48 10000 8.2 190 13:18 09.10.2019
6503 Clouds 17 1025 42 10000 7.7 200 12:42 09.10.2019
6504 Clouds 17 1025 33 10000 7.7 210 12:22 09.10.2019
6505 Clouds 16 1025 44 10000 8.7 200 11:58 09.10.2019
6506 Clouds 16 1025 44 10000 8.7 200 11:39 09.10.2019
6507 Clouds 16 1025 44 10000 8.7 200 11:20 09.10.2019
6508 Clouds 16 1024 47 10000 9.3 220 10:57 09.10.2019
6509 Clouds 16 1024 47 10000 9.3 220 10:57 09.10.2019
6510 Clouds 15 1024 47 10000 9.3 220 10:39 09.10.2019
6511 Clouds 15 1024 47 10000 9.3 220 10:18 09.10.2019
6512 Clouds 15 1023 58 10000 7.2 200 09:42 09.10.2019
6513 Clouds 15 1023 58 10000 7.2 200 09:20 09.10.2019
6514 Clouds 15 1022 71 10000 5.7 210 08:57 09.10.2019
6515 Clouds 14 1022 71 10000 5.7 210 08:37 09.10.2019
6516 Clouds 14 1022 71 10000 5.7 210 08:18 09.10.2019
6517 Clouds 14 1021 82 10000 4.6 200 07:43 09.10.2019
6518 Clouds 14 1021 82 10000 4.6 200 07:24 09.10.2019
6519 Clouds 13 1020 82 10000 6.7 210 06:54 09.10.2019
6520 Clouds 14 1020 76 10000 7.2 220 06:20 09.10.2019
6521 Clouds 14 1019 76 10000 5.1 210 05:46 09.10.2019
6522 Clouds 14 1019 76 10000 3.1 230 04:41 09.10.2019
6523 Clouds 14 1018 87 10000 7.12 223.388 03:24 09.10.2019
6524 Clouds 14 1019 62 10000 2.1 160 01:48 09.10.2019
6525 Clouds 14 1019 62 10000 2.1 160 01:22 09.10.2019
6526 Clouds 14 1019 72 10000 2.6 200 00:59 09.10.2019
6527 Clouds 15 1019 72 10000 2.6 200 00:40 09.10.2019
6528 Clouds 15 1019 72 10000 2.6 200 00:22 09.10.2019
6529 Clouds 15 1019 72 10000 2.6 200 00:22 09.10.2019
6530 Clouds 15 1018 87 10000 3.1 180 23:58 08.10.2019
6531 Clouds 15 1018 87 10000 3.1 180 23:37 08.10.2019
6532 Clouds 15 1018 87 10000 3.1 180 23:18 08.10.2019
6533 Clouds 16 1018 93 10000 2.1 310 22:40 08.10.2019
6534 Clouds 16 1018 93 10000 2.1 310 22:21 08.10.2019
6535 Clouds 16 1018 93 10000 2.1 300 21:58 08.10.2019
6536 Clouds 16 1018 93 10000 2.1 300 21:39 08.10.2019
6537 Clouds 16 1018 93 10000 2.1 300 21:39 08.10.2019
6538 Clouds 16 1018 93 10000 2.1 300 21:20 08.10.2019
6539 Rain 16 1017 93 8000 6.7 320 20:58 08.10.2019
6540 Rain 16 1017 93 8000 6.7 320 20:39 08.10.2019
6541 Rain 16 1017 93 8000 6.7 320 20:21 08.10.2019
6542 Clouds 17 1016 72 10000 7.7 320 19:59 08.10.2019
6543 Clouds 17 1016 72 10000 7.7 320 19:41 08.10.2019
6544 Clouds 17 1016 72 10000 7.7 320 19:23 08.10.2019
6545 Clouds 18 1016 63 10000 4.6 310 18:57 08.10.2019
6546 Clouds 18 1016 63 10000 4.6 310 18:39 08.10.2019
6547 Clouds 18 1016 63 10000 4.6 310 18:19 08.10.2019
6548 Clouds 18 1015 59 10000 7.2 320 17:55 08.10.2019
6549 Clouds 19 1015 59 10000 7.2 320 17:55 08.10.2019
6550 Clouds 19 1015 59 10000 7.2 320 17:36 08.10.2019
6551 Clouds 19 1015 59 10000 7.2 320 17:18 08.10.2019
6552 Clouds 19 1015 59 10000 7.2 310 16:40 08.10.2019
6553 Clouds 19 1015 59 10000 7.2 310 16:22 08.10.2019
6554 Clouds 19 1016 63 10000 7.2 340 15:56 08.10.2019
6555 Clouds 19 1016 63 10000 7.2 340 15:37 08.10.2019
6556 Clouds 19 1016 63 10000 7.2 340 15:19 08.10.2019
6557 Clouds 19 1016 59 10000 7.7 310 14:42 08.10.2019
6558 Clouds 19 1016 59 10000 7.7 310 14:21 08.10.2019
6559 Clouds 19 1016 55 10000 8.2 310 13:58 08.10.2019
6560 Clouds 19 1016 55 10000 8.2 310 13:39 08.10.2019
6561 Clouds 19 1016 55 10000 8.2 310 13:39 08.10.2019
6562 Clouds 19 1016 55 10000 8.2 310 13:20 08.10.2019
6563 Clouds 20 1016 52 10000 9.3 320 12:59 08.10.2019
6564 Clouds 20 1016 52 10000 9.3 320 12:38 08.10.2019
6565 Clouds 20 1016 52 10000 9.3 320 12:19 08.10.2019
6566 Clouds 19 1017 52 10000 9.3 320 11:43 08.10.2019
6567 Clouds 19 1017 52 10000 9.3 320 11:24 08.10.2019
6568 Clouds 19 1017 55 10000 8.7 330 10:59 08.10.2019
6569 Clouds 19 1017 55 10000 8.7 330 10:40 08.10.2019
6570 Clouds 19 1017 55 10000 8.7 330 10:21 08.10.2019
6571 Clouds 18 1017 63 10000 5.1 350 09:58 08.10.2019
6572 Clouds 18 1017 63 10000 5.1 350 09:39 08.10.2019
6573 Clouds 17 1017 63 10000 5.1 350 09:20 08.10.2019
6574 Clouds 17 1017 67 10000 6.7 350 08:44 08.10.2019
6575 Clouds 16 1017 67 10000 6.7 350 08:25 08.10.2019
6576 Clouds 15 1017 72 10000 5.7 350 07:47 08.10.2019
6577 Clouds 15 1017 76 10000 3.6 20 07:23 08.10.2019
6578 Clouds 14 1017 76 10000 3.1 360 06:57 08.10.2019
6579 Clouds 14 1017 76 10000 3.1 360 06:35 08.10.2019
6580 Clear 13 1016 82 10000 2.6 10 05:58 08.10.2019
6581 Clear 13 1016 82 10000 2.6 10 05:38 08.10.2019
6582 Clear 14 1016 82 10000 3.1 50 04:55 08.10.2019
6583 Clear 14 1016 87 10000 4.6 350 03:30 08.10.2019
6584 Clear 14 1016 87 10000 4.6 340 02:40 08.10.2019
6585 Clouds 15 1017 82 10000 3.6 330 01:51 08.10.2019
6586 Clouds 15 1017 82 10000 3.6 330 01:32 08.10.2019
6587 Clouds 15 1017 87 10000 4.1 350 00:55 08.10.2019
6588 Clouds 15 1017 87 10000 4.1 350 00:22 08.10.2019
6589 Clouds 15 1018 87 10000 4.1 320 23:43 07.10.2019
6590 Clouds 15 1018 87 10000 4.1 320 23:21 07.10.2019
6591 Clouds 16 1018 82 10000 3.6 320 22:58 07.10.2019
6592 Clouds 16 1018 82 10000 3.6 320 22:58 07.10.2019
6593 Clouds 15 1018 82 10000 3.6 320 22:40 07.10.2019
6594 Clouds 16 1018 82 10000 3.6 320 22:21 07.10.2019
6595 Clouds 16 1019 82 10000 3.6 320 21:58 07.10.2019
6596 Clouds 16 1019 82 10000 3.6 320 21:40 07.10.2019
6597 Clouds 16 1019 82 10000 3.6 320 21:20 07.10.2019
6598 Clouds 17 1018 82 10000 5.1 330 20:58 07.10.2019
6599 Clouds 17 1018 82 10000 5.1 330 20:39 07.10.2019
6600 Clouds 17 1018 82 10000 5.1 330 20:21 07.10.2019
6601 Clouds 17 1017 82 10000 5.7 320 19:59 07.10.2019
6602 Clouds 17 1017 82 10000 5.7 320 19:59 07.10.2019
6603 Clouds 17 1017 82 10000 5.7 320 19:40 07.10.2019
6604 Clouds 17 1017 82 10000 5.7 320 19:20 07.10.2019
6605 Clouds 17 1017 82 10000 6.2 320 18:58 07.10.2019
6606 Clouds 17 1017 82 10000 6.2 320 18:38 07.10.2019
6607 Clouds 18 1017 82 10000 6.2 320 18:19 07.10.2019
6608 Clouds 19 1016 72 10000 7.7 320 17:43 07.10.2019
6609 Clouds 19 1016 72 10000 7.7 320 17:23 07.10.2019
6610 Clouds 20 1016 60 10000 7.7 290 16:59 07.10.2019
6611 Clouds 20 1016 60 10000 7.7 290 16:41 07.10.2019
6612 Clouds 20 1016 60 10000 7.7 290 16:22 07.10.2019
6613 Clouds 20 1016 52 10000 9.3 300 15:46 07.10.2019
6614 Clouds 21 1016 52 10000 9.3 300 15:26 07.10.2019
6615 Clouds 21 1016 56 10000 8.2 310 14:58 07.10.2019
6616 Clouds 21 1016 56 10000 8.2 310 14:40 07.10.2019
6617 Clouds 21 1016 56 10000 8.2 310 14:22 07.10.2019
6618 Clouds 21 1016 49 10000 8.7 320 13:43 07.10.2019
6619 Clouds 21 1016 49 10000 8.7 320 13:21 07.10.2019
6620 Clouds 21 1017 56 10000 8.2 310 12:57 07.10.2019
6621 Clouds 21 1017 56 10000 8.2 310 12:39 07.10.2019
6622 Clouds 21 1017 56 10000 8.2 310 12:19 07.10.2019
6623 Clouds 20 1017 60 10000 8.2 320 11:58 07.10.2019
6624 Clouds 19 1017 60 10000 8.2 320 11:38 07.10.2019
6625 Clouds 19 1017 60 10000 8.2 320 11:20 07.10.2019
6626 Clouds 19 1017 72 10000 5.7 310 10:42 07.10.2019
6627 Clouds 19 1017 72 10000 5.7 330 10:21 07.10.2019
6628 Clouds 19 1017 72 10000 5.7 330 09:56 07.10.2019
6629 Clouds 19 1017 72 10000 5.7 330 09:38 07.10.2019
6630 Clouds 18 1017 72 10000 5.7 330 09:19 07.10.2019
6631 Clouds 18 1017 72 10000 5.1 350 08:42 07.10.2019
6632 Clouds 17 1017 82 10000 4.6 350 08:20 07.10.2019
6633 Clouds 15 1016 93 7000 3.1 30 07:46 07.10.2019
6634 Clouds 15 1016 93 7000 3.1 30 07:27 07.10.2019
6635 Mist 14 1016 93 5000 3.1 40 06:57 07.10.2019
6636 Clouds 14 1016 93 10000 3.1 20 06:38 07.10.2019
6637 Clouds 14 1015 93 10000 2.6 20 05:56 07.10.2019
6638 Clouds 14 1015 93 10000 2.6 20 05:25 07.10.2019
6639 Clouds 14 1015 93 10000 2.1 320 04:47 07.10.2019
6640 Clouds 15 1015 87 10000 3.1 330 03:45 07.10.2019
6641 Clouds 15 1015 87 10000 3.1 330 03:45 07.10.2019
6642 Clouds 15 1015 87 10000 3.1 330 03:27 07.10.2019
6643 Clouds 15 1015 77 10000 3.1 300 02:23 07.10.2019
6644 Clouds 15 1016 82 10000 2.1 270 01:58 07.10.2019
6645 Clouds 16 1016 82 10000 2.1 270 01:23 07.10.2019
6646 Clouds 16 1015 82 10000 1 0 00:49 07.10.2019
6647 Clouds 16 1015 82 10000 1 0 00:23 07.10.2019
6648 Clouds 16 1015 82 10000 3.1 200 23:59 06.10.2019
6649 Clouds 16 1015 82 10000 3.1 200 23:39 06.10.2019
6650 Clouds 17 1015 82 10000 3.1 200 23:18 06.10.2019
6651 Clouds 16 1015 82 10000 3.1 200 22:54 06.10.2019
6652 Clouds 16 1015 82 10000 3.1 200 22:36 06.10.2019
6653 Clouds 16 1015 82 10000 3.1 200 22:18 06.10.2019
6654 Clouds 16 1015